<?xml version="1.0" encoding="UTF-8" standalone="no" ?>
<gpx xmlns="http://www.topografix.com/GPX/1/1" xmlns:xsi="http://www.w3.org/2001/XMLSchema-instance" xsi:schemaLocation="http://www.topografix.com/GPX/1/1 http://www.topografix.com/GPX/1/1/gpx.xsd" version="1.1" creator="VisuGPX - https://www.visugpx.com">
  <metadata>
    <name>Lorge 47 km vtt</name>
  </metadata>
  <trk>
    <name><![CDATA[Lorge 47 km vtt]]></name>
    <extensions>
      <line xmlns="http://www.topografix.com/GPX/gpx_style/0/2">
        <width>4</width>
      </line>
    </extensions>
    <trkseg>
      <trkpt lat="48.33149" lon="-2.82809">
        <ele>243.6</ele>
        <time>2020-07-02T15:47:30.000Z</time>
      </trkpt>
      <trkpt lat="48.33145" lon="-2.82757">
        <ele>243.2</ele>
        <time>2020-07-02T15:47:36.000Z</time>
      </trkpt>
      <trkpt lat="48.33165" lon="-2.82721">
        <ele>244.6</ele>
        <time>2020-07-02T15:47:43.000Z</time>
      </trkpt>
      <trkpt lat="48.33232" lon="-2.82813">
        <ele>240.5</ele>
        <time>2020-07-02T15:47:49.000Z</time>
      </trkpt>
      <trkpt lat="48.33227" lon="-2.82701">
        <ele>245.8</ele>
        <time>2020-07-02T15:47:50.872Z</time>
      </trkpt>
      <trkpt lat="48.3321" lon="-2.82589">
        <ele>246.4</ele>
        <time>2020-07-02T15:47:52.765Z</time>
      </trkpt>
      <trkpt lat="48.33259" lon="-2.82579">
        <ele>244.4</ele>
        <time>2020-07-02T15:47:54.000Z</time>
      </trkpt>
      <trkpt lat="48.33257" lon="-2.82516">
        <ele>241</ele>
        <time>2020-07-02T15:48:00.000Z</time>
      </trkpt>
      <trkpt lat="48.33256" lon="-2.82501">
        <ele>241.1</ele>
        <time>2020-07-02T15:48:04.000Z</time>
      </trkpt>
      <trkpt lat="48.33254" lon="-2.82484">
        <ele>241.1</ele>
        <time>2020-07-02T15:48:08.000Z</time>
      </trkpt>
      <trkpt lat="48.33254" lon="-2.82466">
        <ele>241.1</ele>
        <time>2020-07-02T15:48:11.000Z</time>
      </trkpt>
      <trkpt lat="48.33255" lon="-2.82451">
        <ele>241</ele>
        <time>2020-07-02T15:48:14.000Z</time>
      </trkpt>
      <trkpt lat="48.33254" lon="-2.82433">
        <ele>241</ele>
        <time>2020-07-02T15:48:17.000Z</time>
      </trkpt>
      <trkpt lat="48.33254" lon="-2.82415">
        <ele>241.1</ele>
        <time>2020-07-02T15:48:20.000Z</time>
      </trkpt>
      <trkpt lat="48.33254" lon="-2.82398">
        <ele>241.1</ele>
        <time>2020-07-02T15:48:23.000Z</time>
      </trkpt>
      <trkpt lat="48.33254" lon="-2.82383">
        <ele>241.2</ele>
        <time>2020-07-02T15:48:27.000Z</time>
      </trkpt>
      <trkpt lat="48.33263" lon="-2.82372">
        <ele>241.3</ele>
        <time>2020-07-02T15:48:31.000Z</time>
      </trkpt>
      <trkpt lat="48.33266" lon="-2.82355">
        <ele>241.5</ele>
        <time>2020-07-02T15:48:35.000Z</time>
      </trkpt>
      <trkpt lat="48.33268" lon="-2.82338">
        <ele>241.7</ele>
        <time>2020-07-02T15:48:39.000Z</time>
      </trkpt>
      <trkpt lat="48.33269" lon="-2.82324">
        <ele>241.8</ele>
        <time>2020-07-02T15:48:42.000Z</time>
      </trkpt>
      <trkpt lat="48.33272" lon="-2.82309">
        <ele>241.8</ele>
        <time>2020-07-02T15:48:45.000Z</time>
      </trkpt>
      <trkpt lat="48.33279" lon="-2.82292">
        <ele>241.8</ele>
        <time>2020-07-02T15:48:48.000Z</time>
      </trkpt>
      <trkpt lat="48.33284" lon="-2.82278">
        <ele>241.6</ele>
        <time>2020-07-02T15:48:50.000Z</time>
      </trkpt>
      <trkpt lat="48.33289" lon="-2.82261">
        <ele>241.3</ele>
        <time>2020-07-02T15:48:52.000Z</time>
      </trkpt>
      <trkpt lat="48.3329" lon="-2.82241">
        <ele>240.8</ele>
        <time>2020-07-02T15:48:54.000Z</time>
      </trkpt>
      <trkpt lat="48.33285" lon="-2.8222">
        <ele>240.2</ele>
        <time>2020-07-02T15:48:56.000Z</time>
      </trkpt>
      <trkpt lat="48.33277" lon="-2.82199">
        <ele>239.5</ele>
        <time>2020-07-02T15:48:58.000Z</time>
      </trkpt>
      <trkpt lat="48.33268" lon="-2.82179">
        <ele>238.8</ele>
        <time>2020-07-02T15:49:00.000Z</time>
      </trkpt>
      <trkpt lat="48.33259" lon="-2.82161">
        <ele>238.1</ele>
        <time>2020-07-02T15:49:02.000Z</time>
      </trkpt>
      <trkpt lat="48.33254" lon="-2.82146">
        <ele>237.5</ele>
        <time>2020-07-02T15:49:04.000Z</time>
      </trkpt>
      <trkpt lat="48.33251" lon="-2.8213">
        <ele>236.6</ele>
        <time>2020-07-02T15:49:07.000Z</time>
      </trkpt>
      <trkpt lat="48.3326" lon="-2.82123">
        <ele>235.8</ele>
        <time>2020-07-02T15:49:10.000Z</time>
      </trkpt>
      <trkpt lat="48.3327" lon="-2.82127">
        <ele>235.2</ele>
        <time>2020-07-02T15:49:12.000Z</time>
      </trkpt>
      <trkpt lat="48.33282" lon="-2.82132">
        <ele>234.6</ele>
        <time>2020-07-02T15:49:14.000Z</time>
      </trkpt>
      <trkpt lat="48.33295" lon="-2.82139">
        <ele>234</ele>
        <time>2020-07-02T15:49:16.000Z</time>
      </trkpt>
      <trkpt lat="48.3331" lon="-2.82145">
        <ele>233.5</ele>
        <time>2020-07-02T15:49:18.000Z</time>
      </trkpt>
      <trkpt lat="48.33326" lon="-2.82151">
        <ele>232.9</ele>
        <time>2020-07-02T15:49:20.000Z</time>
      </trkpt>
      <trkpt lat="48.33341" lon="-2.82158">
        <ele>232.3</ele>
        <time>2020-07-02T15:49:22.000Z</time>
      </trkpt>
      <trkpt lat="48.33357" lon="-2.82165">
        <ele>231.6</ele>
        <time>2020-07-02T15:49:24.000Z</time>
      </trkpt>
      <trkpt lat="48.33373" lon="-2.82172">
        <ele>230.9</ele>
        <time>2020-07-02T15:49:26.000Z</time>
      </trkpt>
      <trkpt lat="48.33389" lon="-2.8218">
        <ele>230.3</ele>
        <time>2020-07-02T15:49:28.000Z</time>
      </trkpt>
      <trkpt lat="48.33406" lon="-2.82188">
        <ele>229.7</ele>
        <time>2020-07-02T15:49:30.000Z</time>
      </trkpt>
      <trkpt lat="48.33415" lon="-2.82192">
        <ele>229.4</ele>
        <time>2020-07-02T15:49:31.000Z</time>
      </trkpt>
      <trkpt lat="48.33423" lon="-2.82195">
        <ele>229.1</ele>
        <time>2020-07-02T15:49:32.000Z</time>
      </trkpt>
      <trkpt lat="48.33439" lon="-2.82203">
        <ele>228.4</ele>
        <time>2020-07-02T15:49:34.000Z</time>
      </trkpt>
      <trkpt lat="48.33453" lon="-2.8221">
        <ele>227.7</ele>
        <time>2020-07-02T15:49:36.000Z</time>
      </trkpt>
      <trkpt lat="48.33465" lon="-2.82218">
        <ele>227.1</ele>
        <time>2020-07-02T15:49:38.000Z</time>
      </trkpt>
      <trkpt lat="48.33474" lon="-2.82218">
        <ele>226.4</ele>
        <time>2020-07-02T15:49:40.000Z</time>
      </trkpt>
      <trkpt lat="48.3348" lon="-2.822">
        <ele>225.4</ele>
        <time>2020-07-02T15:49:43.000Z</time>
      </trkpt>
      <trkpt lat="48.33481" lon="-2.82184">
        <ele>224.7</ele>
        <time>2020-07-02T15:49:45.000Z</time>
      </trkpt>
      <trkpt lat="48.33482" lon="-2.82166">
        <ele>224.2</ele>
        <time>2020-07-02T15:49:47.000Z</time>
      </trkpt>
      <trkpt lat="48.33483" lon="-2.82146">
        <ele>223.7</ele>
        <time>2020-07-02T15:49:49.000Z</time>
      </trkpt>
      <trkpt lat="48.33483" lon="-2.82125">
        <ele>223.1</ele>
        <time>2020-07-02T15:49:51.000Z</time>
      </trkpt>
      <trkpt lat="48.33483" lon="-2.82103">
        <ele>222.6</ele>
        <time>2020-07-02T15:49:53.000Z</time>
      </trkpt>
      <trkpt lat="48.33482" lon="-2.82081">
        <ele>222.2</ele>
        <time>2020-07-02T15:49:55.000Z</time>
      </trkpt>
      <trkpt lat="48.33483" lon="-2.82061">
        <ele>221.8</ele>
        <time>2020-07-02T15:49:57.000Z</time>
      </trkpt>
      <trkpt lat="48.33483" lon="-2.82042">
        <ele>221.5</ele>
        <time>2020-07-02T15:49:59.000Z</time>
      </trkpt>
      <trkpt lat="48.33483" lon="-2.82026">
        <ele>221.2</ele>
        <time>2020-07-02T15:50:01.000Z</time>
      </trkpt>
      <trkpt lat="48.33484" lon="-2.82012">
        <ele>221.1</ele>
        <time>2020-07-02T15:50:03.000Z</time>
      </trkpt>
      <trkpt lat="48.33484" lon="-2.81992">
        <ele>221</ele>
        <time>2020-07-02T15:50:06.000Z</time>
      </trkpt>
      <trkpt lat="48.33489" lon="-2.81976">
        <ele>221.4</ele>
        <time>2020-07-02T15:50:09.000Z</time>
      </trkpt>
      <trkpt lat="48.33493" lon="-2.8196">
        <ele>222.1</ele>
        <time>2020-07-02T15:50:12.000Z</time>
      </trkpt>
      <trkpt lat="48.33496" lon="-2.81945">
        <ele>222.6</ele>
        <time>2020-07-02T15:50:15.000Z</time>
      </trkpt>
      <trkpt lat="48.335" lon="-2.81929">
        <ele>223.1</ele>
        <time>2020-07-02T15:50:18.000Z</time>
      </trkpt>
      <trkpt lat="48.33505" lon="-2.81911">
        <ele>223.3</ele>
        <time>2020-07-02T15:50:21.000Z</time>
      </trkpt>
      <trkpt lat="48.33509" lon="-2.81897">
        <ele>223.4</ele>
        <time>2020-07-02T15:50:23.000Z</time>
      </trkpt>
      <trkpt lat="48.33514" lon="-2.81883">
        <ele>223.4</ele>
        <time>2020-07-02T15:50:25.000Z</time>
      </trkpt>
      <trkpt lat="48.33519" lon="-2.81869">
        <ele>223.3</ele>
        <time>2020-07-02T15:50:27.000Z</time>
      </trkpt>
      <trkpt lat="48.33526" lon="-2.81856">
        <ele>223.1</ele>
        <time>2020-07-02T15:50:29.000Z</time>
      </trkpt>
      <trkpt lat="48.33533" lon="-2.81843">
        <ele>222.8</ele>
        <time>2020-07-02T15:50:31.000Z</time>
      </trkpt>
      <trkpt lat="48.33542" lon="-2.81829">
        <ele>222.4</ele>
        <time>2020-07-02T15:50:33.000Z</time>
      </trkpt>
      <trkpt lat="48.33551" lon="-2.81816">
        <ele>222.1</ele>
        <time>2020-07-02T15:50:35.000Z</time>
      </trkpt>
      <trkpt lat="48.3356" lon="-2.81804">
        <ele>221.7</ele>
        <time>2020-07-02T15:50:37.000Z</time>
      </trkpt>
      <trkpt lat="48.33569" lon="-2.81791">
        <ele>221.3</ele>
        <time>2020-07-02T15:50:39.000Z</time>
      </trkpt>
      <trkpt lat="48.33577" lon="-2.81779">
        <ele>220.9</ele>
        <time>2020-07-02T15:50:41.000Z</time>
      </trkpt>
      <trkpt lat="48.33586" lon="-2.81766">
        <ele>220.6</ele>
        <time>2020-07-02T15:50:43.000Z</time>
      </trkpt>
      <trkpt lat="48.33593" lon="-2.81752">
        <ele>220.3</ele>
        <time>2020-07-02T15:50:45.000Z</time>
      </trkpt>
      <trkpt lat="48.33599" lon="-2.81738">
        <ele>219.9</ele>
        <time>2020-07-02T15:50:47.000Z</time>
      </trkpt>
      <trkpt lat="48.33604" lon="-2.81723">
        <ele>219.6</ele>
        <time>2020-07-02T15:50:49.000Z</time>
      </trkpt>
      <trkpt lat="48.33608" lon="-2.81707">
        <ele>219.2</ele>
        <time>2020-07-02T15:50:51.000Z</time>
      </trkpt>
      <trkpt lat="48.33613" lon="-2.8169">
        <ele>218.8</ele>
        <time>2020-07-02T15:50:53.000Z</time>
      </trkpt>
      <trkpt lat="48.33616" lon="-2.81673">
        <ele>218.5</ele>
        <time>2020-07-02T15:50:55.000Z</time>
      </trkpt>
      <trkpt lat="48.33621" lon="-2.81656">
        <ele>218.2</ele>
        <time>2020-07-02T15:50:57.000Z</time>
      </trkpt>
      <trkpt lat="48.33625" lon="-2.81637">
        <ele>217.8</ele>
        <time>2020-07-02T15:50:59.000Z</time>
      </trkpt>
      <trkpt lat="48.33629" lon="-2.81619">
        <ele>217.5</ele>
        <time>2020-07-02T15:51:01.000Z</time>
      </trkpt>
      <trkpt lat="48.33634" lon="-2.81601">
        <ele>217.1</ele>
        <time>2020-07-02T15:51:03.000Z</time>
      </trkpt>
      <trkpt lat="48.3364" lon="-2.81584">
        <ele>216.8</ele>
        <time>2020-07-02T15:51:05.000Z</time>
      </trkpt>
      <trkpt lat="48.33646" lon="-2.81567">
        <ele>216.4</ele>
        <time>2020-07-02T15:51:07.000Z</time>
      </trkpt>
      <trkpt lat="48.33653" lon="-2.8155">
        <ele>216.1</ele>
        <time>2020-07-02T15:51:09.000Z</time>
      </trkpt>
      <trkpt lat="48.3366" lon="-2.81533">
        <ele>215.8</ele>
        <time>2020-07-02T15:51:11.000Z</time>
      </trkpt>
      <trkpt lat="48.33667" lon="-2.81515">
        <ele>215.5</ele>
        <time>2020-07-02T15:51:13.000Z</time>
      </trkpt>
      <trkpt lat="48.33675" lon="-2.81499">
        <ele>215.2</ele>
        <time>2020-07-02T15:51:15.000Z</time>
      </trkpt>
      <trkpt lat="48.33684" lon="-2.81484">
        <ele>214.8</ele>
        <time>2020-07-02T15:51:17.000Z</time>
      </trkpt>
      <trkpt lat="48.33693" lon="-2.81469">
        <ele>214.5</ele>
        <time>2020-07-02T15:51:19.000Z</time>
      </trkpt>
      <trkpt lat="48.33703" lon="-2.81455">
        <ele>214.1</ele>
        <time>2020-07-02T15:51:21.000Z</time>
      </trkpt>
      <trkpt lat="48.33712" lon="-2.81442">
        <ele>213.8</ele>
        <time>2020-07-02T15:51:23.000Z</time>
      </trkpt>
      <trkpt lat="48.3372" lon="-2.81429">
        <ele>213.6</ele>
        <time>2020-07-02T15:51:25.000Z</time>
      </trkpt>
      <trkpt lat="48.33722" lon="-2.81415">
        <ele>213.4</ele>
        <time>2020-07-02T15:51:27.000Z</time>
      </trkpt>
      <trkpt lat="48.33719" lon="-2.814">
        <ele>213.3</ele>
        <time>2020-07-02T15:51:29.000Z</time>
      </trkpt>
      <trkpt lat="48.33716" lon="-2.81385">
        <ele>213.3</ele>
        <time>2020-07-02T15:51:31.000Z</time>
      </trkpt>
      <trkpt lat="48.33714" lon="-2.8137">
        <ele>213.2</ele>
        <time>2020-07-02T15:51:33.000Z</time>
      </trkpt>
      <trkpt lat="48.33711" lon="-2.81356">
        <ele>213.2</ele>
        <time>2020-07-02T15:51:35.000Z</time>
      </trkpt>
      <trkpt lat="48.33709" lon="-2.81342">
        <ele>213.2</ele>
        <time>2020-07-02T15:51:37.000Z</time>
      </trkpt>
      <trkpt lat="48.33707" lon="-2.81327">
        <ele>213.3</ele>
        <time>2020-07-02T15:51:39.000Z</time>
      </trkpt>
      <trkpt lat="48.33705" lon="-2.81312">
        <ele>213.3</ele>
        <time>2020-07-02T15:51:41.000Z</time>
      </trkpt>
      <trkpt lat="48.33703" lon="-2.81298">
        <ele>213.4</ele>
        <time>2020-07-02T15:51:43.000Z</time>
      </trkpt>
      <trkpt lat="48.33703" lon="-2.81282">
        <ele>213.5</ele>
        <time>2020-07-02T15:51:45.000Z</time>
      </trkpt>
      <trkpt lat="48.33704" lon="-2.81266">
        <ele>213.6</ele>
        <time>2020-07-02T15:51:47.000Z</time>
      </trkpt>
      <trkpt lat="48.33706" lon="-2.8125">
        <ele>213.7</ele>
        <time>2020-07-02T15:51:49.000Z</time>
      </trkpt>
      <trkpt lat="48.33707" lon="-2.81234">
        <ele>213.8</ele>
        <time>2020-07-02T15:51:51.000Z</time>
      </trkpt>
      <trkpt lat="48.33707" lon="-2.81217">
        <ele>213.7</ele>
        <time>2020-07-02T15:51:53.000Z</time>
      </trkpt>
      <trkpt lat="48.33708" lon="-2.81199">
        <ele>213.7</ele>
        <time>2020-07-02T15:51:55.000Z</time>
      </trkpt>
      <trkpt lat="48.33708" lon="-2.8118">
        <ele>213.6</ele>
        <time>2020-07-02T15:51:57.000Z</time>
      </trkpt>
      <trkpt lat="48.33707" lon="-2.81161">
        <ele>213.4</ele>
        <time>2020-07-02T15:51:59.000Z</time>
      </trkpt>
      <trkpt lat="48.33705" lon="-2.81141">
        <ele>213.2</ele>
        <time>2020-07-02T15:52:01.000Z</time>
      </trkpt>
      <trkpt lat="48.33702" lon="-2.81121">
        <ele>212.9</ele>
        <time>2020-07-02T15:52:03.000Z</time>
      </trkpt>
      <trkpt lat="48.33697" lon="-2.81101">
        <ele>212.5</ele>
        <time>2020-07-02T15:52:05.000Z</time>
      </trkpt>
      <trkpt lat="48.33687" lon="-2.81087">
        <ele>212.1</ele>
        <time>2020-07-02T15:52:07.000Z</time>
      </trkpt>
      <trkpt lat="48.33673" lon="-2.81082">
        <ele>211.7</ele>
        <time>2020-07-02T15:52:09.000Z</time>
      </trkpt>
      <trkpt lat="48.33659" lon="-2.8108">
        <ele>211.3</ele>
        <time>2020-07-02T15:52:11.000Z</time>
      </trkpt>
      <trkpt lat="48.33645" lon="-2.81074">
        <ele>210.9</ele>
        <time>2020-07-02T15:52:13.000Z</time>
      </trkpt>
      <trkpt lat="48.33635" lon="-2.81061">
        <ele>210.4</ele>
        <time>2020-07-02T15:52:15.000Z</time>
      </trkpt>
      <trkpt lat="48.33627" lon="-2.81045">
        <ele>210</ele>
        <time>2020-07-02T15:52:17.000Z</time>
      </trkpt>
      <trkpt lat="48.33617" lon="-2.8103">
        <ele>209.6</ele>
        <time>2020-07-02T15:52:19.000Z</time>
      </trkpt>
      <trkpt lat="48.33606" lon="-2.81018">
        <ele>209.3</ele>
        <time>2020-07-02T15:52:21.000Z</time>
      </trkpt>
      <trkpt lat="48.33596" lon="-2.8101">
        <ele>209.1</ele>
        <time>2020-07-02T15:52:23.000Z</time>
      </trkpt>
      <trkpt lat="48.33586" lon="-2.81006">
        <ele>209</ele>
        <time>2020-07-02T15:52:25.000Z</time>
      </trkpt>
      <trkpt lat="48.33574" lon="-2.8101">
        <ele>209</ele>
        <time>2020-07-02T15:52:28.000Z</time>
      </trkpt>
      <trkpt lat="48.33562" lon="-2.81015">
        <ele>209.2</ele>
        <time>2020-07-02T15:52:31.000Z</time>
      </trkpt>
      <trkpt lat="48.3355" lon="-2.81011">
        <ele>209.5</ele>
        <time>2020-07-02T15:52:34.000Z</time>
      </trkpt>
      <trkpt lat="48.33541" lon="-2.81001">
        <ele>209.8</ele>
        <time>2020-07-02T15:52:37.000Z</time>
      </trkpt>
      <trkpt lat="48.33532" lon="-2.8099">
        <ele>210.3</ele>
        <time>2020-07-02T15:52:40.000Z</time>
      </trkpt>
      <trkpt lat="48.33539" lon="-2.80979">
        <ele>210.9</ele>
        <time>2020-07-02T15:52:44.000Z</time>
      </trkpt>
      <trkpt lat="48.33549" lon="-2.80976">
        <ele>211.2</ele>
        <time>2020-07-02T15:52:47.000Z</time>
      </trkpt>
      <trkpt lat="48.3356" lon="-2.80971">
        <ele>211.5</ele>
        <time>2020-07-02T15:52:50.000Z</time>
      </trkpt>
      <trkpt lat="48.33572" lon="-2.80967">
        <ele>211.7</ele>
        <time>2020-07-02T15:52:53.000Z</time>
      </trkpt>
      <trkpt lat="48.33581" lon="-2.80957">
        <ele>211.8</ele>
        <time>2020-07-02T15:52:56.000Z</time>
      </trkpt>
      <trkpt lat="48.33579" lon="-2.80943">
        <ele>211.9</ele>
        <time>2020-07-02T15:52:59.000Z</time>
      </trkpt>
      <trkpt lat="48.33578" lon="-2.80926">
        <ele>211.9</ele>
        <time>2020-07-02T15:53:02.000Z</time>
      </trkpt>
      <trkpt lat="48.33577" lon="-2.8091">
        <ele>211.9</ele>
        <time>2020-07-02T15:53:05.000Z</time>
      </trkpt>
      <trkpt lat="48.33575" lon="-2.80893">
        <ele>211.9</ele>
        <time>2020-07-02T15:53:08.000Z</time>
      </trkpt>
      <trkpt lat="48.33574" lon="-2.80874">
        <ele>211.8</ele>
        <time>2020-07-02T15:53:11.000Z</time>
      </trkpt>
      <trkpt lat="48.33573" lon="-2.80857">
        <ele>211.6</ele>
        <time>2020-07-02T15:53:14.000Z</time>
      </trkpt>
      <trkpt lat="48.33562" lon="-2.80853">
        <ele>211.2</ele>
        <time>2020-07-02T15:53:18.000Z</time>
      </trkpt>
      <trkpt lat="48.3355" lon="-2.80857">
        <ele>210.9</ele>
        <time>2020-07-02T15:53:21.000Z</time>
      </trkpt>
      <trkpt lat="48.33538" lon="-2.8086">
        <ele>210.6</ele>
        <time>2020-07-02T15:53:24.000Z</time>
      </trkpt>
      <trkpt lat="48.33529" lon="-2.80848">
        <ele>210.4</ele>
        <time>2020-07-02T15:53:27.000Z</time>
      </trkpt>
      <trkpt lat="48.33522" lon="-2.80836">
        <ele>210.3</ele>
        <time>2020-07-02T15:53:29.000Z</time>
      </trkpt>
      <trkpt lat="48.33516" lon="-2.80826">
        <ele>210.1</ele>
        <time>2020-07-02T15:53:31.000Z</time>
      </trkpt>
      <trkpt lat="48.33507" lon="-2.80812">
        <ele>209.9</ele>
        <time>2020-07-02T15:53:34.000Z</time>
      </trkpt>
      <trkpt lat="48.33499" lon="-2.80798">
        <ele>209.7</ele>
        <time>2020-07-02T15:53:37.000Z</time>
      </trkpt>
      <trkpt lat="48.3349" lon="-2.80784">
        <ele>209.7</ele>
        <time>2020-07-02T15:53:40.000Z</time>
      </trkpt>
      <trkpt lat="48.33481" lon="-2.8077">
        <ele>209.6</ele>
        <time>2020-07-02T15:53:43.000Z</time>
      </trkpt>
      <trkpt lat="48.33475" lon="-2.80754">
        <ele>209.6</ele>
        <time>2020-07-02T15:53:46.000Z</time>
      </trkpt>
      <trkpt lat="48.33476" lon="-2.80736">
        <ele>209.6</ele>
        <time>2020-07-02T15:53:49.000Z</time>
      </trkpt>
      <trkpt lat="48.33486" lon="-2.80724">
        <ele>209.7</ele>
        <time>2020-07-02T15:53:52.000Z</time>
      </trkpt>
      <trkpt lat="48.33496" lon="-2.80713">
        <ele>209.9</ele>
        <time>2020-07-02T15:53:55.000Z</time>
      </trkpt>
      <trkpt lat="48.33507" lon="-2.80701">
        <ele>210.1</ele>
        <time>2020-07-02T15:53:58.000Z</time>
      </trkpt>
      <trkpt lat="48.33515" lon="-2.80695">
        <ele>210.2</ele>
        <time>2020-07-02T15:54:00.000Z</time>
      </trkpt>
      <trkpt lat="48.33523" lon="-2.80687">
        <ele>210.3</ele>
        <time>2020-07-02T15:54:02.000Z</time>
      </trkpt>
      <trkpt lat="48.3353" lon="-2.80678">
        <ele>210.4</ele>
        <time>2020-07-02T15:54:04.000Z</time>
      </trkpt>
      <trkpt lat="48.33536" lon="-2.80667">
        <ele>210.4</ele>
        <time>2020-07-02T15:54:06.000Z</time>
      </trkpt>
      <trkpt lat="48.33542" lon="-2.80657">
        <ele>210.5</ele>
        <time>2020-07-02T15:54:08.000Z</time>
      </trkpt>
      <trkpt lat="48.33548" lon="-2.80646">
        <ele>210.7</ele>
        <time>2020-07-02T15:54:10.000Z</time>
      </trkpt>
      <trkpt lat="48.33553" lon="-2.80633">
        <ele>210.8</ele>
        <time>2020-07-02T15:54:12.000Z</time>
      </trkpt>
      <trkpt lat="48.33558" lon="-2.80622">
        <ele>211</ele>
        <time>2020-07-02T15:54:14.000Z</time>
      </trkpt>
      <trkpt lat="48.33563" lon="-2.8061">
        <ele>211.1</ele>
        <time>2020-07-02T15:54:16.000Z</time>
      </trkpt>
      <trkpt lat="48.33568" lon="-2.80598">
        <ele>211.1</ele>
        <time>2020-07-02T15:54:18.000Z</time>
      </trkpt>
      <trkpt lat="48.33573" lon="-2.80586">
        <ele>211.2</ele>
        <time>2020-07-02T15:54:20.000Z</time>
      </trkpt>
      <trkpt lat="48.33578" lon="-2.80574">
        <ele>211.2</ele>
        <time>2020-07-02T15:54:22.000Z</time>
      </trkpt>
      <trkpt lat="48.33584" lon="-2.80558">
        <ele>211.2</ele>
        <time>2020-07-02T15:54:25.000Z</time>
      </trkpt>
      <trkpt lat="48.3359" lon="-2.80542">
        <ele>211.2</ele>
        <time>2020-07-02T15:54:28.000Z</time>
      </trkpt>
      <trkpt lat="48.33597" lon="-2.80527">
        <ele>211.2</ele>
        <time>2020-07-02T15:54:31.000Z</time>
      </trkpt>
      <trkpt lat="48.33605" lon="-2.80512">
        <ele>211.3</ele>
        <time>2020-07-02T15:54:34.000Z</time>
      </trkpt>
      <trkpt lat="48.33613" lon="-2.80498">
        <ele>211.4</ele>
        <time>2020-07-02T15:54:37.000Z</time>
      </trkpt>
      <trkpt lat="48.33621" lon="-2.80484">
        <ele>211.6</ele>
        <time>2020-07-02T15:54:40.000Z</time>
      </trkpt>
      <trkpt lat="48.3363" lon="-2.80472">
        <ele>211.8</ele>
        <time>2020-07-02T15:54:43.000Z</time>
      </trkpt>
      <trkpt lat="48.33639" lon="-2.8046">
        <ele>212.1</ele>
        <time>2020-07-02T15:54:46.000Z</time>
      </trkpt>
      <trkpt lat="48.33648" lon="-2.80448">
        <ele>212.3</ele>
        <time>2020-07-02T15:54:49.000Z</time>
      </trkpt>
      <trkpt lat="48.33655" lon="-2.80435">
        <ele>212.7</ele>
        <time>2020-07-02T15:54:52.000Z</time>
      </trkpt>
      <trkpt lat="48.33662" lon="-2.80423">
        <ele>213.1</ele>
        <time>2020-07-02T15:54:55.000Z</time>
      </trkpt>
      <trkpt lat="48.3367" lon="-2.80412">
        <ele>213.4</ele>
        <time>2020-07-02T15:54:58.000Z</time>
      </trkpt>
      <trkpt lat="48.33677" lon="-2.80401">
        <ele>213.8</ele>
        <time>2020-07-02T15:55:01.000Z</time>
      </trkpt>
      <trkpt lat="48.33685" lon="-2.8039">
        <ele>214.2</ele>
        <time>2020-07-02T15:55:04.000Z</time>
      </trkpt>
      <trkpt lat="48.33692" lon="-2.80379">
        <ele>214.6</ele>
        <time>2020-07-02T15:55:07.000Z</time>
      </trkpt>
      <trkpt lat="48.337" lon="-2.80369">
        <ele>215.1</ele>
        <time>2020-07-02T15:55:10.000Z</time>
      </trkpt>
      <trkpt lat="48.33709" lon="-2.80358">
        <ele>215.6</ele>
        <time>2020-07-02T15:55:14.000Z</time>
      </trkpt>
      <trkpt lat="48.33718" lon="-2.80349">
        <ele>216.2</ele>
        <time>2020-07-02T15:55:18.000Z</time>
      </trkpt>
      <trkpt lat="48.33726" lon="-2.80339">
        <ele>216.8</ele>
        <time>2020-07-02T15:55:23.000Z</time>
      </trkpt>
      <trkpt lat="48.33737" lon="-2.8033">
        <ele>217.4</ele>
        <time>2020-07-02T15:55:27.000Z</time>
      </trkpt>
      <trkpt lat="48.33745" lon="-2.80324">
        <ele>217.7</ele>
        <time>2020-07-02T15:55:30.000Z</time>
      </trkpt>
      <trkpt lat="48.33756" lon="-2.80316">
        <ele>218.1</ele>
        <time>2020-07-02T15:55:34.000Z</time>
      </trkpt>
      <trkpt lat="48.33764" lon="-2.8031">
        <ele>218.3</ele>
        <time>2020-07-02T15:55:37.000Z</time>
      </trkpt>
      <trkpt lat="48.33774" lon="-2.80305">
        <ele>218.7</ele>
        <time>2020-07-02T15:55:41.000Z</time>
      </trkpt>
      <trkpt lat="48.33786" lon="-2.80301">
        <ele>219</ele>
        <time>2020-07-02T15:55:45.000Z</time>
      </trkpt>
      <trkpt lat="48.33795" lon="-2.80298">
        <ele>219.2</ele>
        <time>2020-07-02T15:55:48.000Z</time>
      </trkpt>
      <trkpt lat="48.33805" lon="-2.80295">
        <ele>219.5</ele>
        <time>2020-07-02T15:55:51.000Z</time>
      </trkpt>
      <trkpt lat="48.33813" lon="-2.8029">
        <ele>219.7</ele>
        <time>2020-07-02T15:55:54.000Z</time>
      </trkpt>
      <trkpt lat="48.33821" lon="-2.80281">
        <ele>219.9</ele>
        <time>2020-07-02T15:55:57.000Z</time>
      </trkpt>
      <trkpt lat="48.33828" lon="-2.80268">
        <ele>220.2</ele>
        <time>2020-07-02T15:56:01.000Z</time>
      </trkpt>
      <trkpt lat="48.33833" lon="-2.80256">
        <ele>220.4</ele>
        <time>2020-07-02T15:56:04.000Z</time>
      </trkpt>
      <trkpt lat="48.33838" lon="-2.80245">
        <ele>220.8</ele>
        <time>2020-07-02T15:56:07.000Z</time>
      </trkpt>
      <trkpt lat="48.33844" lon="-2.8023">
        <ele>221.2</ele>
        <time>2020-07-02T15:56:11.000Z</time>
      </trkpt>
      <trkpt lat="48.33849" lon="-2.80218">
        <ele>221.4</ele>
        <time>2020-07-02T15:56:14.000Z</time>
      </trkpt>
      <trkpt lat="48.33855" lon="-2.80208">
        <ele>221.6</ele>
        <time>2020-07-02T15:56:17.000Z</time>
      </trkpt>
      <trkpt lat="48.33864" lon="-2.80205">
        <ele>221.8</ele>
        <time>2020-07-02T15:56:20.000Z</time>
      </trkpt>
      <trkpt lat="48.33874" lon="-2.80206">
        <ele>222</ele>
        <time>2020-07-02T15:56:23.000Z</time>
      </trkpt>
      <trkpt lat="48.33886" lon="-2.80207">
        <ele>222.4</ele>
        <time>2020-07-02T15:56:27.000Z</time>
      </trkpt>
      <trkpt lat="48.33896" lon="-2.80209">
        <ele>222.7</ele>
        <time>2020-07-02T15:56:30.000Z</time>
      </trkpt>
      <trkpt lat="48.33907" lon="-2.80211">
        <ele>223.1</ele>
        <time>2020-07-02T15:56:33.000Z</time>
      </trkpt>
      <trkpt lat="48.33918" lon="-2.80214">
        <ele>223.4</ele>
        <time>2020-07-02T15:56:36.000Z</time>
      </trkpt>
      <trkpt lat="48.33929" lon="-2.80217">
        <ele>223.8</ele>
        <time>2020-07-02T15:56:39.000Z</time>
      </trkpt>
      <trkpt lat="48.33939" lon="-2.8022">
        <ele>224.1</ele>
        <time>2020-07-02T15:56:42.000Z</time>
      </trkpt>
      <trkpt lat="48.3395" lon="-2.80223">
        <ele>224.4</ele>
        <time>2020-07-02T15:56:45.000Z</time>
      </trkpt>
      <trkpt lat="48.33961" lon="-2.80225">
        <ele>224.7</ele>
        <time>2020-07-02T15:56:48.000Z</time>
      </trkpt>
      <trkpt lat="48.33971" lon="-2.80227">
        <ele>225.1</ele>
        <time>2020-07-02T15:56:51.000Z</time>
      </trkpt>
      <trkpt lat="48.33975" lon="-2.80228">
        <ele>226</ele>
        <time>2020-07-02T15:56:59.000Z</time>
      </trkpt>
      <trkpt lat="48.33979" lon="-2.80242">
        <ele>225.9</ele>
        <time>2020-07-02T15:57:09.000Z</time>
      </trkpt>
      <trkpt lat="48.33982" lon="-2.80255">
        <ele>225.9</ele>
        <time>2020-07-02T15:57:13.000Z</time>
      </trkpt>
      <trkpt lat="48.33984" lon="-2.80271">
        <ele>225.8</ele>
        <time>2020-07-02T15:57:17.000Z</time>
      </trkpt>
      <trkpt lat="48.33985" lon="-2.8029">
        <ele>225.7</ele>
        <time>2020-07-02T15:57:21.000Z</time>
      </trkpt>
      <trkpt lat="48.33982" lon="-2.80312">
        <ele>225.6</ele>
        <time>2020-07-02T15:57:24.000Z</time>
      </trkpt>
      <trkpt lat="48.33978" lon="-2.80329">
        <ele>225.4</ele>
        <time>2020-07-02T15:57:28.000Z</time>
      </trkpt>
      <trkpt lat="48.33975" lon="-2.80346">
        <ele>225.3</ele>
        <time>2020-07-02T15:57:31.000Z</time>
      </trkpt>
      <trkpt lat="48.33972" lon="-2.80361">
        <ele>225.2</ele>
        <time>2020-07-02T15:57:34.000Z</time>
      </trkpt>
      <trkpt lat="48.3397" lon="-2.80378">
        <ele>225.2</ele>
        <time>2020-07-02T15:57:37.000Z</time>
      </trkpt>
      <trkpt lat="48.3397" lon="-2.80392">
        <ele>225.1</ele>
        <time>2020-07-02T15:57:40.000Z</time>
      </trkpt>
      <trkpt lat="48.33967" lon="-2.80411">
        <ele>224.9</ele>
        <time>2020-07-02T15:57:43.000Z</time>
      </trkpt>
      <trkpt lat="48.33965" lon="-2.80424">
        <ele>224.8</ele>
        <time>2020-07-02T15:57:46.000Z</time>
      </trkpt>
      <trkpt lat="48.33963" lon="-2.80443">
        <ele>224.7</ele>
        <time>2020-07-02T15:57:49.000Z</time>
      </trkpt>
      <trkpt lat="48.3396" lon="-2.80456">
        <ele>224.6</ele>
        <time>2020-07-02T15:57:51.000Z</time>
      </trkpt>
      <trkpt lat="48.33955" lon="-2.80474">
        <ele>224.3</ele>
        <time>2020-07-02T15:57:54.000Z</time>
      </trkpt>
      <trkpt lat="48.33952" lon="-2.8049">
        <ele>224</ele>
        <time>2020-07-02T15:57:57.000Z</time>
      </trkpt>
      <trkpt lat="48.33948" lon="-2.80504">
        <ele>223.8</ele>
        <time>2020-07-02T15:57:59.000Z</time>
      </trkpt>
      <trkpt lat="48.33944" lon="-2.80519">
        <ele>223.6</ele>
        <time>2020-07-02T15:58:01.000Z</time>
      </trkpt>
      <trkpt lat="48.33941" lon="-2.80534">
        <ele>223.3</ele>
        <time>2020-07-02T15:58:03.000Z</time>
      </trkpt>
      <trkpt lat="48.33938" lon="-2.8055">
        <ele>223.1</ele>
        <time>2020-07-02T15:58:05.000Z</time>
      </trkpt>
      <trkpt lat="48.33934" lon="-2.80564">
        <ele>222.8</ele>
        <time>2020-07-02T15:58:07.000Z</time>
      </trkpt>
      <trkpt lat="48.33933" lon="-2.8058">
        <ele>222.5</ele>
        <time>2020-07-02T15:58:09.000Z</time>
      </trkpt>
      <trkpt lat="48.33932" lon="-2.80597">
        <ele>222.3</ele>
        <time>2020-07-02T15:58:11.000Z</time>
      </trkpt>
      <trkpt lat="48.33933" lon="-2.80611">
        <ele>222.1</ele>
        <time>2020-07-02T15:58:13.000Z</time>
      </trkpt>
      <trkpt lat="48.33936" lon="-2.8063">
        <ele>221.7</ele>
        <time>2020-07-02T15:58:16.000Z</time>
      </trkpt>
      <trkpt lat="48.33942" lon="-2.80645">
        <ele>221.3</ele>
        <time>2020-07-02T15:58:19.000Z</time>
      </trkpt>
      <trkpt lat="48.33949" lon="-2.8066">
        <ele>220.7</ele>
        <time>2020-07-02T15:58:22.000Z</time>
      </trkpt>
      <trkpt lat="48.33956" lon="-2.80673">
        <ele>219.8</ele>
        <time>2020-07-02T15:58:26.000Z</time>
      </trkpt>
      <trkpt lat="48.3396" lon="-2.80688">
        <ele>219.1</ele>
        <time>2020-07-02T15:58:29.000Z</time>
      </trkpt>
      <trkpt lat="48.33962" lon="-2.80702">
        <ele>218.1</ele>
        <time>2020-07-02T15:58:32.000Z</time>
      </trkpt>
      <trkpt lat="48.33968" lon="-2.80716">
        <ele>217.3</ele>
        <time>2020-07-02T15:58:34.000Z</time>
      </trkpt>
      <trkpt lat="48.33973" lon="-2.80731">
        <ele>216.4</ele>
        <time>2020-07-02T15:58:36.000Z</time>
      </trkpt>
      <trkpt lat="48.33978" lon="-2.80745">
        <ele>214.8</ele>
        <time>2020-07-02T15:58:39.000Z</time>
      </trkpt>
      <trkpt lat="48.33981" lon="-2.80762">
        <ele>212.8</ele>
        <time>2020-07-02T15:58:43.000Z</time>
      </trkpt>
      <trkpt lat="48.33981" lon="-2.80776">
        <ele>211.7</ele>
        <time>2020-07-02T15:58:46.000Z</time>
      </trkpt>
      <trkpt lat="48.33981" lon="-2.80792">
        <ele>210.3</ele>
        <time>2020-07-02T15:58:50.000Z</time>
      </trkpt>
      <trkpt lat="48.33982" lon="-2.80807">
        <ele>209.6</ele>
        <time>2020-07-02T15:58:53.000Z</time>
      </trkpt>
      <trkpt lat="48.33985" lon="-2.80825">
        <ele>209.1</ele>
        <time>2020-07-02T15:58:56.000Z</time>
      </trkpt>
      <trkpt lat="48.33986" lon="-2.80842">
        <ele>208.5</ele>
        <time>2020-07-02T15:58:59.000Z</time>
      </trkpt>
      <trkpt lat="48.33986" lon="-2.80859">
        <ele>208</ele>
        <time>2020-07-02T15:59:02.000Z</time>
      </trkpt>
      <trkpt lat="48.33989" lon="-2.80874">
        <ele>207.5</ele>
        <time>2020-07-02T15:59:05.000Z</time>
      </trkpt>
      <trkpt lat="48.34001" lon="-2.80874">
        <ele>206.5</ele>
        <time>2020-07-02T15:59:10.000Z</time>
      </trkpt>
      <trkpt lat="48.34012" lon="-2.80868">
        <ele>206</ele>
        <time>2020-07-02T15:59:13.000Z</time>
      </trkpt>
      <trkpt lat="48.34023" lon="-2.80861">
        <ele>205.3</ele>
        <time>2020-07-02T15:59:16.000Z</time>
      </trkpt>
      <trkpt lat="48.34035" lon="-2.80853">
        <ele>204.8</ele>
        <time>2020-07-02T15:59:19.000Z</time>
      </trkpt>
      <trkpt lat="48.34046" lon="-2.80846">
        <ele>204.3</ele>
        <time>2020-07-02T15:59:22.000Z</time>
      </trkpt>
      <trkpt lat="48.34058" lon="-2.80839">
        <ele>203.6</ele>
        <time>2020-07-02T15:59:26.000Z</time>
      </trkpt>
      <trkpt lat="48.34068" lon="-2.80826">
        <ele>203.2</ele>
        <time>2020-07-02T15:59:29.000Z</time>
      </trkpt>
      <trkpt lat="48.34074" lon="-2.80812">
        <ele>203</ele>
        <time>2020-07-02T15:59:32.000Z</time>
      </trkpt>
      <trkpt lat="48.34081" lon="-2.808">
        <ele>202.8</ele>
        <time>2020-07-02T15:59:35.000Z</time>
      </trkpt>
      <trkpt lat="48.3409" lon="-2.80791">
        <ele>202.7</ele>
        <time>2020-07-02T15:59:38.000Z</time>
      </trkpt>
      <trkpt lat="48.34099" lon="-2.8078">
        <ele>202.7</ele>
        <time>2020-07-02T15:59:41.000Z</time>
      </trkpt>
      <trkpt lat="48.34109" lon="-2.80767">
        <ele>202.6</ele>
        <time>2020-07-02T15:59:44.000Z</time>
      </trkpt>
      <trkpt lat="48.34118" lon="-2.80756">
        <ele>202.4</ele>
        <time>2020-07-02T15:59:47.000Z</time>
      </trkpt>
      <trkpt lat="48.34125" lon="-2.80741">
        <ele>202.2</ele>
        <time>2020-07-02T15:59:50.000Z</time>
      </trkpt>
      <trkpt lat="48.34132" lon="-2.80727">
        <ele>201.9</ele>
        <time>2020-07-02T15:59:53.000Z</time>
      </trkpt>
      <trkpt lat="48.34136" lon="-2.80714">
        <ele>201.5</ele>
        <time>2020-07-02T15:59:57.000Z</time>
      </trkpt>
      <trkpt lat="48.34126" lon="-2.80703">
        <ele>201.5</ele>
        <time>2020-07-02T16:00:02.000Z</time>
      </trkpt>
      <trkpt lat="48.34117" lon="-2.80701">
        <ele>201.7</ele>
        <time>2020-07-02T16:00:06.000Z</time>
      </trkpt>
      <trkpt lat="48.34108" lon="-2.80698">
        <ele>202.1</ele>
        <time>2020-07-02T16:00:10.000Z</time>
      </trkpt>
      <trkpt lat="48.34099" lon="-2.80689">
        <ele>203</ele>
        <time>2020-07-02T16:00:15.000Z</time>
      </trkpt>
      <trkpt lat="48.34092" lon="-2.80676">
        <ele>204.2</ele>
        <time>2020-07-02T16:00:21.000Z</time>
      </trkpt>
      <trkpt lat="48.34087" lon="-2.80664">
        <ele>205.5</ele>
        <time>2020-07-02T16:00:27.000Z</time>
      </trkpt>
      <trkpt lat="48.34089" lon="-2.80649">
        <ele>206.8</ele>
        <time>2020-07-02T16:00:33.000Z</time>
      </trkpt>
      <trkpt lat="48.34093" lon="-2.80635">
        <ele>207.8</ele>
        <time>2020-07-02T16:00:40.000Z</time>
      </trkpt>
      <trkpt lat="48.34094" lon="-2.80621">
        <ele>208.3</ele>
        <time>2020-07-02T16:00:44.000Z</time>
      </trkpt>
      <trkpt lat="48.3409" lon="-2.80607">
        <ele>208.6</ele>
        <time>2020-07-02T16:00:50.000Z</time>
      </trkpt>
      <trkpt lat="48.3408" lon="-2.80612">
        <ele>209.4</ele>
        <time>2020-07-02T16:01:00.000Z</time>
      </trkpt>
      <trkpt lat="48.34071" lon="-2.80618">
        <ele>210.6</ele>
        <time>2020-07-02T16:01:09.000Z</time>
      </trkpt>
      <trkpt lat="48.34067" lon="-2.80605">
        <ele>211.9</ele>
        <time>2020-07-02T16:01:17.000Z</time>
      </trkpt>
      <trkpt lat="48.34063" lon="-2.80591">
        <ele>213</ele>
        <time>2020-07-02T16:01:24.000Z</time>
      </trkpt>
      <trkpt lat="48.34059" lon="-2.80578">
        <ele>213.9</ele>
        <time>2020-07-02T16:01:30.000Z</time>
      </trkpt>
      <trkpt lat="48.34053" lon="-2.80567">
        <ele>214.9</ele>
        <time>2020-07-02T16:01:37.000Z</time>
      </trkpt>
      <trkpt lat="48.34048" lon="-2.80556">
        <ele>215.7</ele>
        <time>2020-07-02T16:01:43.000Z</time>
      </trkpt>
      <trkpt lat="48.34044" lon="-2.80543">
        <ele>216.7</ele>
        <time>2020-07-02T16:01:50.000Z</time>
      </trkpt>
      <trkpt lat="48.34036" lon="-2.80535">
        <ele>217.3</ele>
        <time>2020-07-02T16:01:55.000Z</time>
      </trkpt>
      <trkpt lat="48.34031" lon="-2.80523">
        <ele>218.5</ele>
        <time>2020-07-02T16:02:03.000Z</time>
      </trkpt>
      <trkpt lat="48.34031" lon="-2.80509">
        <ele>219.1</ele>
        <time>2020-07-02T16:02:08.000Z</time>
      </trkpt>
      <trkpt lat="48.34034" lon="-2.80496">
        <ele>219.6</ele>
        <time>2020-07-02T16:02:12.000Z</time>
      </trkpt>
      <trkpt lat="48.34037" lon="-2.8048">
        <ele>220.1</ele>
        <time>2020-07-02T16:02:17.000Z</time>
      </trkpt>
      <trkpt lat="48.34042" lon="-2.80465">
        <ele>220.6</ele>
        <time>2020-07-02T16:02:21.000Z</time>
      </trkpt>
      <trkpt lat="48.34046" lon="-2.80452">
        <ele>221.1</ele>
        <time>2020-07-02T16:02:25.000Z</time>
      </trkpt>
      <trkpt lat="48.34051" lon="-2.80439">
        <ele>221.5</ele>
        <time>2020-07-02T16:02:30.000Z</time>
      </trkpt>
      <trkpt lat="48.34048" lon="-2.80424">
        <ele>221.7</ele>
        <time>2020-07-02T16:02:35.000Z</time>
      </trkpt>
      <trkpt lat="48.34038" lon="-2.8042">
        <ele>222.3</ele>
        <time>2020-07-02T16:02:43.000Z</time>
      </trkpt>
      <trkpt lat="48.34029" lon="-2.80419">
        <ele>222.6</ele>
        <time>2020-07-02T16:02:48.000Z</time>
      </trkpt>
      <trkpt lat="48.34023" lon="-2.80408">
        <ele>223</ele>
        <time>2020-07-02T16:02:53.000Z</time>
      </trkpt>
      <trkpt lat="48.34022" lon="-2.80392">
        <ele>223.4</ele>
        <time>2020-07-02T16:02:58.000Z</time>
      </trkpt>
      <trkpt lat="48.34018" lon="-2.80378">
        <ele>223.8</ele>
        <time>2020-07-02T16:03:03.000Z</time>
      </trkpt>
      <trkpt lat="48.34018" lon="-2.80364">
        <ele>224.1</ele>
        <time>2020-07-02T16:03:08.000Z</time>
      </trkpt>
      <trkpt lat="48.34015" lon="-2.80348">
        <ele>224.3</ele>
        <time>2020-07-02T16:03:13.000Z</time>
      </trkpt>
      <trkpt lat="48.3402" lon="-2.80332">
        <ele>224.5</ele>
        <time>2020-07-02T16:03:17.000Z</time>
      </trkpt>
      <trkpt lat="48.34021" lon="-2.80319">
        <ele>224.6</ele>
        <time>2020-07-02T16:03:21.000Z</time>
      </trkpt>
      <trkpt lat="48.34026" lon="-2.80305">
        <ele>224.9</ele>
        <time>2020-07-02T16:03:27.000Z</time>
      </trkpt>
      <trkpt lat="48.3403" lon="-2.80291">
        <ele>225.1</ele>
        <time>2020-07-02T16:03:33.000Z</time>
      </trkpt>
      <trkpt lat="48.34036" lon="-2.80275">
        <ele>225.2</ele>
        <time>2020-07-02T16:03:37.000Z</time>
      </trkpt>
      <trkpt lat="48.34043" lon="-2.80267">
        <ele>225.5</ele>
        <time>2020-07-02T16:03:41.000Z</time>
      </trkpt>
      <trkpt lat="48.34051" lon="-2.80259">
        <ele>225.7</ele>
        <time>2020-07-02T16:03:46.000Z</time>
      </trkpt>
      <trkpt lat="48.3405" lon="-2.80244">
        <ele>225.9</ele>
        <time>2020-07-02T16:03:51.000Z</time>
      </trkpt>
      <trkpt lat="48.34051" lon="-2.80228">
        <ele>226.2</ele>
        <time>2020-07-02T16:03:56.000Z</time>
      </trkpt>
      <trkpt lat="48.34056" lon="-2.80215">
        <ele>226.3</ele>
        <time>2020-07-02T16:04:01.000Z</time>
      </trkpt>
      <trkpt lat="48.34062" lon="-2.80201">
        <ele>226.3</ele>
        <time>2020-07-02T16:04:04.000Z</time>
      </trkpt>
      <trkpt lat="48.34066" lon="-2.80185">
        <ele>226.4</ele>
        <time>2020-07-02T16:04:06.000Z</time>
      </trkpt>
      <trkpt lat="48.34069" lon="-2.8017">
        <ele>226.4</ele>
        <time>2020-07-02T16:04:09.000Z</time>
      </trkpt>
      <trkpt lat="48.34074" lon="-2.80154">
        <ele>226.5</ele>
        <time>2020-07-02T16:04:12.000Z</time>
      </trkpt>
      <trkpt lat="48.34077" lon="-2.80138">
        <ele>226.6</ele>
        <time>2020-07-02T16:04:15.000Z</time>
      </trkpt>
      <trkpt lat="48.34082" lon="-2.80122">
        <ele>226.8</ele>
        <time>2020-07-02T16:04:18.000Z</time>
      </trkpt>
      <trkpt lat="48.34091" lon="-2.80109">
        <ele>226.8</ele>
        <time>2020-07-02T16:04:21.000Z</time>
      </trkpt>
      <trkpt lat="48.341" lon="-2.801">
        <ele>226.8</ele>
        <time>2020-07-02T16:04:24.000Z</time>
      </trkpt>
      <trkpt lat="48.34107" lon="-2.80086">
        <ele>226.8</ele>
        <time>2020-07-02T16:04:27.000Z</time>
      </trkpt>
      <trkpt lat="48.34114" lon="-2.80074">
        <ele>226.6</ele>
        <time>2020-07-02T16:04:30.000Z</time>
      </trkpt>
      <trkpt lat="48.3412" lon="-2.80057">
        <ele>226.4</ele>
        <time>2020-07-02T16:04:33.000Z</time>
      </trkpt>
      <trkpt lat="48.34125" lon="-2.80044">
        <ele>226.3</ele>
        <time>2020-07-02T16:04:35.000Z</time>
      </trkpt>
      <trkpt lat="48.34132" lon="-2.80031">
        <ele>226.2</ele>
        <time>2020-07-02T16:04:37.000Z</time>
      </trkpt>
      <trkpt lat="48.3414" lon="-2.80022">
        <ele>226.1</ele>
        <time>2020-07-02T16:04:39.000Z</time>
      </trkpt>
      <trkpt lat="48.34147" lon="-2.80003">
        <ele>226</ele>
        <time>2020-07-02T16:04:42.000Z</time>
      </trkpt>
      <trkpt lat="48.34143" lon="-2.79988">
        <ele>225.8</ele>
        <time>2020-07-02T16:04:45.000Z</time>
      </trkpt>
      <trkpt lat="48.34136" lon="-2.79975">
        <ele>225.7</ele>
        <time>2020-07-02T16:04:49.000Z</time>
      </trkpt>
      <trkpt lat="48.34138" lon="-2.79961">
        <ele>225.7</ele>
        <time>2020-07-02T16:04:52.000Z</time>
      </trkpt>
      <trkpt lat="48.34143" lon="-2.7995">
        <ele>225.7</ele>
        <time>2020-07-02T16:04:55.000Z</time>
      </trkpt>
      <trkpt lat="48.34146" lon="-2.79936">
        <ele>225.7</ele>
        <time>2020-07-02T16:04:57.000Z</time>
      </trkpt>
      <trkpt lat="48.34146" lon="-2.79921">
        <ele>225.7</ele>
        <time>2020-07-02T16:05:01.000Z</time>
      </trkpt>
      <trkpt lat="48.34151" lon="-2.79904">
        <ele>225.8</ele>
        <time>2020-07-02T16:05:05.000Z</time>
      </trkpt>
      <trkpt lat="48.34151" lon="-2.79889">
        <ele>225.8</ele>
        <time>2020-07-02T16:05:08.000Z</time>
      </trkpt>
      <trkpt lat="48.34146" lon="-2.79875">
        <ele>225.8</ele>
        <time>2020-07-02T16:05:13.000Z</time>
      </trkpt>
      <trkpt lat="48.3414" lon="-2.79864">
        <ele>225.8</ele>
        <time>2020-07-02T16:05:17.000Z</time>
      </trkpt>
      <trkpt lat="48.34133" lon="-2.79854">
        <ele>225.8</ele>
        <time>2020-07-02T16:05:21.000Z</time>
      </trkpt>
      <trkpt lat="48.34127" lon="-2.79843">
        <ele>225.6</ele>
        <time>2020-07-02T16:05:25.000Z</time>
      </trkpt>
      <trkpt lat="48.3412" lon="-2.79833">
        <ele>225.4</ele>
        <time>2020-07-02T16:05:29.000Z</time>
      </trkpt>
      <trkpt lat="48.34114" lon="-2.79822">
        <ele>225.3</ele>
        <time>2020-07-02T16:05:33.000Z</time>
      </trkpt>
      <trkpt lat="48.34105" lon="-2.7981">
        <ele>225.1</ele>
        <time>2020-07-02T16:05:37.000Z</time>
      </trkpt>
      <trkpt lat="48.34096" lon="-2.79801">
        <ele>224.9</ele>
        <time>2020-07-02T16:05:40.000Z</time>
      </trkpt>
      <trkpt lat="48.34087" lon="-2.79794">
        <ele>224.6</ele>
        <time>2020-07-02T16:05:43.000Z</time>
      </trkpt>
      <trkpt lat="48.34077" lon="-2.79783">
        <ele>224.2</ele>
        <time>2020-07-02T16:05:46.000Z</time>
      </trkpt>
      <trkpt lat="48.34075" lon="-2.79769">
        <ele>224</ele>
        <time>2020-07-02T16:05:48.000Z</time>
      </trkpt>
      <trkpt lat="48.34075" lon="-2.79752">
        <ele>223.6</ele>
        <time>2020-07-02T16:05:50.000Z</time>
      </trkpt>
      <trkpt lat="48.34077" lon="-2.79734">
        <ele>223.3</ele>
        <time>2020-07-02T16:05:52.000Z</time>
      </trkpt>
      <trkpt lat="48.34079" lon="-2.79714">
        <ele>222.8</ele>
        <time>2020-07-02T16:05:54.000Z</time>
      </trkpt>
      <trkpt lat="48.34085" lon="-2.79698">
        <ele>222.3</ele>
        <time>2020-07-02T16:05:56.000Z</time>
      </trkpt>
      <trkpt lat="48.34093" lon="-2.79687">
        <ele>221.8</ele>
        <time>2020-07-02T16:05:58.000Z</time>
      </trkpt>
      <trkpt lat="48.34099" lon="-2.79674">
        <ele>221.4</ele>
        <time>2020-07-02T16:06:00.000Z</time>
      </trkpt>
      <trkpt lat="48.34104" lon="-2.79661">
        <ele>221</ele>
        <time>2020-07-02T16:06:02.000Z</time>
      </trkpt>
      <trkpt lat="48.3411" lon="-2.79647">
        <ele>220.6</ele>
        <time>2020-07-02T16:06:04.000Z</time>
      </trkpt>
      <trkpt lat="48.34116" lon="-2.79635">
        <ele>220.2</ele>
        <time>2020-07-02T16:06:06.000Z</time>
      </trkpt>
      <trkpt lat="48.34122" lon="-2.79624">
        <ele>219.8</ele>
        <time>2020-07-02T16:06:08.000Z</time>
      </trkpt>
      <trkpt lat="48.34128" lon="-2.79612">
        <ele>219.3</ele>
        <time>2020-07-02T16:06:10.000Z</time>
      </trkpt>
      <trkpt lat="48.34134" lon="-2.796">
        <ele>218.9</ele>
        <time>2020-07-02T16:06:12.000Z</time>
      </trkpt>
      <trkpt lat="48.3414" lon="-2.79587">
        <ele>218.4</ele>
        <time>2020-07-02T16:06:14.000Z</time>
      </trkpt>
      <trkpt lat="48.34146" lon="-2.79575">
        <ele>218.1</ele>
        <time>2020-07-02T16:06:16.000Z</time>
      </trkpt>
      <trkpt lat="48.34153" lon="-2.7956">
        <ele>217.6</ele>
        <time>2020-07-02T16:06:19.000Z</time>
      </trkpt>
      <trkpt lat="48.34158" lon="-2.79544">
        <ele>217</ele>
        <time>2020-07-02T16:06:22.000Z</time>
      </trkpt>
      <trkpt lat="48.34164" lon="-2.79529">
        <ele>216.5</ele>
        <time>2020-07-02T16:06:25.000Z</time>
      </trkpt>
      <trkpt lat="48.3417" lon="-2.79511">
        <ele>216</ele>
        <time>2020-07-02T16:06:28.000Z</time>
      </trkpt>
      <trkpt lat="48.34175" lon="-2.79497">
        <ele>215.6</ele>
        <time>2020-07-02T16:06:30.000Z</time>
      </trkpt>
      <trkpt lat="48.3418" lon="-2.79482">
        <ele>215.2</ele>
        <time>2020-07-02T16:06:32.000Z</time>
      </trkpt>
      <trkpt lat="48.34184" lon="-2.79465">
        <ele>214.7</ele>
        <time>2020-07-02T16:06:34.000Z</time>
      </trkpt>
      <trkpt lat="48.34188" lon="-2.79448">
        <ele>214.2</ele>
        <time>2020-07-02T16:06:36.000Z</time>
      </trkpt>
      <trkpt lat="48.34192" lon="-2.79431">
        <ele>213.6</ele>
        <time>2020-07-02T16:06:38.000Z</time>
      </trkpt>
      <trkpt lat="48.34199" lon="-2.79422">
        <ele>213</ele>
        <time>2020-07-02T16:06:40.000Z</time>
      </trkpt>
      <trkpt lat="48.34211" lon="-2.79419">
        <ele>212.3</ele>
        <time>2020-07-02T16:06:43.000Z</time>
      </trkpt>
      <trkpt lat="48.34222" lon="-2.79423">
        <ele>211.4</ele>
        <time>2020-07-02T16:06:46.000Z</time>
      </trkpt>
      <trkpt lat="48.34233" lon="-2.79425">
        <ele>210.9</ele>
        <time>2020-07-02T16:06:49.000Z</time>
      </trkpt>
      <trkpt lat="48.34244" lon="-2.79426">
        <ele>210.5</ele>
        <time>2020-07-02T16:06:52.000Z</time>
      </trkpt>
      <trkpt lat="48.34255" lon="-2.79426">
        <ele>210.3</ele>
        <time>2020-07-02T16:06:55.000Z</time>
      </trkpt>
      <trkpt lat="48.34265" lon="-2.79426">
        <ele>210.2</ele>
        <time>2020-07-02T16:06:58.000Z</time>
      </trkpt>
      <trkpt lat="48.34275" lon="-2.79425">
        <ele>210.2</ele>
        <time>2020-07-02T16:07:01.000Z</time>
      </trkpt>
      <trkpt lat="48.34284" lon="-2.79425">
        <ele>210.2</ele>
        <time>2020-07-02T16:07:04.000Z</time>
      </trkpt>
      <trkpt lat="48.34293" lon="-2.79429">
        <ele>210.4</ele>
        <time>2020-07-02T16:07:07.000Z</time>
      </trkpt>
      <trkpt lat="48.34294" lon="-2.79447">
        <ele>210.6</ele>
        <time>2020-07-02T16:07:11.000Z</time>
      </trkpt>
      <trkpt lat="48.3429" lon="-2.79459">
        <ele>210.7</ele>
        <time>2020-07-02T16:07:14.000Z</time>
      </trkpt>
      <trkpt lat="48.34287" lon="-2.79473">
        <ele>211</ele>
        <time>2020-07-02T16:07:17.000Z</time>
      </trkpt>
      <trkpt lat="48.34285" lon="-2.79486">
        <ele>211.2</ele>
        <time>2020-07-02T16:07:20.000Z</time>
      </trkpt>
      <trkpt lat="48.34283" lon="-2.795">
        <ele>211.4</ele>
        <time>2020-07-02T16:07:23.000Z</time>
      </trkpt>
      <trkpt lat="48.34281" lon="-2.79514">
        <ele>211.8</ele>
        <time>2020-07-02T16:07:26.000Z</time>
      </trkpt>
      <trkpt lat="48.34279" lon="-2.79528">
        <ele>212.1</ele>
        <time>2020-07-02T16:07:29.000Z</time>
      </trkpt>
      <trkpt lat="48.34275" lon="-2.79545">
        <ele>212.7</ele>
        <time>2020-07-02T16:07:33.000Z</time>
      </trkpt>
      <trkpt lat="48.34272" lon="-2.79557">
        <ele>213.1</ele>
        <time>2020-07-02T16:07:36.000Z</time>
      </trkpt>
      <trkpt lat="48.34268" lon="-2.79574">
        <ele>213.7</ele>
        <time>2020-07-02T16:07:40.000Z</time>
      </trkpt>
      <trkpt lat="48.34272" lon="-2.79589">
        <ele>214.3</ele>
        <time>2020-07-02T16:07:44.000Z</time>
      </trkpt>
      <trkpt lat="48.34278" lon="-2.79603">
        <ele>214.9</ele>
        <time>2020-07-02T16:07:48.000Z</time>
      </trkpt>
      <trkpt lat="48.34283" lon="-2.79618">
        <ele>215.6</ele>
        <time>2020-07-02T16:07:52.000Z</time>
      </trkpt>
      <trkpt lat="48.34286" lon="-2.7963">
        <ele>216.1</ele>
        <time>2020-07-02T16:07:56.000Z</time>
      </trkpt>
      <trkpt lat="48.34292" lon="-2.79645">
        <ele>216.5</ele>
        <time>2020-07-02T16:08:00.000Z</time>
      </trkpt>
      <trkpt lat="48.34299" lon="-2.79653">
        <ele>216.7</ele>
        <time>2020-07-02T16:08:04.000Z</time>
      </trkpt>
      <trkpt lat="48.34308" lon="-2.79659">
        <ele>216.6</ele>
        <time>2020-07-02T16:08:07.000Z</time>
      </trkpt>
      <trkpt lat="48.34319" lon="-2.79664">
        <ele>216.4</ele>
        <time>2020-07-02T16:08:10.000Z</time>
      </trkpt>
      <trkpt lat="48.34332" lon="-2.79671">
        <ele>216.1</ele>
        <time>2020-07-02T16:08:13.000Z</time>
      </trkpt>
      <trkpt lat="48.3434" lon="-2.79676">
        <ele>215.7</ele>
        <time>2020-07-02T16:08:15.000Z</time>
      </trkpt>
      <trkpt lat="48.3435" lon="-2.79682">
        <ele>215.3</ele>
        <time>2020-07-02T16:08:17.000Z</time>
      </trkpt>
      <trkpt lat="48.34361" lon="-2.79689">
        <ele>214.9</ele>
        <time>2020-07-02T16:08:19.000Z</time>
      </trkpt>
      <trkpt lat="48.34374" lon="-2.79694">
        <ele>214.3</ele>
        <time>2020-07-02T16:08:21.000Z</time>
      </trkpt>
      <trkpt lat="48.34389" lon="-2.79698">
        <ele>213.6</ele>
        <time>2020-07-02T16:08:23.000Z</time>
      </trkpt>
      <trkpt lat="48.34406" lon="-2.79702">
        <ele>212.8</ele>
        <time>2020-07-02T16:08:25.000Z</time>
      </trkpt>
      <trkpt lat="48.34423" lon="-2.79706">
        <ele>211.9</ele>
        <time>2020-07-02T16:08:27.000Z</time>
      </trkpt>
      <trkpt lat="48.34438" lon="-2.79711">
        <ele>210.8</ele>
        <time>2020-07-02T16:08:29.000Z</time>
      </trkpt>
      <trkpt lat="48.34453" lon="-2.79716">
        <ele>209.6</ele>
        <time>2020-07-02T16:08:31.000Z</time>
      </trkpt>
      <trkpt lat="48.34468" lon="-2.79723">
        <ele>208.4</ele>
        <time>2020-07-02T16:08:33.000Z</time>
      </trkpt>
      <trkpt lat="48.34483" lon="-2.79731">
        <ele>207.2</ele>
        <time>2020-07-02T16:08:35.000Z</time>
      </trkpt>
      <trkpt lat="48.34495" lon="-2.79737">
        <ele>206</ele>
        <time>2020-07-02T16:08:37.000Z</time>
      </trkpt>
      <trkpt lat="48.34505" lon="-2.79742">
        <ele>204.2</ele>
        <time>2020-07-02T16:08:40.000Z</time>
      </trkpt>
      <trkpt lat="48.34517" lon="-2.79749">
        <ele>202.5</ele>
        <time>2020-07-02T16:08:43.000Z</time>
      </trkpt>
      <trkpt lat="48.34529" lon="-2.79756">
        <ele>201.4</ele>
        <time>2020-07-02T16:08:45.000Z</time>
      </trkpt>
      <trkpt lat="48.34544" lon="-2.79764">
        <ele>200.7</ele>
        <time>2020-07-02T16:08:47.000Z</time>
      </trkpt>
      <trkpt lat="48.3456" lon="-2.79773">
        <ele>199.8</ele>
        <time>2020-07-02T16:08:49.000Z</time>
      </trkpt>
      <trkpt lat="48.34576" lon="-2.79782">
        <ele>199.1</ele>
        <time>2020-07-02T16:08:51.000Z</time>
      </trkpt>
      <trkpt lat="48.34588" lon="-2.79788">
        <ele>198.3</ele>
        <time>2020-07-02T16:08:53.000Z</time>
      </trkpt>
      <trkpt lat="48.34599" lon="-2.79781">
        <ele>196.9</ele>
        <time>2020-07-02T16:08:56.000Z</time>
      </trkpt>
      <trkpt lat="48.34598" lon="-2.79762">
        <ele>195.6</ele>
        <time>2020-07-02T16:08:59.000Z</time>
      </trkpt>
      <trkpt lat="48.34597" lon="-2.79749">
        <ele>194.9</ele>
        <time>2020-07-02T16:09:01.000Z</time>
      </trkpt>
      <trkpt lat="48.34596" lon="-2.79735">
        <ele>194.4</ele>
        <time>2020-07-02T16:09:03.000Z</time>
      </trkpt>
      <trkpt lat="48.34595" lon="-2.79716">
        <ele>193.8</ele>
        <time>2020-07-02T16:09:06.000Z</time>
      </trkpt>
      <trkpt lat="48.34594" lon="-2.79699">
        <ele>193.3</ele>
        <time>2020-07-02T16:09:09.000Z</time>
      </trkpt>
      <trkpt lat="48.34591" lon="-2.79682">
        <ele>193</ele>
        <time>2020-07-02T16:09:12.000Z</time>
      </trkpt>
      <trkpt lat="48.34588" lon="-2.79663">
        <ele>192.8</ele>
        <time>2020-07-02T16:09:15.000Z</time>
      </trkpt>
      <trkpt lat="48.34584" lon="-2.7965">
        <ele>192.7</ele>
        <time>2020-07-02T16:09:17.000Z</time>
      </trkpt>
      <trkpt lat="48.3458" lon="-2.79637">
        <ele>192.6</ele>
        <time>2020-07-02T16:09:19.000Z</time>
      </trkpt>
      <trkpt lat="48.34577" lon="-2.79618">
        <ele>192.6</ele>
        <time>2020-07-02T16:09:22.000Z</time>
      </trkpt>
      <trkpt lat="48.34574" lon="-2.79602">
        <ele>192.7</ele>
        <time>2020-07-02T16:09:25.000Z</time>
      </trkpt>
      <trkpt lat="48.34572" lon="-2.79587">
        <ele>192.7</ele>
        <time>2020-07-02T16:09:28.000Z</time>
      </trkpt>
      <trkpt lat="48.34569" lon="-2.79572">
        <ele>192.7</ele>
        <time>2020-07-02T16:09:31.000Z</time>
      </trkpt>
      <trkpt lat="48.34565" lon="-2.79558">
        <ele>192.7</ele>
        <time>2020-07-02T16:09:34.000Z</time>
      </trkpt>
      <trkpt lat="48.34561" lon="-2.79544">
        <ele>192.8</ele>
        <time>2020-07-02T16:09:37.000Z</time>
      </trkpt>
      <trkpt lat="48.34556" lon="-2.79529">
        <ele>193.1</ele>
        <time>2020-07-02T16:09:41.000Z</time>
      </trkpt>
      <trkpt lat="48.3455" lon="-2.79514">
        <ele>193.4</ele>
        <time>2020-07-02T16:09:45.000Z</time>
      </trkpt>
      <trkpt lat="48.34543" lon="-2.79499">
        <ele>193.6</ele>
        <time>2020-07-02T16:09:49.000Z</time>
      </trkpt>
      <trkpt lat="48.34537" lon="-2.79485">
        <ele>194</ele>
        <time>2020-07-02T16:09:53.000Z</time>
      </trkpt>
      <trkpt lat="48.3453" lon="-2.79472">
        <ele>194.4</ele>
        <time>2020-07-02T16:09:57.000Z</time>
      </trkpt>
      <trkpt lat="48.34523" lon="-2.79461">
        <ele>194.7</ele>
        <time>2020-07-02T16:10:01.000Z</time>
      </trkpt>
      <trkpt lat="48.34516" lon="-2.79451">
        <ele>195.3</ele>
        <time>2020-07-02T16:10:05.000Z</time>
      </trkpt>
      <trkpt lat="48.34508" lon="-2.79441">
        <ele>196.2</ele>
        <time>2020-07-02T16:10:10.000Z</time>
      </trkpt>
      <trkpt lat="48.345" lon="-2.7943">
        <ele>197</ele>
        <time>2020-07-02T16:10:15.000Z</time>
      </trkpt>
      <trkpt lat="48.34492" lon="-2.79419">
        <ele>198</ele>
        <time>2020-07-02T16:10:20.000Z</time>
      </trkpt>
      <trkpt lat="48.34483" lon="-2.79411">
        <ele>199</ele>
        <time>2020-07-02T16:10:25.000Z</time>
      </trkpt>
      <trkpt lat="48.34475" lon="-2.79403">
        <ele>200.1</ele>
        <time>2020-07-02T16:10:30.000Z</time>
      </trkpt>
      <trkpt lat="48.34466" lon="-2.79396">
        <ele>201.1</ele>
        <time>2020-07-02T16:10:35.000Z</time>
      </trkpt>
      <trkpt lat="48.34458" lon="-2.79386">
        <ele>201.9</ele>
        <time>2020-07-02T16:10:40.000Z</time>
      </trkpt>
      <trkpt lat="48.3445" lon="-2.79377">
        <ele>202.8</ele>
        <time>2020-07-02T16:10:45.000Z</time>
      </trkpt>
      <trkpt lat="48.34441" lon="-2.79368">
        <ele>203.6</ele>
        <time>2020-07-02T16:10:50.000Z</time>
      </trkpt>
      <trkpt lat="48.34431" lon="-2.79359">
        <ele>204.4</ele>
        <time>2020-07-02T16:10:55.000Z</time>
      </trkpt>
      <trkpt lat="48.34423" lon="-2.7935">
        <ele>204.9</ele>
        <time>2020-07-02T16:10:59.000Z</time>
      </trkpt>
      <trkpt lat="48.34415" lon="-2.79341">
        <ele>205.4</ele>
        <time>2020-07-02T16:11:03.000Z</time>
      </trkpt>
      <trkpt lat="48.34407" lon="-2.79332">
        <ele>205.8</ele>
        <time>2020-07-02T16:11:08.000Z</time>
      </trkpt>
      <trkpt lat="48.34399" lon="-2.79323">
        <ele>206.2</ele>
        <time>2020-07-02T16:11:13.000Z</time>
      </trkpt>
      <trkpt lat="48.34401" lon="-2.79307">
        <ele>206.6</ele>
        <time>2020-07-02T16:11:19.000Z</time>
      </trkpt>
      <trkpt lat="48.34406" lon="-2.79295">
        <ele>206.6</ele>
        <time>2020-07-02T16:11:25.000Z</time>
      </trkpt>
      <trkpt lat="48.34411" lon="-2.79283">
        <ele>206.4</ele>
        <time>2020-07-02T16:11:30.000Z</time>
      </trkpt>
      <trkpt lat="48.34416" lon="-2.79269">
        <ele>206.2</ele>
        <time>2020-07-02T16:11:35.000Z</time>
      </trkpt>
      <trkpt lat="48.34421" lon="-2.79256">
        <ele>206</ele>
        <time>2020-07-02T16:11:39.000Z</time>
      </trkpt>
      <trkpt lat="48.34426" lon="-2.79242">
        <ele>205.7</ele>
        <time>2020-07-02T16:11:43.000Z</time>
      </trkpt>
      <trkpt lat="48.34431" lon="-2.79227">
        <ele>205.4</ele>
        <time>2020-07-02T16:11:47.000Z</time>
      </trkpt>
      <trkpt lat="48.34435" lon="-2.79214">
        <ele>205.1</ele>
        <time>2020-07-02T16:11:50.000Z</time>
      </trkpt>
      <trkpt lat="48.3444" lon="-2.79198">
        <ele>204.8</ele>
        <time>2020-07-02T16:11:53.000Z</time>
      </trkpt>
      <trkpt lat="48.34443" lon="-2.79181">
        <ele>204.5</ele>
        <time>2020-07-02T16:11:56.000Z</time>
      </trkpt>
      <trkpt lat="48.34445" lon="-2.79162">
        <ele>204.1</ele>
        <time>2020-07-02T16:11:59.000Z</time>
      </trkpt>
      <trkpt lat="48.34444" lon="-2.79143">
        <ele>203.7</ele>
        <time>2020-07-02T16:12:02.000Z</time>
      </trkpt>
      <trkpt lat="48.34443" lon="-2.79123">
        <ele>203.2</ele>
        <time>2020-07-02T16:12:05.000Z</time>
      </trkpt>
      <trkpt lat="48.3444" lon="-2.7911">
        <ele>202.9</ele>
        <time>2020-07-02T16:12:07.000Z</time>
      </trkpt>
      <trkpt lat="48.34437" lon="-2.79096">
        <ele>202.5</ele>
        <time>2020-07-02T16:12:09.000Z</time>
      </trkpt>
      <trkpt lat="48.34433" lon="-2.79084">
        <ele>202.1</ele>
        <time>2020-07-02T16:12:11.000Z</time>
      </trkpt>
      <trkpt lat="48.3443" lon="-2.7907">
        <ele>201.7</ele>
        <time>2020-07-02T16:12:13.000Z</time>
      </trkpt>
      <trkpt lat="48.34426" lon="-2.79057">
        <ele>201.4</ele>
        <time>2020-07-02T16:12:15.000Z</time>
      </trkpt>
      <trkpt lat="48.34422" lon="-2.79043">
        <ele>201</ele>
        <time>2020-07-02T16:12:17.000Z</time>
      </trkpt>
      <trkpt lat="48.34418" lon="-2.79029">
        <ele>200.6</ele>
        <time>2020-07-02T16:12:19.000Z</time>
      </trkpt>
      <trkpt lat="48.34416" lon="-2.79016">
        <ele>200.3</ele>
        <time>2020-07-02T16:12:21.000Z</time>
      </trkpt>
      <trkpt lat="48.34419" lon="-2.78997">
        <ele>199.8</ele>
        <time>2020-07-02T16:12:24.000Z</time>
      </trkpt>
      <trkpt lat="48.3443" lon="-2.78987">
        <ele>199.5</ele>
        <time>2020-07-02T16:12:27.000Z</time>
      </trkpt>
      <trkpt lat="48.34439" lon="-2.78977">
        <ele>199.3</ele>
        <time>2020-07-02T16:12:30.000Z</time>
      </trkpt>
      <trkpt lat="48.34448" lon="-2.78966">
        <ele>199</ele>
        <time>2020-07-02T16:12:33.000Z</time>
      </trkpt>
      <trkpt lat="48.34457" lon="-2.78954">
        <ele>198.9</ele>
        <time>2020-07-02T16:12:36.000Z</time>
      </trkpt>
      <trkpt lat="48.34464" lon="-2.78942">
        <ele>198.7</ele>
        <time>2020-07-02T16:12:39.000Z</time>
      </trkpt>
      <trkpt lat="48.34471" lon="-2.78929">
        <ele>198.5</ele>
        <time>2020-07-02T16:12:42.000Z</time>
      </trkpt>
      <trkpt lat="48.34476" lon="-2.78914">
        <ele>198.3</ele>
        <time>2020-07-02T16:12:45.000Z</time>
      </trkpt>
      <trkpt lat="48.34481" lon="-2.78898">
        <ele>198.3</ele>
        <time>2020-07-02T16:12:48.000Z</time>
      </trkpt>
      <trkpt lat="48.34485" lon="-2.78882">
        <ele>198.2</ele>
        <time>2020-07-02T16:12:51.000Z</time>
      </trkpt>
      <trkpt lat="48.3449" lon="-2.78864">
        <ele>198.1</ele>
        <time>2020-07-02T16:12:54.000Z</time>
      </trkpt>
      <trkpt lat="48.34494" lon="-2.7885">
        <ele>198.1</ele>
        <time>2020-07-02T16:12:56.000Z</time>
      </trkpt>
      <trkpt lat="48.34498" lon="-2.78837">
        <ele>198</ele>
        <time>2020-07-02T16:12:58.000Z</time>
      </trkpt>
      <trkpt lat="48.34502" lon="-2.78823">
        <ele>197.9</ele>
        <time>2020-07-02T16:13:00.000Z</time>
      </trkpt>
      <trkpt lat="48.34507" lon="-2.7881">
        <ele>197.7</ele>
        <time>2020-07-02T16:13:02.000Z</time>
      </trkpt>
      <trkpt lat="48.34514" lon="-2.78797">
        <ele>197.5</ele>
        <time>2020-07-02T16:13:04.000Z</time>
      </trkpt>
      <trkpt lat="48.34521" lon="-2.78786">
        <ele>197.4</ele>
        <time>2020-07-02T16:13:06.000Z</time>
      </trkpt>
      <trkpt lat="48.3453" lon="-2.78777">
        <ele>197.4</ele>
        <time>2020-07-02T16:13:08.000Z</time>
      </trkpt>
      <trkpt lat="48.34538" lon="-2.7877">
        <ele>197.3</ele>
        <time>2020-07-02T16:13:10.000Z</time>
      </trkpt>
      <trkpt lat="48.34549" lon="-2.78759">
        <ele>197.2</ele>
        <time>2020-07-02T16:13:13.000Z</time>
      </trkpt>
      <trkpt lat="48.34557" lon="-2.78753">
        <ele>197.2</ele>
        <time>2020-07-02T16:13:15.000Z</time>
      </trkpt>
      <trkpt lat="48.34566" lon="-2.78747">
        <ele>197.2</ele>
        <time>2020-07-02T16:13:17.000Z</time>
      </trkpt>
      <trkpt lat="48.34574" lon="-2.7874">
        <ele>197.2</ele>
        <time>2020-07-02T16:13:19.000Z</time>
      </trkpt>
      <trkpt lat="48.34582" lon="-2.78726">
        <ele>197.2</ele>
        <time>2020-07-02T16:13:22.000Z</time>
      </trkpt>
      <trkpt lat="48.3459" lon="-2.78709">
        <ele>197.3</ele>
        <time>2020-07-02T16:13:25.000Z</time>
      </trkpt>
      <trkpt lat="48.34595" lon="-2.78696">
        <ele>197.3</ele>
        <time>2020-07-02T16:13:27.000Z</time>
      </trkpt>
      <trkpt lat="48.346" lon="-2.78685">
        <ele>197.3</ele>
        <time>2020-07-02T16:13:29.000Z</time>
      </trkpt>
      <trkpt lat="48.34606" lon="-2.78673">
        <ele>197.3</ele>
        <time>2020-07-02T16:13:31.000Z</time>
      </trkpt>
      <trkpt lat="48.34612" lon="-2.78661">
        <ele>197.3</ele>
        <time>2020-07-02T16:13:33.000Z</time>
      </trkpt>
      <trkpt lat="48.34618" lon="-2.78649">
        <ele>197.3</ele>
        <time>2020-07-02T16:13:35.000Z</time>
      </trkpt>
      <trkpt lat="48.34625" lon="-2.78637">
        <ele>197.3</ele>
        <time>2020-07-02T16:13:37.000Z</time>
      </trkpt>
      <trkpt lat="48.34631" lon="-2.78625">
        <ele>197.2</ele>
        <time>2020-07-02T16:13:39.000Z</time>
      </trkpt>
      <trkpt lat="48.34637" lon="-2.78613">
        <ele>197.2</ele>
        <time>2020-07-02T16:13:41.000Z</time>
      </trkpt>
      <trkpt lat="48.34643" lon="-2.78602">
        <ele>197.1</ele>
        <time>2020-07-02T16:13:43.000Z</time>
      </trkpt>
      <trkpt lat="48.34649" lon="-2.78591">
        <ele>197</ele>
        <time>2020-07-02T16:13:45.000Z</time>
      </trkpt>
      <trkpt lat="48.34657" lon="-2.78576">
        <ele>196.9</ele>
        <time>2020-07-02T16:13:48.000Z</time>
      </trkpt>
      <trkpt lat="48.34666" lon="-2.7856">
        <ele>196.8</ele>
        <time>2020-07-02T16:13:51.000Z</time>
      </trkpt>
      <trkpt lat="48.34673" lon="-2.78549">
        <ele>196.7</ele>
        <time>2020-07-02T16:13:53.000Z</time>
      </trkpt>
      <trkpt lat="48.34679" lon="-2.78537">
        <ele>196.6</ele>
        <time>2020-07-02T16:13:55.000Z</time>
      </trkpt>
      <trkpt lat="48.34686" lon="-2.78525">
        <ele>196.4</ele>
        <time>2020-07-02T16:13:57.000Z</time>
      </trkpt>
      <trkpt lat="48.34693" lon="-2.78513">
        <ele>196.2</ele>
        <time>2020-07-02T16:13:59.000Z</time>
      </trkpt>
      <trkpt lat="48.34699" lon="-2.78499">
        <ele>196.1</ele>
        <time>2020-07-02T16:14:01.000Z</time>
      </trkpt>
      <trkpt lat="48.34705" lon="-2.78485">
        <ele>195.9</ele>
        <time>2020-07-02T16:14:03.000Z</time>
      </trkpt>
      <trkpt lat="48.34711" lon="-2.78471">
        <ele>195.7</ele>
        <time>2020-07-02T16:14:05.000Z</time>
      </trkpt>
      <trkpt lat="48.34718" lon="-2.78457">
        <ele>195.6</ele>
        <time>2020-07-02T16:14:07.000Z</time>
      </trkpt>
      <trkpt lat="48.34725" lon="-2.78444">
        <ele>195.4</ele>
        <time>2020-07-02T16:14:09.000Z</time>
      </trkpt>
      <trkpt lat="48.34733" lon="-2.78432">
        <ele>195.3</ele>
        <time>2020-07-02T16:14:11.000Z</time>
      </trkpt>
      <trkpt lat="48.34741" lon="-2.7842">
        <ele>195.2</ele>
        <time>2020-07-02T16:14:13.000Z</time>
      </trkpt>
      <trkpt lat="48.34749" lon="-2.78407">
        <ele>195</ele>
        <time>2020-07-02T16:14:15.000Z</time>
      </trkpt>
      <trkpt lat="48.34756" lon="-2.78394">
        <ele>194.8</ele>
        <time>2020-07-02T16:14:17.000Z</time>
      </trkpt>
      <trkpt lat="48.34763" lon="-2.7838">
        <ele>194.6</ele>
        <time>2020-07-02T16:14:19.000Z</time>
      </trkpt>
      <trkpt lat="48.34769" lon="-2.78366">
        <ele>194.3</ele>
        <time>2020-07-02T16:14:21.000Z</time>
      </trkpt>
      <trkpt lat="48.34776" lon="-2.78352">
        <ele>194.1</ele>
        <time>2020-07-02T16:14:23.000Z</time>
      </trkpt>
      <trkpt lat="48.34782" lon="-2.78338">
        <ele>194</ele>
        <time>2020-07-02T16:14:25.000Z</time>
      </trkpt>
      <trkpt lat="48.34788" lon="-2.78324">
        <ele>193.8</ele>
        <time>2020-07-02T16:14:27.000Z</time>
      </trkpt>
      <trkpt lat="48.34794" lon="-2.7831">
        <ele>193.7</ele>
        <time>2020-07-02T16:14:29.000Z</time>
      </trkpt>
      <trkpt lat="48.34798" lon="-2.78295">
        <ele>193.5</ele>
        <time>2020-07-02T16:14:31.000Z</time>
      </trkpt>
      <trkpt lat="48.34794" lon="-2.78281">
        <ele>193.3</ele>
        <time>2020-07-02T16:14:33.000Z</time>
      </trkpt>
      <trkpt lat="48.34785" lon="-2.78271">
        <ele>193.2</ele>
        <time>2020-07-02T16:14:35.000Z</time>
      </trkpt>
      <trkpt lat="48.34776" lon="-2.78261">
        <ele>193</ele>
        <time>2020-07-02T16:14:37.000Z</time>
      </trkpt>
      <trkpt lat="48.34767" lon="-2.78252">
        <ele>192.9</ele>
        <time>2020-07-02T16:14:39.000Z</time>
      </trkpt>
      <trkpt lat="48.34757" lon="-2.78244">
        <ele>192.8</ele>
        <time>2020-07-02T16:14:41.000Z</time>
      </trkpt>
      <trkpt lat="48.34746" lon="-2.78236">
        <ele>192.7</ele>
        <time>2020-07-02T16:14:43.000Z</time>
      </trkpt>
      <trkpt lat="48.34735" lon="-2.78229">
        <ele>192.5</ele>
        <time>2020-07-02T16:14:45.000Z</time>
      </trkpt>
      <trkpt lat="48.34724" lon="-2.78221">
        <ele>192.4</ele>
        <time>2020-07-02T16:14:47.000Z</time>
      </trkpt>
      <trkpt lat="48.34712" lon="-2.78213">
        <ele>192.2</ele>
        <time>2020-07-02T16:14:49.000Z</time>
      </trkpt>
      <trkpt lat="48.347" lon="-2.78205">
        <ele>192.1</ele>
        <time>2020-07-02T16:14:51.000Z</time>
      </trkpt>
      <trkpt lat="48.34688" lon="-2.78198">
        <ele>191.8</ele>
        <time>2020-07-02T16:14:53.000Z</time>
      </trkpt>
      <trkpt lat="48.34675" lon="-2.78193">
        <ele>191.5</ele>
        <time>2020-07-02T16:14:55.000Z</time>
      </trkpt>
      <trkpt lat="48.34662" lon="-2.78188">
        <ele>191.2</ele>
        <time>2020-07-02T16:14:57.000Z</time>
      </trkpt>
      <trkpt lat="48.34649" lon="-2.78184">
        <ele>190.9</ele>
        <time>2020-07-02T16:14:59.000Z</time>
      </trkpt>
      <trkpt lat="48.34636" lon="-2.7818">
        <ele>190.6</ele>
        <time>2020-07-02T16:15:01.000Z</time>
      </trkpt>
      <trkpt lat="48.34624" lon="-2.78176">
        <ele>190.4</ele>
        <time>2020-07-02T16:15:03.000Z</time>
      </trkpt>
      <trkpt lat="48.34611" lon="-2.78172">
        <ele>190.2</ele>
        <time>2020-07-02T16:15:05.000Z</time>
      </trkpt>
      <trkpt lat="48.346" lon="-2.78168">
        <ele>189.9</ele>
        <time>2020-07-02T16:15:07.000Z</time>
      </trkpt>
      <trkpt lat="48.34588" lon="-2.78164">
        <ele>189.7</ele>
        <time>2020-07-02T16:15:09.000Z</time>
      </trkpt>
      <trkpt lat="48.34577" lon="-2.7816">
        <ele>189.5</ele>
        <time>2020-07-02T16:15:11.000Z</time>
      </trkpt>
      <trkpt lat="48.34565" lon="-2.78156">
        <ele>189.2</ele>
        <time>2020-07-02T16:15:13.000Z</time>
      </trkpt>
      <trkpt lat="48.34553" lon="-2.78152">
        <ele>189</ele>
        <time>2020-07-02T16:15:15.000Z</time>
      </trkpt>
      <trkpt lat="48.34541" lon="-2.78148">
        <ele>188.8</ele>
        <time>2020-07-02T16:15:17.000Z</time>
      </trkpt>
      <trkpt lat="48.34529" lon="-2.78144">
        <ele>188.6</ele>
        <time>2020-07-02T16:15:19.000Z</time>
      </trkpt>
      <trkpt lat="48.34517" lon="-2.7814">
        <ele>188.4</ele>
        <time>2020-07-02T16:15:21.000Z</time>
      </trkpt>
      <trkpt lat="48.34504" lon="-2.78134">
        <ele>188.2</ele>
        <time>2020-07-02T16:15:23.000Z</time>
      </trkpt>
      <trkpt lat="48.34493" lon="-2.78126">
        <ele>188.1</ele>
        <time>2020-07-02T16:15:25.000Z</time>
      </trkpt>
      <trkpt lat="48.34482" lon="-2.78117">
        <ele>187.9</ele>
        <time>2020-07-02T16:15:27.000Z</time>
      </trkpt>
      <trkpt lat="48.34473" lon="-2.78105">
        <ele>187.7</ele>
        <time>2020-07-02T16:15:29.000Z</time>
      </trkpt>
      <trkpt lat="48.34465" lon="-2.78093">
        <ele>187.6</ele>
        <time>2020-07-02T16:15:31.000Z</time>
      </trkpt>
      <trkpt lat="48.34457" lon="-2.78081">
        <ele>187.5</ele>
        <time>2020-07-02T16:15:33.000Z</time>
      </trkpt>
      <trkpt lat="48.3445" lon="-2.7807">
        <ele>187.4</ele>
        <time>2020-07-02T16:15:35.000Z</time>
      </trkpt>
      <trkpt lat="48.34444" lon="-2.78059">
        <ele>187.4</ele>
        <time>2020-07-02T16:15:37.000Z</time>
      </trkpt>
      <trkpt lat="48.34438" lon="-2.78049">
        <ele>187.4</ele>
        <time>2020-07-02T16:15:39.000Z</time>
      </trkpt>
      <trkpt lat="48.34433" lon="-2.78038">
        <ele>187.6</ele>
        <time>2020-07-02T16:15:41.000Z</time>
      </trkpt>
      <trkpt lat="48.34427" lon="-2.78027">
        <ele>187.7</ele>
        <time>2020-07-02T16:15:43.000Z</time>
      </trkpt>
      <trkpt lat="48.3442" lon="-2.78011">
        <ele>187.9</ele>
        <time>2020-07-02T16:15:46.000Z</time>
      </trkpt>
      <trkpt lat="48.34412" lon="-2.77995">
        <ele>188.2</ele>
        <time>2020-07-02T16:15:49.000Z</time>
      </trkpt>
      <trkpt lat="48.34405" lon="-2.77978">
        <ele>188.3</ele>
        <time>2020-07-02T16:15:52.000Z</time>
      </trkpt>
      <trkpt lat="48.34397" lon="-2.77963">
        <ele>188.4</ele>
        <time>2020-07-02T16:15:55.000Z</time>
      </trkpt>
      <trkpt lat="48.34389" lon="-2.7795">
        <ele>188.6</ele>
        <time>2020-07-02T16:15:58.000Z</time>
      </trkpt>
      <trkpt lat="48.34379" lon="-2.77941">
        <ele>188.8</ele>
        <time>2020-07-02T16:16:01.000Z</time>
      </trkpt>
      <trkpt lat="48.34369" lon="-2.77935">
        <ele>188.9</ele>
        <time>2020-07-02T16:16:04.000Z</time>
      </trkpt>
      <trkpt lat="48.34357" lon="-2.7793">
        <ele>189.1</ele>
        <time>2020-07-02T16:16:07.000Z</time>
      </trkpt>
      <trkpt lat="48.34346" lon="-2.77924">
        <ele>189.3</ele>
        <time>2020-07-02T16:16:10.000Z</time>
      </trkpt>
      <trkpt lat="48.34333" lon="-2.77919">
        <ele>189.5</ele>
        <time>2020-07-02T16:16:13.000Z</time>
      </trkpt>
      <trkpt lat="48.34322" lon="-2.77913">
        <ele>189.6</ele>
        <time>2020-07-02T16:16:16.000Z</time>
      </trkpt>
      <trkpt lat="48.34312" lon="-2.77908">
        <ele>189.7</ele>
        <time>2020-07-02T16:16:19.000Z</time>
      </trkpt>
      <trkpt lat="48.34302" lon="-2.77903">
        <ele>189.8</ele>
        <time>2020-07-02T16:16:23.000Z</time>
      </trkpt>
      <trkpt lat="48.34291" lon="-2.77896">
        <ele>189.9</ele>
        <time>2020-07-02T16:16:27.000Z</time>
      </trkpt>
      <trkpt lat="48.34282" lon="-2.77888">
        <ele>189.9</ele>
        <time>2020-07-02T16:16:30.000Z</time>
      </trkpt>
      <trkpt lat="48.34272" lon="-2.7788">
        <ele>189.9</ele>
        <time>2020-07-02T16:16:33.000Z</time>
      </trkpt>
      <trkpt lat="48.34261" lon="-2.7787">
        <ele>189.9</ele>
        <time>2020-07-02T16:16:36.000Z</time>
      </trkpt>
      <trkpt lat="48.34252" lon="-2.77863">
        <ele>189.9</ele>
        <time>2020-07-02T16:16:39.000Z</time>
      </trkpt>
      <trkpt lat="48.34243" lon="-2.77858">
        <ele>189.9</ele>
        <time>2020-07-02T16:16:42.000Z</time>
      </trkpt>
      <trkpt lat="48.34234" lon="-2.77853">
        <ele>189.9</ele>
        <time>2020-07-02T16:16:45.000Z</time>
      </trkpt>
      <trkpt lat="48.34224" lon="-2.77846">
        <ele>189.7</ele>
        <time>2020-07-02T16:16:48.000Z</time>
      </trkpt>
      <trkpt lat="48.34215" lon="-2.77838">
        <ele>189.6</ele>
        <time>2020-07-02T16:16:51.000Z</time>
      </trkpt>
      <trkpt lat="48.34205" lon="-2.77829">
        <ele>189.5</ele>
        <time>2020-07-02T16:16:54.000Z</time>
      </trkpt>
      <trkpt lat="48.34195" lon="-2.7782">
        <ele>189.4</ele>
        <time>2020-07-02T16:16:57.000Z</time>
      </trkpt>
      <trkpt lat="48.34184" lon="-2.7781">
        <ele>189.3</ele>
        <time>2020-07-02T16:17:00.000Z</time>
      </trkpt>
      <trkpt lat="48.34175" lon="-2.77798">
        <ele>189.2</ele>
        <time>2020-07-02T16:17:03.000Z</time>
      </trkpt>
      <trkpt lat="48.34167" lon="-2.77783">
        <ele>189</ele>
        <time>2020-07-02T16:17:06.000Z</time>
      </trkpt>
      <trkpt lat="48.34161" lon="-2.77771">
        <ele>188.9</ele>
        <time>2020-07-02T16:17:09.000Z</time>
      </trkpt>
      <trkpt lat="48.34155" lon="-2.77755">
        <ele>188.6</ele>
        <time>2020-07-02T16:17:12.000Z</time>
      </trkpt>
      <trkpt lat="48.34147" lon="-2.77739">
        <ele>188.3</ele>
        <time>2020-07-02T16:17:15.000Z</time>
      </trkpt>
      <trkpt lat="48.3414" lon="-2.77724">
        <ele>188</ele>
        <time>2020-07-02T16:17:18.000Z</time>
      </trkpt>
      <trkpt lat="48.34134" lon="-2.7771">
        <ele>187.6</ele>
        <time>2020-07-02T16:17:21.000Z</time>
      </trkpt>
      <trkpt lat="48.34128" lon="-2.77697">
        <ele>187.2</ele>
        <time>2020-07-02T16:17:24.000Z</time>
      </trkpt>
      <trkpt lat="48.34124" lon="-2.77682">
        <ele>186.8</ele>
        <time>2020-07-02T16:17:27.000Z</time>
      </trkpt>
      <trkpt lat="48.34124" lon="-2.77665">
        <ele>186.5</ele>
        <time>2020-07-02T16:17:30.000Z</time>
      </trkpt>
      <trkpt lat="48.34126" lon="-2.77647">
        <ele>186.2</ele>
        <time>2020-07-02T16:17:33.000Z</time>
      </trkpt>
      <trkpt lat="48.34127" lon="-2.7763">
        <ele>186.1</ele>
        <time>2020-07-02T16:17:36.000Z</time>
      </trkpt>
      <trkpt lat="48.34129" lon="-2.77615">
        <ele>186</ele>
        <time>2020-07-02T16:17:39.000Z</time>
      </trkpt>
      <trkpt lat="48.34129" lon="-2.776">
        <ele>186</ele>
        <time>2020-07-02T16:17:42.000Z</time>
      </trkpt>
      <trkpt lat="48.34128" lon="-2.77586">
        <ele>186</ele>
        <time>2020-07-02T16:17:45.000Z</time>
      </trkpt>
      <trkpt lat="48.3412" lon="-2.77577">
        <ele>185.8</ele>
        <time>2020-07-02T16:17:49.000Z</time>
      </trkpt>
      <trkpt lat="48.34109" lon="-2.7758">
        <ele>185.7</ele>
        <time>2020-07-02T16:17:52.000Z</time>
      </trkpt>
      <trkpt lat="48.34097" lon="-2.77582">
        <ele>185.4</ele>
        <time>2020-07-02T16:17:55.000Z</time>
      </trkpt>
      <trkpt lat="48.34084" lon="-2.77583">
        <ele>185.2</ele>
        <time>2020-07-02T16:17:58.000Z</time>
      </trkpt>
      <trkpt lat="48.34072" lon="-2.77583">
        <ele>184.8</ele>
        <time>2020-07-02T16:18:01.000Z</time>
      </trkpt>
      <trkpt lat="48.3406" lon="-2.77582">
        <ele>184.5</ele>
        <time>2020-07-02T16:18:04.000Z</time>
      </trkpt>
      <trkpt lat="48.34047" lon="-2.77581">
        <ele>184.2</ele>
        <time>2020-07-02T16:18:07.000Z</time>
      </trkpt>
      <trkpt lat="48.34034" lon="-2.7758">
        <ele>183.9</ele>
        <time>2020-07-02T16:18:10.000Z</time>
      </trkpt>
      <trkpt lat="48.34024" lon="-2.7758">
        <ele>183.7</ele>
        <time>2020-07-02T16:18:12.000Z</time>
      </trkpt>
      <trkpt lat="48.34015" lon="-2.77579">
        <ele>183.5</ele>
        <time>2020-07-02T16:18:14.000Z</time>
      </trkpt>
      <trkpt lat="48.34005" lon="-2.77579">
        <ele>183.4</ele>
        <time>2020-07-02T16:18:16.000Z</time>
      </trkpt>
      <trkpt lat="48.33994" lon="-2.77577">
        <ele>183.2</ele>
        <time>2020-07-02T16:18:18.000Z</time>
      </trkpt>
      <trkpt lat="48.33983" lon="-2.77575">
        <ele>183.1</ele>
        <time>2020-07-02T16:18:20.000Z</time>
      </trkpt>
      <trkpt lat="48.33972" lon="-2.77571">
        <ele>182.9</ele>
        <time>2020-07-02T16:18:22.000Z</time>
      </trkpt>
      <trkpt lat="48.33959" lon="-2.77566">
        <ele>182.8</ele>
        <time>2020-07-02T16:18:24.000Z</time>
      </trkpt>
      <trkpt lat="48.33946" lon="-2.77559">
        <ele>182.6</ele>
        <time>2020-07-02T16:18:26.000Z</time>
      </trkpt>
      <trkpt lat="48.33932" lon="-2.77553">
        <ele>182.3</ele>
        <time>2020-07-02T16:18:28.000Z</time>
      </trkpt>
      <trkpt lat="48.33918" lon="-2.77546">
        <ele>182.1</ele>
        <time>2020-07-02T16:18:30.000Z</time>
      </trkpt>
      <trkpt lat="48.33903" lon="-2.77539">
        <ele>181.8</ele>
        <time>2020-07-02T16:18:32.000Z</time>
      </trkpt>
      <trkpt lat="48.33888" lon="-2.77534">
        <ele>181.5</ele>
        <time>2020-07-02T16:18:34.000Z</time>
      </trkpt>
      <trkpt lat="48.33872" lon="-2.7753">
        <ele>181.1</ele>
        <time>2020-07-02T16:18:36.000Z</time>
      </trkpt>
      <trkpt lat="48.33858" lon="-2.77528">
        <ele>180.8</ele>
        <time>2020-07-02T16:18:38.000Z</time>
      </trkpt>
      <trkpt lat="48.33844" lon="-2.77526">
        <ele>180.5</ele>
        <time>2020-07-02T16:18:40.000Z</time>
      </trkpt>
      <trkpt lat="48.33831" lon="-2.77526">
        <ele>180.2</ele>
        <time>2020-07-02T16:18:42.000Z</time>
      </trkpt>
      <trkpt lat="48.33818" lon="-2.77524">
        <ele>180</ele>
        <time>2020-07-02T16:18:44.000Z</time>
      </trkpt>
      <trkpt lat="48.33806" lon="-2.77524">
        <ele>179.8</ele>
        <time>2020-07-02T16:18:46.000Z</time>
      </trkpt>
      <trkpt lat="48.33795" lon="-2.77523">
        <ele>179.7</ele>
        <time>2020-07-02T16:18:48.000Z</time>
      </trkpt>
      <trkpt lat="48.33785" lon="-2.77521">
        <ele>179.7</ele>
        <time>2020-07-02T16:18:50.000Z</time>
      </trkpt>
      <trkpt lat="48.33775" lon="-2.7752">
        <ele>179.7</ele>
        <time>2020-07-02T16:18:52.000Z</time>
      </trkpt>
      <trkpt lat="48.33766" lon="-2.77519">
        <ele>179.8</ele>
        <time>2020-07-02T16:18:54.000Z</time>
      </trkpt>
      <trkpt lat="48.33757" lon="-2.77519">
        <ele>180</ele>
        <time>2020-07-02T16:18:56.000Z</time>
      </trkpt>
      <trkpt lat="48.33744" lon="-2.77517">
        <ele>180.2</ele>
        <time>2020-07-02T16:18:59.000Z</time>
      </trkpt>
      <trkpt lat="48.33731" lon="-2.77517">
        <ele>180.4</ele>
        <time>2020-07-02T16:19:02.000Z</time>
      </trkpt>
      <trkpt lat="48.33719" lon="-2.77515">
        <ele>180.6</ele>
        <time>2020-07-02T16:19:05.000Z</time>
      </trkpt>
      <trkpt lat="48.33706" lon="-2.77513">
        <ele>180.9</ele>
        <time>2020-07-02T16:19:08.000Z</time>
      </trkpt>
      <trkpt lat="48.33693" lon="-2.7751">
        <ele>181.3</ele>
        <time>2020-07-02T16:19:11.000Z</time>
      </trkpt>
      <trkpt lat="48.33681" lon="-2.77506">
        <ele>181.6</ele>
        <time>2020-07-02T16:19:14.000Z</time>
      </trkpt>
      <trkpt lat="48.33669" lon="-2.77503">
        <ele>181.9</ele>
        <time>2020-07-02T16:19:17.000Z</time>
      </trkpt>
      <trkpt lat="48.33656" lon="-2.77499">
        <ele>182.2</ele>
        <time>2020-07-02T16:19:20.000Z</time>
      </trkpt>
      <trkpt lat="48.33644" lon="-2.77495">
        <ele>182.5</ele>
        <time>2020-07-02T16:19:23.000Z</time>
      </trkpt>
      <trkpt lat="48.33633" lon="-2.77491">
        <ele>182.9</ele>
        <time>2020-07-02T16:19:26.000Z</time>
      </trkpt>
      <trkpt lat="48.33622" lon="-2.77488">
        <ele>183.2</ele>
        <time>2020-07-02T16:19:29.000Z</time>
      </trkpt>
      <trkpt lat="48.33611" lon="-2.77484">
        <ele>183.6</ele>
        <time>2020-07-02T16:19:32.000Z</time>
      </trkpt>
      <trkpt lat="48.33601" lon="-2.77481">
        <ele>184</ele>
        <time>2020-07-02T16:19:35.000Z</time>
      </trkpt>
      <trkpt lat="48.33591" lon="-2.77478">
        <ele>184.5</ele>
        <time>2020-07-02T16:19:38.000Z</time>
      </trkpt>
      <trkpt lat="48.33581" lon="-2.77475">
        <ele>185</ele>
        <time>2020-07-02T16:19:41.000Z</time>
      </trkpt>
      <trkpt lat="48.33572" lon="-2.77472">
        <ele>185.4</ele>
        <time>2020-07-02T16:19:44.000Z</time>
      </trkpt>
      <trkpt lat="48.33563" lon="-2.77469">
        <ele>185.8</ele>
        <time>2020-07-02T16:19:47.000Z</time>
      </trkpt>
      <trkpt lat="48.33552" lon="-2.77465">
        <ele>186.1</ele>
        <time>2020-07-02T16:19:51.000Z</time>
      </trkpt>
      <trkpt lat="48.33541" lon="-2.77461">
        <ele>186.5</ele>
        <time>2020-07-02T16:19:55.000Z</time>
      </trkpt>
      <trkpt lat="48.33532" lon="-2.77456">
        <ele>186.9</ele>
        <time>2020-07-02T16:19:59.000Z</time>
      </trkpt>
      <trkpt lat="48.3353" lon="-2.7744">
        <ele>187.3</ele>
        <time>2020-07-02T16:20:03.000Z</time>
      </trkpt>
      <trkpt lat="48.33532" lon="-2.77426">
        <ele>187.6</ele>
        <time>2020-07-02T16:20:06.000Z</time>
      </trkpt>
      <trkpt lat="48.33534" lon="-2.77412">
        <ele>187.8</ele>
        <time>2020-07-02T16:20:09.000Z</time>
      </trkpt>
      <trkpt lat="48.33536" lon="-2.77396">
        <ele>187.9</ele>
        <time>2020-07-02T16:20:12.000Z</time>
      </trkpt>
      <trkpt lat="48.33538" lon="-2.7738">
        <ele>187.9</ele>
        <time>2020-07-02T16:20:15.000Z</time>
      </trkpt>
      <trkpt lat="48.33539" lon="-2.77363">
        <ele>188.1</ele>
        <time>2020-07-02T16:20:18.000Z</time>
      </trkpt>
      <trkpt lat="48.33542" lon="-2.77347">
        <ele>188.2</ele>
        <time>2020-07-02T16:20:21.000Z</time>
      </trkpt>
      <trkpt lat="48.33548" lon="-2.7733">
        <ele>188.3</ele>
        <time>2020-07-02T16:20:24.000Z</time>
      </trkpt>
      <trkpt lat="48.33555" lon="-2.77313">
        <ele>188.3</ele>
        <time>2020-07-02T16:20:27.000Z</time>
      </trkpt>
      <trkpt lat="48.3356" lon="-2.77302">
        <ele>188.4</ele>
        <time>2020-07-02T16:20:29.000Z</time>
      </trkpt>
      <trkpt lat="48.33565" lon="-2.77291">
        <ele>188.4</ele>
        <time>2020-07-02T16:20:31.000Z</time>
      </trkpt>
      <trkpt lat="48.33573" lon="-2.77275">
        <ele>188.4</ele>
        <time>2020-07-02T16:20:34.000Z</time>
      </trkpt>
      <trkpt lat="48.3358" lon="-2.77259">
        <ele>188.4</ele>
        <time>2020-07-02T16:20:37.000Z</time>
      </trkpt>
      <trkpt lat="48.33588" lon="-2.77243">
        <ele>188.4</ele>
        <time>2020-07-02T16:20:40.000Z</time>
      </trkpt>
      <trkpt lat="48.33595" lon="-2.77228">
        <ele>188.3</ele>
        <time>2020-07-02T16:20:43.000Z</time>
      </trkpt>
      <trkpt lat="48.33597" lon="-2.7721">
        <ele>188.2</ele>
        <time>2020-07-02T16:20:46.000Z</time>
      </trkpt>
      <trkpt lat="48.33592" lon="-2.77194">
        <ele>188.1</ele>
        <time>2020-07-02T16:20:49.000Z</time>
      </trkpt>
      <trkpt lat="48.33585" lon="-2.77179">
        <ele>188.1</ele>
        <time>2020-07-02T16:20:52.000Z</time>
      </trkpt>
      <trkpt lat="48.33579" lon="-2.77165">
        <ele>188.1</ele>
        <time>2020-07-02T16:20:55.000Z</time>
      </trkpt>
      <trkpt lat="48.33571" lon="-2.7715">
        <ele>188.2</ele>
        <time>2020-07-02T16:20:58.000Z</time>
      </trkpt>
      <trkpt lat="48.33564" lon="-2.77136">
        <ele>188.3</ele>
        <time>2020-07-02T16:21:01.000Z</time>
      </trkpt>
      <trkpt lat="48.33557" lon="-2.77122">
        <ele>188.5</ele>
        <time>2020-07-02T16:21:04.000Z</time>
      </trkpt>
      <trkpt lat="48.33549" lon="-2.77108">
        <ele>188.7</ele>
        <time>2020-07-02T16:21:07.000Z</time>
      </trkpt>
      <trkpt lat="48.33542" lon="-2.77095">
        <ele>188.9</ele>
        <time>2020-07-02T16:21:10.000Z</time>
      </trkpt>
      <trkpt lat="48.33535" lon="-2.77081">
        <ele>189.1</ele>
        <time>2020-07-02T16:21:13.000Z</time>
      </trkpt>
      <trkpt lat="48.33529" lon="-2.77067">
        <ele>189.4</ele>
        <time>2020-07-02T16:21:16.000Z</time>
      </trkpt>
      <trkpt lat="48.33522" lon="-2.77055">
        <ele>189.8</ele>
        <time>2020-07-02T16:21:19.000Z</time>
      </trkpt>
      <trkpt lat="48.33516" lon="-2.77042">
        <ele>190.1</ele>
        <time>2020-07-02T16:21:22.000Z</time>
      </trkpt>
      <trkpt lat="48.33507" lon="-2.77032">
        <ele>190.3</ele>
        <time>2020-07-02T16:21:25.000Z</time>
      </trkpt>
      <trkpt lat="48.33496" lon="-2.77032">
        <ele>190.4</ele>
        <time>2020-07-02T16:21:28.000Z</time>
      </trkpt>
      <trkpt lat="48.33484" lon="-2.77035">
        <ele>190.5</ele>
        <time>2020-07-02T16:21:31.000Z</time>
      </trkpt>
      <trkpt lat="48.33475" lon="-2.77037">
        <ele>190.5</ele>
        <time>2020-07-02T16:21:33.000Z</time>
      </trkpt>
      <trkpt lat="48.33465" lon="-2.77039">
        <ele>190.3</ele>
        <time>2020-07-02T16:21:35.000Z</time>
      </trkpt>
      <trkpt lat="48.33454" lon="-2.77043">
        <ele>190.1</ele>
        <time>2020-07-02T16:21:37.000Z</time>
      </trkpt>
      <trkpt lat="48.33445" lon="-2.77047">
        <ele>189.9</ele>
        <time>2020-07-02T16:21:39.000Z</time>
      </trkpt>
      <trkpt lat="48.33436" lon="-2.77051">
        <ele>189.6</ele>
        <time>2020-07-02T16:21:41.000Z</time>
      </trkpt>
      <trkpt lat="48.33427" lon="-2.77057">
        <ele>189.3</ele>
        <time>2020-07-02T16:21:43.000Z</time>
      </trkpt>
      <trkpt lat="48.33418" lon="-2.77065">
        <ele>189</ele>
        <time>2020-07-02T16:21:45.000Z</time>
      </trkpt>
      <trkpt lat="48.33408" lon="-2.77078">
        <ele>188.6</ele>
        <time>2020-07-02T16:21:47.000Z</time>
      </trkpt>
      <trkpt lat="48.33401" lon="-2.77096">
        <ele>188.2</ele>
        <time>2020-07-02T16:21:49.000Z</time>
      </trkpt>
      <trkpt lat="48.33393" lon="-2.77112">
        <ele>187.8</ele>
        <time>2020-07-02T16:21:51.000Z</time>
      </trkpt>
      <trkpt lat="48.3338" lon="-2.77116">
        <ele>187.4</ele>
        <time>2020-07-02T16:21:53.000Z</time>
      </trkpt>
      <trkpt lat="48.33369" lon="-2.77114">
        <ele>187</ele>
        <time>2020-07-02T16:21:55.000Z</time>
      </trkpt>
      <trkpt lat="48.33358" lon="-2.77111">
        <ele>186.6</ele>
        <time>2020-07-02T16:21:57.000Z</time>
      </trkpt>
      <trkpt lat="48.33348" lon="-2.77109">
        <ele>186.3</ele>
        <time>2020-07-02T16:21:59.000Z</time>
      </trkpt>
      <trkpt lat="48.33339" lon="-2.77108">
        <ele>186.1</ele>
        <time>2020-07-02T16:22:01.000Z</time>
      </trkpt>
      <trkpt lat="48.3333" lon="-2.77106">
        <ele>186</ele>
        <time>2020-07-02T16:22:03.000Z</time>
      </trkpt>
      <trkpt lat="48.33317" lon="-2.77105">
        <ele>185.9</ele>
        <time>2020-07-02T16:22:06.000Z</time>
      </trkpt>
      <trkpt lat="48.33308" lon="-2.77102">
        <ele>185.8</ele>
        <time>2020-07-02T16:22:08.000Z</time>
      </trkpt>
      <trkpt lat="48.33296" lon="-2.77097">
        <ele>185.9</ele>
        <time>2020-07-02T16:22:11.000Z</time>
      </trkpt>
      <trkpt lat="48.33286" lon="-2.77084">
        <ele>185.9</ele>
        <time>2020-07-02T16:22:14.000Z</time>
      </trkpt>
      <trkpt lat="48.3328" lon="-2.77066">
        <ele>186</ele>
        <time>2020-07-02T16:22:17.000Z</time>
      </trkpt>
      <trkpt lat="48.33278" lon="-2.77052">
        <ele>186.1</ele>
        <time>2020-07-02T16:22:19.000Z</time>
      </trkpt>
      <trkpt lat="48.33275" lon="-2.77036">
        <ele>186.1</ele>
        <time>2020-07-02T16:22:21.000Z</time>
      </trkpt>
      <trkpt lat="48.33273" lon="-2.7702">
        <ele>186.2</ele>
        <time>2020-07-02T16:22:23.000Z</time>
      </trkpt>
      <trkpt lat="48.33272" lon="-2.77005">
        <ele>186.2</ele>
        <time>2020-07-02T16:22:25.000Z</time>
      </trkpt>
      <trkpt lat="48.33269" lon="-2.76989">
        <ele>186.2</ele>
        <time>2020-07-02T16:22:27.000Z</time>
      </trkpt>
      <trkpt lat="48.33267" lon="-2.76974">
        <ele>186.2</ele>
        <time>2020-07-02T16:22:29.000Z</time>
      </trkpt>
      <trkpt lat="48.33264" lon="-2.7696">
        <ele>186.2</ele>
        <time>2020-07-02T16:22:31.000Z</time>
      </trkpt>
      <trkpt lat="48.33262" lon="-2.76945">
        <ele>186.2</ele>
        <time>2020-07-02T16:22:33.000Z</time>
      </trkpt>
      <trkpt lat="48.33261" lon="-2.76931">
        <ele>186.1</ele>
        <time>2020-07-02T16:22:35.000Z</time>
      </trkpt>
      <trkpt lat="48.33263" lon="-2.76917">
        <ele>186.1</ele>
        <time>2020-07-02T16:22:37.000Z</time>
      </trkpt>
      <trkpt lat="48.33267" lon="-2.76905">
        <ele>186.1</ele>
        <time>2020-07-02T16:22:39.000Z</time>
      </trkpt>
      <trkpt lat="48.33274" lon="-2.76895">
        <ele>186.1</ele>
        <time>2020-07-02T16:22:41.000Z</time>
      </trkpt>
      <trkpt lat="48.33281" lon="-2.76884">
        <ele>186</ele>
        <time>2020-07-02T16:22:43.000Z</time>
      </trkpt>
      <trkpt lat="48.33284" lon="-2.7687">
        <ele>186</ele>
        <time>2020-07-02T16:22:45.000Z</time>
      </trkpt>
      <trkpt lat="48.33282" lon="-2.76856">
        <ele>185.9</ele>
        <time>2020-07-02T16:22:47.000Z</time>
      </trkpt>
      <trkpt lat="48.33277" lon="-2.76839">
        <ele>185.9</ele>
        <time>2020-07-02T16:22:50.000Z</time>
      </trkpt>
      <trkpt lat="48.33272" lon="-2.76823">
        <ele>185.8</ele>
        <time>2020-07-02T16:22:53.000Z</time>
      </trkpt>
      <trkpt lat="48.33269" lon="-2.76808">
        <ele>185.8</ele>
        <time>2020-07-02T16:22:56.000Z</time>
      </trkpt>
      <trkpt lat="48.33269" lon="-2.76793">
        <ele>186</ele>
        <time>2020-07-02T16:23:00.000Z</time>
      </trkpt>
      <trkpt lat="48.33279" lon="-2.76782">
        <ele>186.1</ele>
        <time>2020-07-02T16:23:04.000Z</time>
      </trkpt>
      <trkpt lat="48.33288" lon="-2.76777">
        <ele>186.1</ele>
        <time>2020-07-02T16:23:07.000Z</time>
      </trkpt>
      <trkpt lat="48.33297" lon="-2.76768">
        <ele>186.2</ele>
        <time>2020-07-02T16:23:10.000Z</time>
      </trkpt>
      <trkpt lat="48.33307" lon="-2.7676">
        <ele>186.2</ele>
        <time>2020-07-02T16:23:13.000Z</time>
      </trkpt>
      <trkpt lat="48.33316" lon="-2.76753">
        <ele>186.2</ele>
        <time>2020-07-02T16:23:16.000Z</time>
      </trkpt>
      <trkpt lat="48.33324" lon="-2.76745">
        <ele>186.4</ele>
        <time>2020-07-02T16:23:19.000Z</time>
      </trkpt>
      <trkpt lat="48.33332" lon="-2.76739">
        <ele>186.7</ele>
        <time>2020-07-02T16:23:22.000Z</time>
      </trkpt>
      <trkpt lat="48.33343" lon="-2.76731">
        <ele>187.2</ele>
        <time>2020-07-02T16:23:26.000Z</time>
      </trkpt>
      <trkpt lat="48.33353" lon="-2.76724">
        <ele>187.7</ele>
        <time>2020-07-02T16:23:30.000Z</time>
      </trkpt>
      <trkpt lat="48.33364" lon="-2.76716">
        <ele>188.4</ele>
        <time>2020-07-02T16:23:34.000Z</time>
      </trkpt>
      <trkpt lat="48.33373" lon="-2.76709">
        <ele>189.1</ele>
        <time>2020-07-02T16:23:38.000Z</time>
      </trkpt>
      <trkpt lat="48.33381" lon="-2.76702">
        <ele>189.8</ele>
        <time>2020-07-02T16:23:42.000Z</time>
      </trkpt>
      <trkpt lat="48.3339" lon="-2.76696">
        <ele>190.4</ele>
        <time>2020-07-02T16:23:46.000Z</time>
      </trkpt>
      <trkpt lat="48.334" lon="-2.76686">
        <ele>190.7</ele>
        <time>2020-07-02T16:23:50.000Z</time>
      </trkpt>
      <trkpt lat="48.3341" lon="-2.76681">
        <ele>190.7</ele>
        <time>2020-07-02T16:23:53.000Z</time>
      </trkpt>
      <trkpt lat="48.33421" lon="-2.76675">
        <ele>190.4</ele>
        <time>2020-07-02T16:23:57.000Z</time>
      </trkpt>
      <trkpt lat="48.33431" lon="-2.76668">
        <ele>190</ele>
        <time>2020-07-02T16:24:00.000Z</time>
      </trkpt>
      <trkpt lat="48.33441" lon="-2.76658">
        <ele>189.1</ele>
        <time>2020-07-02T16:24:04.000Z</time>
      </trkpt>
      <trkpt lat="48.33451" lon="-2.76644">
        <ele>188.2</ele>
        <time>2020-07-02T16:24:07.000Z</time>
      </trkpt>
      <trkpt lat="48.33458" lon="-2.76632">
        <ele>187.1</ele>
        <time>2020-07-02T16:24:10.000Z</time>
      </trkpt>
      <trkpt lat="48.33465" lon="-2.76622">
        <ele>185.8</ele>
        <time>2020-07-02T16:24:13.000Z</time>
      </trkpt>
      <trkpt lat="48.33474" lon="-2.76614">
        <ele>184.5</ele>
        <time>2020-07-02T16:24:16.000Z</time>
      </trkpt>
      <trkpt lat="48.33482" lon="-2.76601">
        <ele>183.2</ele>
        <time>2020-07-02T16:24:19.000Z</time>
      </trkpt>
      <trkpt lat="48.33488" lon="-2.7659">
        <ele>182.2</ele>
        <time>2020-07-02T16:24:21.000Z</time>
      </trkpt>
      <trkpt lat="48.33494" lon="-2.76574">
        <ele>180.7</ele>
        <time>2020-07-02T16:24:24.000Z</time>
      </trkpt>
      <trkpt lat="48.335" lon="-2.76563">
        <ele>179.7</ele>
        <time>2020-07-02T16:24:26.000Z</time>
      </trkpt>
      <trkpt lat="48.33507" lon="-2.76547">
        <ele>178.3</ele>
        <time>2020-07-02T16:24:29.000Z</time>
      </trkpt>
      <trkpt lat="48.33509" lon="-2.76533">
        <ele>177.4</ele>
        <time>2020-07-02T16:24:31.000Z</time>
      </trkpt>
      <trkpt lat="48.33504" lon="-2.76522">
        <ele>176.2</ele>
        <time>2020-07-02T16:24:34.000Z</time>
      </trkpt>
      <trkpt lat="48.33496" lon="-2.76509">
        <ele>175.1</ele>
        <time>2020-07-02T16:24:37.000Z</time>
      </trkpt>
      <trkpt lat="48.33487" lon="-2.76494">
        <ele>174.2</ele>
        <time>2020-07-02T16:24:40.000Z</time>
      </trkpt>
      <trkpt lat="48.3348" lon="-2.76484">
        <ele>173.6</ele>
        <time>2020-07-02T16:24:42.000Z</time>
      </trkpt>
      <trkpt lat="48.33474" lon="-2.76474">
        <ele>173</ele>
        <time>2020-07-02T16:24:44.000Z</time>
      </trkpt>
      <trkpt lat="48.33467" lon="-2.76465">
        <ele>172.5</ele>
        <time>2020-07-02T16:24:46.000Z</time>
      </trkpt>
      <trkpt lat="48.33458" lon="-2.76451">
        <ele>171.8</ele>
        <time>2020-07-02T16:24:49.000Z</time>
      </trkpt>
      <trkpt lat="48.3345" lon="-2.76435">
        <ele>171.2</ele>
        <time>2020-07-02T16:24:52.000Z</time>
      </trkpt>
      <trkpt lat="48.33444" lon="-2.76421">
        <ele>170.8</ele>
        <time>2020-07-02T16:24:55.000Z</time>
      </trkpt>
      <trkpt lat="48.3344" lon="-2.76407">
        <ele>170.7</ele>
        <time>2020-07-02T16:24:57.000Z</time>
      </trkpt>
      <trkpt lat="48.33437" lon="-2.76395">
        <ele>170.5</ele>
        <time>2020-07-02T16:24:59.000Z</time>
      </trkpt>
      <trkpt lat="48.33433" lon="-2.76376">
        <ele>170.3</ele>
        <time>2020-07-02T16:25:02.000Z</time>
      </trkpt>
      <trkpt lat="48.33428" lon="-2.76358">
        <ele>170.1</ele>
        <time>2020-07-02T16:25:05.000Z</time>
      </trkpt>
      <trkpt lat="48.33425" lon="-2.76343">
        <ele>169.9</ele>
        <time>2020-07-02T16:25:08.000Z</time>
      </trkpt>
      <trkpt lat="48.33421" lon="-2.76327">
        <ele>169.8</ele>
        <time>2020-07-02T16:25:11.000Z</time>
      </trkpt>
      <trkpt lat="48.3342" lon="-2.76313">
        <ele>169.7</ele>
        <time>2020-07-02T16:25:14.000Z</time>
      </trkpt>
      <trkpt lat="48.33417" lon="-2.763">
        <ele>169.4</ele>
        <time>2020-07-02T16:25:20.000Z</time>
      </trkpt>
      <trkpt lat="48.33415" lon="-2.76296">
        <ele>169.2</ele>
        <time>2020-07-02T16:25:30.000Z</time>
      </trkpt>
      <trkpt lat="48.3342" lon="-2.76297">
        <ele>168.2</ele>
        <time>2020-07-02T16:26:46.000Z</time>
      </trkpt>
      <trkpt lat="48.33423" lon="-2.76295">
        <ele>168.3</ele>
        <time>2020-07-02T16:26:54.000Z</time>
      </trkpt>
      <trkpt lat="48.33429" lon="-2.76284">
        <ele>170</ele>
        <time>2020-07-02T16:28:53.000Z</time>
      </trkpt>
      <trkpt lat="48.33437" lon="-2.76273">
        <ele>169.7</ele>
        <time>2020-07-02T16:28:59.000Z</time>
      </trkpt>
      <trkpt lat="48.33444" lon="-2.76264">
        <ele>169.3</ele>
        <time>2020-07-02T16:29:04.000Z</time>
      </trkpt>
      <trkpt lat="48.33453" lon="-2.76265">
        <ele>169.1</ele>
        <time>2020-07-02T16:29:13.000Z</time>
      </trkpt>
      <trkpt lat="48.33457" lon="-2.76279">
        <ele>169.2</ele>
        <time>2020-07-02T16:29:19.000Z</time>
      </trkpt>
      <trkpt lat="48.33461" lon="-2.76294">
        <ele>169.3</ele>
        <time>2020-07-02T16:29:25.000Z</time>
      </trkpt>
      <trkpt lat="48.33464" lon="-2.76308">
        <ele>169.4</ele>
        <time>2020-07-02T16:29:29.000Z</time>
      </trkpt>
      <trkpt lat="48.33468" lon="-2.76323">
        <ele>169.5</ele>
        <time>2020-07-02T16:29:34.000Z</time>
      </trkpt>
      <trkpt lat="48.33472" lon="-2.76339">
        <ele>169.6</ele>
        <time>2020-07-02T16:29:38.000Z</time>
      </trkpt>
      <trkpt lat="48.33479" lon="-2.76353">
        <ele>169.7</ele>
        <time>2020-07-02T16:29:42.000Z</time>
      </trkpt>
      <trkpt lat="48.33485" lon="-2.76365">
        <ele>169.7</ele>
        <time>2020-07-02T16:29:45.000Z</time>
      </trkpt>
      <trkpt lat="48.3349" lon="-2.76379">
        <ele>169.7</ele>
        <time>2020-07-02T16:29:49.000Z</time>
      </trkpt>
      <trkpt lat="48.335" lon="-2.76387">
        <ele>169.8</ele>
        <time>2020-07-02T16:29:53.000Z</time>
      </trkpt>
      <trkpt lat="48.33509" lon="-2.76393">
        <ele>169.8</ele>
        <time>2020-07-02T16:29:56.000Z</time>
      </trkpt>
      <trkpt lat="48.33517" lon="-2.76399">
        <ele>170.1</ele>
        <time>2020-07-02T16:30:00.000Z</time>
      </trkpt>
      <trkpt lat="48.33528" lon="-2.76402">
        <ele>170.3</ele>
        <time>2020-07-02T16:30:04.000Z</time>
      </trkpt>
      <trkpt lat="48.33539" lon="-2.76406">
        <ele>170.5</ele>
        <time>2020-07-02T16:30:08.000Z</time>
      </trkpt>
      <trkpt lat="48.33549" lon="-2.76411">
        <ele>170.6</ele>
        <time>2020-07-02T16:30:12.000Z</time>
      </trkpt>
      <trkpt lat="48.33557" lon="-2.76416">
        <ele>170.7</ele>
        <time>2020-07-02T16:30:16.000Z</time>
      </trkpt>
      <trkpt lat="48.33568" lon="-2.76417">
        <ele>170.8</ele>
        <time>2020-07-02T16:30:21.000Z</time>
      </trkpt>
      <trkpt lat="48.33579" lon="-2.7642">
        <ele>171</ele>
        <time>2020-07-02T16:30:25.000Z</time>
      </trkpt>
      <trkpt lat="48.33587" lon="-2.76428">
        <ele>171.2</ele>
        <time>2020-07-02T16:30:29.000Z</time>
      </trkpt>
      <trkpt lat="48.33596" lon="-2.76434">
        <ele>171.4</ele>
        <time>2020-07-02T16:30:33.000Z</time>
      </trkpt>
      <trkpt lat="48.33606" lon="-2.76442">
        <ele>171.5</ele>
        <time>2020-07-02T16:30:37.000Z</time>
      </trkpt>
      <trkpt lat="48.33615" lon="-2.76449">
        <ele>171.4</ele>
        <time>2020-07-02T16:30:41.000Z</time>
      </trkpt>
      <trkpt lat="48.33625" lon="-2.76451">
        <ele>171.4</ele>
        <time>2020-07-02T16:30:45.000Z</time>
      </trkpt>
      <trkpt lat="48.33635" lon="-2.76454">
        <ele>171.4</ele>
        <time>2020-07-02T16:30:49.000Z</time>
      </trkpt>
      <trkpt lat="48.33645" lon="-2.76454">
        <ele>171.4</ele>
        <time>2020-07-02T16:30:53.000Z</time>
      </trkpt>
      <trkpt lat="48.33654" lon="-2.76447">
        <ele>171.3</ele>
        <time>2020-07-02T16:30:57.000Z</time>
      </trkpt>
      <trkpt lat="48.33662" lon="-2.76441">
        <ele>171.2</ele>
        <time>2020-07-02T16:31:01.000Z</time>
      </trkpt>
      <trkpt lat="48.33671" lon="-2.76435">
        <ele>171.1</ele>
        <time>2020-07-02T16:31:06.000Z</time>
      </trkpt>
      <trkpt lat="48.3368" lon="-2.76432">
        <ele>171.2</ele>
        <time>2020-07-02T16:31:10.000Z</time>
      </trkpt>
      <trkpt lat="48.33689" lon="-2.76432">
        <ele>171.3</ele>
        <time>2020-07-02T16:31:14.000Z</time>
      </trkpt>
      <trkpt lat="48.33697" lon="-2.76441">
        <ele>171.4</ele>
        <time>2020-07-02T16:31:18.000Z</time>
      </trkpt>
      <trkpt lat="48.33705" lon="-2.7645">
        <ele>171.4</ele>
        <time>2020-07-02T16:31:22.000Z</time>
      </trkpt>
      <trkpt lat="48.33712" lon="-2.76459">
        <ele>171.4</ele>
        <time>2020-07-02T16:31:26.000Z</time>
      </trkpt>
      <trkpt lat="48.33719" lon="-2.7647">
        <ele>171.2</ele>
        <time>2020-07-02T16:31:31.000Z</time>
      </trkpt>
      <trkpt lat="48.33727" lon="-2.7648">
        <ele>170.8</ele>
        <time>2020-07-02T16:31:37.000Z</time>
      </trkpt>
      <trkpt lat="48.33735" lon="-2.76496">
        <ele>170</ele>
        <time>2020-07-02T16:31:44.000Z</time>
      </trkpt>
      <trkpt lat="48.33745" lon="-2.76504">
        <ele>170.4</ele>
        <time>2020-07-02T16:31:49.000Z</time>
      </trkpt>
      <trkpt lat="48.33755" lon="-2.76508">
        <ele>170.5</ele>
        <time>2020-07-02T16:31:58.000Z</time>
      </trkpt>
      <trkpt lat="48.33764" lon="-2.76512">
        <ele>170.6</ele>
        <time>2020-07-02T16:32:02.000Z</time>
      </trkpt>
      <trkpt lat="48.33775" lon="-2.76518">
        <ele>170.8</ele>
        <time>2020-07-02T16:32:07.000Z</time>
      </trkpt>
      <trkpt lat="48.33783" lon="-2.76524">
        <ele>170.9</ele>
        <time>2020-07-02T16:32:12.000Z</time>
      </trkpt>
      <trkpt lat="48.3379" lon="-2.76534">
        <ele>170.9</ele>
        <time>2020-07-02T16:32:17.000Z</time>
      </trkpt>
      <trkpt lat="48.33799" lon="-2.76539">
        <ele>170.9</ele>
        <time>2020-07-02T16:32:22.000Z</time>
      </trkpt>
      <trkpt lat="48.33809" lon="-2.76532">
        <ele>170.8</ele>
        <time>2020-07-02T16:32:29.000Z</time>
      </trkpt>
      <trkpt lat="48.33819" lon="-2.76532">
        <ele>170.7</ele>
        <time>2020-07-02T16:32:34.000Z</time>
      </trkpt>
      <trkpt lat="48.33829" lon="-2.76533">
        <ele>170.8</ele>
        <time>2020-07-02T16:32:38.000Z</time>
      </trkpt>
      <trkpt lat="48.33839" lon="-2.76533">
        <ele>171.1</ele>
        <time>2020-07-02T16:32:43.000Z</time>
      </trkpt>
      <trkpt lat="48.33849" lon="-2.76535">
        <ele>171.3</ele>
        <time>2020-07-02T16:32:47.000Z</time>
      </trkpt>
      <trkpt lat="48.3386" lon="-2.76535">
        <ele>171.6</ele>
        <time>2020-07-02T16:32:51.000Z</time>
      </trkpt>
      <trkpt lat="48.33871" lon="-2.76535">
        <ele>171.7</ele>
        <time>2020-07-02T16:32:55.000Z</time>
      </trkpt>
      <trkpt lat="48.33881" lon="-2.76535">
        <ele>171.7</ele>
        <time>2020-07-02T16:32:59.000Z</time>
      </trkpt>
      <trkpt lat="48.33891" lon="-2.76536">
        <ele>171.7</ele>
        <time>2020-07-02T16:33:04.000Z</time>
      </trkpt>
      <trkpt lat="48.33901" lon="-2.76539">
        <ele>171.7</ele>
        <time>2020-07-02T16:33:08.000Z</time>
      </trkpt>
      <trkpt lat="48.3391" lon="-2.76532">
        <ele>171.8</ele>
        <time>2020-07-02T16:33:15.000Z</time>
      </trkpt>
      <trkpt lat="48.33919" lon="-2.76532">
        <ele>172.4</ele>
        <time>2020-07-02T16:33:22.000Z</time>
      </trkpt>
      <trkpt lat="48.33929" lon="-2.76531">
        <ele>173.4</ele>
        <time>2020-07-02T16:33:29.000Z</time>
      </trkpt>
      <trkpt lat="48.33939" lon="-2.76534">
        <ele>174.3</ele>
        <time>2020-07-02T16:33:35.000Z</time>
      </trkpt>
      <trkpt lat="48.3395" lon="-2.76536">
        <ele>174.8</ele>
        <time>2020-07-02T16:33:39.000Z</time>
      </trkpt>
      <trkpt lat="48.33959" lon="-2.76538">
        <ele>175.1</ele>
        <time>2020-07-02T16:33:44.000Z</time>
      </trkpt>
      <trkpt lat="48.3397" lon="-2.76534">
        <ele>175.6</ele>
        <time>2020-07-02T16:33:49.000Z</time>
      </trkpt>
      <trkpt lat="48.33979" lon="-2.76533">
        <ele>176.5</ele>
        <time>2020-07-02T16:33:54.000Z</time>
      </trkpt>
      <trkpt lat="48.33989" lon="-2.76538">
        <ele>176.9</ele>
        <time>2020-07-02T16:33:57.000Z</time>
      </trkpt>
      <trkpt lat="48.33999" lon="-2.76539">
        <ele>177.1</ele>
        <time>2020-07-02T16:34:00.000Z</time>
      </trkpt>
      <trkpt lat="48.34011" lon="-2.7654">
        <ele>176.9</ele>
        <time>2020-07-02T16:34:04.000Z</time>
      </trkpt>
      <trkpt lat="48.34021" lon="-2.76538">
        <ele>176.6</ele>
        <time>2020-07-02T16:34:07.000Z</time>
      </trkpt>
      <trkpt lat="48.34031" lon="-2.76537">
        <ele>176.4</ele>
        <time>2020-07-02T16:34:11.000Z</time>
      </trkpt>
      <trkpt lat="48.34043" lon="-2.76538">
        <ele>176.1</ele>
        <time>2020-07-02T16:34:14.000Z</time>
      </trkpt>
      <trkpt lat="48.34052" lon="-2.76536">
        <ele>175.8</ele>
        <time>2020-07-02T16:34:17.000Z</time>
      </trkpt>
      <trkpt lat="48.34061" lon="-2.76534">
        <ele>175.5</ele>
        <time>2020-07-02T16:34:22.000Z</time>
      </trkpt>
      <trkpt lat="48.34071" lon="-2.76531">
        <ele>175.7</ele>
        <time>2020-07-02T16:34:28.000Z</time>
      </trkpt>
      <trkpt lat="48.34081" lon="-2.76534">
        <ele>176</ele>
        <time>2020-07-02T16:34:33.000Z</time>
      </trkpt>
      <trkpt lat="48.3409" lon="-2.76542">
        <ele>176</ele>
        <time>2020-07-02T16:34:35.000Z</time>
      </trkpt>
      <trkpt lat="48.34101" lon="-2.76546">
        <ele>175.9</ele>
        <time>2020-07-02T16:34:37.000Z</time>
      </trkpt>
      <trkpt lat="48.34113" lon="-2.76546">
        <ele>175.7</ele>
        <time>2020-07-02T16:34:40.000Z</time>
      </trkpt>
      <trkpt lat="48.34123" lon="-2.76547">
        <ele>175.4</ele>
        <time>2020-07-02T16:34:44.000Z</time>
      </trkpt>
      <trkpt lat="48.34134" lon="-2.76549">
        <ele>175</ele>
        <time>2020-07-02T16:34:48.000Z</time>
      </trkpt>
      <trkpt lat="48.34145" lon="-2.7655">
        <ele>174.8</ele>
        <time>2020-07-02T16:34:52.000Z</time>
      </trkpt>
      <trkpt lat="48.34154" lon="-2.7655">
        <ele>174.7</ele>
        <time>2020-07-02T16:34:56.000Z</time>
      </trkpt>
      <trkpt lat="48.34164" lon="-2.76552">
        <ele>174.7</ele>
        <time>2020-07-02T16:35:00.000Z</time>
      </trkpt>
      <trkpt lat="48.34176" lon="-2.76552">
        <ele>174.7</ele>
        <time>2020-07-02T16:35:04.000Z</time>
      </trkpt>
      <trkpt lat="48.34186" lon="-2.76554">
        <ele>174.9</ele>
        <time>2020-07-02T16:35:08.000Z</time>
      </trkpt>
      <trkpt lat="48.34197" lon="-2.76552">
        <ele>175</ele>
        <time>2020-07-02T16:35:13.000Z</time>
      </trkpt>
      <trkpt lat="48.34205" lon="-2.76545">
        <ele>175.1</ele>
        <time>2020-07-02T16:35:19.000Z</time>
      </trkpt>
      <trkpt lat="48.3421" lon="-2.76544">
        <ele>175.6</ele>
        <time>2020-07-02T16:35:27.000Z</time>
      </trkpt>
      <trkpt lat="48.34222" lon="-2.7654">
        <ele>174.8</ele>
        <time>2020-07-02T16:36:23.000Z</time>
      </trkpt>
      <trkpt lat="48.34224" lon="-2.76539">
        <ele>175</ele>
        <time>2020-07-02T16:36:28.000Z</time>
      </trkpt>
      <trkpt lat="48.34234" lon="-2.7654">
        <ele>175.4</ele>
        <time>2020-07-02T16:36:38.000Z</time>
      </trkpt>
      <trkpt lat="48.34244" lon="-2.76537">
        <ele>175.5</ele>
        <time>2020-07-02T16:36:44.000Z</time>
      </trkpt>
      <trkpt lat="48.3425" lon="-2.76525">
        <ele>175.7</ele>
        <time>2020-07-02T16:36:49.000Z</time>
      </trkpt>
      <trkpt lat="48.34256" lon="-2.76511">
        <ele>176.2</ele>
        <time>2020-07-02T16:36:54.000Z</time>
      </trkpt>
      <trkpt lat="48.34262" lon="-2.76501">
        <ele>176.9</ele>
        <time>2020-07-02T16:36:59.000Z</time>
      </trkpt>
      <trkpt lat="48.3427" lon="-2.76509">
        <ele>178.1</ele>
        <time>2020-07-02T16:37:10.000Z</time>
      </trkpt>
      <trkpt lat="48.34267" lon="-2.76525">
        <ele>178.3</ele>
        <time>2020-07-02T16:37:16.000Z</time>
      </trkpt>
      <trkpt lat="48.3427" lon="-2.7654">
        <ele>178.5</ele>
        <time>2020-07-02T16:37:21.000Z</time>
      </trkpt>
      <trkpt lat="48.34272" lon="-2.76554">
        <ele>178.8</ele>
        <time>2020-07-02T16:37:28.000Z</time>
      </trkpt>
      <trkpt lat="48.34282" lon="-2.7656">
        <ele>180.4</ele>
        <time>2020-07-02T16:37:37.000Z</time>
      </trkpt>
      <trkpt lat="48.34291" lon="-2.76562">
        <ele>182</ele>
        <time>2020-07-02T16:37:43.000Z</time>
      </trkpt>
      <trkpt lat="48.34301" lon="-2.76556">
        <ele>183.9</ele>
        <time>2020-07-02T16:37:50.000Z</time>
      </trkpt>
      <trkpt lat="48.34306" lon="-2.76546">
        <ele>184.9</ele>
        <time>2020-07-02T16:37:56.000Z</time>
      </trkpt>
      <trkpt lat="48.34317" lon="-2.7654">
        <ele>185.9</ele>
        <time>2020-07-02T16:38:02.000Z</time>
      </trkpt>
      <trkpt lat="48.34326" lon="-2.76541">
        <ele>186.7</ele>
        <time>2020-07-02T16:38:07.000Z</time>
      </trkpt>
      <trkpt lat="48.34336" lon="-2.76542">
        <ele>187.3</ele>
        <time>2020-07-02T16:38:12.000Z</time>
      </trkpt>
      <trkpt lat="48.34346" lon="-2.76539">
        <ele>187.9</ele>
        <time>2020-07-02T16:38:19.000Z</time>
      </trkpt>
      <trkpt lat="48.34355" lon="-2.76541">
        <ele>188.3</ele>
        <time>2020-07-02T16:38:25.000Z</time>
      </trkpt>
      <trkpt lat="48.34366" lon="-2.76544">
        <ele>188.5</ele>
        <time>2020-07-02T16:38:30.000Z</time>
      </trkpt>
      <trkpt lat="48.34371" lon="-2.76556">
        <ele>188.3</ele>
        <time>2020-07-02T16:38:37.000Z</time>
      </trkpt>
      <trkpt lat="48.34383" lon="-2.76561">
        <ele>187.7</ele>
        <time>2020-07-02T16:38:42.000Z</time>
      </trkpt>
      <trkpt lat="48.34392" lon="-2.76564">
        <ele>187.1</ele>
        <time>2020-07-02T16:38:46.000Z</time>
      </trkpt>
      <trkpt lat="48.34401" lon="-2.76571">
        <ele>186.7</ele>
        <time>2020-07-02T16:38:51.000Z</time>
      </trkpt>
      <trkpt lat="48.34411" lon="-2.76573">
        <ele>186</ele>
        <time>2020-07-02T16:38:57.000Z</time>
      </trkpt>
      <trkpt lat="48.3442" lon="-2.76573">
        <ele>185.5</ele>
        <time>2020-07-02T16:39:03.000Z</time>
      </trkpt>
      <trkpt lat="48.34414" lon="-2.76586">
        <ele>184.9</ele>
        <time>2020-07-02T16:39:16.000Z</time>
      </trkpt>
      <trkpt lat="48.34404" lon="-2.76588">
        <ele>184.7</ele>
        <time>2020-07-02T16:39:21.000Z</time>
      </trkpt>
      <trkpt lat="48.34395" lon="-2.76586">
        <ele>184.6</ele>
        <time>2020-07-02T16:39:26.000Z</time>
      </trkpt>
      <trkpt lat="48.34385" lon="-2.76586">
        <ele>184.7</ele>
        <time>2020-07-02T16:39:30.000Z</time>
      </trkpt>
      <trkpt lat="48.34374" lon="-2.76586">
        <ele>184.9</ele>
        <time>2020-07-02T16:39:35.000Z</time>
      </trkpt>
      <trkpt lat="48.34365" lon="-2.76584">
        <ele>185.2</ele>
        <time>2020-07-02T16:39:40.000Z</time>
      </trkpt>
      <trkpt lat="48.34357" lon="-2.76594">
        <ele>185.4</ele>
        <time>2020-07-02T16:39:45.000Z</time>
      </trkpt>
      <trkpt lat="48.34356" lon="-2.76608">
        <ele>184.9</ele>
        <time>2020-07-02T16:39:49.000Z</time>
      </trkpt>
      <trkpt lat="48.34365" lon="-2.76613">
        <ele>183.5</ele>
        <time>2020-07-02T16:39:56.000Z</time>
      </trkpt>
      <trkpt lat="48.34374" lon="-2.76614">
        <ele>182.6</ele>
        <time>2020-07-02T16:40:02.000Z</time>
      </trkpt>
      <trkpt lat="48.34384" lon="-2.76611">
        <ele>182.2</ele>
        <time>2020-07-02T16:40:07.000Z</time>
      </trkpt>
      <trkpt lat="48.34394" lon="-2.76609">
        <ele>182</ele>
        <time>2020-07-02T16:40:12.000Z</time>
      </trkpt>
      <trkpt lat="48.34405" lon="-2.76604">
        <ele>181.6</ele>
        <time>2020-07-02T16:40:17.000Z</time>
      </trkpt>
      <trkpt lat="48.34413" lon="-2.76598">
        <ele>181.4</ele>
        <time>2020-07-02T16:40:21.000Z</time>
      </trkpt>
      <trkpt lat="48.34423" lon="-2.76597">
        <ele>181.2</ele>
        <time>2020-07-02T16:40:26.000Z</time>
      </trkpt>
      <trkpt lat="48.34432" lon="-2.76596">
        <ele>181.2</ele>
        <time>2020-07-02T16:40:29.000Z</time>
      </trkpt>
      <trkpt lat="48.34442" lon="-2.76596">
        <ele>181.1</ele>
        <time>2020-07-02T16:40:32.000Z</time>
      </trkpt>
      <trkpt lat="48.34456" lon="-2.76602">
        <ele>180.8</ele>
        <time>2020-07-02T16:40:35.000Z</time>
      </trkpt>
      <trkpt lat="48.34468" lon="-2.76611">
        <ele>180.4</ele>
        <time>2020-07-02T16:40:37.000Z</time>
      </trkpt>
      <trkpt lat="48.34478" lon="-2.76613">
        <ele>180.2</ele>
        <time>2020-07-02T16:40:38.000Z</time>
      </trkpt>
      <trkpt lat="48.34493" lon="-2.76613">
        <ele>179.8</ele>
        <time>2020-07-02T16:40:40.000Z</time>
      </trkpt>
      <trkpt lat="48.34504" lon="-2.76612">
        <ele>179.5</ele>
        <time>2020-07-02T16:40:42.000Z</time>
      </trkpt>
      <trkpt lat="48.34514" lon="-2.76605">
        <ele>179.1</ele>
        <time>2020-07-02T16:40:45.000Z</time>
      </trkpt>
      <trkpt lat="48.34521" lon="-2.76596">
        <ele>178.8</ele>
        <time>2020-07-02T16:40:48.000Z</time>
      </trkpt>
      <trkpt lat="48.34529" lon="-2.76584">
        <ele>178.6</ele>
        <time>2020-07-02T16:40:52.000Z</time>
      </trkpt>
      <trkpt lat="48.34535" lon="-2.76572">
        <ele>178.7</ele>
        <time>2020-07-02T16:40:56.000Z</time>
      </trkpt>
      <trkpt lat="48.34541" lon="-2.76561">
        <ele>179</ele>
        <time>2020-07-02T16:41:00.000Z</time>
      </trkpt>
      <trkpt lat="48.34548" lon="-2.76549">
        <ele>179.6</ele>
        <time>2020-07-02T16:41:04.000Z</time>
      </trkpt>
      <trkpt lat="48.34553" lon="-2.76534">
        <ele>180.6</ele>
        <time>2020-07-02T16:41:09.000Z</time>
      </trkpt>
      <trkpt lat="48.34559" lon="-2.7652">
        <ele>181.6</ele>
        <time>2020-07-02T16:41:14.000Z</time>
      </trkpt>
      <trkpt lat="48.34569" lon="-2.76522">
        <ele>182.6</ele>
        <time>2020-07-02T16:41:20.000Z</time>
      </trkpt>
      <trkpt lat="48.34572" lon="-2.76537">
        <ele>183.3</ele>
        <time>2020-07-02T16:41:24.000Z</time>
      </trkpt>
      <trkpt lat="48.34574" lon="-2.76554">
        <ele>184.3</ele>
        <time>2020-07-02T16:41:30.000Z</time>
      </trkpt>
      <trkpt lat="48.34584" lon="-2.76551">
        <ele>184.7</ele>
        <time>2020-07-02T16:41:35.000Z</time>
      </trkpt>
      <trkpt lat="48.34594" lon="-2.7654">
        <ele>185</ele>
        <time>2020-07-02T16:41:39.000Z</time>
      </trkpt>
      <trkpt lat="48.34603" lon="-2.76532">
        <ele>185.2</ele>
        <time>2020-07-02T16:41:43.000Z</time>
      </trkpt>
      <trkpt lat="48.34612" lon="-2.76529">
        <ele>185.4</ele>
        <time>2020-07-02T16:41:46.000Z</time>
      </trkpt>
      <trkpt lat="48.34621" lon="-2.76523">
        <ele>185.6</ele>
        <time>2020-07-02T16:41:49.000Z</time>
      </trkpt>
      <trkpt lat="48.3463" lon="-2.76513">
        <ele>185.7</ele>
        <time>2020-07-02T16:41:53.000Z</time>
      </trkpt>
      <trkpt lat="48.34638" lon="-2.76501">
        <ele>186</ele>
        <time>2020-07-02T16:41:57.000Z</time>
      </trkpt>
      <trkpt lat="48.34647" lon="-2.76491">
        <ele>186.3</ele>
        <time>2020-07-02T16:42:01.000Z</time>
      </trkpt>
      <trkpt lat="48.34654" lon="-2.7648">
        <ele>186.7</ele>
        <time>2020-07-02T16:42:05.000Z</time>
      </trkpt>
      <trkpt lat="48.34662" lon="-2.76471">
        <ele>187.1</ele>
        <time>2020-07-02T16:42:09.000Z</time>
      </trkpt>
      <trkpt lat="48.34671" lon="-2.76461">
        <ele>187.7</ele>
        <time>2020-07-02T16:42:14.000Z</time>
      </trkpt>
      <trkpt lat="48.34679" lon="-2.76451">
        <ele>188.4</ele>
        <time>2020-07-02T16:42:19.000Z</time>
      </trkpt>
      <trkpt lat="48.34687" lon="-2.7644">
        <ele>189.3</ele>
        <time>2020-07-02T16:42:25.000Z</time>
      </trkpt>
      <trkpt lat="48.34695" lon="-2.76431">
        <ele>189.9</ele>
        <time>2020-07-02T16:42:30.000Z</time>
      </trkpt>
      <trkpt lat="48.34706" lon="-2.76422">
        <ele>190.1</ele>
        <time>2020-07-02T16:42:34.000Z</time>
      </trkpt>
      <trkpt lat="48.34713" lon="-2.76411">
        <ele>190.2</ele>
        <time>2020-07-02T16:42:37.000Z</time>
      </trkpt>
      <trkpt lat="48.34721" lon="-2.76402">
        <ele>190.2</ele>
        <time>2020-07-02T16:42:41.000Z</time>
      </trkpt>
      <trkpt lat="48.3473" lon="-2.76393">
        <ele>190.1</ele>
        <time>2020-07-02T16:42:45.000Z</time>
      </trkpt>
      <trkpt lat="48.34738" lon="-2.76384">
        <ele>190</ele>
        <time>2020-07-02T16:42:49.000Z</time>
      </trkpt>
      <trkpt lat="48.34747" lon="-2.76375">
        <ele>190.1</ele>
        <time>2020-07-02T16:42:53.000Z</time>
      </trkpt>
      <trkpt lat="48.34756" lon="-2.76368">
        <ele>190.1</ele>
        <time>2020-07-02T16:42:56.000Z</time>
      </trkpt>
      <trkpt lat="48.34763" lon="-2.76359">
        <ele>190.1</ele>
        <time>2020-07-02T16:42:59.000Z</time>
      </trkpt>
      <trkpt lat="48.34771" lon="-2.76348">
        <ele>190</ele>
        <time>2020-07-02T16:43:03.000Z</time>
      </trkpt>
      <trkpt lat="48.34781" lon="-2.76345">
        <ele>190</ele>
        <time>2020-07-02T16:43:07.000Z</time>
      </trkpt>
      <trkpt lat="48.34787" lon="-2.76355">
        <ele>189.9</ele>
        <time>2020-07-02T16:43:10.000Z</time>
      </trkpt>
      <trkpt lat="48.34794" lon="-2.7637">
        <ele>189.8</ele>
        <time>2020-07-02T16:43:13.000Z</time>
      </trkpt>
      <trkpt lat="48.34799" lon="-2.76385">
        <ele>189.7</ele>
        <time>2020-07-02T16:43:16.000Z</time>
      </trkpt>
      <trkpt lat="48.34805" lon="-2.76402">
        <ele>189.5</ele>
        <time>2020-07-02T16:43:19.000Z</time>
      </trkpt>
      <trkpt lat="48.34812" lon="-2.76419">
        <ele>189.3</ele>
        <time>2020-07-02T16:43:22.000Z</time>
      </trkpt>
      <trkpt lat="48.3482" lon="-2.76435">
        <ele>189.1</ele>
        <time>2020-07-02T16:43:25.000Z</time>
      </trkpt>
      <trkpt lat="48.34829" lon="-2.76447">
        <ele>188.9</ele>
        <time>2020-07-02T16:43:28.000Z</time>
      </trkpt>
      <trkpt lat="48.34838" lon="-2.7646">
        <ele>188.7</ele>
        <time>2020-07-02T16:43:31.000Z</time>
      </trkpt>
      <trkpt lat="48.34848" lon="-2.76473">
        <ele>188.5</ele>
        <time>2020-07-02T16:43:34.000Z</time>
      </trkpt>
      <trkpt lat="48.34854" lon="-2.76483">
        <ele>188.4</ele>
        <time>2020-07-02T16:43:36.000Z</time>
      </trkpt>
      <trkpt lat="48.34863" lon="-2.76497">
        <ele>188.3</ele>
        <time>2020-07-02T16:43:39.000Z</time>
      </trkpt>
      <trkpt lat="48.3487" lon="-2.76511">
        <ele>188.2</ele>
        <time>2020-07-02T16:43:42.000Z</time>
      </trkpt>
      <trkpt lat="48.34877" lon="-2.76525">
        <ele>188</ele>
        <time>2020-07-02T16:43:45.000Z</time>
      </trkpt>
      <trkpt lat="48.34887" lon="-2.76526">
        <ele>187.9</ele>
        <time>2020-07-02T16:43:48.000Z</time>
      </trkpt>
      <trkpt lat="48.34895" lon="-2.76515">
        <ele>187.8</ele>
        <time>2020-07-02T16:43:51.000Z</time>
      </trkpt>
      <trkpt lat="48.34901" lon="-2.76502">
        <ele>187.7</ele>
        <time>2020-07-02T16:43:54.000Z</time>
      </trkpt>
      <trkpt lat="48.34908" lon="-2.7649">
        <ele>187.7</ele>
        <time>2020-07-02T16:43:57.000Z</time>
      </trkpt>
      <trkpt lat="48.34914" lon="-2.76478">
        <ele>187.8</ele>
        <time>2020-07-02T16:44:00.000Z</time>
      </trkpt>
      <trkpt lat="48.34921" lon="-2.76466">
        <ele>187.9</ele>
        <time>2020-07-02T16:44:03.000Z</time>
      </trkpt>
      <trkpt lat="48.34928" lon="-2.76454">
        <ele>188</ele>
        <time>2020-07-02T16:44:06.000Z</time>
      </trkpt>
      <trkpt lat="48.34935" lon="-2.76442">
        <ele>188.2</ele>
        <time>2020-07-02T16:44:09.000Z</time>
      </trkpt>
      <trkpt lat="48.34943" lon="-2.76432">
        <ele>188.4</ele>
        <time>2020-07-02T16:44:12.000Z</time>
      </trkpt>
      <trkpt lat="48.34951" lon="-2.76421">
        <ele>188.5</ele>
        <time>2020-07-02T16:44:15.000Z</time>
      </trkpt>
      <trkpt lat="48.3496" lon="-2.76411">
        <ele>188.6</ele>
        <time>2020-07-02T16:44:18.000Z</time>
      </trkpt>
      <trkpt lat="48.34969" lon="-2.76402">
        <ele>188.7</ele>
        <time>2020-07-02T16:44:21.000Z</time>
      </trkpt>
      <trkpt lat="48.34978" lon="-2.76393">
        <ele>188.8</ele>
        <time>2020-07-02T16:44:24.000Z</time>
      </trkpt>
      <trkpt lat="48.34988" lon="-2.76384">
        <ele>188.9</ele>
        <time>2020-07-02T16:44:27.000Z</time>
      </trkpt>
      <trkpt lat="48.34998" lon="-2.76375">
        <ele>188.9</ele>
        <time>2020-07-02T16:44:30.000Z</time>
      </trkpt>
      <trkpt lat="48.35008" lon="-2.76366">
        <ele>189</ele>
        <time>2020-07-02T16:44:33.000Z</time>
      </trkpt>
      <trkpt lat="48.35018" lon="-2.76356">
        <ele>189.1</ele>
        <time>2020-07-02T16:44:36.000Z</time>
      </trkpt>
      <trkpt lat="48.35028" lon="-2.76347">
        <ele>189.1</ele>
        <time>2020-07-02T16:44:39.000Z</time>
      </trkpt>
      <trkpt lat="48.35038" lon="-2.76338">
        <ele>189.1</ele>
        <time>2020-07-02T16:44:42.000Z</time>
      </trkpt>
      <trkpt lat="48.35047" lon="-2.7633">
        <ele>189.1</ele>
        <time>2020-07-02T16:44:45.000Z</time>
      </trkpt>
      <trkpt lat="48.35056" lon="-2.76322">
        <ele>189.1</ele>
        <time>2020-07-02T16:44:48.000Z</time>
      </trkpt>
      <trkpt lat="48.35065" lon="-2.76315">
        <ele>189.2</ele>
        <time>2020-07-02T16:44:51.000Z</time>
      </trkpt>
      <trkpt lat="48.35073" lon="-2.76306">
        <ele>189.4</ele>
        <time>2020-07-02T16:44:54.000Z</time>
      </trkpt>
      <trkpt lat="48.3508" lon="-2.76296">
        <ele>189.6</ele>
        <time>2020-07-02T16:44:57.000Z</time>
      </trkpt>
      <trkpt lat="48.35084" lon="-2.76281">
        <ele>189.8</ele>
        <time>2020-07-02T16:45:00.000Z</time>
      </trkpt>
      <trkpt lat="48.35084" lon="-2.76266">
        <ele>190</ele>
        <time>2020-07-02T16:45:03.000Z</time>
      </trkpt>
      <trkpt lat="48.35083" lon="-2.76251">
        <ele>190.3</ele>
        <time>2020-07-02T16:45:06.000Z</time>
      </trkpt>
      <trkpt lat="48.35077" lon="-2.76238">
        <ele>190.5</ele>
        <time>2020-07-02T16:45:09.000Z</time>
      </trkpt>
      <trkpt lat="48.35069" lon="-2.76229">
        <ele>190.7</ele>
        <time>2020-07-02T16:45:12.000Z</time>
      </trkpt>
      <trkpt lat="48.35063" lon="-2.76217">
        <ele>190.9</ele>
        <time>2020-07-02T16:45:15.000Z</time>
      </trkpt>
      <trkpt lat="48.35067" lon="-2.76202">
        <ele>191</ele>
        <time>2020-07-02T16:45:18.000Z</time>
      </trkpt>
      <trkpt lat="48.35075" lon="-2.76191">
        <ele>191.1</ele>
        <time>2020-07-02T16:45:21.000Z</time>
      </trkpt>
      <trkpt lat="48.35083" lon="-2.76181">
        <ele>191.3</ele>
        <time>2020-07-02T16:45:24.000Z</time>
      </trkpt>
      <trkpt lat="48.35091" lon="-2.76171">
        <ele>191.5</ele>
        <time>2020-07-02T16:45:27.000Z</time>
      </trkpt>
      <trkpt lat="48.35095" lon="-2.76158">
        <ele>191.8</ele>
        <time>2020-07-02T16:45:30.000Z</time>
      </trkpt>
      <trkpt lat="48.35096" lon="-2.76144">
        <ele>192</ele>
        <time>2020-07-02T16:45:33.000Z</time>
      </trkpt>
      <trkpt lat="48.35094" lon="-2.7613">
        <ele>192.4</ele>
        <time>2020-07-02T16:45:36.000Z</time>
      </trkpt>
      <trkpt lat="48.35091" lon="-2.76116">
        <ele>192.7</ele>
        <time>2020-07-02T16:45:39.000Z</time>
      </trkpt>
      <trkpt lat="48.35087" lon="-2.76103">
        <ele>192.9</ele>
        <time>2020-07-02T16:45:42.000Z</time>
      </trkpt>
      <trkpt lat="48.35084" lon="-2.7609">
        <ele>193.1</ele>
        <time>2020-07-02T16:45:45.000Z</time>
      </trkpt>
      <trkpt lat="48.3508" lon="-2.76073">
        <ele>193.5</ele>
        <time>2020-07-02T16:45:49.000Z</time>
      </trkpt>
      <trkpt lat="48.35078" lon="-2.76059">
        <ele>194</ele>
        <time>2020-07-02T16:45:53.000Z</time>
      </trkpt>
      <trkpt lat="48.35077" lon="-2.76043">
        <ele>194.7</ele>
        <time>2020-07-02T16:46:00.000Z</time>
      </trkpt>
      <trkpt lat="48.35084" lon="-2.76036">
        <ele>194.9</ele>
        <time>2020-07-02T16:46:03.000Z</time>
      </trkpt>
      <trkpt lat="48.35092" lon="-2.76028">
        <ele>195</ele>
        <time>2020-07-02T16:46:06.000Z</time>
      </trkpt>
      <trkpt lat="48.35102" lon="-2.76018">
        <ele>195.3</ele>
        <time>2020-07-02T16:46:10.000Z</time>
      </trkpt>
      <trkpt lat="48.35112" lon="-2.76009">
        <ele>195.5</ele>
        <time>2020-07-02T16:46:14.000Z</time>
      </trkpt>
      <trkpt lat="48.35121" lon="-2.76">
        <ele>195.6</ele>
        <time>2020-07-02T16:46:18.000Z</time>
      </trkpt>
      <trkpt lat="48.3513" lon="-2.7599">
        <ele>195.9</ele>
        <time>2020-07-02T16:46:22.000Z</time>
      </trkpt>
      <trkpt lat="48.35138" lon="-2.75982">
        <ele>196</ele>
        <time>2020-07-02T16:46:25.000Z</time>
      </trkpt>
      <trkpt lat="48.35146" lon="-2.75972">
        <ele>195.9</ele>
        <time>2020-07-02T16:46:28.000Z</time>
      </trkpt>
      <trkpt lat="48.35156" lon="-2.75962">
        <ele>195.8</ele>
        <time>2020-07-02T16:46:31.000Z</time>
      </trkpt>
      <trkpt lat="48.35165" lon="-2.75952">
        <ele>195.8</ele>
        <time>2020-07-02T16:46:34.000Z</time>
      </trkpt>
      <trkpt lat="48.35174" lon="-2.75947">
        <ele>195.6</ele>
        <time>2020-07-02T16:46:37.000Z</time>
      </trkpt>
      <trkpt lat="48.35183" lon="-2.75957">
        <ele>195.5</ele>
        <time>2020-07-02T16:46:41.000Z</time>
      </trkpt>
      <trkpt lat="48.35189" lon="-2.7597">
        <ele>195.5</ele>
        <time>2020-07-02T16:46:44.000Z</time>
      </trkpt>
      <trkpt lat="48.35194" lon="-2.75983">
        <ele>195.3</ele>
        <time>2020-07-02T16:46:47.000Z</time>
      </trkpt>
      <trkpt lat="48.352" lon="-2.75994">
        <ele>195.3</ele>
        <time>2020-07-02T16:46:50.000Z</time>
      </trkpt>
      <trkpt lat="48.35205" lon="-2.76005">
        <ele>195.2</ele>
        <time>2020-07-02T16:46:53.000Z</time>
      </trkpt>
      <trkpt lat="48.35211" lon="-2.76019">
        <ele>195.1</ele>
        <time>2020-07-02T16:46:56.000Z</time>
      </trkpt>
      <trkpt lat="48.35218" lon="-2.76032">
        <ele>194.9</ele>
        <time>2020-07-02T16:46:59.000Z</time>
      </trkpt>
      <trkpt lat="48.35226" lon="-2.76047">
        <ele>194.8</ele>
        <time>2020-07-02T16:47:02.000Z</time>
      </trkpt>
      <trkpt lat="48.35236" lon="-2.76053">
        <ele>194.6</ele>
        <time>2020-07-02T16:47:05.000Z</time>
      </trkpt>
      <trkpt lat="48.35247" lon="-2.76058">
        <ele>194.3</ele>
        <time>2020-07-02T16:47:08.000Z</time>
      </trkpt>
      <trkpt lat="48.35257" lon="-2.76055">
        <ele>194</ele>
        <time>2020-07-02T16:47:11.000Z</time>
      </trkpt>
      <trkpt lat="48.35268" lon="-2.76046">
        <ele>193.7</ele>
        <time>2020-07-02T16:47:14.000Z</time>
      </trkpt>
      <trkpt lat="48.3528" lon="-2.76038">
        <ele>193.3</ele>
        <time>2020-07-02T16:47:17.000Z</time>
      </trkpt>
      <trkpt lat="48.3529" lon="-2.76037">
        <ele>192.8</ele>
        <time>2020-07-02T16:47:20.000Z</time>
      </trkpt>
      <trkpt lat="48.353" lon="-2.7605">
        <ele>192.3</ele>
        <time>2020-07-02T16:47:23.000Z</time>
      </trkpt>
      <trkpt lat="48.35306" lon="-2.76066">
        <ele>191.7</ele>
        <time>2020-07-02T16:47:26.000Z</time>
      </trkpt>
      <trkpt lat="48.35318" lon="-2.76072">
        <ele>190.9</ele>
        <time>2020-07-02T16:47:30.000Z</time>
      </trkpt>
      <trkpt lat="48.35326" lon="-2.76065">
        <ele>190.1</ele>
        <time>2020-07-02T16:47:33.000Z</time>
      </trkpt>
      <trkpt lat="48.3533" lon="-2.76052">
        <ele>188.8</ele>
        <time>2020-07-02T16:47:37.000Z</time>
      </trkpt>
      <trkpt lat="48.35326" lon="-2.76039">
        <ele>187.9</ele>
        <time>2020-07-02T16:47:40.000Z</time>
      </trkpt>
      <trkpt lat="48.35337" lon="-2.76043">
        <ele>184.9</ele>
        <time>2020-07-02T16:47:51.000Z</time>
      </trkpt>
      <trkpt lat="48.35343" lon="-2.76055">
        <ele>184.2</ele>
        <time>2020-07-02T16:47:54.000Z</time>
      </trkpt>
      <trkpt lat="48.3535" lon="-2.76065">
        <ele>183.6</ele>
        <time>2020-07-02T16:47:57.000Z</time>
      </trkpt>
      <trkpt lat="48.35358" lon="-2.76076">
        <ele>183.1</ele>
        <time>2020-07-02T16:48:00.000Z</time>
      </trkpt>
      <trkpt lat="48.35366" lon="-2.76084">
        <ele>182.7</ele>
        <time>2020-07-02T16:48:03.000Z</time>
      </trkpt>
      <trkpt lat="48.35371" lon="-2.76097">
        <ele>182.4</ele>
        <time>2020-07-02T16:48:06.000Z</time>
      </trkpt>
      <trkpt lat="48.35377" lon="-2.76108">
        <ele>182.2</ele>
        <time>2020-07-02T16:48:08.000Z</time>
      </trkpt>
      <trkpt lat="48.35385" lon="-2.76118">
        <ele>181.9</ele>
        <time>2020-07-02T16:48:10.000Z</time>
      </trkpt>
      <trkpt lat="48.35389" lon="-2.7613">
        <ele>181.6</ele>
        <time>2020-07-02T16:48:12.000Z</time>
      </trkpt>
      <trkpt lat="48.35397" lon="-2.76144">
        <ele>181.1</ele>
        <time>2020-07-02T16:48:15.000Z</time>
      </trkpt>
      <trkpt lat="48.35403" lon="-2.76158">
        <ele>180.8</ele>
        <time>2020-07-02T16:48:17.000Z</time>
      </trkpt>
      <trkpt lat="48.35407" lon="-2.76172">
        <ele>180.2</ele>
        <time>2020-07-02T16:48:20.000Z</time>
      </trkpt>
      <trkpt lat="48.35411" lon="-2.76185">
        <ele>179.5</ele>
        <time>2020-07-02T16:48:24.000Z</time>
      </trkpt>
      <trkpt lat="48.35418" lon="-2.76172">
        <ele>178.6</ele>
        <time>2020-07-02T16:48:30.000Z</time>
      </trkpt>
      <trkpt lat="48.35416" lon="-2.76158">
        <ele>178.4</ele>
        <time>2020-07-02T16:48:33.000Z</time>
      </trkpt>
      <trkpt lat="48.35416" lon="-2.7614">
        <ele>178</ele>
        <time>2020-07-02T16:48:37.000Z</time>
      </trkpt>
      <trkpt lat="48.35425" lon="-2.76129">
        <ele>178</ele>
        <time>2020-07-02T16:48:40.000Z</time>
      </trkpt>
      <trkpt lat="48.35422" lon="-2.76113">
        <ele>178</ele>
        <time>2020-07-02T16:48:44.000Z</time>
      </trkpt>
      <trkpt lat="48.35417" lon="-2.76099">
        <ele>178.1</ele>
        <time>2020-07-02T16:48:47.000Z</time>
      </trkpt>
      <trkpt lat="48.35411" lon="-2.76085">
        <ele>178.3</ele>
        <time>2020-07-02T16:48:50.000Z</time>
      </trkpt>
      <trkpt lat="48.35405" lon="-2.76072">
        <ele>178.4</ele>
        <time>2020-07-02T16:48:53.000Z</time>
      </trkpt>
      <trkpt lat="48.35396" lon="-2.76059">
        <ele>178.6</ele>
        <time>2020-07-02T16:48:56.000Z</time>
      </trkpt>
      <trkpt lat="48.35387" lon="-2.7605">
        <ele>178.9</ele>
        <time>2020-07-02T16:48:59.000Z</time>
      </trkpt>
      <trkpt lat="48.35379" lon="-2.7604">
        <ele>179.2</ele>
        <time>2020-07-02T16:49:02.000Z</time>
      </trkpt>
      <trkpt lat="48.35372" lon="-2.7603">
        <ele>179.5</ele>
        <time>2020-07-02T16:49:05.000Z</time>
      </trkpt>
      <trkpt lat="48.35362" lon="-2.7602">
        <ele>180.1</ele>
        <time>2020-07-02T16:49:09.000Z</time>
      </trkpt>
      <trkpt lat="48.35354" lon="-2.76007">
        <ele>180.6</ele>
        <time>2020-07-02T16:49:13.000Z</time>
      </trkpt>
      <trkpt lat="48.35347" lon="-2.75996">
        <ele>181.1</ele>
        <time>2020-07-02T16:49:16.000Z</time>
      </trkpt>
      <trkpt lat="48.35342" lon="-2.75984">
        <ele>181.5</ele>
        <time>2020-07-02T16:49:19.000Z</time>
      </trkpt>
      <trkpt lat="48.35334" lon="-2.75973">
        <ele>181.9</ele>
        <time>2020-07-02T16:49:22.000Z</time>
      </trkpt>
      <trkpt lat="48.35331" lon="-2.7596">
        <ele>182.3</ele>
        <time>2020-07-02T16:49:25.000Z</time>
      </trkpt>
      <trkpt lat="48.35324" lon="-2.75948">
        <ele>182.7</ele>
        <time>2020-07-02T16:49:28.000Z</time>
      </trkpt>
      <trkpt lat="48.35316" lon="-2.75937">
        <ele>183</ele>
        <time>2020-07-02T16:49:31.000Z</time>
      </trkpt>
      <trkpt lat="48.35309" lon="-2.75927">
        <ele>183.3</ele>
        <time>2020-07-02T16:49:34.000Z</time>
      </trkpt>
      <trkpt lat="48.35302" lon="-2.75915">
        <ele>183.7</ele>
        <time>2020-07-02T16:49:38.000Z</time>
      </trkpt>
      <trkpt lat="48.35294" lon="-2.75903">
        <ele>184.2</ele>
        <time>2020-07-02T16:49:42.000Z</time>
      </trkpt>
      <trkpt lat="48.35287" lon="-2.75892">
        <ele>184.6</ele>
        <time>2020-07-02T16:49:45.000Z</time>
      </trkpt>
      <trkpt lat="48.35277" lon="-2.75888">
        <ele>185.1</ele>
        <time>2020-07-02T16:49:50.000Z</time>
      </trkpt>
      <trkpt lat="48.35268" lon="-2.75895">
        <ele>185.5</ele>
        <time>2020-07-02T16:49:54.000Z</time>
      </trkpt>
      <trkpt lat="48.35257" lon="-2.75895">
        <ele>185.9</ele>
        <time>2020-07-02T16:49:58.000Z</time>
      </trkpt>
      <trkpt lat="48.35248" lon="-2.75891">
        <ele>186.2</ele>
        <time>2020-07-02T16:50:01.000Z</time>
      </trkpt>
      <trkpt lat="48.35238" lon="-2.75888">
        <ele>186.5</ele>
        <time>2020-07-02T16:50:04.000Z</time>
      </trkpt>
      <trkpt lat="48.35228" lon="-2.75888">
        <ele>186.8</ele>
        <time>2020-07-02T16:50:07.000Z</time>
      </trkpt>
      <trkpt lat="48.35219" lon="-2.7589">
        <ele>187.2</ele>
        <time>2020-07-02T16:50:10.000Z</time>
      </trkpt>
      <trkpt lat="48.35207" lon="-2.75893">
        <ele>187.7</ele>
        <time>2020-07-02T16:50:14.000Z</time>
      </trkpt>
      <trkpt lat="48.35198" lon="-2.75896">
        <ele>188.1</ele>
        <time>2020-07-02T16:50:17.000Z</time>
      </trkpt>
      <trkpt lat="48.35188" lon="-2.75897">
        <ele>188.4</ele>
        <time>2020-07-02T16:50:20.000Z</time>
      </trkpt>
      <trkpt lat="48.35178" lon="-2.75895">
        <ele>188.7</ele>
        <time>2020-07-02T16:50:23.000Z</time>
      </trkpt>
      <trkpt lat="48.35169" lon="-2.75893">
        <ele>189</ele>
        <time>2020-07-02T16:50:26.000Z</time>
      </trkpt>
      <trkpt lat="48.3516" lon="-2.75891">
        <ele>189.3</ele>
        <time>2020-07-02T16:50:29.000Z</time>
      </trkpt>
      <trkpt lat="48.3515" lon="-2.75888">
        <ele>189.6</ele>
        <time>2020-07-02T16:50:32.000Z</time>
      </trkpt>
      <trkpt lat="48.35139" lon="-2.75884">
        <ele>190</ele>
        <time>2020-07-02T16:50:36.000Z</time>
      </trkpt>
      <trkpt lat="48.35129" lon="-2.75874">
        <ele>190.4</ele>
        <time>2020-07-02T16:50:40.000Z</time>
      </trkpt>
      <trkpt lat="48.35122" lon="-2.75864">
        <ele>190.7</ele>
        <time>2020-07-02T16:50:43.000Z</time>
      </trkpt>
      <trkpt lat="48.35115" lon="-2.75855">
        <ele>191.1</ele>
        <time>2020-07-02T16:50:46.000Z</time>
      </trkpt>
      <trkpt lat="48.35106" lon="-2.75845">
        <ele>191.6</ele>
        <time>2020-07-02T16:50:50.000Z</time>
      </trkpt>
      <trkpt lat="48.35095" lon="-2.7584">
        <ele>192.2</ele>
        <time>2020-07-02T16:50:54.000Z</time>
      </trkpt>
      <trkpt lat="48.35086" lon="-2.75837">
        <ele>192.5</ele>
        <time>2020-07-02T16:50:57.000Z</time>
      </trkpt>
      <trkpt lat="48.35075" lon="-2.75831">
        <ele>193</ele>
        <time>2020-07-02T16:51:01.000Z</time>
      </trkpt>
      <trkpt lat="48.35065" lon="-2.75826">
        <ele>193.5</ele>
        <time>2020-07-02T16:51:05.000Z</time>
      </trkpt>
      <trkpt lat="48.35055" lon="-2.75824">
        <ele>193.9</ele>
        <time>2020-07-02T16:51:08.000Z</time>
      </trkpt>
      <trkpt lat="48.35046" lon="-2.75821">
        <ele>194.6</ele>
        <time>2020-07-02T16:51:12.000Z</time>
      </trkpt>
      <trkpt lat="48.35037" lon="-2.75815">
        <ele>195.7</ele>
        <time>2020-07-02T16:51:17.000Z</time>
      </trkpt>
      <trkpt lat="48.35029" lon="-2.75806">
        <ele>197.2</ele>
        <time>2020-07-02T16:51:23.000Z</time>
      </trkpt>
      <trkpt lat="48.35031" lon="-2.75792">
        <ele>198</ele>
        <time>2020-07-02T16:51:27.000Z</time>
      </trkpt>
      <trkpt lat="48.35036" lon="-2.75777">
        <ele>198.7</ele>
        <time>2020-07-02T16:51:31.000Z</time>
      </trkpt>
      <trkpt lat="48.35041" lon="-2.75762">
        <ele>199.1</ele>
        <time>2020-07-02T16:51:35.000Z</time>
      </trkpt>
      <trkpt lat="48.35045" lon="-2.75745">
        <ele>199.5</ele>
        <time>2020-07-02T16:51:39.000Z</time>
      </trkpt>
      <trkpt lat="48.35048" lon="-2.75728">
        <ele>200</ele>
        <time>2020-07-02T16:51:43.000Z</time>
      </trkpt>
      <trkpt lat="48.3505" lon="-2.75715">
        <ele>200.2</ele>
        <time>2020-07-02T16:51:46.000Z</time>
      </trkpt>
      <trkpt lat="48.3505" lon="-2.757">
        <ele>200.4</ele>
        <time>2020-07-02T16:51:49.000Z</time>
      </trkpt>
      <trkpt lat="48.35048" lon="-2.75687">
        <ele>200.7</ele>
        <time>2020-07-02T16:51:52.000Z</time>
      </trkpt>
      <trkpt lat="48.35046" lon="-2.75671">
        <ele>201.1</ele>
        <time>2020-07-02T16:51:56.000Z</time>
      </trkpt>
      <trkpt lat="48.35041" lon="-2.75654">
        <ele>201.5</ele>
        <time>2020-07-02T16:52:00.000Z</time>
      </trkpt>
      <trkpt lat="48.35036" lon="-2.7564">
        <ele>201.7</ele>
        <time>2020-07-02T16:52:03.000Z</time>
      </trkpt>
      <trkpt lat="48.35032" lon="-2.75627">
        <ele>202.2</ele>
        <time>2020-07-02T16:52:06.000Z</time>
      </trkpt>
      <trkpt lat="48.35028" lon="-2.75614">
        <ele>202.6</ele>
        <time>2020-07-02T16:52:09.000Z</time>
      </trkpt>
      <trkpt lat="48.35025" lon="-2.75602">
        <ele>203</ele>
        <time>2020-07-02T16:52:12.000Z</time>
      </trkpt>
      <trkpt lat="48.35021" lon="-2.75589">
        <ele>203.4</ele>
        <time>2020-07-02T16:52:15.000Z</time>
      </trkpt>
      <trkpt lat="48.35018" lon="-2.75576">
        <ele>203.9</ele>
        <time>2020-07-02T16:52:18.000Z</time>
      </trkpt>
      <trkpt lat="48.35014" lon="-2.75564">
        <ele>204.2</ele>
        <time>2020-07-02T16:52:21.000Z</time>
      </trkpt>
      <trkpt lat="48.3501" lon="-2.75548">
        <ele>204.6</ele>
        <time>2020-07-02T16:52:25.000Z</time>
      </trkpt>
      <trkpt lat="48.35005" lon="-2.75533">
        <ele>205.2</ele>
        <time>2020-07-02T16:52:29.000Z</time>
      </trkpt>
      <trkpt lat="48.34996" lon="-2.75526">
        <ele>205.7</ele>
        <time>2020-07-02T16:52:33.000Z</time>
      </trkpt>
      <trkpt lat="48.34986" lon="-2.75525">
        <ele>206.1</ele>
        <time>2020-07-02T16:52:36.000Z</time>
      </trkpt>
      <trkpt lat="48.34977" lon="-2.75527">
        <ele>206.5</ele>
        <time>2020-07-02T16:52:39.000Z</time>
      </trkpt>
      <trkpt lat="48.34966" lon="-2.75529">
        <ele>206.7</ele>
        <time>2020-07-02T16:52:42.000Z</time>
      </trkpt>
      <trkpt lat="48.34955" lon="-2.75528">
        <ele>206.9</ele>
        <time>2020-07-02T16:52:45.000Z</time>
      </trkpt>
      <trkpt lat="48.34944" lon="-2.75526">
        <ele>207</ele>
        <time>2020-07-02T16:52:48.000Z</time>
      </trkpt>
      <trkpt lat="48.34933" lon="-2.75524">
        <ele>207.1</ele>
        <time>2020-07-02T16:52:51.000Z</time>
      </trkpt>
      <trkpt lat="48.34922" lon="-2.75523">
        <ele>207.1</ele>
        <time>2020-07-02T16:52:54.000Z</time>
      </trkpt>
      <trkpt lat="48.34913" lon="-2.75523">
        <ele>207.2</ele>
        <time>2020-07-02T16:52:57.000Z</time>
      </trkpt>
      <trkpt lat="48.34901" lon="-2.75519">
        <ele>207.3</ele>
        <time>2020-07-02T16:53:01.000Z</time>
      </trkpt>
      <trkpt lat="48.34895" lon="-2.75509">
        <ele>207.3</ele>
        <time>2020-07-02T16:53:04.000Z</time>
      </trkpt>
      <trkpt lat="48.34901" lon="-2.75499">
        <ele>207.4</ele>
        <time>2020-07-02T16:53:07.000Z</time>
      </trkpt>
      <trkpt lat="48.34911" lon="-2.75492">
        <ele>207.4</ele>
        <time>2020-07-02T16:53:10.000Z</time>
      </trkpt>
      <trkpt lat="48.34921" lon="-2.75483">
        <ele>207.5</ele>
        <time>2020-07-02T16:53:13.000Z</time>
      </trkpt>
      <trkpt lat="48.34931" lon="-2.75473">
        <ele>207.5</ele>
        <time>2020-07-02T16:53:16.000Z</time>
      </trkpt>
      <trkpt lat="48.34941" lon="-2.75461">
        <ele>207.6</ele>
        <time>2020-07-02T16:53:19.000Z</time>
      </trkpt>
      <trkpt lat="48.34952" lon="-2.7545">
        <ele>207.7</ele>
        <time>2020-07-02T16:53:22.000Z</time>
      </trkpt>
      <trkpt lat="48.34962" lon="-2.75439">
        <ele>207.7</ele>
        <time>2020-07-02T16:53:25.000Z</time>
      </trkpt>
      <trkpt lat="48.34973" lon="-2.75429">
        <ele>207.6</ele>
        <time>2020-07-02T16:53:28.000Z</time>
      </trkpt>
      <trkpt lat="48.34984" lon="-2.75419">
        <ele>207.4</ele>
        <time>2020-07-02T16:53:31.000Z</time>
      </trkpt>
      <trkpt lat="48.34992" lon="-2.75412">
        <ele>207.3</ele>
        <time>2020-07-02T16:53:33.000Z</time>
      </trkpt>
      <trkpt lat="48.35" lon="-2.75404">
        <ele>207.1</ele>
        <time>2020-07-02T16:53:35.000Z</time>
      </trkpt>
      <trkpt lat="48.35008" lon="-2.75397">
        <ele>206.9</ele>
        <time>2020-07-02T16:53:37.000Z</time>
      </trkpt>
      <trkpt lat="48.35019" lon="-2.75388">
        <ele>206.6</ele>
        <time>2020-07-02T16:53:40.000Z</time>
      </trkpt>
      <trkpt lat="48.35023" lon="-2.75375">
        <ele>206.3</ele>
        <time>2020-07-02T16:53:43.000Z</time>
      </trkpt>
      <trkpt lat="48.35019" lon="-2.75363">
        <ele>205.9</ele>
        <time>2020-07-02T16:53:46.000Z</time>
      </trkpt>
      <trkpt lat="48.35017" lon="-2.75348">
        <ele>205.2</ele>
        <time>2020-07-02T16:53:50.000Z</time>
      </trkpt>
      <trkpt lat="48.35018" lon="-2.75327">
        <ele>204.6</ele>
        <time>2020-07-02T16:53:53.000Z</time>
      </trkpt>
      <trkpt lat="48.35022" lon="-2.75311">
        <ele>204.2</ele>
        <time>2020-07-02T16:53:55.000Z</time>
      </trkpt>
      <trkpt lat="48.35027" lon="-2.75295">
        <ele>203.7</ele>
        <time>2020-07-02T16:53:57.000Z</time>
      </trkpt>
      <trkpt lat="48.35034" lon="-2.75279">
        <ele>203.1</ele>
        <time>2020-07-02T16:53:59.000Z</time>
      </trkpt>
      <trkpt lat="48.3504" lon="-2.75263">
        <ele>202.5</ele>
        <time>2020-07-02T16:54:01.000Z</time>
      </trkpt>
      <trkpt lat="48.35044" lon="-2.75244">
        <ele>201.8</ele>
        <time>2020-07-02T16:54:03.000Z</time>
      </trkpt>
      <trkpt lat="48.35049" lon="-2.75225">
        <ele>201.1</ele>
        <time>2020-07-02T16:54:05.000Z</time>
      </trkpt>
      <trkpt lat="48.35056" lon="-2.75209">
        <ele>200.4</ele>
        <time>2020-07-02T16:54:07.000Z</time>
      </trkpt>
      <trkpt lat="48.35067" lon="-2.75197">
        <ele>199.7</ele>
        <time>2020-07-02T16:54:09.000Z</time>
      </trkpt>
      <trkpt lat="48.35078" lon="-2.75186">
        <ele>198.9</ele>
        <time>2020-07-02T16:54:11.000Z</time>
      </trkpt>
      <trkpt lat="48.35087" lon="-2.75177">
        <ele>198.2</ele>
        <time>2020-07-02T16:54:13.000Z</time>
      </trkpt>
      <trkpt lat="48.35095" lon="-2.75167">
        <ele>197.6</ele>
        <time>2020-07-02T16:54:15.000Z</time>
      </trkpt>
      <trkpt lat="48.35102" lon="-2.75154">
        <ele>196.9</ele>
        <time>2020-07-02T16:54:17.000Z</time>
      </trkpt>
      <trkpt lat="48.35108" lon="-2.7514">
        <ele>196.3</ele>
        <time>2020-07-02T16:54:19.000Z</time>
      </trkpt>
      <trkpt lat="48.35114" lon="-2.75126">
        <ele>195.8</ele>
        <time>2020-07-02T16:54:21.000Z</time>
      </trkpt>
      <trkpt lat="48.3512" lon="-2.75114">
        <ele>195.3</ele>
        <time>2020-07-02T16:54:23.000Z</time>
      </trkpt>
      <trkpt lat="48.35125" lon="-2.75102">
        <ele>194.6</ele>
        <time>2020-07-02T16:54:26.000Z</time>
      </trkpt>
      <trkpt lat="48.3513" lon="-2.75085">
        <ele>193.8</ele>
        <time>2020-07-02T16:54:30.000Z</time>
      </trkpt>
      <trkpt lat="48.35135" lon="-2.75073">
        <ele>193.3</ele>
        <time>2020-07-02T16:54:32.000Z</time>
      </trkpt>
      <trkpt lat="48.35142" lon="-2.75061">
        <ele>192.4</ele>
        <time>2020-07-02T16:54:37.000Z</time>
      </trkpt>
      <trkpt lat="48.3514" lon="-2.75045">
        <ele>191.6</ele>
        <time>2020-07-02T16:54:41.000Z</time>
      </trkpt>
      <trkpt lat="48.35137" lon="-2.75032">
        <ele>191</ele>
        <time>2020-07-02T16:54:45.000Z</time>
      </trkpt>
      <trkpt lat="48.35136" lon="-2.75016">
        <ele>190.6</ele>
        <time>2020-07-02T16:54:49.000Z</time>
      </trkpt>
      <trkpt lat="48.35141" lon="-2.75004">
        <ele>190.4</ele>
        <time>2020-07-02T16:54:52.000Z</time>
      </trkpt>
      <trkpt lat="48.35146" lon="-2.74991">
        <ele>190.4</ele>
        <time>2020-07-02T16:54:55.000Z</time>
      </trkpt>
      <trkpt lat="48.35153" lon="-2.74978">
        <ele>190.2</ele>
        <time>2020-07-02T16:54:58.000Z</time>
      </trkpt>
      <trkpt lat="48.35157" lon="-2.74962">
        <ele>190</ele>
        <time>2020-07-02T16:55:01.000Z</time>
      </trkpt>
      <trkpt lat="48.35161" lon="-2.74949">
        <ele>189.6</ele>
        <time>2020-07-02T16:55:05.000Z</time>
      </trkpt>
      <trkpt lat="48.35161" lon="-2.74934">
        <ele>189.3</ele>
        <time>2020-07-02T16:55:08.000Z</time>
      </trkpt>
      <trkpt lat="48.35161" lon="-2.7492">
        <ele>188.9</ele>
        <time>2020-07-02T16:55:12.000Z</time>
      </trkpt>
      <trkpt lat="48.35164" lon="-2.74906">
        <ele>188.6</ele>
        <time>2020-07-02T16:55:16.000Z</time>
      </trkpt>
      <trkpt lat="48.35168" lon="-2.7489">
        <ele>188.2</ele>
        <time>2020-07-02T16:55:21.000Z</time>
      </trkpt>
      <trkpt lat="48.35176" lon="-2.74882">
        <ele>187.7</ele>
        <time>2020-07-02T16:55:25.000Z</time>
      </trkpt>
      <trkpt lat="48.35182" lon="-2.74869">
        <ele>187.4</ele>
        <time>2020-07-02T16:55:29.000Z</time>
      </trkpt>
      <trkpt lat="48.35178" lon="-2.74854">
        <ele>187.1</ele>
        <time>2020-07-02T16:55:35.000Z</time>
      </trkpt>
      <trkpt lat="48.35177" lon="-2.74841">
        <ele>187</ele>
        <time>2020-07-02T16:55:40.000Z</time>
      </trkpt>
      <trkpt lat="48.35183" lon="-2.74829">
        <ele>186.9</ele>
        <time>2020-07-02T16:55:44.000Z</time>
      </trkpt>
      <trkpt lat="48.35192" lon="-2.74826">
        <ele>186.8</ele>
        <time>2020-07-02T16:55:50.000Z</time>
      </trkpt>
      <trkpt lat="48.35202" lon="-2.74824">
        <ele>186.7</ele>
        <time>2020-07-02T16:55:55.000Z</time>
      </trkpt>
      <trkpt lat="48.35213" lon="-2.74821">
        <ele>186.7</ele>
        <time>2020-07-02T16:55:59.000Z</time>
      </trkpt>
      <trkpt lat="48.35224" lon="-2.7482">
        <ele>186.9</ele>
        <time>2020-07-02T16:56:03.000Z</time>
      </trkpt>
      <trkpt lat="48.35235" lon="-2.74819">
        <ele>187.2</ele>
        <time>2020-07-02T16:56:07.000Z</time>
      </trkpt>
      <trkpt lat="48.35246" lon="-2.74819">
        <ele>187.6</ele>
        <time>2020-07-02T16:56:11.000Z</time>
      </trkpt>
      <trkpt lat="48.35256" lon="-2.74819">
        <ele>188.2</ele>
        <time>2020-07-02T16:56:15.000Z</time>
      </trkpt>
      <trkpt lat="48.35266" lon="-2.74819">
        <ele>188.7</ele>
        <time>2020-07-02T16:56:18.000Z</time>
      </trkpt>
      <trkpt lat="48.35277" lon="-2.74819">
        <ele>189.2</ele>
        <time>2020-07-02T16:56:22.000Z</time>
      </trkpt>
      <trkpt lat="48.35287" lon="-2.74819">
        <ele>189.7</ele>
        <time>2020-07-02T16:56:26.000Z</time>
      </trkpt>
      <trkpt lat="48.35298" lon="-2.7482">
        <ele>190.5</ele>
        <time>2020-07-02T16:56:31.000Z</time>
      </trkpt>
      <trkpt lat="48.35308" lon="-2.74818">
        <ele>191.1</ele>
        <time>2020-07-02T16:56:35.000Z</time>
      </trkpt>
      <trkpt lat="48.35317" lon="-2.74816">
        <ele>191.8</ele>
        <time>2020-07-02T16:56:39.000Z</time>
      </trkpt>
      <trkpt lat="48.35328" lon="-2.7481">
        <ele>192.5</ele>
        <time>2020-07-02T16:56:44.000Z</time>
      </trkpt>
      <trkpt lat="48.35337" lon="-2.74805">
        <ele>193</ele>
        <time>2020-07-02T16:56:48.000Z</time>
      </trkpt>
      <trkpt lat="48.35346" lon="-2.74801">
        <ele>193.4</ele>
        <time>2020-07-02T16:56:52.000Z</time>
      </trkpt>
      <trkpt lat="48.35356" lon="-2.74796">
        <ele>193.7</ele>
        <time>2020-07-02T16:56:56.000Z</time>
      </trkpt>
      <trkpt lat="48.35366" lon="-2.74793">
        <ele>194.1</ele>
        <time>2020-07-02T16:57:00.000Z</time>
      </trkpt>
      <trkpt lat="48.35376" lon="-2.74791">
        <ele>194.4</ele>
        <time>2020-07-02T16:57:04.000Z</time>
      </trkpt>
      <trkpt lat="48.35386" lon="-2.74791">
        <ele>194.6</ele>
        <time>2020-07-02T16:57:08.000Z</time>
      </trkpt>
      <trkpt lat="48.35396" lon="-2.7479">
        <ele>194.7</ele>
        <time>2020-07-02T16:57:12.000Z</time>
      </trkpt>
      <trkpt lat="48.35407" lon="-2.7479">
        <ele>194.9</ele>
        <time>2020-07-02T16:57:16.000Z</time>
      </trkpt>
      <trkpt lat="48.35419" lon="-2.74789">
        <ele>195</ele>
        <time>2020-07-02T16:57:20.000Z</time>
      </trkpt>
      <trkpt lat="48.3543" lon="-2.74788">
        <ele>195.1</ele>
        <time>2020-07-02T16:57:24.000Z</time>
      </trkpt>
      <trkpt lat="48.35439" lon="-2.74787">
        <ele>195.2</ele>
        <time>2020-07-02T16:57:27.000Z</time>
      </trkpt>
      <trkpt lat="48.35449" lon="-2.74787">
        <ele>195.3</ele>
        <time>2020-07-02T16:57:30.000Z</time>
      </trkpt>
      <trkpt lat="48.35458" lon="-2.74786">
        <ele>195.4</ele>
        <time>2020-07-02T16:57:33.000Z</time>
      </trkpt>
      <trkpt lat="48.35467" lon="-2.74785">
        <ele>195.4</ele>
        <time>2020-07-02T16:57:36.000Z</time>
      </trkpt>
      <trkpt lat="48.35477" lon="-2.74784">
        <ele>195.4</ele>
        <time>2020-07-02T16:57:39.000Z</time>
      </trkpt>
      <trkpt lat="48.35487" lon="-2.74785">
        <ele>195.5</ele>
        <time>2020-07-02T16:57:42.000Z</time>
      </trkpt>
      <trkpt lat="48.35496" lon="-2.74786">
        <ele>195.5</ele>
        <time>2020-07-02T16:57:45.000Z</time>
      </trkpt>
      <trkpt lat="48.35508" lon="-2.74791">
        <ele>195.6</ele>
        <time>2020-07-02T16:57:49.000Z</time>
      </trkpt>
      <trkpt lat="48.35517" lon="-2.74795">
        <ele>195.8</ele>
        <time>2020-07-02T16:57:52.000Z</time>
      </trkpt>
      <trkpt lat="48.35525" lon="-2.748">
        <ele>196</ele>
        <time>2020-07-02T16:57:55.000Z</time>
      </trkpt>
      <trkpt lat="48.35534" lon="-2.74805">
        <ele>196.3</ele>
        <time>2020-07-02T16:57:58.000Z</time>
      </trkpt>
      <trkpt lat="48.35543" lon="-2.74811">
        <ele>196.5</ele>
        <time>2020-07-02T16:58:01.000Z</time>
      </trkpt>
      <trkpt lat="48.35551" lon="-2.74818">
        <ele>196.8</ele>
        <time>2020-07-02T16:58:04.000Z</time>
      </trkpt>
      <trkpt lat="48.3556" lon="-2.74826">
        <ele>197.2</ele>
        <time>2020-07-02T16:58:08.000Z</time>
      </trkpt>
      <trkpt lat="48.3557" lon="-2.74834">
        <ele>197.7</ele>
        <time>2020-07-02T16:58:12.000Z</time>
      </trkpt>
      <trkpt lat="48.35581" lon="-2.74841">
        <ele>198.2</ele>
        <time>2020-07-02T16:58:16.000Z</time>
      </trkpt>
      <trkpt lat="48.35592" lon="-2.74847">
        <ele>198.7</ele>
        <time>2020-07-02T16:58:20.000Z</time>
      </trkpt>
      <trkpt lat="48.35603" lon="-2.7485">
        <ele>199.1</ele>
        <time>2020-07-02T16:58:24.000Z</time>
      </trkpt>
      <trkpt lat="48.35613" lon="-2.74854">
        <ele>199.4</ele>
        <time>2020-07-02T16:58:27.000Z</time>
      </trkpt>
      <trkpt lat="48.35622" lon="-2.74859">
        <ele>199.7</ele>
        <time>2020-07-02T16:58:30.000Z</time>
      </trkpt>
      <trkpt lat="48.35633" lon="-2.74865">
        <ele>200</ele>
        <time>2020-07-02T16:58:34.000Z</time>
      </trkpt>
      <trkpt lat="48.35642" lon="-2.7487">
        <ele>200.2</ele>
        <time>2020-07-02T16:58:37.000Z</time>
      </trkpt>
      <trkpt lat="48.35651" lon="-2.74874">
        <ele>200.4</ele>
        <time>2020-07-02T16:58:40.000Z</time>
      </trkpt>
      <trkpt lat="48.3566" lon="-2.74877">
        <ele>200.6</ele>
        <time>2020-07-02T16:58:43.000Z</time>
      </trkpt>
      <trkpt lat="48.35671" lon="-2.74878">
        <ele>200.8</ele>
        <time>2020-07-02T16:58:47.000Z</time>
      </trkpt>
      <trkpt lat="48.35679" lon="-2.74866">
        <ele>200.8</ele>
        <time>2020-07-02T16:58:51.000Z</time>
      </trkpt>
      <trkpt lat="48.35685" lon="-2.74856">
        <ele>200.8</ele>
        <time>2020-07-02T16:58:54.000Z</time>
      </trkpt>
      <trkpt lat="48.35691" lon="-2.74845">
        <ele>200.8</ele>
        <time>2020-07-02T16:58:57.000Z</time>
      </trkpt>
      <trkpt lat="48.35699" lon="-2.74833">
        <ele>200.8</ele>
        <time>2020-07-02T16:59:00.000Z</time>
      </trkpt>
      <trkpt lat="48.35708" lon="-2.74826">
        <ele>200.7</ele>
        <time>2020-07-02T16:59:03.000Z</time>
      </trkpt>
      <trkpt lat="48.35718" lon="-2.74826">
        <ele>200.5</ele>
        <time>2020-07-02T16:59:06.000Z</time>
      </trkpt>
      <trkpt lat="48.35729" lon="-2.74827">
        <ele>200.4</ele>
        <time>2020-07-02T16:59:09.000Z</time>
      </trkpt>
      <trkpt lat="48.35739" lon="-2.74824">
        <ele>200.3</ele>
        <time>2020-07-02T16:59:12.000Z</time>
      </trkpt>
      <trkpt lat="48.35749" lon="-2.74819">
        <ele>200.1</ele>
        <time>2020-07-02T16:59:16.000Z</time>
      </trkpt>
      <trkpt lat="48.35752" lon="-2.74803">
        <ele>200</ele>
        <time>2020-07-02T16:59:20.000Z</time>
      </trkpt>
      <trkpt lat="48.35754" lon="-2.74787">
        <ele>200</ele>
        <time>2020-07-02T16:59:23.000Z</time>
      </trkpt>
      <trkpt lat="48.35761" lon="-2.74771">
        <ele>199.9</ele>
        <time>2020-07-02T16:59:26.000Z</time>
      </trkpt>
      <trkpt lat="48.35771" lon="-2.74765">
        <ele>199.8</ele>
        <time>2020-07-02T16:59:29.000Z</time>
      </trkpt>
      <trkpt lat="48.3578" lon="-2.74763">
        <ele>199.8</ele>
        <time>2020-07-02T16:59:32.000Z</time>
      </trkpt>
      <trkpt lat="48.35791" lon="-2.74763">
        <ele>199.9</ele>
        <time>2020-07-02T16:59:36.000Z</time>
      </trkpt>
      <trkpt lat="48.35801" lon="-2.7476">
        <ele>200.1</ele>
        <time>2020-07-02T16:59:39.000Z</time>
      </trkpt>
      <trkpt lat="48.3581" lon="-2.74756">
        <ele>200.5</ele>
        <time>2020-07-02T16:59:42.000Z</time>
      </trkpt>
      <trkpt lat="48.3582" lon="-2.74752">
        <ele>201</ele>
        <time>2020-07-02T16:59:45.000Z</time>
      </trkpt>
      <trkpt lat="48.35831" lon="-2.74747">
        <ele>201.7</ele>
        <time>2020-07-02T16:59:49.000Z</time>
      </trkpt>
      <trkpt lat="48.35841" lon="-2.74744">
        <ele>202.2</ele>
        <time>2020-07-02T16:59:52.000Z</time>
      </trkpt>
      <trkpt lat="48.35852" lon="-2.74739">
        <ele>202.9</ele>
        <time>2020-07-02T16:59:56.000Z</time>
      </trkpt>
      <trkpt lat="48.35863" lon="-2.74735">
        <ele>203.4</ele>
        <time>2020-07-02T17:00:00.000Z</time>
      </trkpt>
      <trkpt lat="48.35873" lon="-2.74731">
        <ele>203.8</ele>
        <time>2020-07-02T17:00:03.000Z</time>
      </trkpt>
      <trkpt lat="48.35882" lon="-2.74727">
        <ele>204.2</ele>
        <time>2020-07-02T17:00:06.000Z</time>
      </trkpt>
      <trkpt lat="48.35891" lon="-2.74723">
        <ele>204.6</ele>
        <time>2020-07-02T17:00:09.000Z</time>
      </trkpt>
      <trkpt lat="48.359" lon="-2.74719">
        <ele>204.9</ele>
        <time>2020-07-02T17:00:12.000Z</time>
      </trkpt>
      <trkpt lat="48.3591" lon="-2.74715">
        <ele>205.2</ele>
        <time>2020-07-02T17:00:15.000Z</time>
      </trkpt>
      <trkpt lat="48.35919" lon="-2.7471">
        <ele>205.5</ele>
        <time>2020-07-02T17:00:18.000Z</time>
      </trkpt>
      <trkpt lat="48.35929" lon="-2.74706">
        <ele>205.8</ele>
        <time>2020-07-02T17:00:21.000Z</time>
      </trkpt>
      <trkpt lat="48.35938" lon="-2.74702">
        <ele>206</ele>
        <time>2020-07-02T17:00:24.000Z</time>
      </trkpt>
      <trkpt lat="48.35948" lon="-2.74696">
        <ele>206.1</ele>
        <time>2020-07-02T17:00:27.000Z</time>
      </trkpt>
      <trkpt lat="48.35957" lon="-2.74688">
        <ele>206.2</ele>
        <time>2020-07-02T17:00:30.000Z</time>
      </trkpt>
      <trkpt lat="48.35965" lon="-2.74679">
        <ele>206.3</ele>
        <time>2020-07-02T17:00:33.000Z</time>
      </trkpt>
      <trkpt lat="48.35973" lon="-2.74669">
        <ele>206.3</ele>
        <time>2020-07-02T17:00:36.000Z</time>
      </trkpt>
      <trkpt lat="48.35981" lon="-2.74657">
        <ele>206.3</ele>
        <time>2020-07-02T17:00:39.000Z</time>
      </trkpt>
      <trkpt lat="48.35989" lon="-2.74645">
        <ele>206.4</ele>
        <time>2020-07-02T17:00:42.000Z</time>
      </trkpt>
      <trkpt lat="48.35997" lon="-2.74632">
        <ele>206.3</ele>
        <time>2020-07-02T17:00:45.000Z</time>
      </trkpt>
      <trkpt lat="48.36006" lon="-2.74618">
        <ele>206.3</ele>
        <time>2020-07-02T17:00:48.000Z</time>
      </trkpt>
      <trkpt lat="48.36014" lon="-2.74606">
        <ele>206.2</ele>
        <time>2020-07-02T17:00:51.000Z</time>
      </trkpt>
      <trkpt lat="48.36022" lon="-2.74593">
        <ele>206.1</ele>
        <time>2020-07-02T17:00:54.000Z</time>
      </trkpt>
      <trkpt lat="48.3603" lon="-2.74579">
        <ele>206</ele>
        <time>2020-07-02T17:00:57.000Z</time>
      </trkpt>
      <trkpt lat="48.36039" lon="-2.74566">
        <ele>205.8</ele>
        <time>2020-07-02T17:01:00.000Z</time>
      </trkpt>
      <trkpt lat="48.36047" lon="-2.74553">
        <ele>205.6</ele>
        <time>2020-07-02T17:01:03.000Z</time>
      </trkpt>
      <trkpt lat="48.36055" lon="-2.7454">
        <ele>205.4</ele>
        <time>2020-07-02T17:01:06.000Z</time>
      </trkpt>
      <trkpt lat="48.36064" lon="-2.74527">
        <ele>205.3</ele>
        <time>2020-07-02T17:01:09.000Z</time>
      </trkpt>
      <trkpt lat="48.36074" lon="-2.74515">
        <ele>205.2</ele>
        <time>2020-07-02T17:01:12.000Z</time>
      </trkpt>
      <trkpt lat="48.36083" lon="-2.74504">
        <ele>205.1</ele>
        <time>2020-07-02T17:01:15.000Z</time>
      </trkpt>
      <trkpt lat="48.36093" lon="-2.74493">
        <ele>205</ele>
        <time>2020-07-02T17:01:18.000Z</time>
      </trkpt>
      <trkpt lat="48.36102" lon="-2.74482">
        <ele>204.9</ele>
        <time>2020-07-02T17:01:21.000Z</time>
      </trkpt>
      <trkpt lat="48.36112" lon="-2.74472">
        <ele>204.8</ele>
        <time>2020-07-02T17:01:24.000Z</time>
      </trkpt>
      <trkpt lat="48.36121" lon="-2.74461">
        <ele>204.7</ele>
        <time>2020-07-02T17:01:27.000Z</time>
      </trkpt>
      <trkpt lat="48.36131" lon="-2.7445">
        <ele>204.7</ele>
        <time>2020-07-02T17:01:30.000Z</time>
      </trkpt>
      <trkpt lat="48.3614" lon="-2.7444">
        <ele>204.8</ele>
        <time>2020-07-02T17:01:33.000Z</time>
      </trkpt>
      <trkpt lat="48.36149" lon="-2.74429">
        <ele>204.9</ele>
        <time>2020-07-02T17:01:36.000Z</time>
      </trkpt>
      <trkpt lat="48.36159" lon="-2.74418">
        <ele>204.9</ele>
        <time>2020-07-02T17:01:39.000Z</time>
      </trkpt>
      <trkpt lat="48.36169" lon="-2.74408">
        <ele>205</ele>
        <time>2020-07-02T17:01:42.000Z</time>
      </trkpt>
      <trkpt lat="48.36178" lon="-2.74398">
        <ele>205.1</ele>
        <time>2020-07-02T17:01:45.000Z</time>
      </trkpt>
      <trkpt lat="48.36187" lon="-2.74387">
        <ele>205.2</ele>
        <time>2020-07-02T17:01:48.000Z</time>
      </trkpt>
      <trkpt lat="48.36196" lon="-2.74377">
        <ele>205.2</ele>
        <time>2020-07-02T17:01:51.000Z</time>
      </trkpt>
      <trkpt lat="48.36204" lon="-2.74366">
        <ele>205.3</ele>
        <time>2020-07-02T17:01:54.000Z</time>
      </trkpt>
      <trkpt lat="48.36213" lon="-2.74354">
        <ele>205.3</ele>
        <time>2020-07-02T17:01:57.000Z</time>
      </trkpt>
      <trkpt lat="48.3622" lon="-2.7434">
        <ele>205.3</ele>
        <time>2020-07-02T17:02:00.000Z</time>
      </trkpt>
      <trkpt lat="48.36226" lon="-2.74323">
        <ele>205.2</ele>
        <time>2020-07-02T17:02:03.000Z</time>
      </trkpt>
      <trkpt lat="48.36231" lon="-2.74304">
        <ele>205.1</ele>
        <time>2020-07-02T17:02:06.000Z</time>
      </trkpt>
      <trkpt lat="48.36234" lon="-2.74285">
        <ele>204.9</ele>
        <time>2020-07-02T17:02:09.000Z</time>
      </trkpt>
      <trkpt lat="48.36238" lon="-2.74267">
        <ele>204.7</ele>
        <time>2020-07-02T17:02:12.000Z</time>
      </trkpt>
      <trkpt lat="48.36241" lon="-2.7425">
        <ele>204.6</ele>
        <time>2020-07-02T17:02:15.000Z</time>
      </trkpt>
      <trkpt lat="48.36244" lon="-2.74231">
        <ele>204.4</ele>
        <time>2020-07-02T17:02:18.000Z</time>
      </trkpt>
      <trkpt lat="48.36237" lon="-2.74214">
        <ele>204.3</ele>
        <time>2020-07-02T17:02:21.000Z</time>
      </trkpt>
      <trkpt lat="48.36232" lon="-2.74202">
        <ele>204.2</ele>
        <time>2020-07-02T17:02:23.000Z</time>
      </trkpt>
      <trkpt lat="48.36227" lon="-2.74189">
        <ele>204.1</ele>
        <time>2020-07-02T17:02:25.000Z</time>
      </trkpt>
      <trkpt lat="48.36221" lon="-2.74176">
        <ele>203.9</ele>
        <time>2020-07-02T17:02:27.000Z</time>
      </trkpt>
      <trkpt lat="48.36217" lon="-2.74163">
        <ele>203.7</ele>
        <time>2020-07-02T17:02:29.000Z</time>
      </trkpt>
      <trkpt lat="48.36212" lon="-2.74151">
        <ele>203.6</ele>
        <time>2020-07-02T17:02:31.000Z</time>
      </trkpt>
      <trkpt lat="48.36208" lon="-2.74139">
        <ele>203.4</ele>
        <time>2020-07-02T17:02:33.000Z</time>
      </trkpt>
      <trkpt lat="48.362" lon="-2.74122">
        <ele>203.2</ele>
        <time>2020-07-02T17:02:36.000Z</time>
      </trkpt>
      <trkpt lat="48.36192" lon="-2.74107">
        <ele>203</ele>
        <time>2020-07-02T17:02:39.000Z</time>
      </trkpt>
      <trkpt lat="48.36184" lon="-2.74095">
        <ele>203</ele>
        <time>2020-07-02T17:02:42.000Z</time>
      </trkpt>
      <trkpt lat="48.36177" lon="-2.74083">
        <ele>203</ele>
        <time>2020-07-02T17:02:45.000Z</time>
      </trkpt>
      <trkpt lat="48.3617" lon="-2.74072">
        <ele>203.1</ele>
        <time>2020-07-02T17:02:48.000Z</time>
      </trkpt>
      <trkpt lat="48.36163" lon="-2.74062">
        <ele>203.4</ele>
        <time>2020-07-02T17:02:51.000Z</time>
      </trkpt>
      <trkpt lat="48.36156" lon="-2.74051">
        <ele>203.6</ele>
        <time>2020-07-02T17:02:54.000Z</time>
      </trkpt>
      <trkpt lat="48.3615" lon="-2.74042">
        <ele>204</ele>
        <time>2020-07-02T17:02:57.000Z</time>
      </trkpt>
      <trkpt lat="48.36142" lon="-2.74031">
        <ele>204.5</ele>
        <time>2020-07-02T17:03:01.000Z</time>
      </trkpt>
      <trkpt lat="48.36133" lon="-2.74019">
        <ele>205.2</ele>
        <time>2020-07-02T17:03:05.000Z</time>
      </trkpt>
      <trkpt lat="48.36126" lon="-2.74009">
        <ele>206.2</ele>
        <time>2020-07-02T17:03:09.000Z</time>
      </trkpt>
      <trkpt lat="48.36119" lon="-2.73998">
        <ele>207.1</ele>
        <time>2020-07-02T17:03:13.000Z</time>
      </trkpt>
      <trkpt lat="48.36113" lon="-2.73987">
        <ele>208</ele>
        <time>2020-07-02T17:03:17.000Z</time>
      </trkpt>
      <trkpt lat="48.36107" lon="-2.73975">
        <ele>208.8</ele>
        <time>2020-07-02T17:03:21.000Z</time>
      </trkpt>
      <trkpt lat="48.361" lon="-2.73962">
        <ele>209.6</ele>
        <time>2020-07-02T17:03:25.000Z</time>
      </trkpt>
      <trkpt lat="48.36094" lon="-2.73948">
        <ele>210.2</ele>
        <time>2020-07-02T17:03:29.000Z</time>
      </trkpt>
      <trkpt lat="48.36089" lon="-2.73934">
        <ele>210.8</ele>
        <time>2020-07-02T17:03:33.000Z</time>
      </trkpt>
      <trkpt lat="48.36085" lon="-2.73919">
        <ele>211.4</ele>
        <time>2020-07-02T17:03:37.000Z</time>
      </trkpt>
      <trkpt lat="48.36081" lon="-2.73904">
        <ele>211.9</ele>
        <time>2020-07-02T17:03:41.000Z</time>
      </trkpt>
      <trkpt lat="48.36078" lon="-2.7389">
        <ele>212.4</ele>
        <time>2020-07-02T17:03:45.000Z</time>
      </trkpt>
      <trkpt lat="48.36074" lon="-2.73876">
        <ele>212.9</ele>
        <time>2020-07-02T17:03:49.000Z</time>
      </trkpt>
      <trkpt lat="48.3607" lon="-2.73863">
        <ele>213.4</ele>
        <time>2020-07-02T17:03:53.000Z</time>
      </trkpt>
      <trkpt lat="48.36066" lon="-2.73851">
        <ele>214</ele>
        <time>2020-07-02T17:03:57.000Z</time>
      </trkpt>
      <trkpt lat="48.36063" lon="-2.73837">
        <ele>214.8</ele>
        <time>2020-07-02T17:04:02.000Z</time>
      </trkpt>
      <trkpt lat="48.36061" lon="-2.73821">
        <ele>215.3</ele>
        <time>2020-07-02T17:04:06.000Z</time>
      </trkpt>
      <trkpt lat="48.3606" lon="-2.73806">
        <ele>215.8</ele>
        <time>2020-07-02T17:04:10.000Z</time>
      </trkpt>
      <trkpt lat="48.36058" lon="-2.73792">
        <ele>216.3</ele>
        <time>2020-07-02T17:04:14.000Z</time>
      </trkpt>
      <trkpt lat="48.36055" lon="-2.73776">
        <ele>217</ele>
        <time>2020-07-02T17:04:19.000Z</time>
      </trkpt>
      <trkpt lat="48.36053" lon="-2.73763">
        <ele>217.5</ele>
        <time>2020-07-02T17:04:23.000Z</time>
      </trkpt>
      <trkpt lat="48.36051" lon="-2.73749">
        <ele>218</ele>
        <time>2020-07-02T17:04:27.000Z</time>
      </trkpt>
      <trkpt lat="48.36049" lon="-2.73734">
        <ele>218.4</ele>
        <time>2020-07-02T17:04:31.000Z</time>
      </trkpt>
      <trkpt lat="48.36046" lon="-2.73719">
        <ele>218.8</ele>
        <time>2020-07-02T17:04:35.000Z</time>
      </trkpt>
      <trkpt lat="48.36044" lon="-2.73705">
        <ele>219.2</ele>
        <time>2020-07-02T17:04:39.000Z</time>
      </trkpt>
      <trkpt lat="48.36042" lon="-2.73691">
        <ele>219.7</ele>
        <time>2020-07-02T17:04:43.000Z</time>
      </trkpt>
      <trkpt lat="48.36038" lon="-2.73677">
        <ele>220.1</ele>
        <time>2020-07-02T17:04:47.000Z</time>
      </trkpt>
      <trkpt lat="48.36034" lon="-2.73664">
        <ele>220.6</ele>
        <time>2020-07-02T17:04:51.000Z</time>
      </trkpt>
      <trkpt lat="48.3603" lon="-2.73651">
        <ele>220.9</ele>
        <time>2020-07-02T17:04:55.000Z</time>
      </trkpt>
      <trkpt lat="48.36026" lon="-2.73636">
        <ele>221.3</ele>
        <time>2020-07-02T17:04:59.000Z</time>
      </trkpt>
      <trkpt lat="48.36021" lon="-2.73623">
        <ele>221.6</ele>
        <time>2020-07-02T17:05:03.000Z</time>
      </trkpt>
      <trkpt lat="48.36015" lon="-2.73607">
        <ele>221.7</ele>
        <time>2020-07-02T17:05:07.000Z</time>
      </trkpt>
      <trkpt lat="48.3601" lon="-2.73594">
        <ele>221.8</ele>
        <time>2020-07-02T17:05:10.000Z</time>
      </trkpt>
      <trkpt lat="48.36012" lon="-2.7358">
        <ele>221.9</ele>
        <time>2020-07-02T17:05:13.000Z</time>
      </trkpt>
      <trkpt lat="48.36023" lon="-2.73578">
        <ele>221.9</ele>
        <time>2020-07-02T17:05:17.000Z</time>
      </trkpt>
      <trkpt lat="48.36033" lon="-2.7358">
        <ele>222.1</ele>
        <time>2020-07-02T17:05:21.000Z</time>
      </trkpt>
      <trkpt lat="48.36044" lon="-2.73582">
        <ele>222.3</ele>
        <time>2020-07-02T17:05:25.000Z</time>
      </trkpt>
      <trkpt lat="48.36055" lon="-2.73584">
        <ele>222.7</ele>
        <time>2020-07-02T17:05:29.000Z</time>
      </trkpt>
      <trkpt lat="48.36066" lon="-2.73586">
        <ele>223.1</ele>
        <time>2020-07-02T17:05:33.000Z</time>
      </trkpt>
      <trkpt lat="48.36077" lon="-2.73588">
        <ele>223.7</ele>
        <time>2020-07-02T17:05:37.000Z</time>
      </trkpt>
      <trkpt lat="48.36089" lon="-2.7359">
        <ele>224.1</ele>
        <time>2020-07-02T17:05:41.000Z</time>
      </trkpt>
      <trkpt lat="48.361" lon="-2.73593">
        <ele>224.4</ele>
        <time>2020-07-02T17:05:45.000Z</time>
      </trkpt>
      <trkpt lat="48.3611" lon="-2.73597">
        <ele>224.6</ele>
        <time>2020-07-02T17:05:48.000Z</time>
      </trkpt>
      <trkpt lat="48.3612" lon="-2.73601">
        <ele>224.7</ele>
        <time>2020-07-02T17:05:51.000Z</time>
      </trkpt>
      <trkpt lat="48.3613" lon="-2.73606">
        <ele>224.8</ele>
        <time>2020-07-02T17:05:54.000Z</time>
      </trkpt>
      <trkpt lat="48.3614" lon="-2.7361">
        <ele>224.9</ele>
        <time>2020-07-02T17:05:57.000Z</time>
      </trkpt>
      <trkpt lat="48.3615" lon="-2.73615">
        <ele>224.9</ele>
        <time>2020-07-02T17:06:00.000Z</time>
      </trkpt>
      <trkpt lat="48.3616" lon="-2.73618">
        <ele>224.9</ele>
        <time>2020-07-02T17:06:03.000Z</time>
      </trkpt>
      <trkpt lat="48.36171" lon="-2.73621">
        <ele>224.9</ele>
        <time>2020-07-02T17:06:06.000Z</time>
      </trkpt>
      <trkpt lat="48.36183" lon="-2.73624">
        <ele>224.7</ele>
        <time>2020-07-02T17:06:09.000Z</time>
      </trkpt>
      <trkpt lat="48.36192" lon="-2.73626">
        <ele>224.6</ele>
        <time>2020-07-02T17:06:11.000Z</time>
      </trkpt>
      <trkpt lat="48.36202" lon="-2.7363">
        <ele>224.4</ele>
        <time>2020-07-02T17:06:13.000Z</time>
      </trkpt>
      <trkpt lat="48.36212" lon="-2.73635">
        <ele>224.2</ele>
        <time>2020-07-02T17:06:15.000Z</time>
      </trkpt>
      <trkpt lat="48.36221" lon="-2.73641">
        <ele>224</ele>
        <time>2020-07-02T17:06:17.000Z</time>
      </trkpt>
      <trkpt lat="48.36231" lon="-2.73648">
        <ele>223.7</ele>
        <time>2020-07-02T17:06:19.000Z</time>
      </trkpt>
      <trkpt lat="48.36241" lon="-2.73653">
        <ele>223.5</ele>
        <time>2020-07-02T17:06:21.000Z</time>
      </trkpt>
      <trkpt lat="48.36251" lon="-2.73654">
        <ele>223.3</ele>
        <time>2020-07-02T17:06:23.000Z</time>
      </trkpt>
      <trkpt lat="48.3626" lon="-2.73654">
        <ele>223.1</ele>
        <time>2020-07-02T17:06:25.000Z</time>
      </trkpt>
      <trkpt lat="48.36272" lon="-2.73654">
        <ele>222.9</ele>
        <time>2020-07-02T17:06:28.000Z</time>
      </trkpt>
      <trkpt lat="48.36282" lon="-2.73653">
        <ele>222.8</ele>
        <time>2020-07-02T17:06:31.000Z</time>
      </trkpt>
      <trkpt lat="48.36294" lon="-2.73652">
        <ele>222.7</ele>
        <time>2020-07-02T17:06:34.000Z</time>
      </trkpt>
      <trkpt lat="48.36305" lon="-2.73652">
        <ele>222.8</ele>
        <time>2020-07-02T17:06:37.000Z</time>
      </trkpt>
      <trkpt lat="48.36311" lon="-2.73642">
        <ele>222.9</ele>
        <time>2020-07-02T17:06:40.000Z</time>
      </trkpt>
      <trkpt lat="48.36312" lon="-2.73626">
        <ele>223.1</ele>
        <time>2020-07-02T17:06:43.000Z</time>
      </trkpt>
      <trkpt lat="48.36313" lon="-2.73609">
        <ele>223.2</ele>
        <time>2020-07-02T17:06:46.000Z</time>
      </trkpt>
      <trkpt lat="48.36314" lon="-2.73593">
        <ele>223.4</ele>
        <time>2020-07-02T17:06:49.000Z</time>
      </trkpt>
      <trkpt lat="48.36314" lon="-2.73576">
        <ele>223.5</ele>
        <time>2020-07-02T17:06:52.000Z</time>
      </trkpt>
      <trkpt lat="48.36315" lon="-2.7356">
        <ele>223.7</ele>
        <time>2020-07-02T17:06:55.000Z</time>
      </trkpt>
      <trkpt lat="48.36315" lon="-2.73544">
        <ele>223.9</ele>
        <time>2020-07-02T17:06:58.000Z</time>
      </trkpt>
      <trkpt lat="48.36316" lon="-2.73527">
        <ele>224.2</ele>
        <time>2020-07-02T17:07:01.000Z</time>
      </trkpt>
      <trkpt lat="48.36316" lon="-2.7351">
        <ele>224.4</ele>
        <time>2020-07-02T17:07:04.000Z</time>
      </trkpt>
      <trkpt lat="48.36313" lon="-2.73494">
        <ele>224.5</ele>
        <time>2020-07-02T17:07:07.000Z</time>
      </trkpt>
      <trkpt lat="48.36309" lon="-2.7348">
        <ele>224.7</ele>
        <time>2020-07-02T17:07:10.000Z</time>
      </trkpt>
      <trkpt lat="48.36302" lon="-2.73464">
        <ele>224.8</ele>
        <time>2020-07-02T17:07:13.000Z</time>
      </trkpt>
      <trkpt lat="48.36299" lon="-2.73446">
        <ele>224.9</ele>
        <time>2020-07-02T17:07:16.000Z</time>
      </trkpt>
      <trkpt lat="48.36298" lon="-2.73427">
        <ele>224.9</ele>
        <time>2020-07-02T17:07:19.000Z</time>
      </trkpt>
      <trkpt lat="48.36297" lon="-2.73407">
        <ele>224.8</ele>
        <time>2020-07-02T17:07:22.000Z</time>
      </trkpt>
      <trkpt lat="48.36296" lon="-2.73393">
        <ele>224.7</ele>
        <time>2020-07-02T17:07:24.000Z</time>
      </trkpt>
      <trkpt lat="48.36295" lon="-2.73379">
        <ele>224.7</ele>
        <time>2020-07-02T17:07:26.000Z</time>
      </trkpt>
      <trkpt lat="48.36294" lon="-2.73363">
        <ele>224.5</ele>
        <time>2020-07-02T17:07:28.000Z</time>
      </trkpt>
      <trkpt lat="48.36291" lon="-2.73347">
        <ele>224.3</ele>
        <time>2020-07-02T17:07:30.000Z</time>
      </trkpt>
      <trkpt lat="48.36289" lon="-2.73333">
        <ele>223.9</ele>
        <time>2020-07-02T17:07:32.000Z</time>
      </trkpt>
      <trkpt lat="48.36293" lon="-2.73317">
        <ele>223.2</ele>
        <time>2020-07-02T17:07:35.000Z</time>
      </trkpt>
      <trkpt lat="48.36303" lon="-2.73313">
        <ele>222.5</ele>
        <time>2020-07-02T17:07:38.000Z</time>
      </trkpt>
      <trkpt lat="48.36314" lon="-2.73312">
        <ele>222.1</ele>
        <time>2020-07-02T17:07:41.000Z</time>
      </trkpt>
      <trkpt lat="48.36324" lon="-2.73312">
        <ele>221.7</ele>
        <time>2020-07-02T17:07:44.000Z</time>
      </trkpt>
      <trkpt lat="48.36335" lon="-2.73313">
        <ele>221.6</ele>
        <time>2020-07-02T17:07:47.000Z</time>
      </trkpt>
      <trkpt lat="48.36345" lon="-2.73314">
        <ele>221.6</ele>
        <time>2020-07-02T17:07:50.000Z</time>
      </trkpt>
      <trkpt lat="48.36356" lon="-2.73315">
        <ele>221.7</ele>
        <time>2020-07-02T17:07:53.000Z</time>
      </trkpt>
      <trkpt lat="48.36366" lon="-2.73316">
        <ele>221.9</ele>
        <time>2020-07-02T17:07:56.000Z</time>
      </trkpt>
      <trkpt lat="48.36377" lon="-2.73317">
        <ele>222.2</ele>
        <time>2020-07-02T17:07:59.000Z</time>
      </trkpt>
      <trkpt lat="48.36388" lon="-2.73318">
        <ele>222.4</ele>
        <time>2020-07-02T17:08:02.000Z</time>
      </trkpt>
      <trkpt lat="48.36397" lon="-2.7332">
        <ele>222.7</ele>
        <time>2020-07-02T17:08:05.000Z</time>
      </trkpt>
      <trkpt lat="48.36408" lon="-2.73322">
        <ele>223</ele>
        <time>2020-07-02T17:08:08.000Z</time>
      </trkpt>
      <trkpt lat="48.36419" lon="-2.73325">
        <ele>223.2</ele>
        <time>2020-07-02T17:08:11.000Z</time>
      </trkpt>
      <trkpt lat="48.36431" lon="-2.73327">
        <ele>223.4</ele>
        <time>2020-07-02T17:08:14.000Z</time>
      </trkpt>
      <trkpt lat="48.36443" lon="-2.73328">
        <ele>223.5</ele>
        <time>2020-07-02T17:08:17.000Z</time>
      </trkpt>
      <trkpt lat="48.36456" lon="-2.73323">
        <ele>223.5</ele>
        <time>2020-07-02T17:08:20.000Z</time>
      </trkpt>
      <trkpt lat="48.36463" lon="-2.73314">
        <ele>223.5</ele>
        <time>2020-07-02T17:08:22.000Z</time>
      </trkpt>
      <trkpt lat="48.3647" lon="-2.73305">
        <ele>223.5</ele>
        <time>2020-07-02T17:08:24.000Z</time>
      </trkpt>
      <trkpt lat="48.3648" lon="-2.73292">
        <ele>223.4</ele>
        <time>2020-07-02T17:08:27.000Z</time>
      </trkpt>
      <trkpt lat="48.36488" lon="-2.73285">
        <ele>223.4</ele>
        <time>2020-07-02T17:08:29.000Z</time>
      </trkpt>
      <trkpt lat="48.36496" lon="-2.73276">
        <ele>223.3</ele>
        <time>2020-07-02T17:08:31.000Z</time>
      </trkpt>
      <trkpt lat="48.36504" lon="-2.73268">
        <ele>223.3</ele>
        <time>2020-07-02T17:08:33.000Z</time>
      </trkpt>
      <trkpt lat="48.36511" lon="-2.7326">
        <ele>223.4</ele>
        <time>2020-07-02T17:08:35.000Z</time>
      </trkpt>
      <trkpt lat="48.36521" lon="-2.73249">
        <ele>223.4</ele>
        <time>2020-07-02T17:08:38.000Z</time>
      </trkpt>
      <trkpt lat="48.36532" lon="-2.73237">
        <ele>223.5</ele>
        <time>2020-07-02T17:08:41.000Z</time>
      </trkpt>
      <trkpt lat="48.36544" lon="-2.73228">
        <ele>223.5</ele>
        <time>2020-07-02T17:08:44.000Z</time>
      </trkpt>
      <trkpt lat="48.36554" lon="-2.73219">
        <ele>223.6</ele>
        <time>2020-07-02T17:08:47.000Z</time>
      </trkpt>
      <trkpt lat="48.36564" lon="-2.73212">
        <ele>223.8</ele>
        <time>2020-07-02T17:08:50.000Z</time>
      </trkpt>
      <trkpt lat="48.36574" lon="-2.73204">
        <ele>224</ele>
        <time>2020-07-02T17:08:53.000Z</time>
      </trkpt>
      <trkpt lat="48.36583" lon="-2.73196">
        <ele>224.1</ele>
        <time>2020-07-02T17:08:56.000Z</time>
      </trkpt>
      <trkpt lat="48.36594" lon="-2.73186">
        <ele>224.3</ele>
        <time>2020-07-02T17:08:59.000Z</time>
      </trkpt>
      <trkpt lat="48.36604" lon="-2.73176">
        <ele>224.4</ele>
        <time>2020-07-02T17:09:02.000Z</time>
      </trkpt>
      <trkpt lat="48.36612" lon="-2.73166">
        <ele>224.4</ele>
        <time>2020-07-02T17:09:05.000Z</time>
      </trkpt>
      <trkpt lat="48.3662" lon="-2.73156">
        <ele>224.6</ele>
        <time>2020-07-02T17:09:08.000Z</time>
      </trkpt>
      <trkpt lat="48.3663" lon="-2.73146">
        <ele>224.7</ele>
        <time>2020-07-02T17:09:11.000Z</time>
      </trkpt>
      <trkpt lat="48.36639" lon="-2.73137">
        <ele>224.9</ele>
        <time>2020-07-02T17:09:14.000Z</time>
      </trkpt>
      <trkpt lat="48.3665" lon="-2.73131">
        <ele>225.1</ele>
        <time>2020-07-02T17:09:17.000Z</time>
      </trkpt>
      <trkpt lat="48.36661" lon="-2.73131">
        <ele>225.4</ele>
        <time>2020-07-02T17:09:20.000Z</time>
      </trkpt>
      <trkpt lat="48.3667" lon="-2.73136">
        <ele>225.6</ele>
        <time>2020-07-02T17:09:23.000Z</time>
      </trkpt>
      <trkpt lat="48.36676" lon="-2.73149">
        <ele>225.9</ele>
        <time>2020-07-02T17:09:26.000Z</time>
      </trkpt>
      <trkpt lat="48.36679" lon="-2.73163">
        <ele>226</ele>
        <time>2020-07-02T17:09:29.000Z</time>
      </trkpt>
      <trkpt lat="48.36682" lon="-2.73179">
        <ele>226.3</ele>
        <time>2020-07-02T17:09:32.000Z</time>
      </trkpt>
      <trkpt lat="48.36685" lon="-2.73196">
        <ele>226.4</ele>
        <time>2020-07-02T17:09:35.000Z</time>
      </trkpt>
      <trkpt lat="48.36689" lon="-2.73213">
        <ele>226.3</ele>
        <time>2020-07-02T17:09:38.000Z</time>
      </trkpt>
      <trkpt lat="48.36697" lon="-2.73225">
        <ele>226.3</ele>
        <time>2020-07-02T17:09:41.000Z</time>
      </trkpt>
      <trkpt lat="48.36708" lon="-2.73226">
        <ele>226.1</ele>
        <time>2020-07-02T17:09:44.000Z</time>
      </trkpt>
      <trkpt lat="48.36718" lon="-2.73224">
        <ele>225.9</ele>
        <time>2020-07-02T17:09:47.000Z</time>
      </trkpt>
      <trkpt lat="48.3673" lon="-2.73223">
        <ele>225.7</ele>
        <time>2020-07-02T17:09:50.000Z</time>
      </trkpt>
      <trkpt lat="48.36742" lon="-2.73222">
        <ele>225.6</ele>
        <time>2020-07-02T17:09:53.000Z</time>
      </trkpt>
      <trkpt lat="48.36752" lon="-2.73222">
        <ele>225.4</ele>
        <time>2020-07-02T17:09:56.000Z</time>
      </trkpt>
      <trkpt lat="48.36761" lon="-2.73224">
        <ele>225.4</ele>
        <time>2020-07-02T17:09:59.000Z</time>
      </trkpt>
      <trkpt lat="48.36769" lon="-2.73235">
        <ele>225.2</ele>
        <time>2020-07-02T17:10:03.000Z</time>
      </trkpt>
      <trkpt lat="48.36771" lon="-2.7325">
        <ele>224.7</ele>
        <time>2020-07-02T17:10:07.000Z</time>
      </trkpt>
      <trkpt lat="48.36776" lon="-2.73266">
        <ele>224.1</ele>
        <time>2020-07-02T17:10:11.000Z</time>
      </trkpt>
      <trkpt lat="48.36783" lon="-2.73276">
        <ele>223.6</ele>
        <time>2020-07-02T17:10:14.000Z</time>
      </trkpt>
      <trkpt lat="48.36792" lon="-2.73285">
        <ele>222.9</ele>
        <time>2020-07-02T17:10:17.000Z</time>
      </trkpt>
      <trkpt lat="48.36794" lon="-2.73299">
        <ele>221.7</ele>
        <time>2020-07-02T17:10:21.000Z</time>
      </trkpt>
      <trkpt lat="48.36796" lon="-2.73315">
        <ele>220.6</ele>
        <time>2020-07-02T17:10:25.000Z</time>
      </trkpt>
      <trkpt lat="48.36798" lon="-2.73332">
        <ele>219.9</ele>
        <time>2020-07-02T17:10:29.000Z</time>
      </trkpt>
      <trkpt lat="48.36803" lon="-2.73348">
        <ele>219.4</ele>
        <time>2020-07-02T17:10:33.000Z</time>
      </trkpt>
      <trkpt lat="48.36808" lon="-2.7336">
        <ele>219</ele>
        <time>2020-07-02T17:10:36.000Z</time>
      </trkpt>
      <trkpt lat="48.36815" lon="-2.73369">
        <ele>218.5</ele>
        <time>2020-07-02T17:10:39.000Z</time>
      </trkpt>
      <trkpt lat="48.36822" lon="-2.73378">
        <ele>217.4</ele>
        <time>2020-07-02T17:10:43.000Z</time>
      </trkpt>
      <trkpt lat="48.3682" lon="-2.73395">
        <ele>216.2</ele>
        <time>2020-07-02T17:10:47.000Z</time>
      </trkpt>
      <trkpt lat="48.36816" lon="-2.73408">
        <ele>214.3</ele>
        <time>2020-07-02T17:10:53.000Z</time>
      </trkpt>
      <trkpt lat="48.36824" lon="-2.73415">
        <ele>211.3</ele>
        <time>2020-07-02T17:11:03.000Z</time>
      </trkpt>
      <trkpt lat="48.36836" lon="-2.73415">
        <ele>210.3</ele>
        <time>2020-07-02T17:11:08.000Z</time>
      </trkpt>
      <trkpt lat="48.36845" lon="-2.73411">
        <ele>209.5</ele>
        <time>2020-07-02T17:11:13.000Z</time>
      </trkpt>
      <trkpt lat="48.36854" lon="-2.73404">
        <ele>208.7</ele>
        <time>2020-07-02T17:11:19.000Z</time>
      </trkpt>
      <trkpt lat="48.36862" lon="-2.73396">
        <ele>207.9</ele>
        <time>2020-07-02T17:11:26.000Z</time>
      </trkpt>
      <trkpt lat="48.3687" lon="-2.73386">
        <ele>207.5</ele>
        <time>2020-07-02T17:11:31.000Z</time>
      </trkpt>
      <trkpt lat="48.36876" lon="-2.73376">
        <ele>207.1</ele>
        <time>2020-07-02T17:11:35.000Z</time>
      </trkpt>
      <trkpt lat="48.36885" lon="-2.7337">
        <ele>206.7</ele>
        <time>2020-07-02T17:11:38.000Z</time>
      </trkpt>
      <trkpt lat="48.36894" lon="-2.73363">
        <ele>206.4</ele>
        <time>2020-07-02T17:11:41.000Z</time>
      </trkpt>
      <trkpt lat="48.36903" lon="-2.73356">
        <ele>206.1</ele>
        <time>2020-07-02T17:11:45.000Z</time>
      </trkpt>
      <trkpt lat="48.36912" lon="-2.73349">
        <ele>206.3</ele>
        <time>2020-07-02T17:11:50.000Z</time>
      </trkpt>
      <trkpt lat="48.36922" lon="-2.73351">
        <ele>207.2</ele>
        <time>2020-07-02T17:11:56.000Z</time>
      </trkpt>
      <trkpt lat="48.36927" lon="-2.73352">
        <ele>207.8</ele>
        <time>2020-07-02T17:12:05.000Z</time>
      </trkpt>
      <trkpt lat="48.36936" lon="-2.73352">
        <ele>207.4</ele>
        <time>2020-07-02T17:12:22.000Z</time>
      </trkpt>
      <trkpt lat="48.36936" lon="-2.73353">
        <ele>207.4</ele>
        <time>2020-07-02T17:12:23.000Z</time>
      </trkpt>
      <trkpt lat="48.36946" lon="-2.73353">
        <ele>207.1</ele>
        <time>2020-07-02T17:12:30.000Z</time>
      </trkpt>
      <trkpt lat="48.36955" lon="-2.73349">
        <ele>207</ele>
        <time>2020-07-02T17:12:35.000Z</time>
      </trkpt>
      <trkpt lat="48.36964" lon="-2.73347">
        <ele>207.1</ele>
        <time>2020-07-02T17:12:41.000Z</time>
      </trkpt>
      <trkpt lat="48.36974" lon="-2.73345">
        <ele>207.2</ele>
        <time>2020-07-02T17:12:45.000Z</time>
      </trkpt>
      <trkpt lat="48.36983" lon="-2.73343">
        <ele>207.1</ele>
        <time>2020-07-02T17:12:49.000Z</time>
      </trkpt>
      <trkpt lat="48.36992" lon="-2.73339">
        <ele>207</ele>
        <time>2020-07-02T17:12:56.000Z</time>
      </trkpt>
      <trkpt lat="48.37001" lon="-2.73343">
        <ele>207</ele>
        <time>2020-07-02T17:13:01.000Z</time>
      </trkpt>
      <trkpt lat="48.37008" lon="-2.73352">
        <ele>206.6</ele>
        <time>2020-07-02T17:13:05.000Z</time>
      </trkpt>
      <trkpt lat="48.37016" lon="-2.7336">
        <ele>206.3</ele>
        <time>2020-07-02T17:13:08.000Z</time>
      </trkpt>
      <trkpt lat="48.37021" lon="-2.73372">
        <ele>205.9</ele>
        <time>2020-07-02T17:13:13.000Z</time>
      </trkpt>
      <trkpt lat="48.37024" lon="-2.73387">
        <ele>205.5</ele>
        <time>2020-07-02T17:13:18.000Z</time>
      </trkpt>
      <trkpt lat="48.37025" lon="-2.73402">
        <ele>205.2</ele>
        <time>2020-07-02T17:13:22.000Z</time>
      </trkpt>
      <trkpt lat="48.37025" lon="-2.73416">
        <ele>205</ele>
        <time>2020-07-02T17:13:26.000Z</time>
      </trkpt>
      <trkpt lat="48.37023" lon="-2.7343">
        <ele>204.8</ele>
        <time>2020-07-02T17:13:31.000Z</time>
      </trkpt>
      <trkpt lat="48.37014" lon="-2.73438">
        <ele>204.7</ele>
        <time>2020-07-02T17:13:36.000Z</time>
      </trkpt>
      <trkpt lat="48.37006" lon="-2.73444">
        <ele>204.8</ele>
        <time>2020-07-02T17:13:40.000Z</time>
      </trkpt>
      <trkpt lat="48.36997" lon="-2.73448">
        <ele>205.1</ele>
        <time>2020-07-02T17:13:45.000Z</time>
      </trkpt>
      <trkpt lat="48.36987" lon="-2.73453">
        <ele>205.8</ele>
        <time>2020-07-02T17:13:53.000Z</time>
      </trkpt>
      <trkpt lat="48.36978" lon="-2.73458">
        <ele>206.3</ele>
        <time>2020-07-02T17:13:59.000Z</time>
      </trkpt>
      <trkpt lat="48.36969" lon="-2.73459">
        <ele>206.6</ele>
        <time>2020-07-02T17:14:03.000Z</time>
      </trkpt>
      <trkpt lat="48.3696" lon="-2.73464">
        <ele>207.3</ele>
        <time>2020-07-02T17:14:10.000Z</time>
      </trkpt>
      <trkpt lat="48.36952" lon="-2.73469">
        <ele>208.4</ele>
        <time>2020-07-02T17:14:16.000Z</time>
      </trkpt>
      <trkpt lat="48.36943" lon="-2.73474">
        <ele>209.7</ele>
        <time>2020-07-02T17:14:22.000Z</time>
      </trkpt>
      <trkpt lat="48.36935" lon="-2.73479">
        <ele>211.3</ele>
        <time>2020-07-02T17:14:30.000Z</time>
      </trkpt>
      <trkpt lat="48.36926" lon="-2.73484">
        <ele>213.2</ele>
        <time>2020-07-02T17:14:39.000Z</time>
      </trkpt>
      <trkpt lat="48.36922" lon="-2.73489">
        <ele>215.2</ele>
        <time>2020-07-02T17:14:50.000Z</time>
      </trkpt>
      <trkpt lat="48.36931" lon="-2.73494">
        <ele>216.6</ele>
        <time>2020-07-02T17:15:02.000Z</time>
      </trkpt>
      <trkpt lat="48.3694" lon="-2.73498">
        <ele>218</ele>
        <time>2020-07-02T17:15:13.000Z</time>
      </trkpt>
      <trkpt lat="48.36948" lon="-2.73502">
        <ele>219.5</ele>
        <time>2020-07-02T17:15:21.000Z</time>
      </trkpt>
      <trkpt lat="48.36958" lon="-2.73506">
        <ele>220.8</ele>
        <time>2020-07-02T17:15:28.000Z</time>
      </trkpt>
      <trkpt lat="48.36967" lon="-2.73508">
        <ele>222</ele>
        <time>2020-07-02T17:15:35.000Z</time>
      </trkpt>
      <trkpt lat="48.36976" lon="-2.73513">
        <ele>223.1</ele>
        <time>2020-07-02T17:15:42.000Z</time>
      </trkpt>
      <trkpt lat="48.36985" lon="-2.73519">
        <ele>223.9</ele>
        <time>2020-07-02T17:15:48.000Z</time>
      </trkpt>
      <trkpt lat="48.36993" lon="-2.73528">
        <ele>224.7</ele>
        <time>2020-07-02T17:15:54.000Z</time>
      </trkpt>
      <trkpt lat="48.36996" lon="-2.73543">
        <ele>225.5</ele>
        <time>2020-07-02T17:16:00.000Z</time>
      </trkpt>
      <trkpt lat="48.37002" lon="-2.73553">
        <ele>226.5</ele>
        <time>2020-07-02T17:16:07.000Z</time>
      </trkpt>
      <trkpt lat="48.3701" lon="-2.7356">
        <ele>227.3</ele>
        <time>2020-07-02T17:16:13.000Z</time>
      </trkpt>
      <trkpt lat="48.37019" lon="-2.73564">
        <ele>227.7</ele>
        <time>2020-07-02T17:16:18.000Z</time>
      </trkpt>
      <trkpt lat="48.37028" lon="-2.73557">
        <ele>227.9</ele>
        <time>2020-07-02T17:16:22.000Z</time>
      </trkpt>
      <trkpt lat="48.37035" lon="-2.73551">
        <ele>233</ele>
        <time>2020-07-02T12:50:38.000Z</time>
      </trkpt>
      <trkpt lat="48.37043" lon="-2.73553">
        <ele>233.4</ele>
        <time>2020-07-02T12:50:50.000Z</time>
      </trkpt>
      <trkpt lat="48.37051" lon="-2.73563">
        <ele>233.2</ele>
        <time>2020-07-02T12:51:17.000Z</time>
      </trkpt>
      <trkpt lat="48.3706" lon="-2.7356">
        <ele>233.3</ele>
        <time>2020-07-02T12:51:22.000Z</time>
      </trkpt>
      <trkpt lat="48.37069" lon="-2.73559">
        <ele>233.6</ele>
        <time>2020-07-02T12:51:26.000Z</time>
      </trkpt>
      <trkpt lat="48.37079" lon="-2.73556">
        <ele>233.7</ele>
        <time>2020-07-02T12:51:30.000Z</time>
      </trkpt>
      <trkpt lat="48.37088" lon="-2.73554">
        <ele>233.8</ele>
        <time>2020-07-02T12:51:34.000Z</time>
      </trkpt>
      <trkpt lat="48.37098" lon="-2.73553">
        <ele>234</ele>
        <time>2020-07-02T12:51:38.000Z</time>
      </trkpt>
      <trkpt lat="48.37108" lon="-2.73549">
        <ele>234.2</ele>
        <time>2020-07-02T12:51:42.000Z</time>
      </trkpt>
      <trkpt lat="48.37119" lon="-2.73547">
        <ele>234.4</ele>
        <time>2020-07-02T12:51:46.000Z</time>
      </trkpt>
      <trkpt lat="48.37129" lon="-2.73543">
        <ele>234.4</ele>
        <time>2020-07-02T12:51:50.000Z</time>
      </trkpt>
      <trkpt lat="48.3714" lon="-2.73538">
        <ele>234.5</ele>
        <time>2020-07-02T12:51:54.000Z</time>
      </trkpt>
      <trkpt lat="48.37151" lon="-2.73538">
        <ele>234.5</ele>
        <time>2020-07-02T12:51:58.000Z</time>
      </trkpt>
      <trkpt lat="48.37162" lon="-2.73539">
        <ele>234.6</ele>
        <time>2020-07-02T12:52:02.000Z</time>
      </trkpt>
      <trkpt lat="48.37173" lon="-2.73541">
        <ele>234.8</ele>
        <time>2020-07-02T12:52:06.000Z</time>
      </trkpt>
      <trkpt lat="48.37183" lon="-2.73546">
        <ele>235</ele>
        <time>2020-07-02T12:52:10.000Z</time>
      </trkpt>
      <trkpt lat="48.37193" lon="-2.73553">
        <ele>235.3</ele>
        <time>2020-07-02T12:52:14.000Z</time>
      </trkpt>
      <trkpt lat="48.37202" lon="-2.73562">
        <ele>235.7</ele>
        <time>2020-07-02T12:52:18.000Z</time>
      </trkpt>
      <trkpt lat="48.37208" lon="-2.73573">
        <ele>236.3</ele>
        <time>2020-07-02T12:52:22.000Z</time>
      </trkpt>
      <trkpt lat="48.37212" lon="-2.73585">
        <ele>237.2</ele>
        <time>2020-07-02T12:52:26.000Z</time>
      </trkpt>
      <trkpt lat="48.37209" lon="-2.73599">
        <ele>238.4</ele>
        <time>2020-07-02T12:52:31.000Z</time>
      </trkpt>
      <trkpt lat="48.37205" lon="-2.73612">
        <ele>239.1</ele>
        <time>2020-07-02T12:52:35.000Z</time>
      </trkpt>
      <trkpt lat="48.37202" lon="-2.73625">
        <ele>239.7</ele>
        <time>2020-07-02T12:52:39.000Z</time>
      </trkpt>
      <trkpt lat="48.37197" lon="-2.7364">
        <ele>240.1</ele>
        <time>2020-07-02T12:52:44.000Z</time>
      </trkpt>
      <trkpt lat="48.37191" lon="-2.73652">
        <ele>240.4</ele>
        <time>2020-07-02T12:52:49.000Z</time>
      </trkpt>
      <trkpt lat="48.37185" lon="-2.73662">
        <ele>240.7</ele>
        <time>2020-07-02T12:52:54.000Z</time>
      </trkpt>
      <trkpt lat="48.3718" lon="-2.73674">
        <ele>241</ele>
        <time>2020-07-02T12:52:59.000Z</time>
      </trkpt>
      <trkpt lat="48.37173" lon="-2.73686">
        <ele>241.5</ele>
        <time>2020-07-02T12:53:04.000Z</time>
      </trkpt>
      <trkpt lat="48.37167" lon="-2.73698">
        <ele>241.9</ele>
        <time>2020-07-02T12:53:09.000Z</time>
      </trkpt>
      <trkpt lat="48.37161" lon="-2.73711">
        <ele>242.3</ele>
        <time>2020-07-02T12:53:14.000Z</time>
      </trkpt>
      <trkpt lat="48.37155" lon="-2.73723">
        <ele>243</ele>
        <time>2020-07-02T12:53:19.000Z</time>
      </trkpt>
      <trkpt lat="48.37149" lon="-2.73736">
        <ele>243.6</ele>
        <time>2020-07-02T12:53:23.000Z</time>
      </trkpt>
      <trkpt lat="48.3714" lon="-2.7374">
        <ele>243.9</ele>
        <time>2020-07-02T12:53:26.000Z</time>
      </trkpt>
      <trkpt lat="48.37133" lon="-2.73731">
        <ele>244.1</ele>
        <time>2020-07-02T12:53:29.000Z</time>
      </trkpt>
      <trkpt lat="48.3713" lon="-2.73716">
        <ele>244.3</ele>
        <time>2020-07-02T12:53:32.000Z</time>
      </trkpt>
      <trkpt lat="48.37126" lon="-2.73701">
        <ele>244.3</ele>
        <time>2020-07-02T12:53:35.000Z</time>
      </trkpt>
      <trkpt lat="48.37118" lon="-2.73709">
        <ele>244.3</ele>
        <time>2020-07-02T12:53:39.000Z</time>
      </trkpt>
      <trkpt lat="48.37122" lon="-2.73722">
        <ele>244.2</ele>
        <time>2020-07-02T12:53:42.000Z</time>
      </trkpt>
      <trkpt lat="48.37125" lon="-2.73737">
        <ele>244.1</ele>
        <time>2020-07-02T12:53:47.000Z</time>
      </trkpt>
      <trkpt lat="48.37116" lon="-2.73729">
        <ele>244.1</ele>
        <time>2020-07-02T12:53:59.000Z</time>
      </trkpt>
      <trkpt lat="48.37111" lon="-2.73741">
        <ele>244.1</ele>
        <time>2020-07-02T12:54:03.000Z</time>
      </trkpt>
      <trkpt lat="48.3711" lon="-2.73756">
        <ele>244.1</ele>
        <time>2020-07-02T12:54:08.000Z</time>
      </trkpt>
      <trkpt lat="48.37113" lon="-2.7377">
        <ele>244</ele>
        <time>2020-07-02T12:54:18.000Z</time>
      </trkpt>
      <trkpt lat="48.37105" lon="-2.73776">
        <ele>244</ele>
        <time>2020-07-02T12:54:23.000Z</time>
      </trkpt>
      <trkpt lat="48.37094" lon="-2.73774">
        <ele>243.9</ele>
        <time>2020-07-02T12:54:26.000Z</time>
      </trkpt>
      <trkpt lat="48.37084" lon="-2.73771">
        <ele>244</ele>
        <time>2020-07-02T12:54:29.000Z</time>
      </trkpt>
      <trkpt lat="48.37075" lon="-2.73767">
        <ele>244.1</ele>
        <time>2020-07-02T12:54:31.000Z</time>
      </trkpt>
      <trkpt lat="48.37066" lon="-2.73761">
        <ele>244.2</ele>
        <time>2020-07-02T12:54:33.000Z</time>
      </trkpt>
      <trkpt lat="48.37056" lon="-2.73757">
        <ele>244.2</ele>
        <time>2020-07-02T12:54:35.000Z</time>
      </trkpt>
      <trkpt lat="48.37047" lon="-2.73765">
        <ele>244.2</ele>
        <time>2020-07-02T12:54:38.000Z</time>
      </trkpt>
      <trkpt lat="48.37056" lon="-2.73774">
        <ele>244.1</ele>
        <time>2020-07-02T12:54:41.000Z</time>
      </trkpt>
      <trkpt lat="48.37065" lon="-2.73778">
        <ele>243.9</ele>
        <time>2020-07-02T12:54:44.000Z</time>
      </trkpt>
      <trkpt lat="48.37074" lon="-2.73783">
        <ele>243.6</ele>
        <time>2020-07-02T12:54:48.000Z</time>
      </trkpt>
      <trkpt lat="48.37082" lon="-2.73789">
        <ele>243.6</ele>
        <time>2020-07-02T12:54:51.000Z</time>
      </trkpt>
      <trkpt lat="48.37091" lon="-2.73793">
        <ele>243.6</ele>
        <time>2020-07-02T12:54:54.000Z</time>
      </trkpt>
      <trkpt lat="48.37101" lon="-2.73796">
        <ele>243.6</ele>
        <time>2020-07-02T12:54:58.000Z</time>
      </trkpt>
      <trkpt lat="48.37112" lon="-2.73799">
        <ele>243.9</ele>
        <time>2020-07-02T12:55:03.000Z</time>
      </trkpt>
      <trkpt lat="48.37121" lon="-2.73792">
        <ele>243.9</ele>
        <time>2020-07-02T12:55:06.000Z</time>
      </trkpt>
      <trkpt lat="48.37129" lon="-2.7378">
        <ele>243.8</ele>
        <time>2020-07-02T12:55:10.000Z</time>
      </trkpt>
      <trkpt lat="48.37137" lon="-2.7377">
        <ele>243.8</ele>
        <time>2020-07-02T12:55:15.000Z</time>
      </trkpt>
      <trkpt lat="48.37145" lon="-2.73757">
        <ele>243.9</ele>
        <time>2020-07-02T12:55:18.000Z</time>
      </trkpt>
      <trkpt lat="48.37145" lon="-2.73746">
        <ele>243.8</ele>
        <time>2020-07-02T12:55:29.000Z</time>
      </trkpt>
      <trkpt lat="48.37153" lon="-2.73753">
        <ele>243.6</ele>
        <time>2020-07-02T12:55:35.000Z</time>
      </trkpt>
      <trkpt lat="48.37159" lon="-2.73763">
        <ele>243.4</ele>
        <time>2020-07-02T12:55:38.000Z</time>
      </trkpt>
      <trkpt lat="48.37163" lon="-2.73776">
        <ele>242.8</ele>
        <time>2020-07-02T12:55:42.000Z</time>
      </trkpt>
      <trkpt lat="48.37163" lon="-2.73791">
        <ele>242.2</ele>
        <time>2020-07-02T12:55:46.000Z</time>
      </trkpt>
      <trkpt lat="48.37162" lon="-2.73806">
        <ele>240.9</ele>
        <time>2020-07-02T12:55:51.000Z</time>
      </trkpt>
      <trkpt lat="48.37158" lon="-2.73819">
        <ele>239.5</ele>
        <time>2020-07-02T12:55:57.000Z</time>
      </trkpt>
      <trkpt lat="48.37161" lon="-2.73835">
        <ele>238.8</ele>
        <time>2020-07-02T12:56:02.000Z</time>
      </trkpt>
      <trkpt lat="48.37172" lon="-2.73848">
        <ele>238.3</ele>
        <time>2020-07-02T12:56:05.000Z</time>
      </trkpt>
      <trkpt lat="48.37175" lon="-2.73862">
        <ele>238</ele>
        <time>2020-07-02T12:56:07.000Z</time>
      </trkpt>
      <trkpt lat="48.37174" lon="-2.73878">
        <ele>237.3</ele>
        <time>2020-07-02T12:56:10.000Z</time>
      </trkpt>
      <trkpt lat="48.3717" lon="-2.73895">
        <ele>236.7</ele>
        <time>2020-07-02T12:56:14.000Z</time>
      </trkpt>
      <trkpt lat="48.37166" lon="-2.73909">
        <ele>236.3</ele>
        <time>2020-07-02T12:56:18.000Z</time>
      </trkpt>
      <trkpt lat="48.37162" lon="-2.73922">
        <ele>236</ele>
        <time>2020-07-02T12:56:22.000Z</time>
      </trkpt>
      <trkpt lat="48.37158" lon="-2.73937">
        <ele>235.9</ele>
        <time>2020-07-02T12:56:26.000Z</time>
      </trkpt>
      <trkpt lat="48.37162" lon="-2.7395">
        <ele>235.8</ele>
        <time>2020-07-02T12:56:30.000Z</time>
      </trkpt>
      <trkpt lat="48.37171" lon="-2.73944">
        <ele>235.6</ele>
        <time>2020-07-02T12:56:34.000Z</time>
      </trkpt>
      <trkpt lat="48.3718" lon="-2.73941">
        <ele>235.1</ele>
        <time>2020-07-02T12:56:39.000Z</time>
      </trkpt>
      <trkpt lat="48.3718" lon="-2.73956">
        <ele>234.8</ele>
        <time>2020-07-02T12:56:45.000Z</time>
      </trkpt>
      <trkpt lat="48.37184" lon="-2.73968">
        <ele>234.4</ele>
        <time>2020-07-02T12:56:49.000Z</time>
      </trkpt>
      <trkpt lat="48.37193" lon="-2.73956">
        <ele>233.7</ele>
        <time>2020-07-02T12:56:53.000Z</time>
      </trkpt>
      <trkpt lat="48.37204" lon="-2.73959">
        <ele>232.9</ele>
        <time>2020-07-02T12:56:57.000Z</time>
      </trkpt>
      <trkpt lat="48.37212" lon="-2.73968">
        <ele>231.8</ele>
        <time>2020-07-02T12:57:01.000Z</time>
      </trkpt>
      <trkpt lat="48.37215" lon="-2.73983">
        <ele>230.6</ele>
        <time>2020-07-02T12:57:05.000Z</time>
      </trkpt>
      <trkpt lat="48.37213" lon="-2.74">
        <ele>229.6</ele>
        <time>2020-07-02T12:57:08.000Z</time>
      </trkpt>
      <trkpt lat="48.37211" lon="-2.74014">
        <ele>228.8</ele>
        <time>2020-07-02T12:57:11.000Z</time>
      </trkpt>
      <trkpt lat="48.37206" lon="-2.74028">
        <ele>228</ele>
        <time>2020-07-02T12:57:14.000Z</time>
      </trkpt>
      <trkpt lat="48.37201" lon="-2.74041">
        <ele>227.2</ele>
        <time>2020-07-02T12:57:17.000Z</time>
      </trkpt>
      <trkpt lat="48.37195" lon="-2.74059">
        <ele>226.3</ele>
        <time>2020-07-02T12:57:20.000Z</time>
      </trkpt>
      <trkpt lat="48.3719" lon="-2.74071">
        <ele>225.8</ele>
        <time>2020-07-02T12:57:22.000Z</time>
      </trkpt>
      <trkpt lat="48.37188" lon="-2.74085">
        <ele>225.4</ele>
        <time>2020-07-02T12:57:24.000Z</time>
      </trkpt>
      <trkpt lat="48.37185" lon="-2.74103">
        <ele>224.6</ele>
        <time>2020-07-02T12:57:27.000Z</time>
      </trkpt>
      <trkpt lat="48.37182" lon="-2.74118">
        <ele>224.1</ele>
        <time>2020-07-02T12:57:29.000Z</time>
      </trkpt>
      <trkpt lat="48.37181" lon="-2.74138">
        <ele>223.3</ele>
        <time>2020-07-02T12:57:32.000Z</time>
      </trkpt>
      <trkpt lat="48.37181" lon="-2.74154">
        <ele>222.8</ele>
        <time>2020-07-02T12:57:34.000Z</time>
      </trkpt>
      <trkpt lat="48.37184" lon="-2.74175">
        <ele>222.2</ele>
        <time>2020-07-02T12:57:37.000Z</time>
      </trkpt>
      <trkpt lat="48.37184" lon="-2.74189">
        <ele>221.7</ele>
        <time>2020-07-02T12:57:39.000Z</time>
      </trkpt>
      <trkpt lat="48.37184" lon="-2.74206">
        <ele>221.2</ele>
        <time>2020-07-02T12:57:41.000Z</time>
      </trkpt>
      <trkpt lat="48.37179" lon="-2.74224">
        <ele>220.6</ele>
        <time>2020-07-02T12:57:43.000Z</time>
      </trkpt>
      <trkpt lat="48.37172" lon="-2.74237">
        <ele>220</ele>
        <time>2020-07-02T12:57:45.000Z</time>
      </trkpt>
      <trkpt lat="48.37166" lon="-2.7425">
        <ele>219.5</ele>
        <time>2020-07-02T12:57:47.000Z</time>
      </trkpt>
      <trkpt lat="48.37157" lon="-2.74259">
        <ele>218.9</ele>
        <time>2020-07-02T12:57:50.000Z</time>
      </trkpt>
      <trkpt lat="48.37149" lon="-2.74266">
        <ele>218.6</ele>
        <time>2020-07-02T12:57:53.000Z</time>
      </trkpt>
      <trkpt lat="48.37141" lon="-2.74276">
        <ele>218.4</ele>
        <time>2020-07-02T12:57:57.000Z</time>
      </trkpt>
      <trkpt lat="48.37133" lon="-2.74286">
        <ele>218.6</ele>
        <time>2020-07-02T12:58:02.000Z</time>
      </trkpt>
      <trkpt lat="48.37125" lon="-2.74296">
        <ele>219.2</ele>
        <time>2020-07-02T12:58:08.000Z</time>
      </trkpt>
      <trkpt lat="48.37115" lon="-2.74299">
        <ele>219.6</ele>
        <time>2020-07-02T12:58:12.000Z</time>
      </trkpt>
      <trkpt lat="48.37104" lon="-2.743">
        <ele>220.1</ele>
        <time>2020-07-02T12:58:16.000Z</time>
      </trkpt>
      <trkpt lat="48.37095" lon="-2.74303">
        <ele>220.8</ele>
        <time>2020-07-02T12:58:20.000Z</time>
      </trkpt>
      <trkpt lat="48.37087" lon="-2.74307">
        <ele>221.4</ele>
        <time>2020-07-02T12:58:24.000Z</time>
      </trkpt>
      <trkpt lat="48.37077" lon="-2.74308">
        <ele>222.3</ele>
        <time>2020-07-02T12:58:29.000Z</time>
      </trkpt>
      <trkpt lat="48.37067" lon="-2.74312">
        <ele>223.2</ele>
        <time>2020-07-02T12:58:34.000Z</time>
      </trkpt>
      <trkpt lat="48.37057" lon="-2.74313">
        <ele>224</ele>
        <time>2020-07-02T12:58:39.000Z</time>
      </trkpt>
      <trkpt lat="48.37048" lon="-2.74313">
        <ele>224.6</ele>
        <time>2020-07-02T12:58:44.000Z</time>
      </trkpt>
      <trkpt lat="48.37043" lon="-2.74327">
        <ele>225.2</ele>
        <time>2020-07-02T12:58:50.000Z</time>
      </trkpt>
      <trkpt lat="48.37037" lon="-2.74339">
        <ele>224.9</ele>
        <time>2020-07-02T12:58:54.000Z</time>
      </trkpt>
      <trkpt lat="48.37036" lon="-2.74353">
        <ele>224.3</ele>
        <time>2020-07-02T12:58:58.000Z</time>
      </trkpt>
      <trkpt lat="48.37037" lon="-2.74368">
        <ele>223.7</ele>
        <time>2020-07-02T12:59:02.000Z</time>
      </trkpt>
      <trkpt lat="48.37037" lon="-2.74383">
        <ele>223.3</ele>
        <time>2020-07-02T12:59:06.000Z</time>
      </trkpt>
      <trkpt lat="48.37039" lon="-2.74397">
        <ele>223.2</ele>
        <time>2020-07-02T12:59:12.000Z</time>
      </trkpt>
      <trkpt lat="48.37046" lon="-2.74408">
        <ele>223.3</ele>
        <time>2020-07-02T12:59:17.000Z</time>
      </trkpt>
      <trkpt lat="48.37053" lon="-2.74417">
        <ele>223.2</ele>
        <time>2020-07-02T12:59:21.000Z</time>
      </trkpt>
      <trkpt lat="48.37061" lon="-2.74424">
        <ele>222.7</ele>
        <time>2020-07-02T12:59:25.000Z</time>
      </trkpt>
      <trkpt lat="48.37066" lon="-2.74438">
        <ele>222.2</ele>
        <time>2020-07-02T12:59:28.000Z</time>
      </trkpt>
      <trkpt lat="48.3707" lon="-2.74452">
        <ele>221.5</ele>
        <time>2020-07-02T12:59:32.000Z</time>
      </trkpt>
      <trkpt lat="48.37073" lon="-2.74465">
        <ele>221.1</ele>
        <time>2020-07-02T12:59:35.000Z</time>
      </trkpt>
      <trkpt lat="48.37075" lon="-2.74479">
        <ele>220.8</ele>
        <time>2020-07-02T12:59:38.000Z</time>
      </trkpt>
      <trkpt lat="48.37074" lon="-2.74494">
        <ele>220.8</ele>
        <time>2020-07-02T12:59:43.000Z</time>
      </trkpt>
      <trkpt lat="48.37071" lon="-2.74507">
        <ele>221.6</ele>
        <time>2020-07-02T12:59:49.000Z</time>
      </trkpt>
      <trkpt lat="48.37063" lon="-2.74514">
        <ele>223</ele>
        <time>2020-07-02T12:59:56.000Z</time>
      </trkpt>
      <trkpt lat="48.37056" lon="-2.74525">
        <ele>225</ele>
        <time>2020-07-02T13:00:05.000Z</time>
      </trkpt>
      <trkpt lat="48.37059" lon="-2.74537">
        <ele>226.8</ele>
        <time>2020-07-02T13:00:16.000Z</time>
      </trkpt>
      <trkpt lat="48.3706" lon="-2.74551">
        <ele>226.4</ele>
        <time>2020-07-02T13:01:05.000Z</time>
      </trkpt>
      <trkpt lat="48.37063" lon="-2.74566">
        <ele>226.6</ele>
        <time>2020-07-02T13:01:11.000Z</time>
      </trkpt>
      <trkpt lat="48.37066" lon="-2.74581">
        <ele>226.9</ele>
        <time>2020-07-02T13:01:16.000Z</time>
      </trkpt>
      <trkpt lat="48.37068" lon="-2.74595">
        <ele>227.2</ele>
        <time>2020-07-02T13:01:21.000Z</time>
      </trkpt>
      <trkpt lat="48.37065" lon="-2.7461">
        <ele>227.8</ele>
        <time>2020-07-02T13:01:28.000Z</time>
      </trkpt>
      <trkpt lat="48.37061" lon="-2.74623">
        <ele>228.7</ele>
        <time>2020-07-02T13:01:34.000Z</time>
      </trkpt>
      <trkpt lat="48.37062" lon="-2.74639">
        <ele>229.7</ele>
        <time>2020-07-02T13:01:41.000Z</time>
      </trkpt>
      <trkpt lat="48.37058" lon="-2.74652">
        <ele>230</ele>
        <time>2020-07-02T13:01:47.000Z</time>
      </trkpt>
      <trkpt lat="48.37057" lon="-2.74667">
        <ele>230.2</ele>
        <time>2020-07-02T13:01:52.000Z</time>
      </trkpt>
      <trkpt lat="48.37051" lon="-2.74679">
        <ele>230.3</ele>
        <time>2020-07-02T13:01:56.000Z</time>
      </trkpt>
      <trkpt lat="48.37048" lon="-2.74693">
        <ele>230.5</ele>
        <time>2020-07-02T13:02:02.000Z</time>
      </trkpt>
      <trkpt lat="48.37043" lon="-2.74706">
        <ele>230.4</ele>
        <time>2020-07-02T13:02:06.000Z</time>
      </trkpt>
      <trkpt lat="48.37038" lon="-2.74722">
        <ele>230</ele>
        <time>2020-07-02T13:02:10.000Z</time>
      </trkpt>
      <trkpt lat="48.37035" lon="-2.74737">
        <ele>229.7</ele>
        <time>2020-07-02T13:02:13.000Z</time>
      </trkpt>
      <trkpt lat="48.37031" lon="-2.7475">
        <ele>229.3</ele>
        <time>2020-07-02T13:02:15.000Z</time>
      </trkpt>
      <trkpt lat="48.37023" lon="-2.74766">
        <ele>228.6</ele>
        <time>2020-07-02T13:02:18.000Z</time>
      </trkpt>
      <trkpt lat="48.37017" lon="-2.74777">
        <ele>227.6</ele>
        <time>2020-07-02T13:02:21.000Z</time>
      </trkpt>
      <trkpt lat="48.3701" lon="-2.74787">
        <ele>226</ele>
        <time>2020-07-02T13:02:25.000Z</time>
      </trkpt>
      <trkpt lat="48.37" lon="-2.74793">
        <ele>224.6</ele>
        <time>2020-07-02T13:02:29.000Z</time>
      </trkpt>
      <trkpt lat="48.36992" lon="-2.74785">
        <ele>223.7</ele>
        <time>2020-07-02T13:02:34.000Z</time>
      </trkpt>
      <trkpt lat="48.36986" lon="-2.74775">
        <ele>223.4</ele>
        <time>2020-07-02T13:02:40.000Z</time>
      </trkpt>
      <trkpt lat="48.36979" lon="-2.74766">
        <ele>223.7</ele>
        <time>2020-07-02T13:02:46.000Z</time>
      </trkpt>
      <trkpt lat="48.36974" lon="-2.74754">
        <ele>224.5</ele>
        <time>2020-07-02T13:02:53.000Z</time>
      </trkpt>
      <trkpt lat="48.36968" lon="-2.74742">
        <ele>225.7</ele>
        <time>2020-07-02T13:03:00.000Z</time>
      </trkpt>
      <trkpt lat="48.36965" lon="-2.74727">
        <ele>227.6</ele>
        <time>2020-07-02T13:03:09.000Z</time>
      </trkpt>
      <trkpt lat="48.36964" lon="-2.74713">
        <ele>229</ele>
        <time>2020-07-02T13:03:16.000Z</time>
      </trkpt>
      <trkpt lat="48.36966" lon="-2.74698">
        <ele>230.8</ele>
        <time>2020-07-02T13:03:25.000Z</time>
      </trkpt>
      <trkpt lat="48.36972" lon="-2.74687">
        <ele>232.6</ele>
        <time>2020-07-02T13:03:33.000Z</time>
      </trkpt>
      <trkpt lat="48.36961" lon="-2.74683">
        <ele>234.3</ele>
        <time>2020-07-02T13:03:42.000Z</time>
      </trkpt>
      <trkpt lat="48.3695" lon="-2.74686">
        <ele>234.6</ele>
        <time>2020-07-02T13:03:46.000Z</time>
      </trkpt>
      <trkpt lat="48.3694" lon="-2.74687">
        <ele>234.7</ele>
        <time>2020-07-02T13:03:50.000Z</time>
      </trkpt>
      <trkpt lat="48.36929" lon="-2.7469">
        <ele>234.6</ele>
        <time>2020-07-02T13:03:54.000Z</time>
      </trkpt>
      <trkpt lat="48.36918" lon="-2.74692">
        <ele>234.5</ele>
        <time>2020-07-02T13:03:58.000Z</time>
      </trkpt>
      <trkpt lat="48.36906" lon="-2.74693">
        <ele>234.3</ele>
        <time>2020-07-02T13:04:03.000Z</time>
      </trkpt>
      <trkpt lat="48.36897" lon="-2.74692">
        <ele>234.2</ele>
        <time>2020-07-02T13:04:07.000Z</time>
      </trkpt>
      <trkpt lat="48.36887" lon="-2.74691">
        <ele>234.1</ele>
        <time>2020-07-02T13:04:11.000Z</time>
      </trkpt>
      <trkpt lat="48.36879" lon="-2.74694">
        <ele>234.1</ele>
        <time>2020-07-02T13:04:15.000Z</time>
      </trkpt>
      <trkpt lat="48.36868" lon="-2.74699">
        <ele>234.1</ele>
        <time>2020-07-02T13:04:19.000Z</time>
      </trkpt>
      <trkpt lat="48.36857" lon="-2.74704">
        <ele>234.1</ele>
        <time>2020-07-02T13:04:23.000Z</time>
      </trkpt>
      <trkpt lat="48.36846" lon="-2.74708">
        <ele>234</ele>
        <time>2020-07-02T13:04:27.000Z</time>
      </trkpt>
      <trkpt lat="48.36837" lon="-2.74713">
        <ele>233.7</ele>
        <time>2020-07-02T13:04:30.000Z</time>
      </trkpt>
      <trkpt lat="48.36826" lon="-2.74717">
        <ele>233.3</ele>
        <time>2020-07-02T13:04:34.000Z</time>
      </trkpt>
      <trkpt lat="48.36817" lon="-2.7472">
        <ele>233</ele>
        <time>2020-07-02T13:04:37.000Z</time>
      </trkpt>
      <trkpt lat="48.36811" lon="-2.74734">
        <ele>232.4</ele>
        <time>2020-07-02T13:04:41.000Z</time>
      </trkpt>
      <trkpt lat="48.36812" lon="-2.7475">
        <ele>231.6</ele>
        <time>2020-07-02T13:04:44.000Z</time>
      </trkpt>
      <trkpt lat="48.36816" lon="-2.74764">
        <ele>230.4</ele>
        <time>2020-07-02T13:04:47.000Z</time>
      </trkpt>
      <trkpt lat="48.36821" lon="-2.7478">
        <ele>229</ele>
        <time>2020-07-02T13:04:50.000Z</time>
      </trkpt>
      <trkpt lat="48.36827" lon="-2.74791">
        <ele>227.2</ele>
        <time>2020-07-02T13:04:53.000Z</time>
      </trkpt>
      <trkpt lat="48.36836" lon="-2.74801">
        <ele>225.3</ele>
        <time>2020-07-02T13:04:56.000Z</time>
      </trkpt>
      <trkpt lat="48.36845" lon="-2.74806">
        <ele>223.4</ele>
        <time>2020-07-02T13:04:59.000Z</time>
      </trkpt>
      <trkpt lat="48.36857" lon="-2.74809">
        <ele>221.4</ele>
        <time>2020-07-02T13:05:02.000Z</time>
      </trkpt>
      <trkpt lat="48.3687" lon="-2.74806">
        <ele>218.7</ele>
        <time>2020-07-02T13:05:07.000Z</time>
      </trkpt>
      <trkpt lat="48.36881" lon="-2.74803">
        <ele>217.5</ele>
        <time>2020-07-02T13:05:10.000Z</time>
      </trkpt>
      <trkpt lat="48.36891" lon="-2.74803">
        <ele>216.2</ele>
        <time>2020-07-02T13:05:14.000Z</time>
      </trkpt>
      <trkpt lat="48.36903" lon="-2.74802">
        <ele>215.4</ele>
        <time>2020-07-02T13:05:17.000Z</time>
      </trkpt>
      <trkpt lat="48.36915" lon="-2.74805">
        <ele>213.9</ele>
        <time>2020-07-02T13:05:21.000Z</time>
      </trkpt>
      <trkpt lat="48.36925" lon="-2.74803">
        <ele>213.2</ele>
        <time>2020-07-02T13:05:23.000Z</time>
      </trkpt>
      <trkpt lat="48.36936" lon="-2.74802">
        <ele>212.1</ele>
        <time>2020-07-02T13:05:27.000Z</time>
      </trkpt>
      <trkpt lat="48.36947" lon="-2.74803">
        <ele>211.4</ele>
        <time>2020-07-02T13:05:30.000Z</time>
      </trkpt>
      <trkpt lat="48.36958" lon="-2.74806">
        <ele>210.7</ele>
        <time>2020-07-02T13:05:34.000Z</time>
      </trkpt>
      <trkpt lat="48.36967" lon="-2.7481">
        <ele>210.2</ele>
        <time>2020-07-02T13:05:39.000Z</time>
      </trkpt>
      <trkpt lat="48.36975" lon="-2.74824">
        <ele>209.5</ele>
        <time>2020-07-02T13:05:43.000Z</time>
      </trkpt>
      <trkpt lat="48.36984" lon="-2.74834">
        <ele>208.9</ele>
        <time>2020-07-02T13:05:46.000Z</time>
      </trkpt>
      <trkpt lat="48.36993" lon="-2.74843">
        <ele>207.9</ele>
        <time>2020-07-02T13:05:51.000Z</time>
      </trkpt>
      <trkpt lat="48.37002" lon="-2.7485">
        <ele>207.3</ele>
        <time>2020-07-02T13:05:54.000Z</time>
      </trkpt>
      <trkpt lat="48.37011" lon="-2.74854">
        <ele>206.6</ele>
        <time>2020-07-02T13:05:57.000Z</time>
      </trkpt>
      <trkpt lat="48.37021" lon="-2.74851">
        <ele>205.7</ele>
        <time>2020-07-02T13:06:01.000Z</time>
      </trkpt>
      <trkpt lat="48.37031" lon="-2.74847">
        <ele>205</ele>
        <time>2020-07-02T13:06:05.000Z</time>
      </trkpt>
      <trkpt lat="48.3704" lon="-2.7484">
        <ele>204.5</ele>
        <time>2020-07-02T13:06:09.000Z</time>
      </trkpt>
      <trkpt lat="48.37051" lon="-2.74836">
        <ele>204.1</ele>
        <time>2020-07-02T13:06:13.000Z</time>
      </trkpt>
      <trkpt lat="48.37059" lon="-2.74829">
        <ele>203.9</ele>
        <time>2020-07-02T13:06:16.000Z</time>
      </trkpt>
      <trkpt lat="48.37068" lon="-2.7482">
        <ele>203.6</ele>
        <time>2020-07-02T13:06:20.000Z</time>
      </trkpt>
      <trkpt lat="48.37074" lon="-2.74807">
        <ele>203.4</ele>
        <time>2020-07-02T13:06:23.000Z</time>
      </trkpt>
      <trkpt lat="48.37079" lon="-2.74795">
        <ele>203.2</ele>
        <time>2020-07-02T13:06:26.000Z</time>
      </trkpt>
      <trkpt lat="48.37087" lon="-2.74784">
        <ele>202</ele>
        <time>2020-07-02T13:06:29.000Z</time>
      </trkpt>
      <trkpt lat="48.37092" lon="-2.7477">
        <ele>202.6</ele>
        <time>2020-07-02T13:06:32.000Z</time>
      </trkpt>
      <trkpt lat="48.37098" lon="-2.74759">
        <ele>202.2</ele>
        <time>2020-07-02T13:06:35.000Z</time>
      </trkpt>
      <trkpt lat="48.37102" lon="-2.74745">
        <ele>201.9</ele>
        <time>2020-07-02T13:06:38.000Z</time>
      </trkpt>
      <trkpt lat="48.37104" lon="-2.7473">
        <ele>201.5</ele>
        <time>2020-07-02T13:06:42.000Z</time>
      </trkpt>
      <trkpt lat="48.37109" lon="-2.74716">
        <ele>201.2</ele>
        <time>2020-07-02T13:06:46.000Z</time>
      </trkpt>
      <trkpt lat="48.37112" lon="-2.74703">
        <ele>200.9</ele>
        <time>2020-07-02T13:06:49.000Z</time>
      </trkpt>
      <trkpt lat="48.37115" lon="-2.7469">
        <ele>200.5</ele>
        <time>2020-07-02T13:06:52.000Z</time>
      </trkpt>
      <trkpt lat="48.3712" lon="-2.74675">
        <ele>199.8</ele>
        <time>2020-07-02T13:06:56.000Z</time>
      </trkpt>
      <trkpt lat="48.37123" lon="-2.74662">
        <ele>199.2</ele>
        <time>2020-07-02T13:06:59.000Z</time>
      </trkpt>
      <trkpt lat="48.37122" lon="-2.74646">
        <ele>198.4</ele>
        <time>2020-07-02T13:07:03.000Z</time>
      </trkpt>
      <trkpt lat="48.37122" lon="-2.74631">
        <ele>197.8</ele>
        <time>2020-07-02T13:07:07.000Z</time>
      </trkpt>
      <trkpt lat="48.37124" lon="-2.74615">
        <ele>197.3</ele>
        <time>2020-07-02T13:07:11.000Z</time>
      </trkpt>
      <trkpt lat="48.37125" lon="-2.74595">
        <ele>196.8</ele>
        <time>2020-07-02T13:07:16.000Z</time>
      </trkpt>
      <trkpt lat="48.37127" lon="-2.74581">
        <ele>196.4</ele>
        <time>2020-07-02T13:07:19.000Z</time>
      </trkpt>
      <trkpt lat="48.37124" lon="-2.74568">
        <ele>196</ele>
        <time>2020-07-02T13:07:22.000Z</time>
      </trkpt>
      <trkpt lat="48.37129" lon="-2.74555">
        <ele>195.5</ele>
        <time>2020-07-02T13:07:26.000Z</time>
      </trkpt>
      <trkpt lat="48.37131" lon="-2.74538">
        <ele>195</ele>
        <time>2020-07-02T13:07:31.000Z</time>
      </trkpt>
      <trkpt lat="48.37129" lon="-2.74523">
        <ele>194.6</ele>
        <time>2020-07-02T13:07:35.000Z</time>
      </trkpt>
      <trkpt lat="48.37125" lon="-2.7451">
        <ele>194.4</ele>
        <time>2020-07-02T13:07:38.000Z</time>
      </trkpt>
      <trkpt lat="48.37121" lon="-2.74493">
        <ele>194.2</ele>
        <time>2020-07-02T13:07:42.000Z</time>
      </trkpt>
      <trkpt lat="48.37119" lon="-2.74475">
        <ele>194</ele>
        <time>2020-07-02T13:07:47.000Z</time>
      </trkpt>
      <trkpt lat="48.37123" lon="-2.74462">
        <ele>193.9</ele>
        <time>2020-07-02T13:07:51.000Z</time>
      </trkpt>
      <trkpt lat="48.37126" lon="-2.74447">
        <ele>193.5</ele>
        <time>2020-07-02T13:07:55.000Z</time>
      </trkpt>
      <trkpt lat="48.37133" lon="-2.74433">
        <ele>193</ele>
        <time>2020-07-02T13:07:59.000Z</time>
      </trkpt>
      <trkpt lat="48.37137" lon="-2.74419">
        <ele>192.2</ele>
        <time>2020-07-02T13:08:03.000Z</time>
      </trkpt>
      <trkpt lat="48.37141" lon="-2.74406">
        <ele>191.4</ele>
        <time>2020-07-02T13:08:08.000Z</time>
      </trkpt>
      <trkpt lat="48.37135" lon="-2.74395">
        <ele>191.1</ele>
        <time>2020-07-02T13:08:17.000Z</time>
      </trkpt>
      <trkpt lat="48.37127" lon="-2.74391">
        <ele>192.5</ele>
        <time>2020-07-02T13:08:27.000Z</time>
      </trkpt>
      <trkpt lat="48.37131" lon="-2.74377">
        <ele>194.8</ele>
        <time>2020-07-02T13:08:40.000Z</time>
      </trkpt>
      <trkpt lat="48.37138" lon="-2.74367">
        <ele>195.4</ele>
        <time>2020-07-02T13:08:47.000Z</time>
      </trkpt>
      <trkpt lat="48.37142" lon="-2.74354">
        <ele>195.6</ele>
        <time>2020-07-02T13:08:53.000Z</time>
      </trkpt>
      <trkpt lat="48.3715" lon="-2.74346">
        <ele>195.2</ele>
        <time>2020-07-02T13:08:57.000Z</time>
      </trkpt>
      <trkpt lat="48.3716" lon="-2.7434">
        <ele>194.3</ele>
        <time>2020-07-02T13:09:01.000Z</time>
      </trkpt>
      <trkpt lat="48.37167" lon="-2.7433">
        <ele>193.1</ele>
        <time>2020-07-02T13:09:05.000Z</time>
      </trkpt>
      <trkpt lat="48.37175" lon="-2.74319">
        <ele>192</ele>
        <time>2020-07-02T13:09:09.000Z</time>
      </trkpt>
      <trkpt lat="48.37183" lon="-2.74307">
        <ele>190.5</ele>
        <time>2020-07-02T13:09:14.000Z</time>
      </trkpt>
      <trkpt lat="48.3719" lon="-2.74295">
        <ele>189.1</ele>
        <time>2020-07-02T13:09:18.000Z</time>
      </trkpt>
      <trkpt lat="48.37197" lon="-2.74284">
        <ele>188</ele>
        <time>2020-07-02T13:09:21.000Z</time>
      </trkpt>
      <trkpt lat="48.37202" lon="-2.74272">
        <ele>187.2</ele>
        <time>2020-07-02T13:09:24.000Z</time>
      </trkpt>
      <trkpt lat="48.37209" lon="-2.74259">
        <ele>186.3</ele>
        <time>2020-07-02T13:09:28.000Z</time>
      </trkpt>
      <trkpt lat="48.37216" lon="-2.74249">
        <ele>185.9</ele>
        <time>2020-07-02T13:09:31.000Z</time>
      </trkpt>
      <trkpt lat="48.37222" lon="-2.74234">
        <ele>185.7</ele>
        <time>2020-07-02T13:09:35.000Z</time>
      </trkpt>
      <trkpt lat="48.37228" lon="-2.7422">
        <ele>185.6</ele>
        <time>2020-07-02T13:09:39.000Z</time>
      </trkpt>
      <trkpt lat="48.37232" lon="-2.74208">
        <ele>185.6</ele>
        <time>2020-07-02T13:09:43.000Z</time>
      </trkpt>
      <trkpt lat="48.37236" lon="-2.74192">
        <ele>186.1</ele>
        <time>2020-07-02T13:09:48.000Z</time>
      </trkpt>
      <trkpt lat="48.37242" lon="-2.7418">
        <ele>186.7</ele>
        <time>2020-07-02T13:09:53.000Z</time>
      </trkpt>
      <trkpt lat="48.37242" lon="-2.74166">
        <ele>187.1</ele>
        <time>2020-07-02T13:09:57.000Z</time>
      </trkpt>
      <trkpt lat="48.37247" lon="-2.7415">
        <ele>187.5</ele>
        <time>2020-07-02T13:10:02.000Z</time>
      </trkpt>
      <trkpt lat="48.3725" lon="-2.74134">
        <ele>187.7</ele>
        <time>2020-07-02T13:10:06.000Z</time>
      </trkpt>
      <trkpt lat="48.37249" lon="-2.74117">
        <ele>188</ele>
        <time>2020-07-02T13:10:10.000Z</time>
      </trkpt>
      <trkpt lat="48.37249" lon="-2.74102">
        <ele>188.2</ele>
        <time>2020-07-02T13:10:14.000Z</time>
      </trkpt>
      <trkpt lat="48.37249" lon="-2.74088">
        <ele>188.5</ele>
        <time>2020-07-02T13:10:18.000Z</time>
      </trkpt>
      <trkpt lat="48.3725" lon="-2.74061">
        <ele>188</ele>
        <time>2020-07-02T13:10:25.000Z</time>
      </trkpt>
      <trkpt lat="48.37252" lon="-2.74044">
        <ele>188</ele>
        <time>2020-07-02T13:10:29.000Z</time>
      </trkpt>
      <trkpt lat="48.37253" lon="-2.74029">
        <ele>189</ele>
        <time>2020-07-02T13:10:33.000Z</time>
      </trkpt>
      <trkpt lat="48.37254" lon="-2.74015">
        <ele>189.1</ele>
        <time>2020-07-02T13:10:37.000Z</time>
      </trkpt>
      <trkpt lat="48.37258" lon="-2.73997">
        <ele>189.4</ele>
        <time>2020-07-02T13:10:43.000Z</time>
      </trkpt>
      <trkpt lat="48.37258" lon="-2.73983">
        <ele>189.7</ele>
        <time>2020-07-02T13:10:47.000Z</time>
      </trkpt>
      <trkpt lat="48.37258" lon="-2.73967">
        <ele>190.2</ele>
        <time>2020-07-02T13:10:52.000Z</time>
      </trkpt>
      <trkpt lat="48.37262" lon="-2.73953">
        <ele>190.9</ele>
        <time>2020-07-02T13:10:57.000Z</time>
      </trkpt>
      <trkpt lat="48.37265" lon="-2.73938">
        <ele>191.4</ele>
        <time>2020-07-02T13:11:02.000Z</time>
      </trkpt>
      <trkpt lat="48.37268" lon="-2.73923">
        <ele>192</ele>
        <time>2020-07-02T13:11:08.000Z</time>
      </trkpt>
      <trkpt lat="48.37267" lon="-2.73907">
        <ele>192.5</ele>
        <time>2020-07-02T13:11:13.000Z</time>
      </trkpt>
      <trkpt lat="48.37266" lon="-2.73893">
        <ele>193</ele>
        <time>2020-07-02T13:11:18.000Z</time>
      </trkpt>
      <trkpt lat="48.37268" lon="-2.73878">
        <ele>193.8</ele>
        <time>2020-07-02T13:11:24.000Z</time>
      </trkpt>
      <trkpt lat="48.37271" lon="-2.73863">
        <ele>194.1</ele>
        <time>2020-07-02T13:11:27.000Z</time>
      </trkpt>
      <trkpt lat="48.37268" lon="-2.73847">
        <ele>194.5</ele>
        <time>2020-07-02T13:11:31.000Z</time>
      </trkpt>
      <trkpt lat="48.37272" lon="-2.73835">
        <ele>194.7</ele>
        <time>2020-07-02T13:11:35.000Z</time>
      </trkpt>
      <trkpt lat="48.37279" lon="-2.73821">
        <ele>194.7</ele>
        <time>2020-07-02T13:11:38.000Z</time>
      </trkpt>
      <trkpt lat="48.37284" lon="-2.73805">
        <ele>194.7</ele>
        <time>2020-07-02T13:11:41.000Z</time>
      </trkpt>
      <trkpt lat="48.37289" lon="-2.73791">
        <ele>194.6</ele>
        <time>2020-07-02T13:11:45.000Z</time>
      </trkpt>
      <trkpt lat="48.37291" lon="-2.73775">
        <ele>194.4</ele>
        <time>2020-07-02T13:11:49.000Z</time>
      </trkpt>
      <trkpt lat="48.37292" lon="-2.73761">
        <ele>194.2</ele>
        <time>2020-07-02T13:11:53.000Z</time>
      </trkpt>
      <trkpt lat="48.37293" lon="-2.73746">
        <ele>194.2</ele>
        <time>2020-07-02T13:11:57.000Z</time>
      </trkpt>
      <trkpt lat="48.37294" lon="-2.73732">
        <ele>194.2</ele>
        <time>2020-07-02T13:12:01.000Z</time>
      </trkpt>
      <trkpt lat="48.37297" lon="-2.73718">
        <ele>194.2</ele>
        <time>2020-07-02T13:12:05.000Z</time>
      </trkpt>
      <trkpt lat="48.373" lon="-2.73702">
        <ele>194.2</ele>
        <time>2020-07-02T13:12:09.000Z</time>
      </trkpt>
      <trkpt lat="48.37305" lon="-2.73685">
        <ele>194.2</ele>
        <time>2020-07-02T13:12:13.000Z</time>
      </trkpt>
      <trkpt lat="48.37307" lon="-2.73668">
        <ele>194.2</ele>
        <time>2020-07-02T13:12:16.000Z</time>
      </trkpt>
      <trkpt lat="48.37307" lon="-2.73653">
        <ele>194.2</ele>
        <time>2020-07-02T13:12:19.000Z</time>
      </trkpt>
      <trkpt lat="48.37307" lon="-2.73636">
        <ele>194.2</ele>
        <time>2020-07-02T13:12:23.000Z</time>
      </trkpt>
      <trkpt lat="48.37308" lon="-2.73615">
        <ele>194.4</ele>
        <time>2020-07-02T13:12:29.000Z</time>
      </trkpt>
      <trkpt lat="48.37311" lon="-2.73602">
        <ele>194.6</ele>
        <time>2020-07-02T13:12:33.000Z</time>
      </trkpt>
      <trkpt lat="48.37314" lon="-2.73586">
        <ele>195.1</ele>
        <time>2020-07-02T13:12:37.000Z</time>
      </trkpt>
      <trkpt lat="48.37315" lon="-2.7357">
        <ele>195.5</ele>
        <time>2020-07-02T13:12:41.000Z</time>
      </trkpt>
      <trkpt lat="48.37317" lon="-2.73556">
        <ele>195.8</ele>
        <time>2020-07-02T13:12:45.000Z</time>
      </trkpt>
      <trkpt lat="48.37315" lon="-2.73539">
        <ele>196.1</ele>
        <time>2020-07-02T13:12:49.000Z</time>
      </trkpt>
      <trkpt lat="48.37315" lon="-2.73525">
        <ele>196.4</ele>
        <time>2020-07-02T13:12:53.000Z</time>
      </trkpt>
      <trkpt lat="48.3732" lon="-2.73508">
        <ele>196.4</ele>
        <time>2020-07-02T13:12:57.000Z</time>
      </trkpt>
      <trkpt lat="48.37326" lon="-2.73494">
        <ele>196.2</ele>
        <time>2020-07-02T13:13:00.000Z</time>
      </trkpt>
      <trkpt lat="48.37322" lon="-2.73479">
        <ele>195.6</ele>
        <time>2020-07-02T13:13:04.000Z</time>
      </trkpt>
      <trkpt lat="48.37326" lon="-2.73467">
        <ele>194.5</ele>
        <time>2020-07-02T13:13:08.000Z</time>
      </trkpt>
      <trkpt lat="48.37329" lon="-2.73452">
        <ele>192.8</ele>
        <time>2020-07-02T13:13:12.000Z</time>
      </trkpt>
      <trkpt lat="48.37335" lon="-2.73436">
        <ele>191.1</ele>
        <time>2020-07-02T13:13:15.000Z</time>
      </trkpt>
      <trkpt lat="48.3734" lon="-2.73422">
        <ele>189.1</ele>
        <time>2020-07-02T13:13:19.000Z</time>
      </trkpt>
      <trkpt lat="48.37349" lon="-2.7341">
        <ele>187</ele>
        <time>2020-07-02T13:13:23.000Z</time>
      </trkpt>
      <trkpt lat="48.37359" lon="-2.73408">
        <ele>185.2</ele>
        <time>2020-07-02T13:13:27.000Z</time>
      </trkpt>
      <trkpt lat="48.37368" lon="-2.73405">
        <ele>183.7</ele>
        <time>2020-07-02T13:13:31.000Z</time>
      </trkpt>
      <trkpt lat="48.37378" lon="-2.73408">
        <ele>182</ele>
        <time>2020-07-02T13:13:35.000Z</time>
      </trkpt>
      <trkpt lat="48.37387" lon="-2.73412">
        <ele>179.4</ele>
        <time>2020-07-02T13:13:41.000Z</time>
      </trkpt>
      <trkpt lat="48.37395" lon="-2.73422">
        <ele>177.3</ele>
        <time>2020-07-02T13:13:47.000Z</time>
      </trkpt>
      <trkpt lat="48.37401" lon="-2.73435">
        <ele>176.4</ele>
        <time>2020-07-02T13:13:53.000Z</time>
      </trkpt>
      <trkpt lat="48.37404" lon="-2.73449">
        <ele>176</ele>
        <time>2020-07-02T13:14:00.000Z</time>
      </trkpt>
      <trkpt lat="48.37408" lon="-2.73464">
        <ele>176</ele>
        <time>2020-07-02T13:14:04.000Z</time>
      </trkpt>
      <trkpt lat="48.37411" lon="-2.73479">
        <ele>175.7</ele>
        <time>2020-07-02T13:14:08.000Z</time>
      </trkpt>
      <trkpt lat="48.37419" lon="-2.73486">
        <ele>175.2</ele>
        <time>2020-07-02T13:14:11.000Z</time>
      </trkpt>
      <trkpt lat="48.37424" lon="-2.73498">
        <ele>174.8</ele>
        <time>2020-07-02T13:14:14.000Z</time>
      </trkpt>
      <trkpt lat="48.3743" lon="-2.7351">
        <ele>174.3</ele>
        <time>2020-07-02T13:14:17.000Z</time>
      </trkpt>
      <trkpt lat="48.37436" lon="-2.73523">
        <ele>174</ele>
        <time>2020-07-02T13:14:20.000Z</time>
      </trkpt>
      <trkpt lat="48.37443" lon="-2.73538">
        <ele>173.7</ele>
        <time>2020-07-02T13:14:23.000Z</time>
      </trkpt>
      <trkpt lat="48.37449" lon="-2.73551">
        <ele>173.3</ele>
        <time>2020-07-02T13:14:26.000Z</time>
      </trkpt>
      <trkpt lat="48.37455" lon="-2.73566">
        <ele>173</ele>
        <time>2020-07-02T13:14:30.000Z</time>
      </trkpt>
      <trkpt lat="48.3746" lon="-2.73579">
        <ele>172.8</ele>
        <time>2020-07-02T13:14:33.000Z</time>
      </trkpt>
      <trkpt lat="48.37466" lon="-2.7359">
        <ele>172.4</ele>
        <time>2020-07-02T13:14:36.000Z</time>
      </trkpt>
      <trkpt lat="48.37473" lon="-2.73603">
        <ele>172.2</ele>
        <time>2020-07-02T13:14:39.000Z</time>
      </trkpt>
      <trkpt lat="48.3748" lon="-2.73617">
        <ele>172</ele>
        <time>2020-07-02T13:14:42.000Z</time>
      </trkpt>
      <trkpt lat="48.37486" lon="-2.73629">
        <ele>171.8</ele>
        <time>2020-07-02T13:14:45.000Z</time>
      </trkpt>
      <trkpt lat="48.37493" lon="-2.73642">
        <ele>171.5</ele>
        <time>2020-07-02T13:14:48.000Z</time>
      </trkpt>
      <trkpt lat="48.37499" lon="-2.73658">
        <ele>171.3</ele>
        <time>2020-07-02T13:14:51.000Z</time>
      </trkpt>
      <trkpt lat="48.37504" lon="-2.73676">
        <ele>171.1</ele>
        <time>2020-07-02T13:14:54.000Z</time>
      </trkpt>
      <trkpt lat="48.37508" lon="-2.7369">
        <ele>170.9</ele>
        <time>2020-07-02T13:14:56.000Z</time>
      </trkpt>
      <trkpt lat="48.37513" lon="-2.73705">
        <ele>170.7</ele>
        <time>2020-07-02T13:14:58.000Z</time>
      </trkpt>
      <trkpt lat="48.3752" lon="-2.73719">
        <ele>170.4</ele>
        <time>2020-07-02T13:15:00.000Z</time>
      </trkpt>
      <trkpt lat="48.3753" lon="-2.7373">
        <ele>170.1</ele>
        <time>2020-07-02T13:15:02.000Z</time>
      </trkpt>
      <trkpt lat="48.37541" lon="-2.73739">
        <ele>169.7</ele>
        <time>2020-07-02T13:15:04.000Z</time>
      </trkpt>
      <trkpt lat="48.3755" lon="-2.7375">
        <ele>169.1</ele>
        <time>2020-07-02T13:15:06.000Z</time>
      </trkpt>
      <trkpt lat="48.37559" lon="-2.73762">
        <ele>168.6</ele>
        <time>2020-07-02T13:15:08.000Z</time>
      </trkpt>
      <trkpt lat="48.37565" lon="-2.73776">
        <ele>168</ele>
        <time>2020-07-02T13:15:10.000Z</time>
      </trkpt>
      <trkpt lat="48.37572" lon="-2.73789">
        <ele>167.4</ele>
        <time>2020-07-02T13:15:12.000Z</time>
      </trkpt>
      <trkpt lat="48.37581" lon="-2.73798">
        <ele>166.8</ele>
        <time>2020-07-02T13:15:14.000Z</time>
      </trkpt>
      <trkpt lat="48.3759" lon="-2.73805">
        <ele>166.4</ele>
        <time>2020-07-02T13:15:16.000Z</time>
      </trkpt>
      <trkpt lat="48.37602" lon="-2.73811">
        <ele>165.8</ele>
        <time>2020-07-02T13:15:19.000Z</time>
      </trkpt>
      <trkpt lat="48.3761" lon="-2.73817">
        <ele>165.6</ele>
        <time>2020-07-02T13:15:21.000Z</time>
      </trkpt>
      <trkpt lat="48.3762" lon="-2.73828">
        <ele>165.4</ele>
        <time>2020-07-02T13:15:24.000Z</time>
      </trkpt>
      <trkpt lat="48.3763" lon="-2.73842">
        <ele>165.4</ele>
        <time>2020-07-02T13:15:27.000Z</time>
      </trkpt>
      <trkpt lat="48.37636" lon="-2.7386">
        <ele>165.4</ele>
        <time>2020-07-02T13:15:30.000Z</time>
      </trkpt>
      <trkpt lat="48.3764" lon="-2.73878">
        <ele>165.4</ele>
        <time>2020-07-02T13:15:33.000Z</time>
      </trkpt>
      <trkpt lat="48.37644" lon="-2.73896">
        <ele>165.5</ele>
        <time>2020-07-02T13:15:36.000Z</time>
      </trkpt>
      <trkpt lat="48.37648" lon="-2.73915">
        <ele>165.6</ele>
        <time>2020-07-02T13:15:39.000Z</time>
      </trkpt>
      <trkpt lat="48.37651" lon="-2.73934">
        <ele>165.7</ele>
        <time>2020-07-02T13:15:42.000Z</time>
      </trkpt>
      <trkpt lat="48.37654" lon="-2.73952">
        <ele>165.8</ele>
        <time>2020-07-02T13:15:45.000Z</time>
      </trkpt>
      <trkpt lat="48.37657" lon="-2.73971">
        <ele>165.9</ele>
        <time>2020-07-02T13:15:48.000Z</time>
      </trkpt>
      <trkpt lat="48.37668" lon="-2.73977">
        <ele>166</ele>
        <time>2020-07-02T13:15:51.000Z</time>
      </trkpt>
      <trkpt lat="48.37678" lon="-2.73972">
        <ele>166.1</ele>
        <time>2020-07-02T13:15:54.000Z</time>
      </trkpt>
      <trkpt lat="48.37683" lon="-2.73957">
        <ele>166.1</ele>
        <time>2020-07-02T13:15:57.000Z</time>
      </trkpt>
      <trkpt lat="48.37687" lon="-2.73938">
        <ele>166.1</ele>
        <time>2020-07-02T13:16:00.000Z</time>
      </trkpt>
      <trkpt lat="48.37691" lon="-2.73921">
        <ele>166.1</ele>
        <time>2020-07-02T13:16:03.000Z</time>
      </trkpt>
      <trkpt lat="48.37696" lon="-2.73904">
        <ele>166</ele>
        <time>2020-07-02T13:16:06.000Z</time>
      </trkpt>
      <trkpt lat="48.37701" lon="-2.73886">
        <ele>165.9</ele>
        <time>2020-07-02T13:16:09.000Z</time>
      </trkpt>
      <trkpt lat="48.37704" lon="-2.73873">
        <ele>165.7</ele>
        <time>2020-07-02T13:16:11.000Z</time>
      </trkpt>
      <trkpt lat="48.3771" lon="-2.73854">
        <ele>165.5</ele>
        <time>2020-07-02T13:16:14.000Z</time>
      </trkpt>
      <trkpt lat="48.37713" lon="-2.7384">
        <ele>165.4</ele>
        <time>2020-07-02T13:16:16.000Z</time>
      </trkpt>
      <trkpt lat="48.37716" lon="-2.73826">
        <ele>165.3</ele>
        <time>2020-07-02T13:16:18.000Z</time>
      </trkpt>
      <trkpt lat="48.37719" lon="-2.73811">
        <ele>165.1</ele>
        <time>2020-07-02T13:16:20.000Z</time>
      </trkpt>
      <trkpt lat="48.37723" lon="-2.73796">
        <ele>165</ele>
        <time>2020-07-02T13:16:22.000Z</time>
      </trkpt>
      <trkpt lat="48.37727" lon="-2.7378">
        <ele>164.9</ele>
        <time>2020-07-02T13:16:24.000Z</time>
      </trkpt>
      <trkpt lat="48.3773" lon="-2.73765">
        <ele>164.8</ele>
        <time>2020-07-02T13:16:26.000Z</time>
      </trkpt>
      <trkpt lat="48.37734" lon="-2.73749">
        <ele>164.6</ele>
        <time>2020-07-02T13:16:28.000Z</time>
      </trkpt>
      <trkpt lat="48.37738" lon="-2.73733">
        <ele>164.5</ele>
        <time>2020-07-02T13:16:30.000Z</time>
      </trkpt>
      <trkpt lat="48.37742" lon="-2.73716">
        <ele>164.3</ele>
        <time>2020-07-02T13:16:32.000Z</time>
      </trkpt>
      <trkpt lat="48.37745" lon="-2.737">
        <ele>164.1</ele>
        <time>2020-07-02T13:16:34.000Z</time>
      </trkpt>
      <trkpt lat="48.37748" lon="-2.73683">
        <ele>163.9</ele>
        <time>2020-07-02T13:16:36.000Z</time>
      </trkpt>
      <trkpt lat="48.37751" lon="-2.73667">
        <ele>163.8</ele>
        <time>2020-07-02T13:16:38.000Z</time>
      </trkpt>
      <trkpt lat="48.37755" lon="-2.73652">
        <ele>163.6</ele>
        <time>2020-07-02T13:16:40.000Z</time>
      </trkpt>
      <trkpt lat="48.37758" lon="-2.73636">
        <ele>163.5</ele>
        <time>2020-07-02T13:16:42.000Z</time>
      </trkpt>
      <trkpt lat="48.37761" lon="-2.73621">
        <ele>163.5</ele>
        <time>2020-07-02T13:16:44.000Z</time>
      </trkpt>
      <trkpt lat="48.37764" lon="-2.73605">
        <ele>163.4</ele>
        <time>2020-07-02T13:16:46.000Z</time>
      </trkpt>
      <trkpt lat="48.37767" lon="-2.7359">
        <ele>163.4</ele>
        <time>2020-07-02T13:16:48.000Z</time>
      </trkpt>
      <trkpt lat="48.37769" lon="-2.73574">
        <ele>163.3</ele>
        <time>2020-07-02T13:16:50.000Z</time>
      </trkpt>
      <trkpt lat="48.37771" lon="-2.73557">
        <ele>163.3</ele>
        <time>2020-07-02T13:16:52.000Z</time>
      </trkpt>
      <trkpt lat="48.37773" lon="-2.73541">
        <ele>163.3</ele>
        <time>2020-07-02T13:16:54.000Z</time>
      </trkpt>
      <trkpt lat="48.37775" lon="-2.73525">
        <ele>163.3</ele>
        <time>2020-07-02T13:16:56.000Z</time>
      </trkpt>
      <trkpt lat="48.37777" lon="-2.73508">
        <ele>163</ele>
        <time>2020-07-02T13:16:58.000Z</time>
      </trkpt>
      <trkpt lat="48.37779" lon="-2.73485">
        <ele>163.3</ele>
        <time>2020-07-02T13:17:01.000Z</time>
      </trkpt>
      <trkpt lat="48.37781" lon="-2.73469">
        <ele>163.3</ele>
        <time>2020-07-02T13:17:03.000Z</time>
      </trkpt>
      <trkpt lat="48.37782" lon="-2.73453">
        <ele>163.3</ele>
        <time>2020-07-02T13:17:05.000Z</time>
      </trkpt>
      <trkpt lat="48.37784" lon="-2.73438">
        <ele>163.3</ele>
        <time>2020-07-02T13:17:07.000Z</time>
      </trkpt>
      <trkpt lat="48.37785" lon="-2.73422">
        <ele>163.3</ele>
        <time>2020-07-02T13:17:09.000Z</time>
      </trkpt>
      <trkpt lat="48.37786" lon="-2.73407">
        <ele>163.3</ele>
        <time>2020-07-02T13:17:11.000Z</time>
      </trkpt>
      <trkpt lat="48.37788" lon="-2.73383">
        <ele>163</ele>
        <time>2020-07-02T13:17:14.000Z</time>
      </trkpt>
      <trkpt lat="48.37789" lon="-2.73358">
        <ele>163.3</ele>
        <time>2020-07-02T13:17:17.000Z</time>
      </trkpt>
      <trkpt lat="48.3779" lon="-2.73342">
        <ele>163.3</ele>
        <time>2020-07-02T13:17:19.000Z</time>
      </trkpt>
      <trkpt lat="48.37792" lon="-2.73326">
        <ele>163.3</ele>
        <time>2020-07-02T13:17:21.000Z</time>
      </trkpt>
      <trkpt lat="48.37792" lon="-2.7331">
        <ele>163.3</ele>
        <time>2020-07-02T13:17:23.000Z</time>
      </trkpt>
      <trkpt lat="48.37793" lon="-2.73294">
        <ele>163.3</ele>
        <time>2020-07-02T13:17:25.000Z</time>
      </trkpt>
      <trkpt lat="48.37792" lon="-2.73278">
        <ele>163</ele>
        <time>2020-07-02T13:17:27.000Z</time>
      </trkpt>
      <trkpt lat="48.37791" lon="-2.73254">
        <ele>163.3</ele>
        <time>2020-07-02T13:17:30.000Z</time>
      </trkpt>
      <trkpt lat="48.37789" lon="-2.73238">
        <ele>163.3</ele>
        <time>2020-07-02T13:17:32.000Z</time>
      </trkpt>
      <trkpt lat="48.37787" lon="-2.73223">
        <ele>163.2</ele>
        <time>2020-07-02T13:17:34.000Z</time>
      </trkpt>
      <trkpt lat="48.37787" lon="-2.73207">
        <ele>163.1</ele>
        <time>2020-07-02T13:17:36.000Z</time>
      </trkpt>
      <trkpt lat="48.37786" lon="-2.73191">
        <ele>163</ele>
        <time>2020-07-02T13:17:38.000Z</time>
      </trkpt>
      <trkpt lat="48.37787" lon="-2.73175">
        <ele>163</ele>
        <time>2020-07-02T13:17:40.000Z</time>
      </trkpt>
      <trkpt lat="48.37788" lon="-2.73159">
        <ele>163</ele>
        <time>2020-07-02T13:17:42.000Z</time>
      </trkpt>
      <trkpt lat="48.37789" lon="-2.73143">
        <ele>162.9</ele>
        <time>2020-07-02T13:17:44.000Z</time>
      </trkpt>
      <trkpt lat="48.37791" lon="-2.73128">
        <ele>162.9</ele>
        <time>2020-07-02T13:17:46.000Z</time>
      </trkpt>
      <trkpt lat="48.37792" lon="-2.73112">
        <ele>162.8</ele>
        <time>2020-07-02T13:17:48.000Z</time>
      </trkpt>
      <trkpt lat="48.37794" lon="-2.73099">
        <ele>162.7</ele>
        <time>2020-07-02T13:17:50.000Z</time>
      </trkpt>
      <trkpt lat="48.37797" lon="-2.73084">
        <ele>162.6</ele>
        <time>2020-07-02T13:17:53.000Z</time>
      </trkpt>
      <trkpt lat="48.37805" lon="-2.73077">
        <ele>162.4</ele>
        <time>2020-07-02T13:17:58.000Z</time>
      </trkpt>
      <trkpt lat="48.37811" lon="-2.73088">
        <ele>162.1</ele>
        <time>2020-07-02T13:18:03.000Z</time>
      </trkpt>
      <trkpt lat="48.37821" lon="-2.73095">
        <ele>162.1</ele>
        <time>2020-07-02T13:18:07.000Z</time>
      </trkpt>
      <trkpt lat="48.3783" lon="-2.73101">
        <ele>162.1</ele>
        <time>2020-07-02T13:18:11.000Z</time>
      </trkpt>
      <trkpt lat="48.3784" lon="-2.73102">
        <ele>162.2</ele>
        <time>2020-07-02T13:18:15.000Z</time>
      </trkpt>
      <trkpt lat="48.37849" lon="-2.73108">
        <ele>162.4</ele>
        <time>2020-07-02T13:18:19.000Z</time>
      </trkpt>
      <trkpt lat="48.37855" lon="-2.73121">
        <ele>162.7</ele>
        <time>2020-07-02T13:18:24.000Z</time>
      </trkpt>
      <trkpt lat="48.3786" lon="-2.73135">
        <ele>163</ele>
        <time>2020-07-02T13:18:29.000Z</time>
      </trkpt>
      <trkpt lat="48.37864" lon="-2.73149">
        <ele>163.4</ele>
        <time>2020-07-02T13:18:34.000Z</time>
      </trkpt>
      <trkpt lat="48.37868" lon="-2.73165">
        <ele>163.9</ele>
        <time>2020-07-02T13:18:39.000Z</time>
      </trkpt>
      <trkpt lat="48.37872" lon="-2.73178">
        <ele>164.2</ele>
        <time>2020-07-02T13:18:43.000Z</time>
      </trkpt>
      <trkpt lat="48.37877" lon="-2.7319">
        <ele>164.5</ele>
        <time>2020-07-02T13:18:47.000Z</time>
      </trkpt>
      <trkpt lat="48.37883" lon="-2.73201">
        <ele>165</ele>
        <time>2020-07-02T13:18:51.000Z</time>
      </trkpt>
      <trkpt lat="48.37891" lon="-2.73209">
        <ele>165.4</ele>
        <time>2020-07-02T13:18:55.000Z</time>
      </trkpt>
      <trkpt lat="48.37898" lon="-2.73218">
        <ele>166</ele>
        <time>2020-07-02T13:18:59.000Z</time>
      </trkpt>
      <trkpt lat="48.37906" lon="-2.73227">
        <ele>166.7</ele>
        <time>2020-07-02T13:19:04.000Z</time>
      </trkpt>
      <trkpt lat="48.37914" lon="-2.73235">
        <ele>167.5</ele>
        <time>2020-07-02T13:19:08.000Z</time>
      </trkpt>
      <trkpt lat="48.37921" lon="-2.73243">
        <ele>168.2</ele>
        <time>2020-07-02T13:19:12.000Z</time>
      </trkpt>
      <trkpt lat="48.37927" lon="-2.73253">
        <ele>168.9</ele>
        <time>2020-07-02T13:19:16.000Z</time>
      </trkpt>
      <trkpt lat="48.37936" lon="-2.73264">
        <ele>169.8</ele>
        <time>2020-07-02T13:19:21.000Z</time>
      </trkpt>
      <trkpt lat="48.37943" lon="-2.73275">
        <ele>170.6</ele>
        <time>2020-07-02T13:19:26.000Z</time>
      </trkpt>
      <trkpt lat="48.37949" lon="-2.73287">
        <ele>171.4</ele>
        <time>2020-07-02T13:19:31.000Z</time>
      </trkpt>
      <trkpt lat="48.37955" lon="-2.73298">
        <ele>172.4</ele>
        <time>2020-07-02T13:19:36.000Z</time>
      </trkpt>
      <trkpt lat="48.37962" lon="-2.7331">
        <ele>173.7</ele>
        <time>2020-07-02T13:19:43.000Z</time>
      </trkpt>
      <trkpt lat="48.37968" lon="-2.73321">
        <ele>174.6</ele>
        <time>2020-07-02T13:19:49.000Z</time>
      </trkpt>
      <trkpt lat="48.3797" lon="-2.73335">
        <ele>175.6</ele>
        <time>2020-07-02T13:19:56.000Z</time>
      </trkpt>
      <trkpt lat="48.3797" lon="-2.73334">
        <ele>176.2</ele>
        <time>2020-07-02T13:20:01.000Z</time>
      </trkpt>
      <trkpt lat="48.37975" lon="-2.73321">
        <ele>176.1</ele>
        <time>2020-07-02T13:20:15.000Z</time>
      </trkpt>
      <trkpt lat="48.37978" lon="-2.73307">
        <ele>175.8</ele>
        <time>2020-07-02T13:20:20.000Z</time>
      </trkpt>
      <trkpt lat="48.37982" lon="-2.73292">
        <ele>175.5</ele>
        <time>2020-07-02T13:20:25.000Z</time>
      </trkpt>
      <trkpt lat="48.37986" lon="-2.73277">
        <ele>175.2</ele>
        <time>2020-07-02T13:20:29.000Z</time>
      </trkpt>
      <trkpt lat="48.37989" lon="-2.73263">
        <ele>174.9</ele>
        <time>2020-07-02T13:20:32.000Z</time>
      </trkpt>
      <trkpt lat="48.37992" lon="-2.73248">
        <ele>174.6</ele>
        <time>2020-07-02T13:20:35.000Z</time>
      </trkpt>
      <trkpt lat="48.37995" lon="-2.73232">
        <ele>174.3</ele>
        <time>2020-07-02T13:20:38.000Z</time>
      </trkpt>
      <trkpt lat="48.37999" lon="-2.73214">
        <ele>174.2</ele>
        <time>2020-07-02T13:20:41.000Z</time>
      </trkpt>
      <trkpt lat="48.38003" lon="-2.73195">
        <ele>174</ele>
        <time>2020-07-02T13:20:44.000Z</time>
      </trkpt>
      <trkpt lat="48.38009" lon="-2.73178">
        <ele>173.7</ele>
        <time>2020-07-02T13:20:47.000Z</time>
      </trkpt>
      <trkpt lat="48.38014" lon="-2.73159">
        <ele>173.5</ele>
        <time>2020-07-02T13:20:50.000Z</time>
      </trkpt>
      <trkpt lat="48.38017" lon="-2.73145">
        <ele>173.4</ele>
        <time>2020-07-02T13:20:52.000Z</time>
      </trkpt>
      <trkpt lat="48.38019" lon="-2.73129">
        <ele>173.1</ele>
        <time>2020-07-02T13:20:54.000Z</time>
      </trkpt>
      <trkpt lat="48.38022" lon="-2.73114">
        <ele>172.8</ele>
        <time>2020-07-02T13:20:56.000Z</time>
      </trkpt>
      <trkpt lat="48.38025" lon="-2.73097">
        <ele>172.5</ele>
        <time>2020-07-02T13:20:58.000Z</time>
      </trkpt>
      <trkpt lat="48.38027" lon="-2.73081">
        <ele>172.1</ele>
        <time>2020-07-02T13:21:00.000Z</time>
      </trkpt>
      <trkpt lat="48.3803" lon="-2.73066">
        <ele>171.7</ele>
        <time>2020-07-02T13:21:02.000Z</time>
      </trkpt>
      <trkpt lat="48.38032" lon="-2.73051">
        <ele>171.2</ele>
        <time>2020-07-02T13:21:04.000Z</time>
      </trkpt>
      <trkpt lat="48.38037" lon="-2.73037">
        <ele>170.3</ele>
        <time>2020-07-02T13:21:07.000Z</time>
      </trkpt>
      <trkpt lat="48.38048" lon="-2.73033">
        <ele>169.3</ele>
        <time>2020-07-02T13:21:11.000Z</time>
      </trkpt>
      <trkpt lat="48.38058" lon="-2.73034">
        <ele>168.7</ele>
        <time>2020-07-02T13:21:14.000Z</time>
      </trkpt>
      <trkpt lat="48.38069" lon="-2.73033">
        <ele>168.3</ele>
        <time>2020-07-02T13:21:17.000Z</time>
      </trkpt>
      <trkpt lat="48.3808" lon="-2.73029">
        <ele>168</ele>
        <time>2020-07-02T13:21:20.000Z</time>
      </trkpt>
      <trkpt lat="48.38089" lon="-2.73026">
        <ele>167.8</ele>
        <time>2020-07-02T13:21:22.000Z</time>
      </trkpt>
      <trkpt lat="48.38101" lon="-2.73029">
        <ele>167.6</ele>
        <time>2020-07-02T13:21:25.000Z</time>
      </trkpt>
      <trkpt lat="48.38111" lon="-2.7303">
        <ele>167.5</ele>
        <time>2020-07-02T13:21:28.000Z</time>
      </trkpt>
      <trkpt lat="48.38121" lon="-2.73033">
        <ele>167.7</ele>
        <time>2020-07-02T13:21:33.000Z</time>
      </trkpt>
      <trkpt lat="48.38131" lon="-2.73038">
        <ele>168.2</ele>
        <time>2020-07-02T13:21:38.000Z</time>
      </trkpt>
      <trkpt lat="48.3813" lon="-2.73052">
        <ele>169.2</ele>
        <time>2020-07-02T13:21:45.000Z</time>
      </trkpt>
      <trkpt lat="48.38129" lon="-2.73067">
        <ele>170.5</ele>
        <time>2020-07-02T13:21:52.000Z</time>
      </trkpt>
      <trkpt lat="48.38128" lon="-2.73081">
        <ele>171.8</ele>
        <time>2020-07-02T13:21:59.000Z</time>
      </trkpt>
      <trkpt lat="48.3813" lon="-2.73096">
        <ele>173.1</ele>
        <time>2020-07-02T13:22:07.000Z</time>
      </trkpt>
      <trkpt lat="48.38128" lon="-2.7311">
        <ele>173.9</ele>
        <time>2020-07-02T13:22:12.000Z</time>
      </trkpt>
      <trkpt lat="48.38128" lon="-2.73125">
        <ele>175.3</ele>
        <time>2020-07-02T13:22:20.000Z</time>
      </trkpt>
      <trkpt lat="48.38127" lon="-2.73139">
        <ele>176.2</ele>
        <time>2020-07-02T13:22:27.000Z</time>
      </trkpt>
      <trkpt lat="48.38126" lon="-2.73154">
        <ele>176.9</ele>
        <time>2020-07-02T13:22:32.000Z</time>
      </trkpt>
      <trkpt lat="48.38125" lon="-2.7317">
        <ele>177.7</ele>
        <time>2020-07-02T13:22:39.000Z</time>
      </trkpt>
      <trkpt lat="48.38123" lon="-2.73185">
        <ele>178.5</ele>
        <time>2020-07-02T13:22:46.000Z</time>
      </trkpt>
      <trkpt lat="48.38121" lon="-2.73198">
        <ele>179.8</ele>
        <time>2020-07-02T13:22:57.000Z</time>
      </trkpt>
      <trkpt lat="48.38121" lon="-2.73214">
        <ele>180.8</ele>
        <time>2020-07-02T13:23:05.000Z</time>
      </trkpt>
      <trkpt lat="48.38117" lon="-2.73228">
        <ele>182</ele>
        <time>2020-07-02T13:23:13.000Z</time>
      </trkpt>
      <trkpt lat="48.38114" lon="-2.7324">
        <ele>183.5</ele>
        <time>2020-07-02T13:23:22.000Z</time>
      </trkpt>
      <trkpt lat="48.38114" lon="-2.73241">
        <ele>184</ele>
        <time>2020-07-02T13:23:25.000Z</time>
      </trkpt>
      <trkpt lat="48.38112" lon="-2.73255">
        <ele>184</ele>
        <time>2020-07-02T13:23:37.000Z</time>
      </trkpt>
      <trkpt lat="48.38109" lon="-2.73266">
        <ele>184</ele>
        <time>2020-07-02T13:23:49.000Z</time>
      </trkpt>
      <trkpt lat="48.38107" lon="-2.7328">
        <ele>184.3</ele>
        <time>2020-07-02T13:24:01.000Z</time>
      </trkpt>
      <trkpt lat="48.38105" lon="-2.73294">
        <ele>185</ele>
        <time>2020-07-02T13:24:12.000Z</time>
      </trkpt>
      <trkpt lat="48.38105" lon="-2.73308">
        <ele>185.7</ele>
        <time>2020-07-02T13:24:23.000Z</time>
      </trkpt>
      <trkpt lat="48.38104" lon="-2.73311">
        <ele>186.1</ele>
        <time>2020-07-02T13:24:29.000Z</time>
      </trkpt>
      <trkpt lat="48.38102" lon="-2.73327">
        <ele>186.4</ele>
        <time>2020-07-02T13:24:41.000Z</time>
      </trkpt>
      <trkpt lat="48.38101" lon="-2.73341">
        <ele>186.6</ele>
        <time>2020-07-02T13:24:46.000Z</time>
      </trkpt>
      <trkpt lat="48.38099" lon="-2.73355">
        <ele>186.9</ele>
        <time>2020-07-02T13:24:51.000Z</time>
      </trkpt>
      <trkpt lat="48.38098" lon="-2.7337">
        <ele>187.1</ele>
        <time>2020-07-02T13:24:56.000Z</time>
      </trkpt>
      <trkpt lat="48.38098" lon="-2.73384">
        <ele>187.5</ele>
        <time>2020-07-02T13:25:01.000Z</time>
      </trkpt>
      <trkpt lat="48.38097" lon="-2.73399">
        <ele>187.9</ele>
        <time>2020-07-02T13:25:06.000Z</time>
      </trkpt>
      <trkpt lat="48.38096" lon="-2.73414">
        <ele>188.4</ele>
        <time>2020-07-02T13:25:11.000Z</time>
      </trkpt>
      <trkpt lat="48.38095" lon="-2.73428">
        <ele>188.8</ele>
        <time>2020-07-02T13:25:16.000Z</time>
      </trkpt>
      <trkpt lat="48.38093" lon="-2.73444">
        <ele>189.4</ele>
        <time>2020-07-02T13:25:22.000Z</time>
      </trkpt>
      <trkpt lat="48.38091" lon="-2.7346">
        <ele>190.1</ele>
        <time>2020-07-02T13:25:28.000Z</time>
      </trkpt>
      <trkpt lat="48.3809" lon="-2.73476">
        <ele>190.7</ele>
        <time>2020-07-02T13:25:33.000Z</time>
      </trkpt>
      <trkpt lat="48.38089" lon="-2.7349">
        <ele>191.3</ele>
        <time>2020-07-02T13:25:38.000Z</time>
      </trkpt>
      <trkpt lat="48.38087" lon="-2.73504">
        <ele>192</ele>
        <time>2020-07-02T13:25:43.000Z</time>
      </trkpt>
      <trkpt lat="48.38086" lon="-2.73519">
        <ele>192.7</ele>
        <time>2020-07-02T13:25:48.000Z</time>
      </trkpt>
      <trkpt lat="48.38089" lon="-2.73533">
        <ele>193.4</ele>
        <time>2020-07-02T13:25:54.000Z</time>
      </trkpt>
      <trkpt lat="48.38097" lon="-2.73542">
        <ele>194</ele>
        <time>2020-07-02T13:25:59.000Z</time>
      </trkpt>
      <trkpt lat="48.38106" lon="-2.73551">
        <ele>194.6</ele>
        <time>2020-07-02T13:26:04.000Z</time>
      </trkpt>
      <trkpt lat="48.38115" lon="-2.73559">
        <ele>195.4</ele>
        <time>2020-07-02T13:26:09.000Z</time>
      </trkpt>
      <trkpt lat="48.38125" lon="-2.73567">
        <ele>196.1</ele>
        <time>2020-07-02T13:26:14.000Z</time>
      </trkpt>
      <trkpt lat="48.38134" lon="-2.73575">
        <ele>196.8</ele>
        <time>2020-07-02T13:26:19.000Z</time>
      </trkpt>
      <trkpt lat="48.38142" lon="-2.73583">
        <ele>197.3</ele>
        <time>2020-07-02T13:26:23.000Z</time>
      </trkpt>
      <trkpt lat="48.3815" lon="-2.7359">
        <ele>197.9</ele>
        <time>2020-07-02T13:26:27.000Z</time>
      </trkpt>
      <trkpt lat="48.38157" lon="-2.73599">
        <ele>198.4</ele>
        <time>2020-07-02T13:26:31.000Z</time>
      </trkpt>
      <trkpt lat="48.38165" lon="-2.73609">
        <ele>199</ele>
        <time>2020-07-02T13:26:35.000Z</time>
      </trkpt>
      <trkpt lat="48.38173" lon="-2.73616">
        <ele>199.6</ele>
        <time>2020-07-02T13:26:39.000Z</time>
      </trkpt>
      <trkpt lat="48.38183" lon="-2.73613">
        <ele>200.2</ele>
        <time>2020-07-02T13:26:44.000Z</time>
      </trkpt>
      <trkpt lat="48.38192" lon="-2.7361">
        <ele>200.6</ele>
        <time>2020-07-02T13:26:48.000Z</time>
      </trkpt>
      <trkpt lat="48.38203" lon="-2.73607">
        <ele>201</ele>
        <time>2020-07-02T13:26:52.000Z</time>
      </trkpt>
      <trkpt lat="48.38212" lon="-2.73603">
        <ele>201.1</ele>
        <time>2020-07-02T13:26:55.000Z</time>
      </trkpt>
      <trkpt lat="48.38222" lon="-2.73599">
        <ele>201.1</ele>
        <time>2020-07-02T13:26:58.000Z</time>
      </trkpt>
      <trkpt lat="48.38234" lon="-2.73593">
        <ele>200.9</ele>
        <time>2020-07-02T13:27:01.000Z</time>
      </trkpt>
      <trkpt lat="48.38244" lon="-2.73588">
        <ele>200.8</ele>
        <time>2020-07-02T13:27:03.000Z</time>
      </trkpt>
      <trkpt lat="48.38256" lon="-2.73582">
        <ele>200.5</ele>
        <time>2020-07-02T13:27:05.000Z</time>
      </trkpt>
      <trkpt lat="48.3827" lon="-2.73575">
        <ele>200.1</ele>
        <time>2020-07-02T13:27:07.000Z</time>
      </trkpt>
      <trkpt lat="48.38285" lon="-2.73571">
        <ele>199.7</ele>
        <time>2020-07-02T13:27:09.000Z</time>
      </trkpt>
      <trkpt lat="48.38297" lon="-2.73576">
        <ele>199.3</ele>
        <time>2020-07-02T13:27:11.000Z</time>
      </trkpt>
      <trkpt lat="48.38305" lon="-2.73586">
        <ele>198.9</ele>
        <time>2020-07-02T13:27:13.000Z</time>
      </trkpt>
      <trkpt lat="48.38315" lon="-2.73597">
        <ele>198.6</ele>
        <time>2020-07-02T13:27:16.000Z</time>
      </trkpt>
      <trkpt lat="48.38325" lon="-2.73608">
        <ele>198.4</ele>
        <time>2020-07-02T13:27:20.000Z</time>
      </trkpt>
      <trkpt lat="48.38334" lon="-2.73618">
        <ele>198.5</ele>
        <time>2020-07-02T13:27:24.000Z</time>
      </trkpt>
      <trkpt lat="48.38343" lon="-2.73624">
        <ele>199</ele>
        <time>2020-07-02T13:27:29.000Z</time>
      </trkpt>
      <trkpt lat="48.38353" lon="-2.73619">
        <ele>199.8</ele>
        <time>2020-07-02T13:27:34.000Z</time>
      </trkpt>
      <trkpt lat="48.3836" lon="-2.73608">
        <ele>201.1</ele>
        <time>2020-07-02T13:27:39.000Z</time>
      </trkpt>
      <trkpt lat="48.38365" lon="-2.73593">
        <ele>202.5</ele>
        <time>2020-07-02T13:27:45.000Z</time>
      </trkpt>
      <trkpt lat="48.38371" lon="-2.73582">
        <ele>203.5</ele>
        <time>2020-07-02T13:27:50.000Z</time>
      </trkpt>
      <trkpt lat="48.3838" lon="-2.73574">
        <ele>204.4</ele>
        <time>2020-07-02T13:27:55.000Z</time>
      </trkpt>
      <trkpt lat="48.38389" lon="-2.7357">
        <ele>205.3</ele>
        <time>2020-07-02T13:28:00.000Z</time>
      </trkpt>
      <trkpt lat="48.38398" lon="-2.73568">
        <ele>206.2</ele>
        <time>2020-07-02T13:28:05.000Z</time>
      </trkpt>
      <trkpt lat="48.38407" lon="-2.73564">
        <ele>207.1</ele>
        <time>2020-07-02T13:28:10.000Z</time>
      </trkpt>
      <trkpt lat="48.38416" lon="-2.7356">
        <ele>208</ele>
        <time>2020-07-02T13:28:15.000Z</time>
      </trkpt>
      <trkpt lat="48.38424" lon="-2.73553">
        <ele>208.9</ele>
        <time>2020-07-02T13:28:20.000Z</time>
      </trkpt>
      <trkpt lat="48.38433" lon="-2.73546">
        <ele>210</ele>
        <time>2020-07-02T13:28:26.000Z</time>
      </trkpt>
      <trkpt lat="48.38441" lon="-2.73539">
        <ele>211</ele>
        <time>2020-07-02T13:28:31.000Z</time>
      </trkpt>
      <trkpt lat="48.38448" lon="-2.73529">
        <ele>211.9</ele>
        <time>2020-07-02T13:28:36.000Z</time>
      </trkpt>
      <trkpt lat="48.38454" lon="-2.73517">
        <ele>212.6</ele>
        <time>2020-07-02T13:28:41.000Z</time>
      </trkpt>
      <trkpt lat="48.3846" lon="-2.73505">
        <ele>213.2</ele>
        <time>2020-07-02T13:28:46.000Z</time>
      </trkpt>
      <trkpt lat="48.38467" lon="-2.73492">
        <ele>213.8</ele>
        <time>2020-07-02T13:28:51.000Z</time>
      </trkpt>
      <trkpt lat="48.38476" lon="-2.73484">
        <ele>214.3</ele>
        <time>2020-07-02T13:28:56.000Z</time>
      </trkpt>
      <trkpt lat="48.38486" lon="-2.73485">
        <ele>214.9</ele>
        <time>2020-07-02T13:29:01.000Z</time>
      </trkpt>
      <trkpt lat="48.38496" lon="-2.73488">
        <ele>215.6</ele>
        <time>2020-07-02T13:29:06.000Z</time>
      </trkpt>
      <trkpt lat="48.38506" lon="-2.73493">
        <ele>216.4</ele>
        <time>2020-07-02T13:29:11.000Z</time>
      </trkpt>
      <trkpt lat="48.38515" lon="-2.73497">
        <ele>217.1</ele>
        <time>2020-07-02T13:29:16.000Z</time>
      </trkpt>
      <trkpt lat="48.38524" lon="-2.73502">
        <ele>217.9</ele>
        <time>2020-07-02T13:29:21.000Z</time>
      </trkpt>
      <trkpt lat="48.38533" lon="-2.73507">
        <ele>218.9</ele>
        <time>2020-07-02T13:29:26.000Z</time>
      </trkpt>
      <trkpt lat="48.38542" lon="-2.7351">
        <ele>219.9</ele>
        <time>2020-07-02T13:29:31.000Z</time>
      </trkpt>
      <trkpt lat="48.38551" lon="-2.73514">
        <ele>220.9</ele>
        <time>2020-07-02T13:29:36.000Z</time>
      </trkpt>
      <trkpt lat="48.3856" lon="-2.73518">
        <ele>221.9</ele>
        <time>2020-07-02T13:29:41.000Z</time>
      </trkpt>
      <trkpt lat="48.3857" lon="-2.73521">
        <ele>223.1</ele>
        <time>2020-07-02T13:29:47.000Z</time>
      </trkpt>
      <trkpt lat="48.3858" lon="-2.73525">
        <ele>223.9</ele>
        <time>2020-07-02T13:29:52.000Z</time>
      </trkpt>
      <trkpt lat="48.38588" lon="-2.73529">
        <ele>224.8</ele>
        <time>2020-07-02T13:29:57.000Z</time>
      </trkpt>
      <trkpt lat="48.38598" lon="-2.73534">
        <ele>225.9</ele>
        <time>2020-07-02T13:30:02.000Z</time>
      </trkpt>
      <trkpt lat="48.38607" lon="-2.73538">
        <ele>227.2</ele>
        <time>2020-07-02T13:30:08.000Z</time>
      </trkpt>
      <trkpt lat="48.38617" lon="-2.73545">
        <ele>228.4</ele>
        <time>2020-07-02T13:30:14.000Z</time>
      </trkpt>
      <trkpt lat="48.38625" lon="-2.73551">
        <ele>229.3</ele>
        <time>2020-07-02T13:30:19.000Z</time>
      </trkpt>
      <trkpt lat="48.38634" lon="-2.73556">
        <ele>230.3</ele>
        <time>2020-07-02T13:30:24.000Z</time>
      </trkpt>
      <trkpt lat="48.38644" lon="-2.7356">
        <ele>231.6</ele>
        <time>2020-07-02T13:30:30.000Z</time>
      </trkpt>
      <trkpt lat="48.38654" lon="-2.73565">
        <ele>232.8</ele>
        <time>2020-07-02T13:30:36.000Z</time>
      </trkpt>
      <trkpt lat="48.38663" lon="-2.73573">
        <ele>233.9</ele>
        <time>2020-07-02T13:30:42.000Z</time>
      </trkpt>
      <trkpt lat="48.38673" lon="-2.73573">
        <ele>235.2</ele>
        <time>2020-07-02T13:30:49.000Z</time>
      </trkpt>
      <trkpt lat="48.38679" lon="-2.73561">
        <ele>236.3</ele>
        <time>2020-07-02T13:30:56.000Z</time>
      </trkpt>
      <trkpt lat="48.38684" lon="-2.73548">
        <ele>236.6</ele>
        <time>2020-07-02T13:31:01.000Z</time>
      </trkpt>
      <trkpt lat="48.38688" lon="-2.73537">
        <ele>236.8</ele>
        <time>2020-07-02T13:31:05.000Z</time>
      </trkpt>
      <trkpt lat="48.38694" lon="-2.73521">
        <ele>236.8</ele>
        <time>2020-07-02T13:31:09.000Z</time>
      </trkpt>
      <trkpt lat="48.38697" lon="-2.73507">
        <ele>236.8</ele>
        <time>2020-07-02T13:31:12.000Z</time>
      </trkpt>
      <trkpt lat="48.387" lon="-2.73491">
        <ele>236.6</ele>
        <time>2020-07-02T13:31:15.000Z</time>
      </trkpt>
      <trkpt lat="48.38702" lon="-2.73473">
        <ele>236.4</ele>
        <time>2020-07-02T13:31:18.000Z</time>
      </trkpt>
      <trkpt lat="48.38703" lon="-2.73459">
        <ele>236.3</ele>
        <time>2020-07-02T13:31:20.000Z</time>
      </trkpt>
      <trkpt lat="48.38704" lon="-2.73445">
        <ele>236.1</ele>
        <time>2020-07-02T13:31:22.000Z</time>
      </trkpt>
      <trkpt lat="48.38705" lon="-2.73431">
        <ele>235.9</ele>
        <time>2020-07-02T13:31:24.000Z</time>
      </trkpt>
      <trkpt lat="48.38706" lon="-2.73417">
        <ele>235.7</ele>
        <time>2020-07-02T13:31:26.000Z</time>
      </trkpt>
      <trkpt lat="48.38707" lon="-2.73403">
        <ele>235.5</ele>
        <time>2020-07-02T13:31:28.000Z</time>
      </trkpt>
      <trkpt lat="48.3871" lon="-2.73383">
        <ele>235.2</ele>
        <time>2020-07-02T13:31:31.000Z</time>
      </trkpt>
      <trkpt lat="48.38715" lon="-2.73366">
        <ele>235</ele>
        <time>2020-07-02T13:31:34.000Z</time>
      </trkpt>
      <trkpt lat="48.38719" lon="-2.7335">
        <ele>234.9</ele>
        <time>2020-07-02T13:31:37.000Z</time>
      </trkpt>
      <trkpt lat="48.38724" lon="-2.73335">
        <ele>234.9</ele>
        <time>2020-07-02T13:31:40.000Z</time>
      </trkpt>
      <trkpt lat="48.38728" lon="-2.73322">
        <ele>234.9</ele>
        <time>2020-07-02T13:31:43.000Z</time>
      </trkpt>
      <trkpt lat="48.38732" lon="-2.73309">
        <ele>234.9</ele>
        <time>2020-07-02T13:31:46.000Z</time>
      </trkpt>
      <trkpt lat="48.38736" lon="-2.73296">
        <ele>235</ele>
        <time>2020-07-02T13:31:49.000Z</time>
      </trkpt>
      <trkpt lat="48.38739" lon="-2.73278">
        <ele>235.1</ele>
        <time>2020-07-02T13:31:53.000Z</time>
      </trkpt>
      <trkpt lat="48.38742" lon="-2.73264">
        <ele>235.3</ele>
        <time>2020-07-02T13:31:56.000Z</time>
      </trkpt>
      <trkpt lat="48.38744" lon="-2.7325">
        <ele>235.5</ele>
        <time>2020-07-02T13:31:59.000Z</time>
      </trkpt>
      <trkpt lat="48.38744" lon="-2.73235">
        <ele>235.6</ele>
        <time>2020-07-02T13:32:02.000Z</time>
      </trkpt>
      <trkpt lat="48.38743" lon="-2.7322">
        <ele>235.6</ele>
        <time>2020-07-02T13:32:05.000Z</time>
      </trkpt>
      <trkpt lat="48.38741" lon="-2.73205">
        <ele>235.7</ele>
        <time>2020-07-02T13:32:08.000Z</time>
      </trkpt>
      <trkpt lat="48.38735" lon="-2.7319">
        <ele>235.8</ele>
        <time>2020-07-02T13:32:11.000Z</time>
      </trkpt>
      <trkpt lat="48.38729" lon="-2.73174">
        <ele>235.7</ele>
        <time>2020-07-02T13:32:14.000Z</time>
      </trkpt>
      <trkpt lat="48.38723" lon="-2.73161">
        <ele>235.7</ele>
        <time>2020-07-02T13:32:16.000Z</time>
      </trkpt>
      <trkpt lat="48.38717" lon="-2.73148">
        <ele>235.5</ele>
        <time>2020-07-02T13:32:18.000Z</time>
      </trkpt>
      <trkpt lat="48.38711" lon="-2.73132">
        <ele>235.4</ele>
        <time>2020-07-02T13:32:20.000Z</time>
      </trkpt>
      <trkpt lat="48.38705" lon="-2.73117">
        <ele>235.1</ele>
        <time>2020-07-02T13:32:22.000Z</time>
      </trkpt>
      <trkpt lat="48.38701" lon="-2.73101">
        <ele>234.8</ele>
        <time>2020-07-02T13:32:24.000Z</time>
      </trkpt>
      <trkpt lat="48.38697" lon="-2.73085">
        <ele>234.5</ele>
        <time>2020-07-02T13:32:26.000Z</time>
      </trkpt>
      <trkpt lat="48.38695" lon="-2.73068">
        <ele>234.2</ele>
        <time>2020-07-02T13:32:28.000Z</time>
      </trkpt>
      <trkpt lat="48.38694" lon="-2.73053">
        <ele>233.9</ele>
        <time>2020-07-02T13:32:30.000Z</time>
      </trkpt>
      <trkpt lat="48.38697" lon="-2.73039">
        <ele>233.6</ele>
        <time>2020-07-02T13:32:32.000Z</time>
      </trkpt>
      <trkpt lat="48.38707" lon="-2.73029">
        <ele>233.2</ele>
        <time>2020-07-02T13:32:35.000Z</time>
      </trkpt>
      <trkpt lat="48.38717" lon="-2.73028">
        <ele>233</ele>
        <time>2020-07-02T13:32:38.000Z</time>
      </trkpt>
      <trkpt lat="48.38729" lon="-2.73028">
        <ele>233.2</ele>
        <time>2020-07-02T13:32:42.000Z</time>
      </trkpt>
      <trkpt lat="48.38739" lon="-2.73028">
        <ele>233.6</ele>
        <time>2020-07-02T13:32:46.000Z</time>
      </trkpt>
      <trkpt lat="48.38749" lon="-2.73028">
        <ele>234.3</ele>
        <time>2020-07-02T13:32:50.000Z</time>
      </trkpt>
      <trkpt lat="48.38758" lon="-2.73031">
        <ele>235.1</ele>
        <time>2020-07-02T13:32:54.000Z</time>
      </trkpt>
      <trkpt lat="48.38766" lon="-2.73041">
        <ele>236</ele>
        <time>2020-07-02T13:32:59.000Z</time>
      </trkpt>
      <trkpt lat="48.38774" lon="-2.73048">
        <ele>236.7</ele>
        <time>2020-07-02T13:33:03.000Z</time>
      </trkpt>
      <trkpt lat="48.38781" lon="-2.73056">
        <ele>237.5</ele>
        <time>2020-07-02T13:33:07.000Z</time>
      </trkpt>
      <trkpt lat="48.3879" lon="-2.73061">
        <ele>238.3</ele>
        <time>2020-07-02T13:33:11.000Z</time>
      </trkpt>
      <trkpt lat="48.38798" lon="-2.73065">
        <ele>239.1</ele>
        <time>2020-07-02T13:33:15.000Z</time>
      </trkpt>
      <trkpt lat="48.38808" lon="-2.73069">
        <ele>239.8</ele>
        <time>2020-07-02T13:33:19.000Z</time>
      </trkpt>
      <trkpt lat="48.38818" lon="-2.73073">
        <ele>240.7</ele>
        <time>2020-07-02T13:33:23.000Z</time>
      </trkpt>
      <trkpt lat="48.38828" lon="-2.73077">
        <ele>241.7</ele>
        <time>2020-07-02T13:33:28.000Z</time>
      </trkpt>
      <trkpt lat="48.38837" lon="-2.73081">
        <ele>242.4</ele>
        <time>2020-07-02T13:33:32.000Z</time>
      </trkpt>
      <trkpt lat="48.38847" lon="-2.73085">
        <ele>243.3</ele>
        <time>2020-07-02T13:33:37.000Z</time>
      </trkpt>
      <trkpt lat="48.38857" lon="-2.7309">
        <ele>244.1</ele>
        <time>2020-07-02T13:33:42.000Z</time>
      </trkpt>
      <trkpt lat="48.38868" lon="-2.73093">
        <ele>244.7</ele>
        <time>2020-07-02T13:33:47.000Z</time>
      </trkpt>
      <trkpt lat="48.38877" lon="-2.73096">
        <ele>245.4</ele>
        <time>2020-07-02T13:33:52.000Z</time>
      </trkpt>
      <trkpt lat="48.38884" lon="-2.73085">
        <ele>245.9</ele>
        <time>2020-07-02T13:33:57.000Z</time>
      </trkpt>
      <trkpt lat="48.38885" lon="-2.7307">
        <ele>246.3</ele>
        <time>2020-07-02T13:34:02.000Z</time>
      </trkpt>
      <trkpt lat="48.38887" lon="-2.73054">
        <ele>246.6</ele>
        <time>2020-07-02T13:34:06.000Z</time>
      </trkpt>
      <trkpt lat="48.38888" lon="-2.73039">
        <ele>246.9</ele>
        <time>2020-07-02T13:34:10.000Z</time>
      </trkpt>
      <trkpt lat="48.38888" lon="-2.73024">
        <ele>247.3</ele>
        <time>2020-07-02T13:34:14.000Z</time>
      </trkpt>
      <trkpt lat="48.38888" lon="-2.73007">
        <ele>247.8</ele>
        <time>2020-07-02T13:34:18.000Z</time>
      </trkpt>
      <trkpt lat="48.38888" lon="-2.72991">
        <ele>248.2</ele>
        <time>2020-07-02T13:34:22.000Z</time>
      </trkpt>
      <trkpt lat="48.38889" lon="-2.72973">
        <ele>248.7</ele>
        <time>2020-07-02T13:34:26.000Z</time>
      </trkpt>
      <trkpt lat="48.38889" lon="-2.72956">
        <ele>249</ele>
        <time>2020-07-02T13:34:30.000Z</time>
      </trkpt>
      <trkpt lat="48.3889" lon="-2.72939">
        <ele>249.3</ele>
        <time>2020-07-02T13:34:34.000Z</time>
      </trkpt>
      <trkpt lat="48.38893" lon="-2.72921">
        <ele>249.5</ele>
        <time>2020-07-02T13:34:38.000Z</time>
      </trkpt>
      <trkpt lat="48.38895" lon="-2.72905">
        <ele>249.7</ele>
        <time>2020-07-02T13:34:42.000Z</time>
      </trkpt>
      <trkpt lat="48.38896" lon="-2.72889">
        <ele>249.9</ele>
        <time>2020-07-02T13:34:46.000Z</time>
      </trkpt>
      <trkpt lat="48.389" lon="-2.72874">
        <ele>250</ele>
        <time>2020-07-02T13:34:50.000Z</time>
      </trkpt>
      <trkpt lat="48.38901" lon="-2.72859">
        <ele>250.1</ele>
        <time>2020-07-02T13:34:54.000Z</time>
      </trkpt>
      <trkpt lat="48.38903" lon="-2.72843">
        <ele>250.2</ele>
        <time>2020-07-02T13:34:58.000Z</time>
      </trkpt>
      <trkpt lat="48.38904" lon="-2.72828">
        <ele>250.2</ele>
        <time>2020-07-02T13:35:02.000Z</time>
      </trkpt>
      <trkpt lat="48.38905" lon="-2.72814">
        <ele>250.3</ele>
        <time>2020-07-02T13:35:05.000Z</time>
      </trkpt>
      <trkpt lat="48.38907" lon="-2.728">
        <ele>250.3</ele>
        <time>2020-07-02T13:35:08.000Z</time>
      </trkpt>
      <trkpt lat="48.38907" lon="-2.72783">
        <ele>250.3</ele>
        <time>2020-07-02T13:35:12.000Z</time>
      </trkpt>
      <trkpt lat="48.38909" lon="-2.72766">
        <ele>250.3</ele>
        <time>2020-07-02T13:35:16.000Z</time>
      </trkpt>
      <trkpt lat="48.38911" lon="-2.72751">
        <ele>250.2</ele>
        <time>2020-07-02T13:35:20.000Z</time>
      </trkpt>
      <trkpt lat="48.38914" lon="-2.72737">
        <ele>250.1</ele>
        <time>2020-07-02T13:35:24.000Z</time>
      </trkpt>
      <trkpt lat="48.38916" lon="-2.72723">
        <ele>250</ele>
        <time>2020-07-02T13:35:28.000Z</time>
      </trkpt>
      <trkpt lat="48.38917" lon="-2.72707">
        <ele>250</ele>
        <time>2020-07-02T13:35:32.000Z</time>
      </trkpt>
      <trkpt lat="48.38915" lon="-2.72693">
        <ele>250</ele>
        <time>2020-07-02T13:35:36.000Z</time>
      </trkpt>
      <trkpt lat="48.38917" lon="-2.72677">
        <ele>249.9</ele>
        <time>2020-07-02T13:35:40.000Z</time>
      </trkpt>
      <trkpt lat="48.38918" lon="-2.7266">
        <ele>249.8</ele>
        <time>2020-07-02T13:35:44.000Z</time>
      </trkpt>
      <trkpt lat="48.3892" lon="-2.72647">
        <ele>249.7</ele>
        <time>2020-07-02T13:35:47.000Z</time>
      </trkpt>
      <trkpt lat="48.38921" lon="-2.72633">
        <ele>249.6</ele>
        <time>2020-07-02T13:35:50.000Z</time>
      </trkpt>
      <trkpt lat="48.38924" lon="-2.72616">
        <ele>249.5</ele>
        <time>2020-07-02T13:35:54.000Z</time>
      </trkpt>
      <trkpt lat="48.38924" lon="-2.72601">
        <ele>249.3</ele>
        <time>2020-07-02T13:35:57.000Z</time>
      </trkpt>
      <trkpt lat="48.38927" lon="-2.72585">
        <ele>249.2</ele>
        <time>2020-07-02T13:36:00.000Z</time>
      </trkpt>
      <trkpt lat="48.38931" lon="-2.72571">
        <ele>249</ele>
        <time>2020-07-02T13:36:03.000Z</time>
      </trkpt>
      <trkpt lat="48.38932" lon="-2.72557">
        <ele>248.9</ele>
        <time>2020-07-02T13:36:06.000Z</time>
      </trkpt>
      <trkpt lat="48.38933" lon="-2.72541">
        <ele>248.7</ele>
        <time>2020-07-02T13:36:09.000Z</time>
      </trkpt>
      <trkpt lat="48.38935" lon="-2.72524">
        <ele>248.5</ele>
        <time>2020-07-02T13:36:12.000Z</time>
      </trkpt>
      <trkpt lat="48.38936" lon="-2.72504">
        <ele>248.3</ele>
        <time>2020-07-02T13:36:15.000Z</time>
      </trkpt>
      <trkpt lat="48.38938" lon="-2.72485">
        <ele>248.2</ele>
        <time>2020-07-02T13:36:18.000Z</time>
      </trkpt>
      <trkpt lat="48.38939" lon="-2.7247">
        <ele>248</ele>
        <time>2020-07-02T13:36:21.000Z</time>
      </trkpt>
      <trkpt lat="48.38941" lon="-2.72455">
        <ele>247.8</ele>
        <time>2020-07-02T13:36:24.000Z</time>
      </trkpt>
      <trkpt lat="48.38943" lon="-2.72438">
        <ele>247.4</ele>
        <time>2020-07-02T13:36:27.000Z</time>
      </trkpt>
      <trkpt lat="48.38945" lon="-2.72421">
        <ele>246.9</ele>
        <time>2020-07-02T13:36:30.000Z</time>
      </trkpt>
      <trkpt lat="48.38954" lon="-2.72412">
        <ele>246.4</ele>
        <time>2020-07-02T13:36:33.000Z</time>
      </trkpt>
      <trkpt lat="48.38965" lon="-2.72409">
        <ele>245.7</ele>
        <time>2020-07-02T13:36:39.000Z</time>
      </trkpt>
      <trkpt lat="48.38974" lon="-2.72405">
        <ele>245.4</ele>
        <time>2020-07-02T13:36:46.000Z</time>
      </trkpt>
      <trkpt lat="48.38982" lon="-2.72401">
        <ele>245.3</ele>
        <time>2020-07-02T13:36:57.000Z</time>
      </trkpt>
      <trkpt lat="48.38993" lon="-2.72401">
        <ele>245.2</ele>
        <time>2020-07-02T13:37:02.000Z</time>
      </trkpt>
      <trkpt lat="48.39004" lon="-2.72406">
        <ele>245.2</ele>
        <time>2020-07-02T13:37:07.000Z</time>
      </trkpt>
      <trkpt lat="48.39013" lon="-2.7241">
        <ele>245.1</ele>
        <time>2020-07-02T13:37:09.000Z</time>
      </trkpt>
      <trkpt lat="48.39024" lon="-2.72417">
        <ele>244.8</ele>
        <time>2020-07-02T13:37:12.000Z</time>
      </trkpt>
      <trkpt lat="48.39033" lon="-2.72426">
        <ele>244.3</ele>
        <time>2020-07-02T13:37:15.000Z</time>
      </trkpt>
      <trkpt lat="48.39043" lon="-2.72433">
        <ele>243.4</ele>
        <time>2020-07-02T13:37:18.000Z</time>
      </trkpt>
      <trkpt lat="48.39053" lon="-2.72439">
        <ele>242.4</ele>
        <time>2020-07-02T13:37:21.000Z</time>
      </trkpt>
      <trkpt lat="48.39065" lon="-2.72445">
        <ele>241.2</ele>
        <time>2020-07-02T13:37:24.000Z</time>
      </trkpt>
      <trkpt lat="48.39078" lon="-2.72448">
        <ele>240.5</ele>
        <time>2020-07-02T13:37:26.000Z</time>
      </trkpt>
      <trkpt lat="48.39091" lon="-2.72452">
        <ele>239.7</ele>
        <time>2020-07-02T13:37:28.000Z</time>
      </trkpt>
      <trkpt lat="48.39103" lon="-2.72458">
        <ele>238.6</ele>
        <time>2020-07-02T13:37:31.000Z</time>
      </trkpt>
      <trkpt lat="48.39113" lon="-2.7246">
        <ele>237.9</ele>
        <time>2020-07-02T13:37:33.000Z</time>
      </trkpt>
      <trkpt lat="48.39127" lon="-2.72464">
        <ele>236.8</ele>
        <time>2020-07-02T13:37:36.000Z</time>
      </trkpt>
      <trkpt lat="48.39139" lon="-2.72468">
        <ele>236.1</ele>
        <time>2020-07-02T13:37:38.000Z</time>
      </trkpt>
      <trkpt lat="48.39151" lon="-2.72471">
        <ele>235.3</ele>
        <time>2020-07-02T13:37:40.000Z</time>
      </trkpt>
      <trkpt lat="48.39164" lon="-2.72476">
        <ele>234.5</ele>
        <time>2020-07-02T13:37:42.000Z</time>
      </trkpt>
      <trkpt lat="48.39178" lon="-2.72481">
        <ele>233.2</ele>
        <time>2020-07-02T13:37:45.000Z</time>
      </trkpt>
      <trkpt lat="48.39187" lon="-2.72485">
        <ele>232.3</ele>
        <time>2020-07-02T13:37:47.000Z</time>
      </trkpt>
      <trkpt lat="48.39196" lon="-2.72488">
        <ele>231.5</ele>
        <time>2020-07-02T13:37:49.000Z</time>
      </trkpt>
      <trkpt lat="48.39205" lon="-2.72491">
        <ele>230.6</ele>
        <time>2020-07-02T13:37:51.000Z</time>
      </trkpt>
      <trkpt lat="48.39217" lon="-2.72493">
        <ele>229.4</ele>
        <time>2020-07-02T13:37:54.000Z</time>
      </trkpt>
      <trkpt lat="48.39229" lon="-2.72495">
        <ele>228.2</ele>
        <time>2020-07-02T13:37:57.000Z</time>
      </trkpt>
      <trkpt lat="48.39241" lon="-2.72496">
        <ele>227.1</ele>
        <time>2020-07-02T13:38:00.000Z</time>
      </trkpt>
      <trkpt lat="48.39253" lon="-2.72498">
        <ele>226.3</ele>
        <time>2020-07-02T13:38:02.000Z</time>
      </trkpt>
      <trkpt lat="48.39264" lon="-2.725">
        <ele>225.1</ele>
        <time>2020-07-02T13:38:05.000Z</time>
      </trkpt>
      <trkpt lat="48.39275" lon="-2.72502">
        <ele>224.1</ele>
        <time>2020-07-02T13:38:08.000Z</time>
      </trkpt>
      <trkpt lat="48.39285" lon="-2.72503">
        <ele>223.1</ele>
        <time>2020-07-02T13:38:11.000Z</time>
      </trkpt>
      <trkpt lat="48.39295" lon="-2.72504">
        <ele>222.2</ele>
        <time>2020-07-02T13:38:14.000Z</time>
      </trkpt>
      <trkpt lat="48.39306" lon="-2.72506">
        <ele>220.9</ele>
        <time>2020-07-02T13:38:18.000Z</time>
      </trkpt>
      <trkpt lat="48.39318" lon="-2.72508">
        <ele>219.3</ele>
        <time>2020-07-02T13:38:23.000Z</time>
      </trkpt>
      <trkpt lat="48.39328" lon="-2.72508">
        <ele>217.7</ele>
        <time>2020-07-02T13:38:27.000Z</time>
      </trkpt>
      <trkpt lat="48.39338" lon="-2.7251">
        <ele>215.2</ele>
        <time>2020-07-02T13:38:36.000Z</time>
      </trkpt>
      <trkpt lat="48.39347" lon="-2.7251">
        <ele>213.3</ele>
        <time>2020-07-02T13:38:49.000Z</time>
      </trkpt>
      <trkpt lat="48.39347" lon="-2.7251">
        <ele>213.2</ele>
        <time>2020-07-02T13:38:49.000Z</time>
      </trkpt>
      <trkpt lat="48.39348" lon="-2.7251">
        <ele>213.2</ele>
        <time>2020-07-02T13:38:50.000Z</time>
      </trkpt>
      <trkpt lat="48.3936" lon="-2.7252">
        <ele>211.5</ele>
        <time>2020-07-02T13:39:27.000Z</time>
      </trkpt>
      <trkpt lat="48.39368" lon="-2.72533">
        <ele>211.3</ele>
        <time>2020-07-02T13:39:31.000Z</time>
      </trkpt>
      <trkpt lat="48.39376" lon="-2.72539">
        <ele>211</ele>
        <time>2020-07-02T13:39:34.000Z</time>
      </trkpt>
      <trkpt lat="48.39385" lon="-2.72545">
        <ele>210.8</ele>
        <time>2020-07-02T13:39:36.000Z</time>
      </trkpt>
      <trkpt lat="48.39396" lon="-2.72552">
        <ele>210.4</ele>
        <time>2020-07-02T13:39:39.000Z</time>
      </trkpt>
      <trkpt lat="48.39407" lon="-2.72558">
        <ele>210.1</ele>
        <time>2020-07-02T13:39:42.000Z</time>
      </trkpt>
      <trkpt lat="48.39416" lon="-2.72562">
        <ele>209.8</ele>
        <time>2020-07-02T13:39:44.000Z</time>
      </trkpt>
      <trkpt lat="48.39428" lon="-2.72568">
        <ele>209.4</ele>
        <time>2020-07-02T13:39:47.000Z</time>
      </trkpt>
      <trkpt lat="48.39437" lon="-2.72572">
        <ele>208.9</ele>
        <time>2020-07-02T13:39:50.000Z</time>
      </trkpt>
      <trkpt lat="48.39448" lon="-2.72575">
        <ele>208</ele>
        <time>2020-07-02T13:39:54.000Z</time>
      </trkpt>
      <trkpt lat="48.39457" lon="-2.72578">
        <ele>207.5</ele>
        <time>2020-07-02T13:39:57.000Z</time>
      </trkpt>
      <trkpt lat="48.39467" lon="-2.72581">
        <ele>206.9</ele>
        <time>2020-07-02T13:40:00.000Z</time>
      </trkpt>
      <trkpt lat="48.39479" lon="-2.72583">
        <ele>206.4</ele>
        <time>2020-07-02T13:40:04.000Z</time>
      </trkpt>
      <trkpt lat="48.39489" lon="-2.72585">
        <ele>205.9</ele>
        <time>2020-07-02T13:40:07.000Z</time>
      </trkpt>
      <trkpt lat="48.39498" lon="-2.72588">
        <ele>205.4</ele>
        <time>2020-07-02T13:40:10.000Z</time>
      </trkpt>
      <trkpt lat="48.39507" lon="-2.7259">
        <ele>205</ele>
        <time>2020-07-02T13:40:13.000Z</time>
      </trkpt>
      <trkpt lat="48.39516" lon="-2.72594">
        <ele>204.2</ele>
        <time>2020-07-02T13:40:18.000Z</time>
      </trkpt>
      <trkpt lat="48.3951" lon="-2.72608">
        <ele>203.7</ele>
        <time>2020-07-02T13:40:23.000Z</time>
      </trkpt>
      <trkpt lat="48.39504" lon="-2.72623">
        <ele>203.1</ele>
        <time>2020-07-02T13:40:27.000Z</time>
      </trkpt>
      <trkpt lat="48.395" lon="-2.72637">
        <ele>202.8</ele>
        <time>2020-07-02T13:40:30.000Z</time>
      </trkpt>
      <trkpt lat="48.39496" lon="-2.7265">
        <ele>202.6</ele>
        <time>2020-07-02T13:40:33.000Z</time>
      </trkpt>
      <trkpt lat="48.39492" lon="-2.72667">
        <ele>202.6</ele>
        <time>2020-07-02T13:40:37.000Z</time>
      </trkpt>
      <trkpt lat="48.39491" lon="-2.72683">
        <ele>202.5</ele>
        <time>2020-07-02T13:40:40.000Z</time>
      </trkpt>
      <trkpt lat="48.39487" lon="-2.72699">
        <ele>202.5</ele>
        <time>2020-07-02T13:40:43.000Z</time>
      </trkpt>
      <trkpt lat="48.39482" lon="-2.72718">
        <ele>202.5</ele>
        <time>2020-07-02T13:40:46.000Z</time>
      </trkpt>
      <trkpt lat="48.39477" lon="-2.72735">
        <ele>202.5</ele>
        <time>2020-07-02T13:40:49.000Z</time>
      </trkpt>
      <trkpt lat="48.39474" lon="-2.72749">
        <ele>202.6</ele>
        <time>2020-07-02T13:40:52.000Z</time>
      </trkpt>
      <trkpt lat="48.3947" lon="-2.72767">
        <ele>202.6</ele>
        <time>2020-07-02T13:40:55.000Z</time>
      </trkpt>
      <trkpt lat="48.39466" lon="-2.72787">
        <ele>202.7</ele>
        <time>2020-07-02T13:40:58.000Z</time>
      </trkpt>
      <trkpt lat="48.39463" lon="-2.728">
        <ele>202.8</ele>
        <time>2020-07-02T13:41:00.000Z</time>
      </trkpt>
      <trkpt lat="48.39459" lon="-2.72814">
        <ele>202.9</ele>
        <time>2020-07-02T13:41:02.000Z</time>
      </trkpt>
      <trkpt lat="48.39456" lon="-2.72827">
        <ele>202.9</ele>
        <time>2020-07-02T13:41:04.000Z</time>
      </trkpt>
      <trkpt lat="48.39451" lon="-2.72846">
        <ele>203</ele>
        <time>2020-07-02T13:41:07.000Z</time>
      </trkpt>
      <trkpt lat="48.39447" lon="-2.72863">
        <ele>203.2</ele>
        <time>2020-07-02T13:41:10.000Z</time>
      </trkpt>
      <trkpt lat="48.39442" lon="-2.7288">
        <ele>203.5</ele>
        <time>2020-07-02T13:41:13.000Z</time>
      </trkpt>
      <trkpt lat="48.39437" lon="-2.72896">
        <ele>203.7</ele>
        <time>2020-07-02T13:41:16.000Z</time>
      </trkpt>
      <trkpt lat="48.39432" lon="-2.7291">
        <ele>203.9</ele>
        <time>2020-07-02T13:41:19.000Z</time>
      </trkpt>
      <trkpt lat="48.39427" lon="-2.72923">
        <ele>204.2</ele>
        <time>2020-07-02T13:41:22.000Z</time>
      </trkpt>
      <trkpt lat="48.39422" lon="-2.72935">
        <ele>204.6</ele>
        <time>2020-07-02T13:41:25.000Z</time>
      </trkpt>
      <trkpt lat="48.39417" lon="-2.72947">
        <ele>204.8</ele>
        <time>2020-07-02T13:41:28.000Z</time>
      </trkpt>
      <trkpt lat="48.39411" lon="-2.72959">
        <ele>205.1</ele>
        <time>2020-07-02T13:41:31.000Z</time>
      </trkpt>
      <trkpt lat="48.39407" lon="-2.72973">
        <ele>205.4</ele>
        <time>2020-07-02T13:41:34.000Z</time>
      </trkpt>
      <trkpt lat="48.39402" lon="-2.72988">
        <ele>205.6</ele>
        <time>2020-07-02T13:41:37.000Z</time>
      </trkpt>
      <trkpt lat="48.39397" lon="-2.73006">
        <ele>205.7</ele>
        <time>2020-07-02T13:41:40.000Z</time>
      </trkpt>
      <trkpt lat="48.39391" lon="-2.73022">
        <ele>205.9</ele>
        <time>2020-07-02T13:41:43.000Z</time>
      </trkpt>
      <trkpt lat="48.39385" lon="-2.73037">
        <ele>206</ele>
        <time>2020-07-02T13:41:46.000Z</time>
      </trkpt>
      <trkpt lat="48.3938" lon="-2.73052">
        <ele>206</ele>
        <time>2020-07-02T13:41:49.000Z</time>
      </trkpt>
      <trkpt lat="48.39374" lon="-2.73065">
        <ele>206.1</ele>
        <time>2020-07-02T13:41:52.000Z</time>
      </trkpt>
      <trkpt lat="48.39367" lon="-2.73077">
        <ele>206.1</ele>
        <time>2020-07-02T13:41:55.000Z</time>
      </trkpt>
      <trkpt lat="48.39363" lon="-2.73091">
        <ele>206.1</ele>
        <time>2020-07-02T13:41:58.000Z</time>
      </trkpt>
      <trkpt lat="48.39357" lon="-2.73103">
        <ele>206.1</ele>
        <time>2020-07-02T13:42:01.000Z</time>
      </trkpt>
      <trkpt lat="48.3935" lon="-2.73114">
        <ele>206.1</ele>
        <time>2020-07-02T13:42:04.000Z</time>
      </trkpt>
      <trkpt lat="48.39343" lon="-2.73127">
        <ele>206.1</ele>
        <time>2020-07-02T13:42:07.000Z</time>
      </trkpt>
      <trkpt lat="48.3934" lon="-2.73142">
        <ele>206.1</ele>
        <time>2020-07-02T13:42:10.000Z</time>
      </trkpt>
      <trkpt lat="48.39337" lon="-2.73157">
        <ele>206.1</ele>
        <time>2020-07-02T13:42:13.000Z</time>
      </trkpt>
      <trkpt lat="48.39332" lon="-2.73171">
        <ele>206.1</ele>
        <time>2020-07-02T13:42:16.000Z</time>
      </trkpt>
      <trkpt lat="48.39327" lon="-2.73187">
        <ele>206.1</ele>
        <time>2020-07-02T13:42:19.000Z</time>
      </trkpt>
      <trkpt lat="48.39322" lon="-2.73203">
        <ele>206.1</ele>
        <time>2020-07-02T13:42:22.000Z</time>
      </trkpt>
      <trkpt lat="48.39319" lon="-2.73218">
        <ele>206.1</ele>
        <time>2020-07-02T13:42:25.000Z</time>
      </trkpt>
      <trkpt lat="48.39316" lon="-2.73232">
        <ele>206.1</ele>
        <time>2020-07-02T13:42:28.000Z</time>
      </trkpt>
      <trkpt lat="48.39313" lon="-2.73248">
        <ele>205.9</ele>
        <time>2020-07-02T13:42:32.000Z</time>
      </trkpt>
      <trkpt lat="48.39311" lon="-2.73265">
        <ele>205.8</ele>
        <time>2020-07-02T13:42:35.000Z</time>
      </trkpt>
      <trkpt lat="48.39311" lon="-2.73282">
        <ele>205.7</ele>
        <time>2020-07-02T13:42:38.000Z</time>
      </trkpt>
      <trkpt lat="48.39307" lon="-2.73299">
        <ele>205.6</ele>
        <time>2020-07-02T13:42:41.000Z</time>
      </trkpt>
      <trkpt lat="48.39302" lon="-2.73315">
        <ele>205.6</ele>
        <time>2020-07-02T13:42:44.000Z</time>
      </trkpt>
      <trkpt lat="48.39297" lon="-2.73331">
        <ele>205.6</ele>
        <time>2020-07-02T13:42:47.000Z</time>
      </trkpt>
      <trkpt lat="48.39292" lon="-2.73346">
        <ele>205.6</ele>
        <time>2020-07-02T13:42:50.000Z</time>
      </trkpt>
      <trkpt lat="48.39288" lon="-2.7336">
        <ele>205.8</ele>
        <time>2020-07-02T13:42:53.000Z</time>
      </trkpt>
      <trkpt lat="48.39284" lon="-2.73377">
        <ele>206.1</ele>
        <time>2020-07-02T13:42:57.000Z</time>
      </trkpt>
      <trkpt lat="48.39281" lon="-2.73394">
        <ele>206.5</ele>
        <time>2020-07-02T13:43:01.000Z</time>
      </trkpt>
      <trkpt lat="48.39278" lon="-2.73409">
        <ele>207</ele>
        <time>2020-07-02T13:43:05.000Z</time>
      </trkpt>
      <trkpt lat="48.39274" lon="-2.73425">
        <ele>207.6</ele>
        <time>2020-07-02T13:43:09.000Z</time>
      </trkpt>
      <trkpt lat="48.39273" lon="-2.73439">
        <ele>208.2</ele>
        <time>2020-07-02T13:43:13.000Z</time>
      </trkpt>
      <trkpt lat="48.39268" lon="-2.73452">
        <ele>209</ele>
        <time>2020-07-02T13:43:18.000Z</time>
      </trkpt>
      <trkpt lat="48.39263" lon="-2.73467">
        <ele>210.2</ele>
        <time>2020-07-02T13:43:23.000Z</time>
      </trkpt>
      <trkpt lat="48.39259" lon="-2.73479">
        <ele>211.2</ele>
        <time>2020-07-02T13:43:27.000Z</time>
      </trkpt>
      <trkpt lat="48.39254" lon="-2.73493">
        <ele>211.8</ele>
        <time>2020-07-02T13:43:31.000Z</time>
      </trkpt>
      <trkpt lat="48.39249" lon="-2.73508">
        <ele>212.3</ele>
        <time>2020-07-02T13:43:36.000Z</time>
      </trkpt>
      <trkpt lat="48.39245" lon="-2.73523">
        <ele>212.6</ele>
        <time>2020-07-02T13:43:41.000Z</time>
      </trkpt>
      <trkpt lat="48.39245" lon="-2.73537">
        <ele>212.7</ele>
        <time>2020-07-02T13:43:46.000Z</time>
      </trkpt>
      <trkpt lat="48.39243" lon="-2.73553">
        <ele>212.7</ele>
        <time>2020-07-02T13:43:52.000Z</time>
      </trkpt>
      <trkpt lat="48.39239" lon="-2.73565">
        <ele>212.7</ele>
        <time>2020-07-02T13:43:58.000Z</time>
      </trkpt>
      <trkpt lat="48.39235" lon="-2.73577">
        <ele>213.3</ele>
        <time>2020-07-02T13:44:04.000Z</time>
      </trkpt>
      <trkpt lat="48.39232" lon="-2.73591">
        <ele>214</ele>
        <time>2020-07-02T13:44:10.000Z</time>
      </trkpt>
      <trkpt lat="48.39227" lon="-2.73603">
        <ele>214.5</ele>
        <time>2020-07-02T13:44:15.000Z</time>
      </trkpt>
      <trkpt lat="48.3922" lon="-2.73616">
        <ele>214.8</ele>
        <time>2020-07-02T13:44:18.000Z</time>
      </trkpt>
      <trkpt lat="48.39212" lon="-2.73628">
        <ele>215.5</ele>
        <time>2020-07-02T13:44:23.000Z</time>
      </trkpt>
      <trkpt lat="48.39207" lon="-2.73641">
        <ele>216.1</ele>
        <time>2020-07-02T13:44:27.000Z</time>
      </trkpt>
      <trkpt lat="48.39204" lon="-2.73657">
        <ele>216.8</ele>
        <time>2020-07-02T13:44:32.000Z</time>
      </trkpt>
      <trkpt lat="48.39199" lon="-2.7367">
        <ele>217.1</ele>
        <time>2020-07-02T13:44:36.000Z</time>
      </trkpt>
      <trkpt lat="48.39198" lon="-2.73686">
        <ele>217.4</ele>
        <time>2020-07-02T13:44:41.000Z</time>
      </trkpt>
      <trkpt lat="48.39194" lon="-2.73701">
        <ele>217.8</ele>
        <time>2020-07-02T13:44:46.000Z</time>
      </trkpt>
      <trkpt lat="48.39192" lon="-2.73716">
        <ele>218.3</ele>
        <time>2020-07-02T13:44:51.000Z</time>
      </trkpt>
      <trkpt lat="48.39194" lon="-2.7373">
        <ele>219</ele>
        <time>2020-07-02T13:44:57.000Z</time>
      </trkpt>
      <trkpt lat="48.39193" lon="-2.73745">
        <ele>219.4</ele>
        <time>2020-07-02T13:45:02.000Z</time>
      </trkpt>
      <trkpt lat="48.39193" lon="-2.73759">
        <ele>220.1</ele>
        <time>2020-07-02T13:45:07.000Z</time>
      </trkpt>
      <trkpt lat="48.39193" lon="-2.73774">
        <ele>220.7</ele>
        <time>2020-07-02T13:45:12.000Z</time>
      </trkpt>
      <trkpt lat="48.39192" lon="-2.73788">
        <ele>221.6</ele>
        <time>2020-07-02T13:45:18.000Z</time>
      </trkpt>
      <trkpt lat="48.39195" lon="-2.73803">
        <ele>222.8</ele>
        <time>2020-07-02T13:45:24.000Z</time>
      </trkpt>
      <trkpt lat="48.39194" lon="-2.73817">
        <ele>223.7</ele>
        <time>2020-07-02T13:45:29.000Z</time>
      </trkpt>
      <trkpt lat="48.39194" lon="-2.73832">
        <ele>224.4</ele>
        <time>2020-07-02T13:45:34.000Z</time>
      </trkpt>
      <trkpt lat="48.39191" lon="-2.73846">
        <ele>224.9</ele>
        <time>2020-07-02T13:45:38.000Z</time>
      </trkpt>
      <trkpt lat="48.39189" lon="-2.73859">
        <ele>225.4</ele>
        <time>2020-07-02T13:45:42.000Z</time>
      </trkpt>
      <trkpt lat="48.3919" lon="-2.73875">
        <ele>226.2</ele>
        <time>2020-07-02T13:45:47.000Z</time>
      </trkpt>
      <trkpt lat="48.39186" lon="-2.73889">
        <ele>227.1</ele>
        <time>2020-07-02T13:45:52.000Z</time>
      </trkpt>
      <trkpt lat="48.39184" lon="-2.73903">
        <ele>227.9</ele>
        <time>2020-07-02T13:45:57.000Z</time>
      </trkpt>
      <trkpt lat="48.39179" lon="-2.73918">
        <ele>229</ele>
        <time>2020-07-02T13:46:03.000Z</time>
      </trkpt>
      <trkpt lat="48.39174" lon="-2.73932">
        <ele>230</ele>
        <time>2020-07-02T13:46:09.000Z</time>
      </trkpt>
      <trkpt lat="48.39169" lon="-2.73944">
        <ele>231.2</ele>
        <time>2020-07-02T13:46:15.000Z</time>
      </trkpt>
      <trkpt lat="48.39165" lon="-2.73958">
        <ele>232.5</ele>
        <time>2020-07-02T13:46:22.000Z</time>
      </trkpt>
      <trkpt lat="48.39163" lon="-2.73972">
        <ele>233.4</ele>
        <time>2020-07-02T13:46:28.000Z</time>
      </trkpt>
      <trkpt lat="48.39156" lon="-2.73984">
        <ele>234</ele>
        <time>2020-07-02T13:46:33.000Z</time>
      </trkpt>
      <trkpt lat="48.39151" lon="-2.73996">
        <ele>234.6</ele>
        <time>2020-07-02T13:46:39.000Z</time>
      </trkpt>
      <trkpt lat="48.39147" lon="-2.74009">
        <ele>235.1</ele>
        <time>2020-07-02T13:46:44.000Z</time>
      </trkpt>
      <trkpt lat="48.39142" lon="-2.74023">
        <ele>235.6</ele>
        <time>2020-07-02T13:46:49.000Z</time>
      </trkpt>
      <trkpt lat="48.39134" lon="-2.74036">
        <ele>236.1</ele>
        <time>2020-07-02T13:46:54.000Z</time>
      </trkpt>
      <trkpt lat="48.39128" lon="-2.74047">
        <ele>236.4</ele>
        <time>2020-07-02T13:46:58.000Z</time>
      </trkpt>
      <trkpt lat="48.39122" lon="-2.7406">
        <ele>236.6</ele>
        <time>2020-07-02T13:47:02.000Z</time>
      </trkpt>
      <trkpt lat="48.39115" lon="-2.74073">
        <ele>236.9</ele>
        <time>2020-07-02T13:47:07.000Z</time>
      </trkpt>
      <trkpt lat="48.39112" lon="-2.74087">
        <ele>237.1</ele>
        <time>2020-07-02T13:47:12.000Z</time>
      </trkpt>
      <trkpt lat="48.39105" lon="-2.74098">
        <ele>237.2</ele>
        <time>2020-07-02T13:47:16.000Z</time>
      </trkpt>
      <trkpt lat="48.39099" lon="-2.7411">
        <ele>237.4</ele>
        <time>2020-07-02T13:47:21.000Z</time>
      </trkpt>
      <trkpt lat="48.39092" lon="-2.74122">
        <ele>237.6</ele>
        <time>2020-07-02T13:47:26.000Z</time>
      </trkpt>
      <trkpt lat="48.39086" lon="-2.74134">
        <ele>237.9</ele>
        <time>2020-07-02T13:47:31.000Z</time>
      </trkpt>
      <trkpt lat="48.39079" lon="-2.74144">
        <ele>238.2</ele>
        <time>2020-07-02T13:47:35.000Z</time>
      </trkpt>
      <trkpt lat="48.39072" lon="-2.74155">
        <ele>238.5</ele>
        <time>2020-07-02T13:47:39.000Z</time>
      </trkpt>
      <trkpt lat="48.39066" lon="-2.74168">
        <ele>238.7</ele>
        <time>2020-07-02T13:47:44.000Z</time>
      </trkpt>
      <trkpt lat="48.39059" lon="-2.7418">
        <ele>238.9</ele>
        <time>2020-07-02T13:47:48.000Z</time>
      </trkpt>
      <trkpt lat="48.39051" lon="-2.7419">
        <ele>239.3</ele>
        <time>2020-07-02T13:47:53.000Z</time>
      </trkpt>
      <trkpt lat="48.39045" lon="-2.74201">
        <ele>239.6</ele>
        <time>2020-07-02T13:47:58.000Z</time>
      </trkpt>
      <trkpt lat="48.39043" lon="-2.74217">
        <ele>239.7</ele>
        <time>2020-07-02T13:48:06.000Z</time>
      </trkpt>
      <trkpt lat="48.39041" lon="-2.74232">
        <ele>239.7</ele>
        <time>2020-07-02T13:48:10.000Z</time>
      </trkpt>
      <trkpt lat="48.39039" lon="-2.74247">
        <ele>239.3</ele>
        <time>2020-07-02T13:48:14.000Z</time>
      </trkpt>
      <trkpt lat="48.39038" lon="-2.74261">
        <ele>239</ele>
        <time>2020-07-02T13:48:17.000Z</time>
      </trkpt>
      <trkpt lat="48.39038" lon="-2.74276">
        <ele>238.5</ele>
        <time>2020-07-02T13:48:20.000Z</time>
      </trkpt>
      <trkpt lat="48.39039" lon="-2.74293">
        <ele>238</ele>
        <time>2020-07-02T13:48:23.000Z</time>
      </trkpt>
      <trkpt lat="48.39039" lon="-2.74313">
        <ele>237.5</ele>
        <time>2020-07-02T13:48:26.000Z</time>
      </trkpt>
      <trkpt lat="48.3904" lon="-2.74328">
        <ele>237.1</ele>
        <time>2020-07-02T13:48:28.000Z</time>
      </trkpt>
      <trkpt lat="48.3904" lon="-2.74342">
        <ele>236.6</ele>
        <time>2020-07-02T13:48:30.000Z</time>
      </trkpt>
      <trkpt lat="48.39041" lon="-2.74357">
        <ele>236.2</ele>
        <time>2020-07-02T13:48:32.000Z</time>
      </trkpt>
      <trkpt lat="48.39041" lon="-2.74372">
        <ele>235.8</ele>
        <time>2020-07-02T13:48:34.000Z</time>
      </trkpt>
      <trkpt lat="48.39041" lon="-2.74388">
        <ele>235.4</ele>
        <time>2020-07-02T13:48:36.000Z</time>
      </trkpt>
      <trkpt lat="48.39042" lon="-2.74405">
        <ele>235</ele>
        <time>2020-07-02T13:48:38.000Z</time>
      </trkpt>
      <trkpt lat="48.39043" lon="-2.74423">
        <ele>234.6</ele>
        <time>2020-07-02T13:48:40.000Z</time>
      </trkpt>
      <trkpt lat="48.39043" lon="-2.74442">
        <ele>234.3</ele>
        <time>2020-07-02T13:48:42.000Z</time>
      </trkpt>
      <trkpt lat="48.39044" lon="-2.74461">
        <ele>233.9</ele>
        <time>2020-07-02T13:48:44.000Z</time>
      </trkpt>
      <trkpt lat="48.39045" lon="-2.74479">
        <ele>233.5</ele>
        <time>2020-07-02T13:48:46.000Z</time>
      </trkpt>
      <trkpt lat="48.39046" lon="-2.74495">
        <ele>233.2</ele>
        <time>2020-07-02T13:48:48.000Z</time>
      </trkpt>
      <trkpt lat="48.39047" lon="-2.74509">
        <ele>232.8</ele>
        <time>2020-07-02T13:48:50.000Z</time>
      </trkpt>
      <trkpt lat="48.39047" lon="-2.74523">
        <ele>232.6</ele>
        <time>2020-07-02T13:48:52.000Z</time>
      </trkpt>
      <trkpt lat="48.39048" lon="-2.74543">
        <ele>232.3</ele>
        <time>2020-07-02T13:48:55.000Z</time>
      </trkpt>
      <trkpt lat="48.3905" lon="-2.74563">
        <ele>232</ele>
        <time>2020-07-02T13:48:58.000Z</time>
      </trkpt>
      <trkpt lat="48.39051" lon="-2.74577">
        <ele>231.8</ele>
        <time>2020-07-02T13:49:00.000Z</time>
      </trkpt>
      <trkpt lat="48.39053" lon="-2.74596">
        <ele>231.6</ele>
        <time>2020-07-02T13:49:03.000Z</time>
      </trkpt>
      <trkpt lat="48.39056" lon="-2.74615">
        <ele>231.4</ele>
        <time>2020-07-02T13:49:06.000Z</time>
      </trkpt>
      <trkpt lat="48.39058" lon="-2.74628">
        <ele>231.2</ele>
        <time>2020-07-02T13:49:08.000Z</time>
      </trkpt>
      <trkpt lat="48.3906" lon="-2.74643">
        <ele>231.1</ele>
        <time>2020-07-02T13:49:10.000Z</time>
      </trkpt>
      <trkpt lat="48.39063" lon="-2.74656">
        <ele>230.9</ele>
        <time>2020-07-02T13:49:12.000Z</time>
      </trkpt>
      <trkpt lat="48.39065" lon="-2.7467">
        <ele>230.8</ele>
        <time>2020-07-02T13:49:14.000Z</time>
      </trkpt>
      <trkpt lat="48.39067" lon="-2.7469">
        <ele>230.6</ele>
        <time>2020-07-02T13:49:17.000Z</time>
      </trkpt>
      <trkpt lat="48.3907" lon="-2.74707">
        <ele>230.4</ele>
        <time>2020-07-02T13:49:20.000Z</time>
      </trkpt>
      <trkpt lat="48.39071" lon="-2.74721">
        <ele>230.2</ele>
        <time>2020-07-02T13:49:23.000Z</time>
      </trkpt>
      <trkpt lat="48.39072" lon="-2.74736">
        <ele>229.9</ele>
        <time>2020-07-02T13:49:26.000Z</time>
      </trkpt>
      <trkpt lat="48.39073" lon="-2.74751">
        <ele>229.7</ele>
        <time>2020-07-02T13:49:29.000Z</time>
      </trkpt>
      <trkpt lat="48.39077" lon="-2.74765">
        <ele>229.7</ele>
        <time>2020-07-02T13:49:32.000Z</time>
      </trkpt>
      <trkpt lat="48.39078" lon="-2.74781">
        <ele>229.7</ele>
        <time>2020-07-02T13:49:35.000Z</time>
      </trkpt>
      <trkpt lat="48.39081" lon="-2.74797">
        <ele>229.8</ele>
        <time>2020-07-02T13:49:38.000Z</time>
      </trkpt>
      <trkpt lat="48.39083" lon="-2.74814">
        <ele>230</ele>
        <time>2020-07-02T13:49:41.000Z</time>
      </trkpt>
      <trkpt lat="48.39087" lon="-2.7483">
        <ele>230.1</ele>
        <time>2020-07-02T13:49:44.000Z</time>
      </trkpt>
      <trkpt lat="48.3909" lon="-2.74846">
        <ele>230.2</ele>
        <time>2020-07-02T13:49:47.000Z</time>
      </trkpt>
      <trkpt lat="48.39095" lon="-2.74863">
        <ele>230.2</ele>
        <time>2020-07-02T13:49:50.000Z</time>
      </trkpt>
      <trkpt lat="48.39099" lon="-2.7488">
        <ele>230</ele>
        <time>2020-07-02T13:49:53.000Z</time>
      </trkpt>
      <trkpt lat="48.391" lon="-2.74893">
        <ele>229.6</ele>
        <time>2020-07-02T13:49:56.000Z</time>
      </trkpt>
      <trkpt lat="48.39102" lon="-2.74896">
        <ele>228.3</ele>
        <time>2020-07-02T13:50:03.000Z</time>
      </trkpt>
      <trkpt lat="48.3911" lon="-2.74903">
        <ele>224.1</ele>
        <time>2020-07-02T13:52:11.000Z</time>
      </trkpt>
      <trkpt lat="48.39121" lon="-2.74899">
        <ele>224</ele>
        <time>2020-07-02T13:52:15.000Z</time>
      </trkpt>
      <trkpt lat="48.39131" lon="-2.74894">
        <ele>223.9</ele>
        <time>2020-07-02T13:52:18.000Z</time>
      </trkpt>
      <trkpt lat="48.39143" lon="-2.74891">
        <ele>223.7</ele>
        <time>2020-07-02T13:52:21.000Z</time>
      </trkpt>
      <trkpt lat="48.39154" lon="-2.7489">
        <ele>223.5</ele>
        <time>2020-07-02T13:52:24.000Z</time>
      </trkpt>
      <trkpt lat="48.39166" lon="-2.74891">
        <ele>223.3</ele>
        <time>2020-07-02T13:52:27.000Z</time>
      </trkpt>
      <trkpt lat="48.39178" lon="-2.74892">
        <ele>223.1</ele>
        <time>2020-07-02T13:52:30.000Z</time>
      </trkpt>
      <trkpt lat="48.39191" lon="-2.74893">
        <ele>222.9</ele>
        <time>2020-07-02T13:52:33.000Z</time>
      </trkpt>
      <trkpt lat="48.392" lon="-2.74895">
        <ele>222.7</ele>
        <time>2020-07-02T13:52:35.000Z</time>
      </trkpt>
      <trkpt lat="48.39209" lon="-2.74896">
        <ele>222.5</ele>
        <time>2020-07-02T13:52:37.000Z</time>
      </trkpt>
      <trkpt lat="48.39219" lon="-2.74897">
        <ele>222.2</ele>
        <time>2020-07-02T13:52:39.000Z</time>
      </trkpt>
      <trkpt lat="48.39228" lon="-2.74898">
        <ele>222</ele>
        <time>2020-07-02T13:52:41.000Z</time>
      </trkpt>
      <trkpt lat="48.39238" lon="-2.74897">
        <ele>221.7</ele>
        <time>2020-07-02T13:52:43.000Z</time>
      </trkpt>
      <trkpt lat="48.39248" lon="-2.74897">
        <ele>221.4</ele>
        <time>2020-07-02T13:52:45.000Z</time>
      </trkpt>
      <trkpt lat="48.39259" lon="-2.74897">
        <ele>221</ele>
        <time>2020-07-02T13:52:47.000Z</time>
      </trkpt>
      <trkpt lat="48.39271" lon="-2.74897">
        <ele>220.7</ele>
        <time>2020-07-02T13:52:49.000Z</time>
      </trkpt>
      <trkpt lat="48.39283" lon="-2.74896">
        <ele>220.3</ele>
        <time>2020-07-02T13:52:51.000Z</time>
      </trkpt>
      <trkpt lat="48.39296" lon="-2.74896">
        <ele>220</ele>
        <time>2020-07-02T13:52:53.000Z</time>
      </trkpt>
      <trkpt lat="48.39309" lon="-2.74896">
        <ele>219.6</ele>
        <time>2020-07-02T13:52:55.000Z</time>
      </trkpt>
      <trkpt lat="48.39323" lon="-2.74898">
        <ele>219.2</ele>
        <time>2020-07-02T13:52:57.000Z</time>
      </trkpt>
      <trkpt lat="48.39337" lon="-2.74901">
        <ele>218.8</ele>
        <time>2020-07-02T13:52:59.000Z</time>
      </trkpt>
      <trkpt lat="48.39352" lon="-2.74906">
        <ele>218.3</ele>
        <time>2020-07-02T13:53:01.000Z</time>
      </trkpt>
      <trkpt lat="48.39366" lon="-2.74911">
        <ele>217.7</ele>
        <time>2020-07-02T13:53:03.000Z</time>
      </trkpt>
      <trkpt lat="48.39381" lon="-2.74916">
        <ele>217.1</ele>
        <time>2020-07-02T13:53:05.000Z</time>
      </trkpt>
      <trkpt lat="48.39395" lon="-2.74922">
        <ele>216.6</ele>
        <time>2020-07-02T13:53:07.000Z</time>
      </trkpt>
      <trkpt lat="48.3941" lon="-2.74927">
        <ele>216.1</ele>
        <time>2020-07-02T13:53:09.000Z</time>
      </trkpt>
      <trkpt lat="48.39426" lon="-2.74932">
        <ele>215.5</ele>
        <time>2020-07-02T13:53:11.000Z</time>
      </trkpt>
      <trkpt lat="48.39441" lon="-2.74935">
        <ele>214.9</ele>
        <time>2020-07-02T13:53:13.000Z</time>
      </trkpt>
      <trkpt lat="48.39455" lon="-2.74938">
        <ele>214.3</ele>
        <time>2020-07-02T13:53:15.000Z</time>
      </trkpt>
      <trkpt lat="48.3947" lon="-2.74939">
        <ele>213.7</ele>
        <time>2020-07-02T13:53:17.000Z</time>
      </trkpt>
      <trkpt lat="48.39485" lon="-2.74941">
        <ele>213.2</ele>
        <time>2020-07-02T13:53:19.000Z</time>
      </trkpt>
      <trkpt lat="48.395" lon="-2.74943">
        <ele>212.7</ele>
        <time>2020-07-02T13:53:21.000Z</time>
      </trkpt>
      <trkpt lat="48.39515" lon="-2.74945">
        <ele>212.2</ele>
        <time>2020-07-02T13:53:23.000Z</time>
      </trkpt>
      <trkpt lat="48.3953" lon="-2.74947">
        <ele>211.6</ele>
        <time>2020-07-02T13:53:25.000Z</time>
      </trkpt>
      <trkpt lat="48.39544" lon="-2.74948">
        <ele>211.1</ele>
        <time>2020-07-02T13:53:27.000Z</time>
      </trkpt>
      <trkpt lat="48.39558" lon="-2.74949">
        <ele>210.6</ele>
        <time>2020-07-02T13:53:29.000Z</time>
      </trkpt>
      <trkpt lat="48.39571" lon="-2.7495">
        <ele>210</ele>
        <time>2020-07-02T13:53:31.000Z</time>
      </trkpt>
      <trkpt lat="48.39582" lon="-2.7495">
        <ele>209.4</ele>
        <time>2020-07-02T13:53:33.000Z</time>
      </trkpt>
      <trkpt lat="48.39591" lon="-2.74951">
        <ele>208.8</ele>
        <time>2020-07-02T13:53:35.000Z</time>
      </trkpt>
      <trkpt lat="48.396" lon="-2.74949">
        <ele>206.6</ele>
        <time>2020-07-02T13:53:42.000Z</time>
      </trkpt>
      <trkpt lat="48.396" lon="-2.74949">
        <ele>205.5</ele>
        <time>2020-07-02T13:53:45.000Z</time>
      </trkpt>
      <trkpt lat="48.39605" lon="-2.74934">
        <ele>203.4</ele>
        <time>2020-07-02T13:53:57.000Z</time>
      </trkpt>
      <trkpt lat="48.39607" lon="-2.74921">
        <ele>202.9</ele>
        <time>2020-07-02T13:54:00.000Z</time>
      </trkpt>
      <trkpt lat="48.3961" lon="-2.74907">
        <ele>202.5</ele>
        <time>2020-07-02T13:54:03.000Z</time>
      </trkpt>
      <trkpt lat="48.39613" lon="-2.74893">
        <ele>202</ele>
        <time>2020-07-02T13:54:06.000Z</time>
      </trkpt>
      <trkpt lat="48.39616" lon="-2.74879">
        <ele>201.5</ele>
        <time>2020-07-02T13:54:09.000Z</time>
      </trkpt>
      <trkpt lat="48.3962" lon="-2.74863">
        <ele>201</ele>
        <time>2020-07-02T13:54:12.000Z</time>
      </trkpt>
      <trkpt lat="48.39625" lon="-2.74847">
        <ele>200.5</ele>
        <time>2020-07-02T13:54:15.000Z</time>
      </trkpt>
      <trkpt lat="48.39634" lon="-2.74832">
        <ele>200.1</ele>
        <time>2020-07-02T13:54:18.000Z</time>
      </trkpt>
      <trkpt lat="48.39644" lon="-2.7482">
        <ele>199.8</ele>
        <time>2020-07-02T13:54:21.000Z</time>
      </trkpt>
      <trkpt lat="48.39653" lon="-2.74808">
        <ele>199.6</ele>
        <time>2020-07-02T13:54:24.000Z</time>
      </trkpt>
      <trkpt lat="48.39659" lon="-2.74792">
        <ele>199.4</ele>
        <time>2020-07-02T13:54:27.000Z</time>
      </trkpt>
      <trkpt lat="48.39664" lon="-2.74777">
        <ele>199.3</ele>
        <time>2020-07-02T13:54:30.000Z</time>
      </trkpt>
      <trkpt lat="48.39667" lon="-2.74759">
        <ele>199.2</ele>
        <time>2020-07-02T13:54:33.000Z</time>
      </trkpt>
      <trkpt lat="48.39671" lon="-2.7474">
        <ele>199.2</ele>
        <time>2020-07-02T13:54:36.000Z</time>
      </trkpt>
      <trkpt lat="48.39675" lon="-2.74722">
        <ele>199.1</ele>
        <time>2020-07-02T13:54:39.000Z</time>
      </trkpt>
      <trkpt lat="48.39679" lon="-2.74703">
        <ele>199.1</ele>
        <time>2020-07-02T13:54:42.000Z</time>
      </trkpt>
      <trkpt lat="48.39685" lon="-2.74685">
        <ele>199.1</ele>
        <time>2020-07-02T13:54:45.000Z</time>
      </trkpt>
      <trkpt lat="48.39689" lon="-2.74673">
        <ele>199</ele>
        <time>2020-07-02T13:54:47.000Z</time>
      </trkpt>
      <trkpt lat="48.39693" lon="-2.7466">
        <ele>199</ele>
        <time>2020-07-02T13:54:49.000Z</time>
      </trkpt>
      <trkpt lat="48.39697" lon="-2.74647">
        <ele>198.9</ele>
        <time>2020-07-02T13:54:51.000Z</time>
      </trkpt>
      <trkpt lat="48.39701" lon="-2.74634">
        <ele>198.7</ele>
        <time>2020-07-02T13:54:53.000Z</time>
      </trkpt>
      <trkpt lat="48.39704" lon="-2.7462">
        <ele>198.5</ele>
        <time>2020-07-02T13:54:55.000Z</time>
      </trkpt>
      <trkpt lat="48.39707" lon="-2.74605">
        <ele>198.4</ele>
        <time>2020-07-02T13:54:57.000Z</time>
      </trkpt>
      <trkpt lat="48.39709" lon="-2.74591">
        <ele>198.2</ele>
        <time>2020-07-02T13:54:59.000Z</time>
      </trkpt>
      <trkpt lat="48.39713" lon="-2.74573">
        <ele>198.1</ele>
        <time>2020-07-02T13:55:02.000Z</time>
      </trkpt>
      <trkpt lat="48.39716" lon="-2.74557">
        <ele>198</ele>
        <time>2020-07-02T13:55:06.000Z</time>
      </trkpt>
      <trkpt lat="48.3972" lon="-2.74542">
        <ele>197.9</ele>
        <time>2020-07-02T13:55:13.000Z</time>
      </trkpt>
      <trkpt lat="48.39722" lon="-2.74529">
        <ele>197.9</ele>
        <time>2020-07-02T13:55:16.000Z</time>
      </trkpt>
      <trkpt lat="48.39726" lon="-2.74514">
        <ele>197.7</ele>
        <time>2020-07-02T13:55:19.000Z</time>
      </trkpt>
      <trkpt lat="48.39731" lon="-2.745">
        <ele>197.5</ele>
        <time>2020-07-02T13:55:22.000Z</time>
      </trkpt>
      <trkpt lat="48.39735" lon="-2.74485">
        <ele>197.3</ele>
        <time>2020-07-02T13:55:25.000Z</time>
      </trkpt>
      <trkpt lat="48.3974" lon="-2.7447">
        <ele>197.2</ele>
        <time>2020-07-02T13:55:28.000Z</time>
      </trkpt>
      <trkpt lat="48.39745" lon="-2.74454">
        <ele>197</ele>
        <time>2020-07-02T13:55:31.000Z</time>
      </trkpt>
      <trkpt lat="48.3975" lon="-2.74437">
        <ele>196.8</ele>
        <time>2020-07-02T13:55:34.000Z</time>
      </trkpt>
      <trkpt lat="48.39755" lon="-2.74425">
        <ele>196.7</ele>
        <time>2020-07-02T13:55:36.000Z</time>
      </trkpt>
      <trkpt lat="48.39759" lon="-2.74412">
        <ele>196.6</ele>
        <time>2020-07-02T13:55:38.000Z</time>
      </trkpt>
      <trkpt lat="48.39764" lon="-2.74399">
        <ele>196.4</ele>
        <time>2020-07-02T13:55:40.000Z</time>
      </trkpt>
      <trkpt lat="48.39769" lon="-2.74386">
        <ele>196.3</ele>
        <time>2020-07-02T13:55:42.000Z</time>
      </trkpt>
      <trkpt lat="48.39773" lon="-2.74372">
        <ele>196.1</ele>
        <time>2020-07-02T13:55:44.000Z</time>
      </trkpt>
      <trkpt lat="48.39777" lon="-2.74358">
        <ele>195.9</ele>
        <time>2020-07-02T13:55:46.000Z</time>
      </trkpt>
      <trkpt lat="48.39781" lon="-2.74344">
        <ele>195.7</ele>
        <time>2020-07-02T13:55:48.000Z</time>
      </trkpt>
      <trkpt lat="48.39785" lon="-2.7433">
        <ele>195.6</ele>
        <time>2020-07-02T13:55:50.000Z</time>
      </trkpt>
      <trkpt lat="48.39789" lon="-2.74317">
        <ele>195.4</ele>
        <time>2020-07-02T13:55:52.000Z</time>
      </trkpt>
      <trkpt lat="48.39798" lon="-2.74304">
        <ele>195.2</ele>
        <time>2020-07-02T13:55:55.000Z</time>
      </trkpt>
      <trkpt lat="48.3981" lon="-2.74309">
        <ele>195.1</ele>
        <time>2020-07-02T13:55:58.000Z</time>
      </trkpt>
      <trkpt lat="48.39817" lon="-2.74316">
        <ele>195</ele>
        <time>2020-07-02T13:56:00.000Z</time>
      </trkpt>
      <trkpt lat="48.39825" lon="-2.74324">
        <ele>194.9</ele>
        <time>2020-07-02T13:56:02.000Z</time>
      </trkpt>
      <trkpt lat="48.39835" lon="-2.74337">
        <ele>194.7</ele>
        <time>2020-07-02T13:56:05.000Z</time>
      </trkpt>
      <trkpt lat="48.3984" lon="-2.74349">
        <ele>194.6</ele>
        <time>2020-07-02T13:56:07.000Z</time>
      </trkpt>
      <trkpt lat="48.39842" lon="-2.74365">
        <ele>194.4</ele>
        <time>2020-07-02T13:56:09.000Z</time>
      </trkpt>
      <trkpt lat="48.39841" lon="-2.74383">
        <ele>194.2</ele>
        <time>2020-07-02T13:56:11.000Z</time>
      </trkpt>
      <trkpt lat="48.39838" lon="-2.74402">
        <ele>194</ele>
        <time>2020-07-02T13:56:13.000Z</time>
      </trkpt>
      <trkpt lat="48.39835" lon="-2.74422">
        <ele>193.8</ele>
        <time>2020-07-02T13:56:15.000Z</time>
      </trkpt>
      <trkpt lat="48.39835" lon="-2.74441">
        <ele>193.6</ele>
        <time>2020-07-02T13:56:17.000Z</time>
      </trkpt>
      <trkpt lat="48.39837" lon="-2.74458">
        <ele>193.5</ele>
        <time>2020-07-02T13:56:19.000Z</time>
      </trkpt>
      <trkpt lat="48.39838" lon="-2.74472">
        <ele>193.3</ele>
        <time>2020-07-02T13:56:21.000Z</time>
      </trkpt>
      <trkpt lat="48.39844" lon="-2.74488">
        <ele>193.3</ele>
        <time>2020-07-02T13:56:24.000Z</time>
      </trkpt>
      <trkpt lat="48.39849" lon="-2.74503">
        <ele>193.5</ele>
        <time>2020-07-02T13:56:27.000Z</time>
      </trkpt>
      <trkpt lat="48.39854" lon="-2.74514">
        <ele>194</ele>
        <time>2020-07-02T13:56:30.000Z</time>
      </trkpt>
      <trkpt lat="48.39859" lon="-2.74528">
        <ele>194.5</ele>
        <time>2020-07-02T13:56:33.000Z</time>
      </trkpt>
      <trkpt lat="48.39864" lon="-2.74542">
        <ele>195.3</ele>
        <time>2020-07-02T13:56:36.000Z</time>
      </trkpt>
      <trkpt lat="48.3987" lon="-2.74557">
        <ele>196.1</ele>
        <time>2020-07-02T13:56:40.000Z</time>
      </trkpt>
      <trkpt lat="48.39879" lon="-2.74557">
        <ele>196.7</ele>
        <time>2020-07-02T13:56:44.000Z</time>
      </trkpt>
      <trkpt lat="48.39888" lon="-2.74548">
        <ele>197.2</ele>
        <time>2020-07-02T13:56:48.000Z</time>
      </trkpt>
      <trkpt lat="48.39896" lon="-2.74538">
        <ele>197.7</ele>
        <time>2020-07-02T13:56:52.000Z</time>
      </trkpt>
      <trkpt lat="48.39903" lon="-2.74529">
        <ele>198.3</ele>
        <time>2020-07-02T13:56:56.000Z</time>
      </trkpt>
      <trkpt lat="48.3991" lon="-2.74517">
        <ele>198.8</ele>
        <time>2020-07-02T13:57:00.000Z</time>
      </trkpt>
      <trkpt lat="48.39918" lon="-2.74506">
        <ele>199.3</ele>
        <time>2020-07-02T13:57:04.000Z</time>
      </trkpt>
      <trkpt lat="48.39924" lon="-2.74494">
        <ele>199.8</ele>
        <time>2020-07-02T13:57:08.000Z</time>
      </trkpt>
      <trkpt lat="48.39931" lon="-2.74481">
        <ele>200.2</ele>
        <time>2020-07-02T13:57:12.000Z</time>
      </trkpt>
      <trkpt lat="48.39937" lon="-2.74471">
        <ele>200.4</ele>
        <time>2020-07-02T13:57:15.000Z</time>
      </trkpt>
      <trkpt lat="48.39943" lon="-2.7446">
        <ele>200.4</ele>
        <time>2020-07-02T13:57:18.000Z</time>
      </trkpt>
      <trkpt lat="48.39951" lon="-2.74448">
        <ele>200.3</ele>
        <time>2020-07-02T13:57:21.000Z</time>
      </trkpt>
      <trkpt lat="48.3996" lon="-2.74435">
        <ele>200.2</ele>
        <time>2020-07-02T13:57:24.000Z</time>
      </trkpt>
      <trkpt lat="48.39967" lon="-2.74426">
        <ele>200</ele>
        <time>2020-07-02T13:57:26.000Z</time>
      </trkpt>
      <trkpt lat="48.39975" lon="-2.74417">
        <ele>199.7</ele>
        <time>2020-07-02T13:57:28.000Z</time>
      </trkpt>
      <trkpt lat="48.39984" lon="-2.74411">
        <ele>199.4</ele>
        <time>2020-07-02T13:57:30.000Z</time>
      </trkpt>
      <trkpt lat="48.39994" lon="-2.74408">
        <ele>199.2</ele>
        <time>2020-07-02T13:57:32.000Z</time>
      </trkpt>
      <trkpt lat="48.40004" lon="-2.7441">
        <ele>198.9</ele>
        <time>2020-07-02T13:57:34.000Z</time>
      </trkpt>
      <trkpt lat="48.40014" lon="-2.74412">
        <ele>198.7</ele>
        <time>2020-07-02T13:57:36.000Z</time>
      </trkpt>
      <trkpt lat="48.40024" lon="-2.74415">
        <ele>198.5</ele>
        <time>2020-07-02T13:57:38.000Z</time>
      </trkpt>
      <trkpt lat="48.40032" lon="-2.74419">
        <ele>198.3</ele>
        <time>2020-07-02T13:57:40.000Z</time>
      </trkpt>
      <trkpt lat="48.40044" lon="-2.74425">
        <ele>198</ele>
        <time>2020-07-02T13:57:43.000Z</time>
      </trkpt>
      <trkpt lat="48.40056" lon="-2.74432">
        <ele>197.8</ele>
        <time>2020-07-02T13:57:46.000Z</time>
      </trkpt>
      <trkpt lat="48.40068" lon="-2.74439">
        <ele>197.7</ele>
        <time>2020-07-02T13:57:49.000Z</time>
      </trkpt>
      <trkpt lat="48.40079" lon="-2.74447">
        <ele>197.6</ele>
        <time>2020-07-02T13:57:52.000Z</time>
      </trkpt>
      <trkpt lat="48.4009" lon="-2.74456">
        <ele>197.5</ele>
        <time>2020-07-02T13:57:55.000Z</time>
      </trkpt>
      <trkpt lat="48.40098" lon="-2.74463">
        <ele>197.4</ele>
        <time>2020-07-02T13:57:57.000Z</time>
      </trkpt>
      <trkpt lat="48.40106" lon="-2.74471">
        <ele>197.2</ele>
        <time>2020-07-02T13:57:59.000Z</time>
      </trkpt>
      <trkpt lat="48.40116" lon="-2.74483">
        <ele>197.1</ele>
        <time>2020-07-02T13:58:02.000Z</time>
      </trkpt>
      <trkpt lat="48.40126" lon="-2.74494">
        <ele>197</ele>
        <time>2020-07-02T13:58:05.000Z</time>
      </trkpt>
      <trkpt lat="48.40135" lon="-2.74505">
        <ele>196.8</ele>
        <time>2020-07-02T13:58:08.000Z</time>
      </trkpt>
      <trkpt lat="48.40143" lon="-2.74514">
        <ele>196.7</ele>
        <time>2020-07-02T13:58:11.000Z</time>
      </trkpt>
      <trkpt lat="48.4015" lon="-2.74523">
        <ele>196.6</ele>
        <time>2020-07-02T13:58:14.000Z</time>
      </trkpt>
      <trkpt lat="48.40157" lon="-2.74534">
        <ele>196.4</ele>
        <time>2020-07-02T13:58:18.000Z</time>
      </trkpt>
      <trkpt lat="48.40153" lon="-2.74551">
        <ele>196.1</ele>
        <time>2020-07-02T13:58:22.000Z</time>
      </trkpt>
      <trkpt lat="48.40147" lon="-2.74562">
        <ele>195.9</ele>
        <time>2020-07-02T13:58:25.000Z</time>
      </trkpt>
      <trkpt lat="48.40142" lon="-2.74573">
        <ele>195.8</ele>
        <time>2020-07-02T13:58:28.000Z</time>
      </trkpt>
      <trkpt lat="48.40137" lon="-2.74586">
        <ele>195.7</ele>
        <time>2020-07-02T13:58:31.000Z</time>
      </trkpt>
      <trkpt lat="48.40133" lon="-2.74603">
        <ele>195.7</ele>
        <time>2020-07-02T13:58:35.000Z</time>
      </trkpt>
      <trkpt lat="48.40131" lon="-2.74619">
        <ele>196</ele>
        <time>2020-07-02T13:58:39.000Z</time>
      </trkpt>
      <trkpt lat="48.40129" lon="-2.74633">
        <ele>196.2</ele>
        <time>2020-07-02T13:58:42.000Z</time>
      </trkpt>
      <trkpt lat="48.40127" lon="-2.74647">
        <ele>196.5</ele>
        <time>2020-07-02T13:58:45.000Z</time>
      </trkpt>
      <trkpt lat="48.40126" lon="-2.74661">
        <ele>196.9</ele>
        <time>2020-07-02T13:58:48.000Z</time>
      </trkpt>
      <trkpt lat="48.40125" lon="-2.74675">
        <ele>197.4</ele>
        <time>2020-07-02T13:58:51.000Z</time>
      </trkpt>
      <trkpt lat="48.40124" lon="-2.74688">
        <ele>197.8</ele>
        <time>2020-07-02T13:58:54.000Z</time>
      </trkpt>
      <trkpt lat="48.40123" lon="-2.74706">
        <ele>198.4</ele>
        <time>2020-07-02T13:58:58.000Z</time>
      </trkpt>
      <trkpt lat="48.40121" lon="-2.74724">
        <ele>199.2</ele>
        <time>2020-07-02T13:59:02.000Z</time>
      </trkpt>
      <trkpt lat="48.40118" lon="-2.74738">
        <ele>199.8</ele>
        <time>2020-07-02T13:59:05.000Z</time>
      </trkpt>
      <trkpt lat="48.40116" lon="-2.74751">
        <ele>200.4</ele>
        <time>2020-07-02T13:59:08.000Z</time>
      </trkpt>
      <trkpt lat="48.40126" lon="-2.74757">
        <ele>201.7</ele>
        <time>2020-07-02T13:59:15.000Z</time>
      </trkpt>
      <trkpt lat="48.40135" lon="-2.74753">
        <ele>202.4</ele>
        <time>2020-07-02T13:59:19.000Z</time>
      </trkpt>
      <trkpt lat="48.40147" lon="-2.7475">
        <ele>202.8</ele>
        <time>2020-07-02T13:59:23.000Z</time>
      </trkpt>
      <trkpt lat="48.4016" lon="-2.74747">
        <ele>202.8</ele>
        <time>2020-07-02T13:59:26.000Z</time>
      </trkpt>
      <trkpt lat="48.4017" lon="-2.74747">
        <ele>202.8</ele>
        <time>2020-07-02T13:59:28.000Z</time>
      </trkpt>
      <trkpt lat="48.4018" lon="-2.74746">
        <ele>202.8</ele>
        <time>2020-07-02T13:59:30.000Z</time>
      </trkpt>
      <trkpt lat="48.4019" lon="-2.74746">
        <ele>202.7</ele>
        <time>2020-07-02T13:59:32.000Z</time>
      </trkpt>
      <trkpt lat="48.40202" lon="-2.74744">
        <ele>202.5</ele>
        <time>2020-07-02T13:59:35.000Z</time>
      </trkpt>
      <trkpt lat="48.40215" lon="-2.74736">
        <ele>202.1</ele>
        <time>2020-07-02T13:59:38.000Z</time>
      </trkpt>
      <trkpt lat="48.40223" lon="-2.74724">
        <ele>201.7</ele>
        <time>2020-07-02T13:59:40.000Z</time>
      </trkpt>
      <trkpt lat="48.40231" lon="-2.74712">
        <ele>201.3</ele>
        <time>2020-07-02T13:59:42.000Z</time>
      </trkpt>
      <trkpt lat="48.4024" lon="-2.747">
        <ele>200.9</ele>
        <time>2020-07-02T13:59:44.000Z</time>
      </trkpt>
      <trkpt lat="48.40251" lon="-2.74691">
        <ele>200.5</ele>
        <time>2020-07-02T13:59:46.000Z</time>
      </trkpt>
      <trkpt lat="48.40261" lon="-2.74683">
        <ele>200.1</ele>
        <time>2020-07-02T13:59:48.000Z</time>
      </trkpt>
      <trkpt lat="48.40271" lon="-2.74677">
        <ele>199.8</ele>
        <time>2020-07-02T13:59:50.000Z</time>
      </trkpt>
      <trkpt lat="48.4028" lon="-2.74674">
        <ele>199.4</ele>
        <time>2020-07-02T13:59:52.000Z</time>
      </trkpt>
      <trkpt lat="48.40293" lon="-2.74673">
        <ele>198.9</ele>
        <time>2020-07-02T13:59:55.000Z</time>
      </trkpt>
      <trkpt lat="48.40303" lon="-2.74673">
        <ele>198.6</ele>
        <time>2020-07-02T13:59:57.000Z</time>
      </trkpt>
      <trkpt lat="48.40314" lon="-2.74677">
        <ele>198.1</ele>
        <time>2020-07-02T14:00:00.000Z</time>
      </trkpt>
      <trkpt lat="48.40321" lon="-2.74691">
        <ele>197.3</ele>
        <time>2020-07-02T14:00:04.000Z</time>
      </trkpt>
      <trkpt lat="48.4032" lon="-2.74707">
        <ele>196.3</ele>
        <time>2020-07-02T14:00:09.000Z</time>
      </trkpt>
      <trkpt lat="48.40317" lon="-2.7472">
        <ele>195.7</ele>
        <time>2020-07-02T14:00:12.000Z</time>
      </trkpt>
      <trkpt lat="48.40314" lon="-2.74737">
        <ele>195</ele>
        <time>2020-07-02T14:00:15.000Z</time>
      </trkpt>
      <trkpt lat="48.40312" lon="-2.74755">
        <ele>194.4</ele>
        <time>2020-07-02T14:00:18.000Z</time>
      </trkpt>
      <trkpt lat="48.4031" lon="-2.74773">
        <ele>193.6</ele>
        <time>2020-07-02T14:00:21.000Z</time>
      </trkpt>
      <trkpt lat="48.4031" lon="-2.74786">
        <ele>193.2</ele>
        <time>2020-07-02T14:00:23.000Z</time>
      </trkpt>
      <trkpt lat="48.40309" lon="-2.748">
        <ele>192.8</ele>
        <time>2020-07-02T14:00:25.000Z</time>
      </trkpt>
      <trkpt lat="48.40308" lon="-2.74814">
        <ele>192.4</ele>
        <time>2020-07-02T14:00:27.000Z</time>
      </trkpt>
      <trkpt lat="48.40306" lon="-2.74832">
        <ele>192.1</ele>
        <time>2020-07-02T14:00:30.000Z</time>
      </trkpt>
      <trkpt lat="48.40306" lon="-2.7485">
        <ele>191.6</ele>
        <time>2020-07-02T14:00:33.000Z</time>
      </trkpt>
      <trkpt lat="48.40302" lon="-2.74867">
        <ele>191.3</ele>
        <time>2020-07-02T14:00:36.000Z</time>
      </trkpt>
      <trkpt lat="48.40295" lon="-2.74882">
        <ele>191.1</ele>
        <time>2020-07-02T14:00:39.000Z</time>
      </trkpt>
      <trkpt lat="48.40288" lon="-2.74892">
        <ele>191.1</ele>
        <time>2020-07-02T14:00:43.000Z</time>
      </trkpt>
      <trkpt lat="48.40296" lon="-2.74902">
        <ele>191</ele>
        <time>2020-07-02T14:00:49.000Z</time>
      </trkpt>
      <trkpt lat="48.40308" lon="-2.74905">
        <ele>190.7</ele>
        <time>2020-07-02T14:00:51.000Z</time>
      </trkpt>
      <trkpt lat="48.40319" lon="-2.7491">
        <ele>190.1</ele>
        <time>2020-07-02T14:00:53.000Z</time>
      </trkpt>
      <trkpt lat="48.40332" lon="-2.74919">
        <ele>189.3</ele>
        <time>2020-07-02T14:00:55.000Z</time>
      </trkpt>
      <trkpt lat="48.40344" lon="-2.74929">
        <ele>188.3</ele>
        <time>2020-07-02T14:00:57.000Z</time>
      </trkpt>
      <trkpt lat="48.40354" lon="-2.74937">
        <ele>187.4</ele>
        <time>2020-07-02T14:00:59.000Z</time>
      </trkpt>
      <trkpt lat="48.40362" lon="-2.74946">
        <ele>186.6</ele>
        <time>2020-07-02T14:01:01.000Z</time>
      </trkpt>
      <trkpt lat="48.40369" lon="-2.74956">
        <ele>185.5</ele>
        <time>2020-07-02T14:01:04.000Z</time>
      </trkpt>
      <trkpt lat="48.40378" lon="-2.74964">
        <ele>184.7</ele>
        <time>2020-07-02T14:01:08.000Z</time>
      </trkpt>
      <trkpt lat="48.40389" lon="-2.74964">
        <ele>184.2</ele>
        <time>2020-07-02T14:01:11.000Z</time>
      </trkpt>
      <trkpt lat="48.40398" lon="-2.74971">
        <ele>183.6</ele>
        <time>2020-07-02T14:01:14.000Z</time>
      </trkpt>
      <trkpt lat="48.40408" lon="-2.7498">
        <ele>182.9</ele>
        <time>2020-07-02T14:01:17.000Z</time>
      </trkpt>
      <trkpt lat="48.40418" lon="-2.74985">
        <ele>182.2</ele>
        <time>2020-07-02T14:01:20.000Z</time>
      </trkpt>
      <trkpt lat="48.40429" lon="-2.74993">
        <ele>181.2</ele>
        <time>2020-07-02T14:01:23.000Z</time>
      </trkpt>
      <trkpt lat="48.40437" lon="-2.75005">
        <ele>179.9</ele>
        <time>2020-07-02T14:01:26.000Z</time>
      </trkpt>
      <trkpt lat="48.40442" lon="-2.75023">
        <ele>178.7</ele>
        <time>2020-07-02T14:01:29.000Z</time>
      </trkpt>
      <trkpt lat="48.40445" lon="-2.75041">
        <ele>177.4</ele>
        <time>2020-07-02T14:01:32.000Z</time>
      </trkpt>
      <trkpt lat="48.40445" lon="-2.75054">
        <ele>176.4</ele>
        <time>2020-07-02T14:01:35.000Z</time>
      </trkpt>
      <trkpt lat="48.40443" lon="-2.75069">
        <ele>175.4</ele>
        <time>2020-07-02T14:01:39.000Z</time>
      </trkpt>
      <trkpt lat="48.4044" lon="-2.75083">
        <ele>174.8</ele>
        <time>2020-07-02T14:01:43.000Z</time>
      </trkpt>
      <trkpt lat="48.40445" lon="-2.75098">
        <ele>174.2</ele>
        <time>2020-07-02T14:01:49.000Z</time>
      </trkpt>
      <trkpt lat="48.40448" lon="-2.75111">
        <ele>173.6</ele>
        <time>2020-07-02T14:01:53.000Z</time>
      </trkpt>
      <trkpt lat="48.40442" lon="-2.75125">
        <ele>173.2</ele>
        <time>2020-07-02T14:01:57.000Z</time>
      </trkpt>
      <trkpt lat="48.40437" lon="-2.75137">
        <ele>173</ele>
        <time>2020-07-02T14:02:01.000Z</time>
      </trkpt>
      <trkpt lat="48.40431" lon="-2.75152">
        <ele>172.8</ele>
        <time>2020-07-02T14:02:05.000Z</time>
      </trkpt>
      <trkpt lat="48.40424" lon="-2.75166">
        <ele>172.7</ele>
        <time>2020-07-02T14:02:09.000Z</time>
      </trkpt>
      <trkpt lat="48.40419" lon="-2.75179">
        <ele>172.5</ele>
        <time>2020-07-02T14:02:13.000Z</time>
      </trkpt>
      <trkpt lat="48.40415" lon="-2.75194">
        <ele>172.4</ele>
        <time>2020-07-02T14:02:17.000Z</time>
      </trkpt>
      <trkpt lat="48.4041" lon="-2.75208">
        <ele>172</ele>
        <time>2020-07-02T14:02:21.000Z</time>
      </trkpt>
      <trkpt lat="48.40405" lon="-2.75223">
        <ele>171.7</ele>
        <time>2020-07-02T14:02:25.000Z</time>
      </trkpt>
      <trkpt lat="48.404" lon="-2.75235">
        <ele>171.5</ele>
        <time>2020-07-02T14:02:29.000Z</time>
      </trkpt>
      <trkpt lat="48.40395" lon="-2.75249">
        <ele>171.1</ele>
        <time>2020-07-02T14:02:35.000Z</time>
      </trkpt>
      <trkpt lat="48.40388" lon="-2.75259">
        <ele>170.8</ele>
        <time>2020-07-02T14:02:41.000Z</time>
      </trkpt>
      <trkpt lat="48.40379" lon="-2.75254">
        <ele>170.9</ele>
        <time>2020-07-02T14:02:46.000Z</time>
      </trkpt>
      <trkpt lat="48.40372" lon="-2.75246">
        <ele>171.4</ele>
        <time>2020-07-02T14:02:52.000Z</time>
      </trkpt>
      <trkpt lat="48.40364" lon="-2.75235">
        <ele>172</ele>
        <time>2020-07-02T14:02:59.000Z</time>
      </trkpt>
      <trkpt lat="48.40361" lon="-2.7522">
        <ele>172.9</ele>
        <time>2020-07-02T14:03:06.000Z</time>
      </trkpt>
      <trkpt lat="48.4036" lon="-2.75205">
        <ele>173.7</ele>
        <time>2020-07-02T14:03:12.000Z</time>
      </trkpt>
      <trkpt lat="48.40358" lon="-2.75192">
        <ele>174.5</ele>
        <time>2020-07-02T14:03:18.000Z</time>
      </trkpt>
      <trkpt lat="48.40354" lon="-2.75179">
        <ele>175.4</ele>
        <time>2020-07-02T14:03:24.000Z</time>
      </trkpt>
      <trkpt lat="48.40344" lon="-2.75174">
        <ele>176.8</ele>
        <time>2020-07-02T14:03:31.000Z</time>
      </trkpt>
      <trkpt lat="48.40336" lon="-2.75184">
        <ele>178.5</ele>
        <time>2020-07-02T14:03:39.000Z</time>
      </trkpt>
      <trkpt lat="48.40332" lon="-2.75196">
        <ele>179.9</ele>
        <time>2020-07-02T14:03:46.000Z</time>
      </trkpt>
      <trkpt lat="48.40331" lon="-2.7521">
        <ele>181.3</ele>
        <time>2020-07-02T14:03:53.000Z</time>
      </trkpt>
      <trkpt lat="48.4033" lon="-2.75224">
        <ele>182.3</ele>
        <time>2020-07-02T14:04:00.000Z</time>
      </trkpt>
      <trkpt lat="48.4033" lon="-2.75239">
        <ele>182.9</ele>
        <time>2020-07-02T14:04:06.000Z</time>
      </trkpt>
      <trkpt lat="48.40329" lon="-2.75254">
        <ele>183.4</ele>
        <time>2020-07-02T14:04:12.000Z</time>
      </trkpt>
      <trkpt lat="48.4033" lon="-2.75268">
        <ele>183.9</ele>
        <time>2020-07-02T14:04:18.000Z</time>
      </trkpt>
      <trkpt lat="48.40332" lon="-2.75282">
        <ele>184.3</ele>
        <time>2020-07-02T14:04:23.000Z</time>
      </trkpt>
      <trkpt lat="48.40332" lon="-2.75297">
        <ele>184.8</ele>
        <time>2020-07-02T14:04:28.000Z</time>
      </trkpt>
      <trkpt lat="48.40335" lon="-2.75312">
        <ele>185.1</ele>
        <time>2020-07-02T14:04:33.000Z</time>
      </trkpt>
      <trkpt lat="48.40337" lon="-2.75328">
        <ele>185.4</ele>
        <time>2020-07-02T14:04:38.000Z</time>
      </trkpt>
      <trkpt lat="48.40338" lon="-2.75344">
        <ele>185.7</ele>
        <time>2020-07-02T14:04:43.000Z</time>
      </trkpt>
      <trkpt lat="48.40336" lon="-2.75358">
        <ele>186.1</ele>
        <time>2020-07-02T14:04:47.000Z</time>
      </trkpt>
      <trkpt lat="48.40331" lon="-2.75372">
        <ele>186.5</ele>
        <time>2020-07-02T14:04:52.000Z</time>
      </trkpt>
      <trkpt lat="48.40327" lon="-2.75386">
        <ele>187</ele>
        <time>2020-07-02T14:04:58.000Z</time>
      </trkpt>
      <trkpt lat="48.40323" lon="-2.75399">
        <ele>188</ele>
        <time>2020-07-02T14:05:05.000Z</time>
      </trkpt>
      <trkpt lat="48.40319" lon="-2.75414">
        <ele>189.2</ele>
        <time>2020-07-02T14:05:12.000Z</time>
      </trkpt>
      <trkpt lat="48.40321" lon="-2.75429">
        <ele>189.6</ele>
        <time>2020-07-02T14:05:16.000Z</time>
      </trkpt>
      <trkpt lat="48.40322" lon="-2.75444">
        <ele>189.9</ele>
        <time>2020-07-02T14:05:20.000Z</time>
      </trkpt>
      <trkpt lat="48.40324" lon="-2.75462">
        <ele>189.8</ele>
        <time>2020-07-02T14:05:24.000Z</time>
      </trkpt>
      <trkpt lat="48.40326" lon="-2.75476">
        <ele>189.5</ele>
        <time>2020-07-02T14:05:27.000Z</time>
      </trkpt>
      <trkpt lat="48.40327" lon="-2.75493">
        <ele>189</ele>
        <time>2020-07-02T14:05:30.000Z</time>
      </trkpt>
      <trkpt lat="48.4033" lon="-2.75508">
        <ele>188.4</ele>
        <time>2020-07-02T14:05:33.000Z</time>
      </trkpt>
      <trkpt lat="48.40332" lon="-2.75524">
        <ele>187.5</ele>
        <time>2020-07-02T14:05:36.000Z</time>
      </trkpt>
      <trkpt lat="48.40333" lon="-2.75541">
        <ele>186.1</ele>
        <time>2020-07-02T14:05:40.000Z</time>
      </trkpt>
      <trkpt lat="48.40335" lon="-2.75561">
        <ele>184.8</ele>
        <time>2020-07-02T14:05:43.000Z</time>
      </trkpt>
      <trkpt lat="48.40338" lon="-2.75576">
        <ele>182.6</ele>
        <time>2020-07-02T14:05:47.000Z</time>
      </trkpt>
      <trkpt lat="48.40335" lon="-2.75589">
        <ele>180.9</ele>
        <time>2020-07-02T14:05:50.000Z</time>
      </trkpt>
      <trkpt lat="48.40332" lon="-2.75607">
        <ele>179.3</ele>
        <time>2020-07-02T14:05:53.000Z</time>
      </trkpt>
      <trkpt lat="48.40324" lon="-2.75621">
        <ele>177.8</ele>
        <time>2020-07-02T14:05:56.000Z</time>
      </trkpt>
      <trkpt lat="48.40315" lon="-2.75628">
        <ele>176.5</ele>
        <time>2020-07-02T14:05:59.000Z</time>
      </trkpt>
      <trkpt lat="48.40306" lon="-2.75631">
        <ele>175.7</ele>
        <time>2020-07-02T14:06:01.000Z</time>
      </trkpt>
      <trkpt lat="48.40295" lon="-2.75634">
        <ele>174.6</ele>
        <time>2020-07-02T14:06:04.000Z</time>
      </trkpt>
      <trkpt lat="48.40283" lon="-2.75636">
        <ele>173.8</ele>
        <time>2020-07-02T14:06:07.000Z</time>
      </trkpt>
      <trkpt lat="48.40273" lon="-2.75641">
        <ele>173.1</ele>
        <time>2020-07-02T14:06:10.000Z</time>
      </trkpt>
      <trkpt lat="48.40264" lon="-2.75647">
        <ele>172.5</ele>
        <time>2020-07-02T14:06:14.000Z</time>
      </trkpt>
      <trkpt lat="48.40255" lon="-2.75652">
        <ele>171.1</ele>
        <time>2020-07-02T14:06:28.000Z</time>
      </trkpt>
      <trkpt lat="48.40255" lon="-2.75652">
        <ele>171</ele>
        <time>2020-07-02T14:06:28.000Z</time>
      </trkpt>
      <trkpt lat="48.40255" lon="-2.75652">
        <ele>171</ele>
        <time>2020-07-02T14:06:28.000Z</time>
      </trkpt>
      <trkpt lat="48.40252" lon="-2.75648">
        <ele>168.6</ele>
        <time>2020-07-02T14:07:31.000Z</time>
      </trkpt>
      <trkpt lat="48.40254" lon="-2.7565">
        <ele>169</ele>
        <time>2020-07-02T14:08:39.000Z</time>
      </trkpt>
      <trkpt lat="48.40262" lon="-2.75644">
        <ele>168.9</ele>
        <time>2020-07-02T14:09:05.000Z</time>
      </trkpt>
      <trkpt lat="48.40272" lon="-2.75642">
        <ele>168.8</ele>
        <time>2020-07-02T14:09:10.000Z</time>
      </trkpt>
      <trkpt lat="48.40283" lon="-2.75639">
        <ele>169</ele>
        <time>2020-07-02T14:09:16.000Z</time>
      </trkpt>
      <trkpt lat="48.40295" lon="-2.7564">
        <ele>169</ele>
        <time>2020-07-02T14:09:20.000Z</time>
      </trkpt>
      <trkpt lat="48.40304" lon="-2.7564">
        <ele>169.2</ele>
        <time>2020-07-02T14:09:26.000Z</time>
      </trkpt>
      <trkpt lat="48.40314" lon="-2.75635">
        <ele>169.5</ele>
        <time>2020-07-02T14:09:30.000Z</time>
      </trkpt>
      <trkpt lat="48.40322" lon="-2.75625">
        <ele>170.2</ele>
        <time>2020-07-02T14:09:36.000Z</time>
      </trkpt>
      <trkpt lat="48.40329" lon="-2.75617">
        <ele>170.9</ele>
        <time>2020-07-02T14:09:40.000Z</time>
      </trkpt>
      <trkpt lat="48.40337" lon="-2.75608">
        <ele>172.1</ele>
        <time>2020-07-02T14:09:48.000Z</time>
      </trkpt>
      <trkpt lat="48.40343" lon="-2.756">
        <ele>173.5</ele>
        <time>2020-07-02T14:10:02.000Z</time>
      </trkpt>
      <trkpt lat="48.40344" lon="-2.75586">
        <ele>174</ele>
        <time>2020-07-02T14:10:13.000Z</time>
      </trkpt>
      <trkpt lat="48.40342" lon="-2.75573">
        <ele>175.4</ele>
        <time>2020-07-02T14:10:24.000Z</time>
      </trkpt>
      <trkpt lat="48.40341" lon="-2.75558">
        <ele>176.9</ele>
        <time>2020-07-02T14:10:34.000Z</time>
      </trkpt>
      <trkpt lat="48.40338" lon="-2.75543">
        <ele>178.5</ele>
        <time>2020-07-02T14:10:42.000Z</time>
      </trkpt>
      <trkpt lat="48.40336" lon="-2.7553">
        <ele>179.8</ele>
        <time>2020-07-02T14:10:49.000Z</time>
      </trkpt>
      <trkpt lat="48.40334" lon="-2.75516">
        <ele>181.6</ele>
        <time>2020-07-02T14:10:59.000Z</time>
      </trkpt>
      <trkpt lat="48.4033" lon="-2.75503">
        <ele>182.9</ele>
        <time>2020-07-02T14:11:07.000Z</time>
      </trkpt>
      <trkpt lat="48.40329" lon="-2.75489">
        <ele>184.2</ele>
        <time>2020-07-02T14:11:15.000Z</time>
      </trkpt>
      <trkpt lat="48.40327" lon="-2.75476">
        <ele>185.4</ele>
        <time>2020-07-02T14:11:22.000Z</time>
      </trkpt>
      <trkpt lat="48.40324" lon="-2.75461">
        <ele>186.9</ele>
        <time>2020-07-02T14:11:30.000Z</time>
      </trkpt>
      <trkpt lat="48.40321" lon="-2.75446">
        <ele>187.8</ele>
        <time>2020-07-02T14:11:36.000Z</time>
      </trkpt>
      <trkpt lat="48.40319" lon="-2.75432">
        <ele>188.7</ele>
        <time>2020-07-02T14:11:42.000Z</time>
      </trkpt>
      <trkpt lat="48.40313" lon="-2.75422">
        <ele>189.7</ele>
        <time>2020-07-02T14:11:49.000Z</time>
      </trkpt>
      <trkpt lat="48.40303" lon="-2.75415">
        <ele>190.7</ele>
        <time>2020-07-02T14:11:56.000Z</time>
      </trkpt>
      <trkpt lat="48.40294" lon="-2.75412">
        <ele>191.5</ele>
        <time>2020-07-02T14:12:02.000Z</time>
      </trkpt>
      <trkpt lat="48.40285" lon="-2.75407">
        <ele>192.5</ele>
        <time>2020-07-02T14:12:08.000Z</time>
      </trkpt>
      <trkpt lat="48.40276" lon="-2.75403">
        <ele>193.3</ele>
        <time>2020-07-02T14:12:14.000Z</time>
      </trkpt>
      <trkpt lat="48.40267" lon="-2.75398">
        <ele>194.3</ele>
        <time>2020-07-02T14:12:20.000Z</time>
      </trkpt>
      <trkpt lat="48.40257" lon="-2.75396">
        <ele>195.1</ele>
        <time>2020-07-02T14:12:26.000Z</time>
      </trkpt>
      <trkpt lat="48.40247" lon="-2.75392">
        <ele>195.9</ele>
        <time>2020-07-02T14:12:32.000Z</time>
      </trkpt>
      <trkpt lat="48.40238" lon="-2.75389">
        <ele>196.8</ele>
        <time>2020-07-02T14:12:38.000Z</time>
      </trkpt>
      <trkpt lat="48.40228" lon="-2.75386">
        <ele>197.6</ele>
        <time>2020-07-02T14:12:44.000Z</time>
      </trkpt>
      <trkpt lat="48.40218" lon="-2.75382">
        <ele>198.5</ele>
        <time>2020-07-02T14:12:51.000Z</time>
      </trkpt>
      <trkpt lat="48.40211" lon="-2.75392">
        <ele>199.5</ele>
        <time>2020-07-02T14:12:58.000Z</time>
      </trkpt>
      <trkpt lat="48.40205" lon="-2.75403">
        <ele>200.1</ele>
        <time>2020-07-02T14:13:03.000Z</time>
      </trkpt>
      <trkpt lat="48.40199" lon="-2.75415">
        <ele>200.5</ele>
        <time>2020-07-02T14:13:08.000Z</time>
      </trkpt>
      <trkpt lat="48.40193" lon="-2.75429">
        <ele>200.9</ele>
        <time>2020-07-02T14:13:13.000Z</time>
      </trkpt>
      <trkpt lat="48.40187" lon="-2.75441">
        <ele>201.2</ele>
        <time>2020-07-02T14:13:18.000Z</time>
      </trkpt>
      <trkpt lat="48.40178" lon="-2.75449">
        <ele>201.4</ele>
        <time>2020-07-02T14:13:22.000Z</time>
      </trkpt>
      <trkpt lat="48.40168" lon="-2.7546">
        <ele>201.7</ele>
        <time>2020-07-02T14:13:26.000Z</time>
      </trkpt>
      <trkpt lat="48.4016" lon="-2.75467">
        <ele>201.7</ele>
        <time>2020-07-02T14:13:29.000Z</time>
      </trkpt>
      <trkpt lat="48.40153" lon="-2.75476">
        <ele>201.4</ele>
        <time>2020-07-02T14:13:32.000Z</time>
      </trkpt>
      <trkpt lat="48.40143" lon="-2.75487">
        <ele>201</ele>
        <time>2020-07-02T14:13:35.000Z</time>
      </trkpt>
      <trkpt lat="48.40131" lon="-2.75499">
        <ele>200.5</ele>
        <time>2020-07-02T14:13:38.000Z</time>
      </trkpt>
      <trkpt lat="48.40123" lon="-2.75506">
        <ele>200</ele>
        <time>2020-07-02T14:13:40.000Z</time>
      </trkpt>
      <trkpt lat="48.40112" lon="-2.75517">
        <ele>199.5</ele>
        <time>2020-07-02T14:13:42.000Z</time>
      </trkpt>
      <trkpt lat="48.40104" lon="-2.75525">
        <ele>198.8</ele>
        <time>2020-07-02T14:13:44.000Z</time>
      </trkpt>
      <trkpt lat="48.40093" lon="-2.75535">
        <ele>197.8</ele>
        <time>2020-07-02T14:13:47.000Z</time>
      </trkpt>
      <trkpt lat="48.40083" lon="-2.75545">
        <ele>196.6</ele>
        <time>2020-07-02T14:13:50.000Z</time>
      </trkpt>
      <trkpt lat="48.40073" lon="-2.75555">
        <ele>195.4</ele>
        <time>2020-07-02T14:13:53.000Z</time>
      </trkpt>
      <trkpt lat="48.40064" lon="-2.75562">
        <ele>193.8</ele>
        <time>2020-07-02T14:13:56.000Z</time>
      </trkpt>
      <trkpt lat="48.40055" lon="-2.75575">
        <ele>191.7</ele>
        <time>2020-07-02T14:14:00.000Z</time>
      </trkpt>
      <trkpt lat="48.40052" lon="-2.75589">
        <ele>189.7</ele>
        <time>2020-07-02T14:14:04.000Z</time>
      </trkpt>
      <trkpt lat="48.40053" lon="-2.75605">
        <ele>187.4</ele>
        <time>2020-07-02T14:14:10.000Z</time>
      </trkpt>
      <trkpt lat="48.40053" lon="-2.7561">
        <ele>181.1</ele>
        <time>2020-07-02T14:14:19.000Z</time>
      </trkpt>
      <trkpt lat="48.4006" lon="-2.75621">
        <ele>183.6</ele>
        <time>2020-07-02T14:14:33.000Z</time>
      </trkpt>
      <trkpt lat="48.40063" lon="-2.75634">
        <ele>187.4</ele>
        <time>2020-07-02T14:14:50.000Z</time>
      </trkpt>
      <trkpt lat="48.40063" lon="-2.75637">
        <ele>188.1</ele>
        <time>2020-07-02T14:14:55.000Z</time>
      </trkpt>
      <trkpt lat="48.40057" lon="-2.75648">
        <ele>190.7</ele>
        <time>2020-07-02T14:15:11.000Z</time>
      </trkpt>
      <trkpt lat="48.40056" lon="-2.75655">
        <ele>191.9</ele>
        <time>2020-07-02T14:15:18.000Z</time>
      </trkpt>
      <trkpt lat="48.40056" lon="-2.75669">
        <ele>192.7</ele>
        <time>2020-07-02T14:15:39.000Z</time>
      </trkpt>
      <trkpt lat="48.40057" lon="-2.75685">
        <ele>193</ele>
        <time>2020-07-02T14:15:45.000Z</time>
      </trkpt>
      <trkpt lat="48.40059" lon="-2.75701">
        <ele>193.2</ele>
        <time>2020-07-02T14:15:51.000Z</time>
      </trkpt>
      <trkpt lat="48.40061" lon="-2.75714">
        <ele>193.5</ele>
        <time>2020-07-02T14:15:56.000Z</time>
      </trkpt>
      <trkpt lat="48.40063" lon="-2.75728">
        <ele>194.1</ele>
        <time>2020-07-02T14:16:01.000Z</time>
      </trkpt>
      <trkpt lat="48.40065" lon="-2.75743">
        <ele>194.6</ele>
        <time>2020-07-02T14:16:06.000Z</time>
      </trkpt>
      <trkpt lat="48.40064" lon="-2.75758">
        <ele>195.1</ele>
        <time>2020-07-02T14:16:11.000Z</time>
      </trkpt>
      <trkpt lat="48.40061" lon="-2.75771">
        <ele>195.4</ele>
        <time>2020-07-02T14:16:16.000Z</time>
      </trkpt>
      <trkpt lat="48.40057" lon="-2.75784">
        <ele>195.5</ele>
        <time>2020-07-02T14:16:21.000Z</time>
      </trkpt>
      <trkpt lat="48.40053" lon="-2.75798">
        <ele>195.6</ele>
        <time>2020-07-02T14:16:27.000Z</time>
      </trkpt>
      <trkpt lat="48.4005" lon="-2.75812">
        <ele>195.6</ele>
        <time>2020-07-02T14:16:33.000Z</time>
      </trkpt>
      <trkpt lat="48.40046" lon="-2.75825">
        <ele>195.6</ele>
        <time>2020-07-02T14:16:38.000Z</time>
      </trkpt>
      <trkpt lat="48.4004" lon="-2.75837">
        <ele>195.9</ele>
        <time>2020-07-02T14:16:44.000Z</time>
      </trkpt>
      <trkpt lat="48.40034" lon="-2.75848">
        <ele>196.3</ele>
        <time>2020-07-02T14:16:49.000Z</time>
      </trkpt>
      <trkpt lat="48.40029" lon="-2.7586">
        <ele>196.4</ele>
        <time>2020-07-02T14:16:54.000Z</time>
      </trkpt>
      <trkpt lat="48.40026" lon="-2.75872">
        <ele>196.5</ele>
        <time>2020-07-02T14:16:59.000Z</time>
      </trkpt>
      <trkpt lat="48.40024" lon="-2.75888">
        <ele>196.5</ele>
        <time>2020-07-02T14:17:05.000Z</time>
      </trkpt>
      <trkpt lat="48.40024" lon="-2.75903">
        <ele>196.4</ele>
        <time>2020-07-02T14:17:09.000Z</time>
      </trkpt>
      <trkpt lat="48.40025" lon="-2.7592">
        <ele>196.4</ele>
        <time>2020-07-02T14:17:13.000Z</time>
      </trkpt>
      <trkpt lat="48.40026" lon="-2.75936">
        <ele>196.3</ele>
        <time>2020-07-02T14:17:16.000Z</time>
      </trkpt>
      <trkpt lat="48.40027" lon="-2.75951">
        <ele>196.1</ele>
        <time>2020-07-02T14:17:19.000Z</time>
      </trkpt>
      <trkpt lat="48.40028" lon="-2.75968">
        <ele>196</ele>
        <time>2020-07-02T14:17:22.000Z</time>
      </trkpt>
      <trkpt lat="48.40028" lon="-2.75984">
        <ele>195.7</ele>
        <time>2020-07-02T14:17:25.000Z</time>
      </trkpt>
      <trkpt lat="48.40027" lon="-2.76003">
        <ele>195.4</ele>
        <time>2020-07-02T14:17:28.000Z</time>
      </trkpt>
      <trkpt lat="48.40025" lon="-2.76018">
        <ele>195.1</ele>
        <time>2020-07-02T14:17:30.000Z</time>
      </trkpt>
      <trkpt lat="48.40024" lon="-2.76035">
        <ele>194.8</ele>
        <time>2020-07-02T14:17:32.000Z</time>
      </trkpt>
      <trkpt lat="48.40024" lon="-2.76055">
        <ele>194.5</ele>
        <time>2020-07-02T14:17:34.000Z</time>
      </trkpt>
      <trkpt lat="48.40023" lon="-2.76079">
        <ele>194.1</ele>
        <time>2020-07-02T14:17:36.000Z</time>
      </trkpt>
      <trkpt lat="48.40023" lon="-2.76105">
        <ele>193.6</ele>
        <time>2020-07-02T14:17:38.000Z</time>
      </trkpt>
      <trkpt lat="48.40023" lon="-2.76119">
        <ele>193.2</ele>
        <time>2020-07-02T14:17:39.000Z</time>
      </trkpt>
      <trkpt lat="48.40024" lon="-2.76133">
        <ele>192.9</ele>
        <time>2020-07-02T14:17:40.000Z</time>
      </trkpt>
      <trkpt lat="48.40024" lon="-2.76147">
        <ele>192.5</ele>
        <time>2020-07-02T14:17:41.000Z</time>
      </trkpt>
      <trkpt lat="48.40024" lon="-2.76161">
        <ele>192.1</ele>
        <time>2020-07-02T14:17:42.000Z</time>
      </trkpt>
      <trkpt lat="48.40024" lon="-2.76175">
        <ele>191.6</ele>
        <time>2020-07-02T14:17:43.000Z</time>
      </trkpt>
      <trkpt lat="48.40024" lon="-2.76191">
        <ele>191</ele>
        <time>2020-07-02T14:17:44.000Z</time>
      </trkpt>
      <trkpt lat="48.40024" lon="-2.76208">
        <ele>190.4</ele>
        <time>2020-07-02T14:17:45.000Z</time>
      </trkpt>
      <trkpt lat="48.40023" lon="-2.76225">
        <ele>189.7</ele>
        <time>2020-07-02T14:17:46.000Z</time>
      </trkpt>
      <trkpt lat="48.40023" lon="-2.76243">
        <ele>189</ele>
        <time>2020-07-02T14:17:47.000Z</time>
      </trkpt>
      <trkpt lat="48.40022" lon="-2.76262">
        <ele>188.2</ele>
        <time>2020-07-02T14:17:48.000Z</time>
      </trkpt>
      <trkpt lat="48.40021" lon="-2.76279">
        <ele>187.3</ele>
        <time>2020-07-02T14:17:49.000Z</time>
      </trkpt>
      <trkpt lat="48.4002" lon="-2.76294">
        <ele>186.4</ele>
        <time>2020-07-02T14:17:50.000Z</time>
      </trkpt>
      <trkpt lat="48.40019" lon="-2.76319">
        <ele>184.5</ele>
        <time>2020-07-02T14:17:52.000Z</time>
      </trkpt>
      <trkpt lat="48.40017" lon="-2.76341">
        <ele>182.7</ele>
        <time>2020-07-02T14:17:54.000Z</time>
      </trkpt>
      <trkpt lat="48.4002" lon="-2.76358">
        <ele>180.9</ele>
        <time>2020-07-02T14:17:56.000Z</time>
      </trkpt>
      <trkpt lat="48.40027" lon="-2.76367">
        <ele>179.2</ele>
        <time>2020-07-02T14:17:58.000Z</time>
      </trkpt>
      <trkpt lat="48.40036" lon="-2.76379">
        <ele>176.9</ele>
        <time>2020-07-02T14:18:01.000Z</time>
      </trkpt>
      <trkpt lat="48.40033" lon="-2.76395">
        <ele>175.2</ele>
        <time>2020-07-02T14:18:04.000Z</time>
      </trkpt>
      <trkpt lat="48.40026" lon="-2.76409">
        <ele>173.9</ele>
        <time>2020-07-02T14:18:07.000Z</time>
      </trkpt>
      <trkpt lat="48.40021" lon="-2.76421">
        <ele>173</ele>
        <time>2020-07-02T14:18:10.000Z</time>
      </trkpt>
      <trkpt lat="48.40016" lon="-2.76433">
        <ele>172</ele>
        <time>2020-07-02T14:18:14.000Z</time>
      </trkpt>
      <trkpt lat="48.4001" lon="-2.76446">
        <ele>171.4</ele>
        <time>2020-07-02T14:18:18.000Z</time>
      </trkpt>
      <trkpt lat="48.40005" lon="-2.76459">
        <ele>171.1</ele>
        <time>2020-07-02T14:18:22.000Z</time>
      </trkpt>
      <trkpt lat="48.40001" lon="-2.76473">
        <ele>171</ele>
        <time>2020-07-02T14:18:26.000Z</time>
      </trkpt>
      <trkpt lat="48.39999" lon="-2.76487">
        <ele>171.2</ele>
        <time>2020-07-02T14:18:31.000Z</time>
      </trkpt>
      <trkpt lat="48.39996" lon="-2.76501">
        <ele>171.7</ele>
        <time>2020-07-02T14:18:36.000Z</time>
      </trkpt>
      <trkpt lat="48.39993" lon="-2.76514">
        <ele>172.3</ele>
        <time>2020-07-02T14:18:41.000Z</time>
      </trkpt>
      <trkpt lat="48.39989" lon="-2.76527">
        <ele>173.5</ele>
        <time>2020-07-02T14:18:47.000Z</time>
      </trkpt>
      <trkpt lat="48.39984" lon="-2.76539">
        <ele>174.8</ele>
        <time>2020-07-02T14:18:53.000Z</time>
      </trkpt>
      <trkpt lat="48.39976" lon="-2.76551">
        <ele>176.1</ele>
        <time>2020-07-02T14:18:59.000Z</time>
      </trkpt>
      <trkpt lat="48.39969" lon="-2.76559">
        <ele>177.1</ele>
        <time>2020-07-02T14:19:04.000Z</time>
      </trkpt>
      <trkpt lat="48.39961" lon="-2.76567">
        <ele>178.1</ele>
        <time>2020-07-02T14:19:10.000Z</time>
      </trkpt>
      <trkpt lat="48.39952" lon="-2.76575">
        <ele>178.9</ele>
        <time>2020-07-02T14:19:16.000Z</time>
      </trkpt>
      <trkpt lat="48.39943" lon="-2.76583">
        <ele>179.6</ele>
        <time>2020-07-02T14:19:22.000Z</time>
      </trkpt>
      <trkpt lat="48.39934" lon="-2.76589">
        <ele>180.3</ele>
        <time>2020-07-02T14:19:28.000Z</time>
      </trkpt>
      <trkpt lat="48.39926" lon="-2.76595">
        <ele>181.1</ele>
        <time>2020-07-02T14:19:34.000Z</time>
      </trkpt>
      <trkpt lat="48.39916" lon="-2.76601">
        <ele>181.9</ele>
        <time>2020-07-02T14:19:40.000Z</time>
      </trkpt>
      <trkpt lat="48.39908" lon="-2.76607">
        <ele>182.8</ele>
        <time>2020-07-02T14:19:46.000Z</time>
      </trkpt>
      <trkpt lat="48.39899" lon="-2.76614">
        <ele>183.6</ele>
        <time>2020-07-02T14:19:52.000Z</time>
      </trkpt>
      <trkpt lat="48.3989" lon="-2.7662">
        <ele>184.7</ele>
        <time>2020-07-02T14:19:59.000Z</time>
      </trkpt>
      <trkpt lat="48.39882" lon="-2.76628">
        <ele>185.5</ele>
        <time>2020-07-02T14:20:05.000Z</time>
      </trkpt>
      <trkpt lat="48.39874" lon="-2.76637">
        <ele>187</ele>
        <time>2020-07-02T14:20:12.000Z</time>
      </trkpt>
      <trkpt lat="48.39868" lon="-2.76649">
        <ele>189.1</ele>
        <time>2020-07-02T14:20:20.000Z</time>
      </trkpt>
      <trkpt lat="48.39864" lon="-2.76663">
        <ele>191.2</ele>
        <time>2020-07-02T14:20:28.000Z</time>
      </trkpt>
      <trkpt lat="48.39859" lon="-2.76676">
        <ele>193.1</ele>
        <time>2020-07-02T14:20:36.000Z</time>
      </trkpt>
      <trkpt lat="48.39856" lon="-2.7669">
        <ele>194.7</ele>
        <time>2020-07-02T14:20:43.000Z</time>
      </trkpt>
      <trkpt lat="48.39853" lon="-2.76705">
        <ele>196.3</ele>
        <time>2020-07-02T14:20:50.000Z</time>
      </trkpt>
      <trkpt lat="48.39852" lon="-2.7672">
        <ele>197.6</ele>
        <time>2020-07-02T14:20:57.000Z</time>
      </trkpt>
      <trkpt lat="48.3985" lon="-2.76734">
        <ele>199</ele>
        <time>2020-07-02T14:21:04.000Z</time>
      </trkpt>
      <trkpt lat="48.39849" lon="-2.76749">
        <ele>200.4</ele>
        <time>2020-07-02T14:21:11.000Z</time>
      </trkpt>
      <trkpt lat="48.39848" lon="-2.76764">
        <ele>202</ele>
        <time>2020-07-02T14:21:19.000Z</time>
      </trkpt>
      <trkpt lat="48.39847" lon="-2.76779">
        <ele>203.4</ele>
        <time>2020-07-02T14:21:26.000Z</time>
      </trkpt>
      <trkpt lat="48.39846" lon="-2.76793">
        <ele>204.7</ele>
        <time>2020-07-02T14:21:33.000Z</time>
      </trkpt>
      <trkpt lat="48.39845" lon="-2.76808">
        <ele>206.1</ele>
        <time>2020-07-02T14:21:41.000Z</time>
      </trkpt>
      <trkpt lat="48.39842" lon="-2.76821">
        <ele>207.4</ele>
        <time>2020-07-02T14:21:48.000Z</time>
      </trkpt>
      <trkpt lat="48.39839" lon="-2.76835">
        <ele>209</ele>
        <time>2020-07-02T14:21:56.000Z</time>
      </trkpt>
      <trkpt lat="48.39837" lon="-2.7685">
        <ele>210.6</ele>
        <time>2020-07-02T14:22:04.000Z</time>
      </trkpt>
      <trkpt lat="48.39835" lon="-2.76863">
        <ele>212</ele>
        <time>2020-07-02T14:22:11.000Z</time>
      </trkpt>
      <trkpt lat="48.39833" lon="-2.76877">
        <ele>213.5</ele>
        <time>2020-07-02T14:22:18.000Z</time>
      </trkpt>
      <trkpt lat="48.3983" lon="-2.76891">
        <ele>214.8</ele>
        <time>2020-07-02T14:22:25.000Z</time>
      </trkpt>
      <trkpt lat="48.39827" lon="-2.76905">
        <ele>216.3</ele>
        <time>2020-07-02T14:22:32.000Z</time>
      </trkpt>
      <trkpt lat="48.39823" lon="-2.76918">
        <ele>217.8</ele>
        <time>2020-07-02T14:22:39.000Z</time>
      </trkpt>
      <trkpt lat="48.39819" lon="-2.76932">
        <ele>219.1</ele>
        <time>2020-07-02T14:22:46.000Z</time>
      </trkpt>
      <trkpt lat="48.39815" lon="-2.76946">
        <ele>220.5</ele>
        <time>2020-07-02T14:22:53.000Z</time>
      </trkpt>
      <trkpt lat="48.39811" lon="-2.76958">
        <ele>221.5</ele>
        <time>2020-07-02T14:22:59.000Z</time>
      </trkpt>
      <trkpt lat="48.39806" lon="-2.76971">
        <ele>222.6</ele>
        <time>2020-07-02T14:23:06.000Z</time>
      </trkpt>
      <trkpt lat="48.39801" lon="-2.76985">
        <ele>223.7</ele>
        <time>2020-07-02T14:23:12.000Z</time>
      </trkpt>
      <trkpt lat="48.39796" lon="-2.76997">
        <ele>224.8</ele>
        <time>2020-07-02T14:23:18.000Z</time>
      </trkpt>
      <trkpt lat="48.39795" lon="-2.77011">
        <ele>226.1</ele>
        <time>2020-07-02T14:23:24.000Z</time>
      </trkpt>
      <trkpt lat="48.39795" lon="-2.77025">
        <ele>227.3</ele>
        <time>2020-07-02T14:23:30.000Z</time>
      </trkpt>
      <trkpt lat="48.39796" lon="-2.77039">
        <ele>228.5</ele>
        <time>2020-07-02T14:23:36.000Z</time>
      </trkpt>
      <trkpt lat="48.39797" lon="-2.77053">
        <ele>229.2</ele>
        <time>2020-07-02T14:23:42.000Z</time>
      </trkpt>
      <trkpt lat="48.39796" lon="-2.77069">
        <ele>229.8</ele>
        <time>2020-07-02T14:23:48.000Z</time>
      </trkpt>
      <trkpt lat="48.39795" lon="-2.77075">
        <ele>230.2</ele>
        <time>2020-07-02T14:23:57.000Z</time>
      </trkpt>
      <trkpt lat="48.39793" lon="-2.77093">
        <ele>229.2</ele>
        <time>2020-07-02T14:25:38.000Z</time>
      </trkpt>
      <trkpt lat="48.39793" lon="-2.77107">
        <ele>229</ele>
        <time>2020-07-02T14:25:41.000Z</time>
      </trkpt>
      <trkpt lat="48.39795" lon="-2.77123">
        <ele>229.1</ele>
        <time>2020-07-02T14:25:44.000Z</time>
      </trkpt>
      <trkpt lat="48.39796" lon="-2.77139">
        <ele>229.1</ele>
        <time>2020-07-02T14:25:46.000Z</time>
      </trkpt>
      <trkpt lat="48.39796" lon="-2.77156">
        <ele>228.9</ele>
        <time>2020-07-02T14:25:48.000Z</time>
      </trkpt>
      <trkpt lat="48.39798" lon="-2.77173">
        <ele>228.4</ele>
        <time>2020-07-02T14:25:50.000Z</time>
      </trkpt>
      <trkpt lat="48.39804" lon="-2.77187">
        <ele>228</ele>
        <time>2020-07-02T14:25:52.000Z</time>
      </trkpt>
      <trkpt lat="48.39813" lon="-2.77194">
        <ele>227.6</ele>
        <time>2020-07-02T14:25:54.000Z</time>
      </trkpt>
      <trkpt lat="48.39823" lon="-2.77197">
        <ele>227.2</ele>
        <time>2020-07-02T14:25:56.000Z</time>
      </trkpt>
      <trkpt lat="48.39832" lon="-2.77198">
        <ele>226.8</ele>
        <time>2020-07-02T14:25:58.000Z</time>
      </trkpt>
      <trkpt lat="48.39845" lon="-2.77201">
        <ele>226.2</ele>
        <time>2020-07-02T14:26:01.000Z</time>
      </trkpt>
      <trkpt lat="48.39854" lon="-2.77203">
        <ele>226</ele>
        <time>2020-07-02T14:26:03.000Z</time>
      </trkpt>
      <trkpt lat="48.39864" lon="-2.77205">
        <ele>225.7</ele>
        <time>2020-07-02T14:26:05.000Z</time>
      </trkpt>
      <trkpt lat="48.39874" lon="-2.77207">
        <ele>225.5</ele>
        <time>2020-07-02T14:26:07.000Z</time>
      </trkpt>
      <trkpt lat="48.39883" lon="-2.77209">
        <ele>225.4</ele>
        <time>2020-07-02T14:26:09.000Z</time>
      </trkpt>
      <trkpt lat="48.39893" lon="-2.77211">
        <ele>225.3</ele>
        <time>2020-07-02T14:26:11.000Z</time>
      </trkpt>
      <trkpt lat="48.39902" lon="-2.77212">
        <ele>225.2</ele>
        <time>2020-07-02T14:26:13.000Z</time>
      </trkpt>
      <trkpt lat="48.39914" lon="-2.77215">
        <ele>225.2</ele>
        <time>2020-07-02T14:26:16.000Z</time>
      </trkpt>
      <trkpt lat="48.39925" lon="-2.77217">
        <ele>225.4</ele>
        <time>2020-07-02T14:26:19.000Z</time>
      </trkpt>
      <trkpt lat="48.39933" lon="-2.7722">
        <ele>225.5</ele>
        <time>2020-07-02T14:26:22.000Z</time>
      </trkpt>
      <trkpt lat="48.39939" lon="-2.77233">
        <ele>226.1</ele>
        <time>2020-07-02T14:26:27.000Z</time>
      </trkpt>
      <trkpt lat="48.39931" lon="-2.77246">
        <ele>226.3</ele>
        <time>2020-07-02T14:26:31.000Z</time>
      </trkpt>
      <trkpt lat="48.39923" lon="-2.77256">
        <ele>226.5</ele>
        <time>2020-07-02T14:26:34.000Z</time>
      </trkpt>
      <trkpt lat="48.39916" lon="-2.77265">
        <ele>226.7</ele>
        <time>2020-07-02T14:26:37.000Z</time>
      </trkpt>
      <trkpt lat="48.39909" lon="-2.77274">
        <ele>226.7</ele>
        <time>2020-07-02T14:26:40.000Z</time>
      </trkpt>
      <trkpt lat="48.39901" lon="-2.77285">
        <ele>226.8</ele>
        <time>2020-07-02T14:26:43.000Z</time>
      </trkpt>
      <trkpt lat="48.39895" lon="-2.77295">
        <ele>226.8</ele>
        <time>2020-07-02T14:26:46.000Z</time>
      </trkpt>
      <trkpt lat="48.39887" lon="-2.77305">
        <ele>226.8</ele>
        <time>2020-07-02T14:26:49.000Z</time>
      </trkpt>
      <trkpt lat="48.39879" lon="-2.77315">
        <ele>226.8</ele>
        <time>2020-07-02T14:26:52.000Z</time>
      </trkpt>
      <trkpt lat="48.3987" lon="-2.77326">
        <ele>226.9</ele>
        <time>2020-07-02T14:26:55.000Z</time>
      </trkpt>
      <trkpt lat="48.39859" lon="-2.77335">
        <ele>226.9</ele>
        <time>2020-07-02T14:26:58.000Z</time>
      </trkpt>
      <trkpt lat="48.39848" lon="-2.77343">
        <ele>226.8</ele>
        <time>2020-07-02T14:27:01.000Z</time>
      </trkpt>
      <trkpt lat="48.39835" lon="-2.77347">
        <ele>226.6</ele>
        <time>2020-07-02T14:27:04.000Z</time>
      </trkpt>
      <trkpt lat="48.39827" lon="-2.77342">
        <ele>226.4</ele>
        <time>2020-07-02T14:27:06.000Z</time>
      </trkpt>
      <trkpt lat="48.3982" lon="-2.77334">
        <ele>226.1</ele>
        <time>2020-07-02T14:27:08.000Z</time>
      </trkpt>
      <trkpt lat="48.39812" lon="-2.77324">
        <ele>225.8</ele>
        <time>2020-07-02T14:27:10.000Z</time>
      </trkpt>
      <trkpt lat="48.39805" lon="-2.77315">
        <ele>225.6</ele>
        <time>2020-07-02T14:27:12.000Z</time>
      </trkpt>
      <trkpt lat="48.39798" lon="-2.77306">
        <ele>225.4</ele>
        <time>2020-07-02T14:27:14.000Z</time>
      </trkpt>
      <trkpt lat="48.39792" lon="-2.77296">
        <ele>225.1</ele>
        <time>2020-07-02T14:27:16.000Z</time>
      </trkpt>
      <trkpt lat="48.39785" lon="-2.77286">
        <ele>224.8</ele>
        <time>2020-07-02T14:27:18.000Z</time>
      </trkpt>
      <trkpt lat="48.39775" lon="-2.77272">
        <ele>224.6</ele>
        <time>2020-07-02T14:27:21.000Z</time>
      </trkpt>
      <trkpt lat="48.39766" lon="-2.7726">
        <ele>224.3</ele>
        <time>2020-07-02T14:27:24.000Z</time>
      </trkpt>
      <trkpt lat="48.39756" lon="-2.77249">
        <ele>224</ele>
        <time>2020-07-02T14:27:27.000Z</time>
      </trkpt>
      <trkpt lat="48.39748" lon="-2.77242">
        <ele>223.8</ele>
        <time>2020-07-02T14:27:29.000Z</time>
      </trkpt>
      <trkpt lat="48.39739" lon="-2.77235">
        <ele>223.5</ele>
        <time>2020-07-02T14:27:31.000Z</time>
      </trkpt>
      <trkpt lat="48.39729" lon="-2.77229">
        <ele>223.2</ele>
        <time>2020-07-02T14:27:33.000Z</time>
      </trkpt>
      <trkpt lat="48.39719" lon="-2.77223">
        <ele>222.8</ele>
        <time>2020-07-02T14:27:35.000Z</time>
      </trkpt>
      <trkpt lat="48.39709" lon="-2.77217">
        <ele>222.5</ele>
        <time>2020-07-02T14:27:37.000Z</time>
      </trkpt>
      <trkpt lat="48.39698" lon="-2.7721">
        <ele>222.1</ele>
        <time>2020-07-02T14:27:39.000Z</time>
      </trkpt>
      <trkpt lat="48.39688" lon="-2.772">
        <ele>221.8</ele>
        <time>2020-07-02T14:27:41.000Z</time>
      </trkpt>
      <trkpt lat="48.39677" lon="-2.7719">
        <ele>221.5</ele>
        <time>2020-07-02T14:27:43.000Z</time>
      </trkpt>
      <trkpt lat="48.39667" lon="-2.77177">
        <ele>221.1</ele>
        <time>2020-07-02T14:27:45.000Z</time>
      </trkpt>
      <trkpt lat="48.39656" lon="-2.77165">
        <ele>220.7</ele>
        <time>2020-07-02T14:27:47.000Z</time>
      </trkpt>
      <trkpt lat="48.39646" lon="-2.77153">
        <ele>220.4</ele>
        <time>2020-07-02T14:27:49.000Z</time>
      </trkpt>
      <trkpt lat="48.39636" lon="-2.77141">
        <ele>220</ele>
        <time>2020-07-02T14:27:51.000Z</time>
      </trkpt>
      <trkpt lat="48.39627" lon="-2.77127">
        <ele>219.6</ele>
        <time>2020-07-02T14:27:53.000Z</time>
      </trkpt>
      <trkpt lat="48.39617" lon="-2.77112">
        <ele>219.2</ele>
        <time>2020-07-02T14:27:55.000Z</time>
      </trkpt>
      <trkpt lat="48.39609" lon="-2.77097">
        <ele>218.8</ele>
        <time>2020-07-02T14:27:57.000Z</time>
      </trkpt>
      <trkpt lat="48.396" lon="-2.7708">
        <ele>218.3</ele>
        <time>2020-07-02T14:27:59.000Z</time>
      </trkpt>
      <trkpt lat="48.3959" lon="-2.77068">
        <ele>217.8</ele>
        <time>2020-07-02T14:28:01.000Z</time>
      </trkpt>
      <trkpt lat="48.39581" lon="-2.77058">
        <ele>217.1</ele>
        <time>2020-07-02T14:28:03.000Z</time>
      </trkpt>
      <trkpt lat="48.39574" lon="-2.77049">
        <ele>216.4</ele>
        <time>2020-07-02T14:28:05.000Z</time>
      </trkpt>
      <trkpt lat="48.39564" lon="-2.7704">
        <ele>215.6</ele>
        <time>2020-07-02T14:28:07.000Z</time>
      </trkpt>
      <trkpt lat="48.39556" lon="-2.77032">
        <ele>214.9</ele>
        <time>2020-07-02T14:28:09.000Z</time>
      </trkpt>
      <trkpt lat="48.39548" lon="-2.77025">
        <ele>214.2</ele>
        <time>2020-07-02T14:28:11.000Z</time>
      </trkpt>
      <trkpt lat="48.3954" lon="-2.77017">
        <ele>213.4</ele>
        <time>2020-07-02T14:28:13.000Z</time>
      </trkpt>
      <trkpt lat="48.39529" lon="-2.77002">
        <ele>211.9</ele>
        <time>2020-07-02T14:28:16.000Z</time>
      </trkpt>
      <trkpt lat="48.39517" lon="-2.7699">
        <ele>210.7</ele>
        <time>2020-07-02T14:28:18.000Z</time>
      </trkpt>
      <trkpt lat="48.3951" lon="-2.76981">
        <ele>210</ele>
        <time>2020-07-02T14:28:19.000Z</time>
      </trkpt>
      <trkpt lat="48.39503" lon="-2.76972">
        <ele>209.3</ele>
        <time>2020-07-02T14:28:20.000Z</time>
      </trkpt>
      <trkpt lat="48.3949" lon="-2.76957">
        <ele>207.7</ele>
        <time>2020-07-02T14:28:22.000Z</time>
      </trkpt>
      <trkpt lat="48.39479" lon="-2.76945">
        <ele>206.1</ele>
        <time>2020-07-02T14:28:24.000Z</time>
      </trkpt>
      <trkpt lat="48.3947" lon="-2.76935">
        <ele>204.5</ele>
        <time>2020-07-02T14:28:26.000Z</time>
      </trkpt>
      <trkpt lat="48.39463" lon="-2.76923">
        <ele>201.8</ele>
        <time>2020-07-02T14:28:29.000Z</time>
      </trkpt>
      <trkpt lat="48.39457" lon="-2.76911">
        <ele>199.1</ele>
        <time>2020-07-02T14:28:32.000Z</time>
      </trkpt>
      <trkpt lat="48.39445" lon="-2.76903">
        <ele>196.5</ele>
        <time>2020-07-02T14:28:35.000Z</time>
      </trkpt>
      <trkpt lat="48.39434" lon="-2.76904">
        <ele>194.2</ele>
        <time>2020-07-02T14:28:38.000Z</time>
      </trkpt>
      <trkpt lat="48.39423" lon="-2.76906">
        <ele>191.7</ele>
        <time>2020-07-02T14:28:42.000Z</time>
      </trkpt>
      <trkpt lat="48.39415" lon="-2.76912">
        <ele>189.3</ele>
        <time>2020-07-02T14:28:49.000Z</time>
      </trkpt>
      <trkpt lat="48.39407" lon="-2.7692">
        <ele>189</ele>
        <time>2020-07-02T14:28:55.000Z</time>
      </trkpt>
      <trkpt lat="48.394" lon="-2.76932">
        <ele>189.8</ele>
        <time>2020-07-02T14:29:03.000Z</time>
      </trkpt>
      <trkpt lat="48.39398" lon="-2.76945">
        <ele>191.3</ele>
        <time>2020-07-02T14:29:13.000Z</time>
      </trkpt>
      <trkpt lat="48.39395" lon="-2.76959">
        <ele>192.7</ele>
        <time>2020-07-02T14:29:22.000Z</time>
      </trkpt>
      <trkpt lat="48.39385" lon="-2.76966">
        <ele>193.6</ele>
        <time>2020-07-02T14:29:28.000Z</time>
      </trkpt>
      <trkpt lat="48.39377" lon="-2.76974">
        <ele>193.8</ele>
        <time>2020-07-02T14:29:32.000Z</time>
      </trkpt>
      <trkpt lat="48.39365" lon="-2.76982">
        <ele>193.7</ele>
        <time>2020-07-02T14:29:35.000Z</time>
      </trkpt>
      <trkpt lat="48.39354" lon="-2.76989">
        <ele>193.3</ele>
        <time>2020-07-02T14:29:38.000Z</time>
      </trkpt>
      <trkpt lat="48.39345" lon="-2.76991">
        <ele>193.1</ele>
        <time>2020-07-02T14:29:40.000Z</time>
      </trkpt>
      <trkpt lat="48.39336" lon="-2.76995">
        <ele>192.8</ele>
        <time>2020-07-02T14:29:42.000Z</time>
      </trkpt>
      <trkpt lat="48.39326" lon="-2.77001">
        <ele>192.4</ele>
        <time>2020-07-02T14:29:45.000Z</time>
      </trkpt>
      <trkpt lat="48.39317" lon="-2.77007">
        <ele>191.9</ele>
        <time>2020-07-02T14:29:49.000Z</time>
      </trkpt>
      <trkpt lat="48.39307" lon="-2.77014">
        <ele>191.7</ele>
        <time>2020-07-02T14:29:54.000Z</time>
      </trkpt>
      <trkpt lat="48.39298" lon="-2.77021">
        <ele>191.7</ele>
        <time>2020-07-02T14:29:58.000Z</time>
      </trkpt>
      <trkpt lat="48.3929" lon="-2.77026">
        <ele>191.7</ele>
        <time>2020-07-02T14:30:02.000Z</time>
      </trkpt>
      <trkpt lat="48.39281" lon="-2.77033">
        <ele>192</ele>
        <time>2020-07-02T14:30:08.000Z</time>
      </trkpt>
      <trkpt lat="48.39273" lon="-2.77039">
        <ele>192.6</ele>
        <time>2020-07-02T14:30:14.000Z</time>
      </trkpt>
      <trkpt lat="48.39265" lon="-2.77049">
        <ele>193.5</ele>
        <time>2020-07-02T14:30:21.000Z</time>
      </trkpt>
      <trkpt lat="48.3926" lon="-2.77064">
        <ele>194.6</ele>
        <time>2020-07-02T14:30:28.000Z</time>
      </trkpt>
      <trkpt lat="48.39253" lon="-2.77075">
        <ele>195.7</ele>
        <time>2020-07-02T14:30:34.000Z</time>
      </trkpt>
      <trkpt lat="48.39244" lon="-2.77083">
        <ele>196.7</ele>
        <time>2020-07-02T14:30:40.000Z</time>
      </trkpt>
      <trkpt lat="48.39233" lon="-2.77081">
        <ele>198</ele>
        <time>2020-07-02T14:30:49.000Z</time>
      </trkpt>
      <trkpt lat="48.39224" lon="-2.77075">
        <ele>198.2</ele>
        <time>2020-07-02T14:30:54.000Z</time>
      </trkpt>
      <trkpt lat="48.39215" lon="-2.77067">
        <ele>198.1</ele>
        <time>2020-07-02T14:30:58.000Z</time>
      </trkpt>
      <trkpt lat="48.39205" lon="-2.77063">
        <ele>197.7</ele>
        <time>2020-07-02T14:31:02.000Z</time>
      </trkpt>
      <trkpt lat="48.39196" lon="-2.77055">
        <ele>197</ele>
        <time>2020-07-02T14:31:06.000Z</time>
      </trkpt>
      <trkpt lat="48.39186" lon="-2.77046">
        <ele>196.2</ele>
        <time>2020-07-02T14:31:09.000Z</time>
      </trkpt>
      <trkpt lat="48.39177" lon="-2.77042">
        <ele>195.6</ele>
        <time>2020-07-02T14:31:11.000Z</time>
      </trkpt>
      <trkpt lat="48.39167" lon="-2.77041">
        <ele>194.9</ele>
        <time>2020-07-02T14:31:13.000Z</time>
      </trkpt>
      <trkpt lat="48.39157" lon="-2.77038">
        <ele>194.2</ele>
        <time>2020-07-02T14:31:15.000Z</time>
      </trkpt>
      <trkpt lat="48.39143" lon="-2.77035">
        <ele>192.9</ele>
        <time>2020-07-02T14:31:18.000Z</time>
      </trkpt>
      <trkpt lat="48.39133" lon="-2.77035">
        <ele>191</ele>
        <time>2020-07-02T14:31:22.000Z</time>
      </trkpt>
      <trkpt lat="48.39124" lon="-2.7704">
        <ele>189.6</ele>
        <time>2020-07-02T14:31:26.000Z</time>
      </trkpt>
      <trkpt lat="48.39118" lon="-2.77049">
        <ele>188.5</ele>
        <time>2020-07-02T14:31:31.000Z</time>
      </trkpt>
      <trkpt lat="48.39112" lon="-2.77062">
        <ele>187.8</ele>
        <time>2020-07-02T14:31:37.000Z</time>
      </trkpt>
      <trkpt lat="48.39105" lon="-2.77074">
        <ele>188</ele>
        <time>2020-07-02T14:31:43.000Z</time>
      </trkpt>
      <trkpt lat="48.39099" lon="-2.77086">
        <ele>188.4</ele>
        <time>2020-07-02T14:31:48.000Z</time>
      </trkpt>
      <trkpt lat="48.39097" lon="-2.77099">
        <ele>189.4</ele>
        <time>2020-07-02T14:31:55.000Z</time>
      </trkpt>
      <trkpt lat="48.39095" lon="-2.77114">
        <ele>190.2</ele>
        <time>2020-07-02T14:32:01.000Z</time>
      </trkpt>
      <trkpt lat="48.3909" lon="-2.77126">
        <ele>191</ele>
        <time>2020-07-02T14:32:07.000Z</time>
      </trkpt>
      <trkpt lat="48.39086" lon="-2.7714">
        <ele>191.9</ele>
        <time>2020-07-02T14:32:14.000Z</time>
      </trkpt>
      <trkpt lat="48.39079" lon="-2.77154">
        <ele>192.9</ele>
        <time>2020-07-02T14:32:21.000Z</time>
      </trkpt>
      <trkpt lat="48.39074" lon="-2.77165">
        <ele>193.6</ele>
        <time>2020-07-02T14:32:26.000Z</time>
      </trkpt>
      <trkpt lat="48.39067" lon="-2.77177">
        <ele>194.5</ele>
        <time>2020-07-02T14:32:32.000Z</time>
      </trkpt>
      <trkpt lat="48.39058" lon="-2.77185">
        <ele>194.9</ele>
        <time>2020-07-02T14:32:36.000Z</time>
      </trkpt>
      <trkpt lat="48.39049" lon="-2.77194">
        <ele>195.1</ele>
        <time>2020-07-02T14:32:39.000Z</time>
      </trkpt>
      <trkpt lat="48.39044" lon="-2.77209">
        <ele>194.9</ele>
        <time>2020-07-02T14:32:43.000Z</time>
      </trkpt>
      <trkpt lat="48.39037" lon="-2.77221">
        <ele>194.6</ele>
        <time>2020-07-02T14:32:47.000Z</time>
      </trkpt>
      <trkpt lat="48.39031" lon="-2.77233">
        <ele>194.2</ele>
        <time>2020-07-02T14:32:52.000Z</time>
      </trkpt>
      <trkpt lat="48.39027" lon="-2.77245">
        <ele>193.9</ele>
        <time>2020-07-02T14:32:56.000Z</time>
      </trkpt>
      <trkpt lat="48.39024" lon="-2.77259">
        <ele>193.7</ele>
        <time>2020-07-02T14:33:01.000Z</time>
      </trkpt>
      <trkpt lat="48.39024" lon="-2.77277">
        <ele>193.6</ele>
        <time>2020-07-02T14:33:07.000Z</time>
      </trkpt>
      <trkpt lat="48.39023" lon="-2.77292">
        <ele>193.6</ele>
        <time>2020-07-02T14:33:12.000Z</time>
      </trkpt>
      <trkpt lat="48.39023" lon="-2.77307">
        <ele>193.6</ele>
        <time>2020-07-02T14:33:16.000Z</time>
      </trkpt>
      <trkpt lat="48.39024" lon="-2.77323">
        <ele>193.6</ele>
        <time>2020-07-02T14:33:21.000Z</time>
      </trkpt>
      <trkpt lat="48.39024" lon="-2.77337">
        <ele>193.8</ele>
        <time>2020-07-02T14:33:26.000Z</time>
      </trkpt>
      <trkpt lat="48.39025" lon="-2.77351">
        <ele>194.1</ele>
        <time>2020-07-02T14:33:30.000Z</time>
      </trkpt>
      <trkpt lat="48.39026" lon="-2.77365">
        <ele>194.5</ele>
        <time>2020-07-02T14:33:34.000Z</time>
      </trkpt>
      <trkpt lat="48.39027" lon="-2.77378">
        <ele>194.9</ele>
        <time>2020-07-02T14:33:38.000Z</time>
      </trkpt>
      <trkpt lat="48.39031" lon="-2.77392">
        <ele>195.5</ele>
        <time>2020-07-02T14:33:43.000Z</time>
      </trkpt>
      <trkpt lat="48.39034" lon="-2.77406">
        <ele>196</ele>
        <time>2020-07-02T14:33:48.000Z</time>
      </trkpt>
      <trkpt lat="48.39035" lon="-2.77422">
        <ele>196.6</ele>
        <time>2020-07-02T14:33:54.000Z</time>
      </trkpt>
      <trkpt lat="48.39035" lon="-2.77436">
        <ele>196.8</ele>
        <time>2020-07-02T14:33:59.000Z</time>
      </trkpt>
      <trkpt lat="48.39036" lon="-2.77451">
        <ele>197</ele>
        <time>2020-07-02T14:34:04.000Z</time>
      </trkpt>
      <trkpt lat="48.39036" lon="-2.77467">
        <ele>197.1</ele>
        <time>2020-07-02T14:34:10.000Z</time>
      </trkpt>
      <trkpt lat="48.39036" lon="-2.77483">
        <ele>197.1</ele>
        <time>2020-07-02T14:34:15.000Z</time>
      </trkpt>
      <trkpt lat="48.39037" lon="-2.775">
        <ele>197.3</ele>
        <time>2020-07-02T14:34:20.000Z</time>
      </trkpt>
      <trkpt lat="48.39038" lon="-2.77515">
        <ele>197.5</ele>
        <time>2020-07-02T14:34:24.000Z</time>
      </trkpt>
      <trkpt lat="48.39038" lon="-2.7753">
        <ele>197.6</ele>
        <time>2020-07-02T14:34:28.000Z</time>
      </trkpt>
      <trkpt lat="48.39037" lon="-2.77544">
        <ele>197.9</ele>
        <time>2020-07-02T14:34:32.000Z</time>
      </trkpt>
      <trkpt lat="48.39031" lon="-2.77558">
        <ele>198.1</ele>
        <time>2020-07-02T14:34:37.000Z</time>
      </trkpt>
      <trkpt lat="48.39026" lon="-2.77571">
        <ele>198.3</ele>
        <time>2020-07-02T14:34:41.000Z</time>
      </trkpt>
      <trkpt lat="48.39022" lon="-2.77587">
        <ele>198.5</ele>
        <time>2020-07-02T14:34:46.000Z</time>
      </trkpt>
      <trkpt lat="48.39019" lon="-2.77601">
        <ele>198.9</ele>
        <time>2020-07-02T14:34:51.000Z</time>
      </trkpt>
      <trkpt lat="48.39018" lon="-2.77614">
        <ele>199.6</ele>
        <time>2020-07-02T14:34:57.000Z</time>
      </trkpt>
      <trkpt lat="48.39016" lon="-2.7763">
        <ele>200.3</ele>
        <time>2020-07-02T14:35:03.000Z</time>
      </trkpt>
      <trkpt lat="48.3901" lon="-2.77643">
        <ele>201.2</ele>
        <time>2020-07-02T14:35:09.000Z</time>
      </trkpt>
      <trkpt lat="48.39003" lon="-2.77653">
        <ele>201.8</ele>
        <time>2020-07-02T14:35:14.000Z</time>
      </trkpt>
      <trkpt lat="48.38994" lon="-2.77663">
        <ele>202.5</ele>
        <time>2020-07-02T14:35:20.000Z</time>
      </trkpt>
      <trkpt lat="48.38985" lon="-2.77671">
        <ele>203.1</ele>
        <time>2020-07-02T14:35:26.000Z</time>
      </trkpt>
      <trkpt lat="48.38976" lon="-2.77679">
        <ele>203.7</ele>
        <time>2020-07-02T14:35:31.000Z</time>
      </trkpt>
      <trkpt lat="48.38968" lon="-2.77686">
        <ele>204.4</ele>
        <time>2020-07-02T14:35:36.000Z</time>
      </trkpt>
      <trkpt lat="48.3896" lon="-2.77692">
        <ele>205.3</ele>
        <time>2020-07-02T14:35:41.000Z</time>
      </trkpt>
      <trkpt lat="48.38951" lon="-2.777">
        <ele>206.7</ele>
        <time>2020-07-02T14:35:48.000Z</time>
      </trkpt>
      <trkpt lat="48.38942" lon="-2.77706">
        <ele>207.8</ele>
        <time>2020-07-02T14:35:54.000Z</time>
      </trkpt>
      <trkpt lat="48.38934" lon="-2.77714">
        <ele>208.9</ele>
        <time>2020-07-02T14:36:00.000Z</time>
      </trkpt>
      <trkpt lat="48.38925" lon="-2.77722">
        <ele>210</ele>
        <time>2020-07-02T14:36:07.000Z</time>
      </trkpt>
      <trkpt lat="48.38916" lon="-2.77728">
        <ele>211</ele>
        <time>2020-07-02T14:36:13.000Z</time>
      </trkpt>
      <trkpt lat="48.38906" lon="-2.77735">
        <ele>212</ele>
        <time>2020-07-02T14:36:20.000Z</time>
      </trkpt>
      <trkpt lat="48.38897" lon="-2.77742">
        <ele>213.2</ele>
        <time>2020-07-02T14:36:28.000Z</time>
      </trkpt>
      <trkpt lat="48.38891" lon="-2.77746">
        <ele>214.5</ele>
        <time>2020-07-02T14:36:38.000Z</time>
      </trkpt>
      <trkpt lat="48.3889" lon="-2.77732">
        <ele>215.1</ele>
        <time>2020-07-02T14:39:22.000Z</time>
      </trkpt>
      <trkpt lat="48.38891" lon="-2.77715">
        <ele>214.9</ele>
        <time>2020-07-02T14:39:26.000Z</time>
      </trkpt>
      <trkpt lat="48.38893" lon="-2.77699">
        <ele>214.5</ele>
        <time>2020-07-02T14:39:29.000Z</time>
      </trkpt>
      <trkpt lat="48.38894" lon="-2.77678">
        <ele>214.1</ele>
        <time>2020-07-02T14:39:32.000Z</time>
      </trkpt>
      <trkpt lat="48.38893" lon="-2.77663">
        <ele>213.3</ele>
        <time>2020-07-02T14:39:36.000Z</time>
      </trkpt>
      <trkpt lat="48.38893" lon="-2.77662">
        <ele>211.7</ele>
        <time>2020-07-02T14:39:41.000Z</time>
      </trkpt>
      <trkpt lat="48.38892" lon="-2.77648">
        <ele>210.9</ele>
        <time>2020-07-02T14:40:09.000Z</time>
      </trkpt>
      <trkpt lat="48.38891" lon="-2.77631">
        <ele>210.6</ele>
        <time>2020-07-02T14:40:13.000Z</time>
      </trkpt>
      <trkpt lat="48.3889" lon="-2.77616">
        <ele>210.4</ele>
        <time>2020-07-02T14:40:16.000Z</time>
      </trkpt>
      <trkpt lat="48.38887" lon="-2.77601">
        <ele>210</ele>
        <time>2020-07-02T14:40:19.000Z</time>
      </trkpt>
      <trkpt lat="48.38883" lon="-2.77585">
        <ele>209.6</ele>
        <time>2020-07-02T14:40:22.000Z</time>
      </trkpt>
      <trkpt lat="48.38878" lon="-2.77566">
        <ele>209.1</ele>
        <time>2020-07-02T14:40:25.000Z</time>
      </trkpt>
      <trkpt lat="48.38873" lon="-2.77552">
        <ele>208.7</ele>
        <time>2020-07-02T14:40:27.000Z</time>
      </trkpt>
      <trkpt lat="48.38868" lon="-2.77535">
        <ele>208.3</ele>
        <time>2020-07-02T14:40:29.000Z</time>
      </trkpt>
      <trkpt lat="48.38862" lon="-2.77518">
        <ele>207.8</ele>
        <time>2020-07-02T14:40:31.000Z</time>
      </trkpt>
      <trkpt lat="48.38855" lon="-2.77498">
        <ele>207.1</ele>
        <time>2020-07-02T14:40:33.000Z</time>
      </trkpt>
      <trkpt lat="48.38847" lon="-2.77476">
        <ele>206.5</ele>
        <time>2020-07-02T14:40:35.000Z</time>
      </trkpt>
      <trkpt lat="48.38841" lon="-2.77452">
        <ele>205.7</ele>
        <time>2020-07-02T14:40:37.000Z</time>
      </trkpt>
      <trkpt lat="48.38839" lon="-2.77429">
        <ele>205.2</ele>
        <time>2020-07-02T14:40:39.000Z</time>
      </trkpt>
      <trkpt lat="48.38839" lon="-2.77408">
        <ele>204.7</ele>
        <time>2020-07-02T14:40:41.000Z</time>
      </trkpt>
      <trkpt lat="48.38839" lon="-2.7739">
        <ele>204.3</ele>
        <time>2020-07-02T14:40:43.000Z</time>
      </trkpt>
      <trkpt lat="48.38841" lon="-2.77376">
        <ele>204</ele>
        <time>2020-07-02T14:40:45.000Z</time>
      </trkpt>
      <trkpt lat="48.38842" lon="-2.77356">
        <ele>203.7</ele>
        <time>2020-07-02T14:40:48.000Z</time>
      </trkpt>
      <trkpt lat="48.38842" lon="-2.77339">
        <ele>203.6</ele>
        <time>2020-07-02T14:40:51.000Z</time>
      </trkpt>
      <trkpt lat="48.38839" lon="-2.77323">
        <ele>203.6</ele>
        <time>2020-07-02T14:40:54.000Z</time>
      </trkpt>
      <trkpt lat="48.38832" lon="-2.77308">
        <ele>203.9</ele>
        <time>2020-07-02T14:40:58.000Z</time>
      </trkpt>
      <trkpt lat="48.38824" lon="-2.77296">
        <ele>204.3</ele>
        <time>2020-07-02T14:41:01.000Z</time>
      </trkpt>
      <trkpt lat="48.38815" lon="-2.77286">
        <ele>204.7</ele>
        <time>2020-07-02T14:41:04.000Z</time>
      </trkpt>
      <trkpt lat="48.38807" lon="-2.77276">
        <ele>205.2</ele>
        <time>2020-07-02T14:41:07.000Z</time>
      </trkpt>
      <trkpt lat="48.38798" lon="-2.77266">
        <ele>205.8</ele>
        <time>2020-07-02T14:41:10.000Z</time>
      </trkpt>
      <trkpt lat="48.38789" lon="-2.77256">
        <ele>206.5</ele>
        <time>2020-07-02T14:41:13.000Z</time>
      </trkpt>
      <trkpt lat="48.38781" lon="-2.77246">
        <ele>207.1</ele>
        <time>2020-07-02T14:41:16.000Z</time>
      </trkpt>
      <trkpt lat="48.38774" lon="-2.77236">
        <ele>207.6</ele>
        <time>2020-07-02T14:41:19.000Z</time>
      </trkpt>
      <trkpt lat="48.38766" lon="-2.77224">
        <ele>208.2</ele>
        <time>2020-07-02T14:41:23.000Z</time>
      </trkpt>
      <trkpt lat="48.38758" lon="-2.77215">
        <ele>208.7</ele>
        <time>2020-07-02T14:41:26.000Z</time>
      </trkpt>
      <trkpt lat="48.38749" lon="-2.77204">
        <ele>209</ele>
        <time>2020-07-02T14:41:29.000Z</time>
      </trkpt>
      <trkpt lat="48.38738" lon="-2.77192">
        <ele>209.2</ele>
        <time>2020-07-02T14:41:32.000Z</time>
      </trkpt>
      <trkpt lat="48.38731" lon="-2.77184">
        <ele>209.3</ele>
        <time>2020-07-02T14:41:34.000Z</time>
      </trkpt>
      <trkpt lat="48.38723" lon="-2.77176">
        <ele>209.4</ele>
        <time>2020-07-02T14:41:36.000Z</time>
      </trkpt>
      <trkpt lat="48.38716" lon="-2.77168">
        <ele>209.5</ele>
        <time>2020-07-02T14:41:38.000Z</time>
      </trkpt>
      <trkpt lat="48.38708" lon="-2.7716">
        <ele>209.5</ele>
        <time>2020-07-02T14:41:40.000Z</time>
      </trkpt>
      <trkpt lat="48.387" lon="-2.77152">
        <ele>209.5</ele>
        <time>2020-07-02T14:41:42.000Z</time>
      </trkpt>
      <trkpt lat="48.38688" lon="-2.77143">
        <ele>209.5</ele>
        <time>2020-07-02T14:41:45.000Z</time>
      </trkpt>
      <trkpt lat="48.38678" lon="-2.77142">
        <ele>209.6</ele>
        <time>2020-07-02T14:41:48.000Z</time>
      </trkpt>
      <trkpt lat="48.38668" lon="-2.77142">
        <ele>209.8</ele>
        <time>2020-07-02T14:41:51.000Z</time>
      </trkpt>
      <trkpt lat="48.38659" lon="-2.77139">
        <ele>210.2</ele>
        <time>2020-07-02T14:41:54.000Z</time>
      </trkpt>
      <trkpt lat="48.38651" lon="-2.77135">
        <ele>210.6</ele>
        <time>2020-07-02T14:41:57.000Z</time>
      </trkpt>
      <trkpt lat="48.3864" lon="-2.77125">
        <ele>211.2</ele>
        <time>2020-07-02T14:42:01.000Z</time>
      </trkpt>
      <trkpt lat="48.38632" lon="-2.77114">
        <ele>211.8</ele>
        <time>2020-07-02T14:42:05.000Z</time>
      </trkpt>
      <trkpt lat="48.38624" lon="-2.77105">
        <ele>212.2</ele>
        <time>2020-07-02T14:42:08.000Z</time>
      </trkpt>
      <trkpt lat="48.38617" lon="-2.77094">
        <ele>212.7</ele>
        <time>2020-07-02T14:42:11.000Z</time>
      </trkpt>
      <trkpt lat="48.3861" lon="-2.77082">
        <ele>213.2</ele>
        <time>2020-07-02T14:42:14.000Z</time>
      </trkpt>
      <trkpt lat="48.38603" lon="-2.77072">
        <ele>213.6</ele>
        <time>2020-07-02T14:42:17.000Z</time>
      </trkpt>
      <trkpt lat="48.38595" lon="-2.77061">
        <ele>214</ele>
        <time>2020-07-02T14:42:21.000Z</time>
      </trkpt>
      <trkpt lat="48.38586" lon="-2.77053">
        <ele>214.5</ele>
        <time>2020-07-02T14:42:25.000Z</time>
      </trkpt>
      <trkpt lat="48.38577" lon="-2.77047">
        <ele>214.9</ele>
        <time>2020-07-02T14:42:29.000Z</time>
      </trkpt>
      <trkpt lat="48.38569" lon="-2.77041">
        <ele>215.4</ele>
        <time>2020-07-02T14:42:33.000Z</time>
      </trkpt>
      <trkpt lat="48.3856" lon="-2.77036">
        <ele>215.9</ele>
        <time>2020-07-02T14:42:37.000Z</time>
      </trkpt>
      <trkpt lat="48.38552" lon="-2.77031">
        <ele>216.5</ele>
        <time>2020-07-02T14:42:41.000Z</time>
      </trkpt>
      <trkpt lat="48.38542" lon="-2.77024">
        <ele>217.4</ele>
        <time>2020-07-02T14:42:46.000Z</time>
      </trkpt>
      <trkpt lat="48.38533" lon="-2.77015">
        <ele>218.3</ele>
        <time>2020-07-02T14:42:51.000Z</time>
      </trkpt>
      <trkpt lat="48.38525" lon="-2.77007">
        <ele>219.3</ele>
        <time>2020-07-02T14:42:56.000Z</time>
      </trkpt>
      <trkpt lat="48.38517" lon="-2.76998">
        <ele>220</ele>
        <time>2020-07-02T14:43:01.000Z</time>
      </trkpt>
      <trkpt lat="48.38509" lon="-2.76989">
        <ele>220.8</ele>
        <time>2020-07-02T14:43:06.000Z</time>
      </trkpt>
      <trkpt lat="48.385" lon="-2.7698">
        <ele>221.6</ele>
        <time>2020-07-02T14:43:11.000Z</time>
      </trkpt>
      <trkpt lat="48.38492" lon="-2.76973">
        <ele>222.7</ele>
        <time>2020-07-02T14:43:16.000Z</time>
      </trkpt>
      <trkpt lat="48.38483" lon="-2.76965">
        <ele>223.7</ele>
        <time>2020-07-02T14:43:21.000Z</time>
      </trkpt>
      <trkpt lat="48.38476" lon="-2.76957">
        <ele>224.6</ele>
        <time>2020-07-02T14:43:25.000Z</time>
      </trkpt>
      <trkpt lat="48.38468" lon="-2.76949">
        <ele>225.5</ele>
        <time>2020-07-02T14:43:29.000Z</time>
      </trkpt>
      <trkpt lat="48.38461" lon="-2.76941">
        <ele>226.6</ele>
        <time>2020-07-02T14:43:33.000Z</time>
      </trkpt>
      <trkpt lat="48.38453" lon="-2.76933">
        <ele>227.6</ele>
        <time>2020-07-02T14:43:37.000Z</time>
      </trkpt>
      <trkpt lat="48.38444" lon="-2.76924">
        <ele>228.7</ele>
        <time>2020-07-02T14:43:42.000Z</time>
      </trkpt>
      <trkpt lat="48.38435" lon="-2.76923">
        <ele>229.6</ele>
        <time>2020-07-02T14:43:47.000Z</time>
      </trkpt>
      <trkpt lat="48.3843" lon="-2.76938">
        <ele>230.2</ele>
        <time>2020-07-02T14:43:52.000Z</time>
      </trkpt>
      <trkpt lat="48.38428" lon="-2.76952">
        <ele>230.7</ele>
        <time>2020-07-02T14:43:57.000Z</time>
      </trkpt>
      <trkpt lat="48.38425" lon="-2.76967">
        <ele>231.1</ele>
        <time>2020-07-02T14:44:03.000Z</time>
      </trkpt>
      <trkpt lat="48.38417" lon="-2.76978">
        <ele>231.4</ele>
        <time>2020-07-02T14:44:08.000Z</time>
      </trkpt>
      <trkpt lat="48.38409" lon="-2.76983">
        <ele>231.5</ele>
        <time>2020-07-02T14:44:11.000Z</time>
      </trkpt>
      <trkpt lat="48.38397" lon="-2.76987">
        <ele>231.7</ele>
        <time>2020-07-02T14:44:15.000Z</time>
      </trkpt>
      <trkpt lat="48.38386" lon="-2.76991">
        <ele>231.9</ele>
        <time>2020-07-02T14:44:19.000Z</time>
      </trkpt>
      <trkpt lat="48.38376" lon="-2.76993">
        <ele>232.1</ele>
        <time>2020-07-02T14:44:23.000Z</time>
      </trkpt>
      <trkpt lat="48.38367" lon="-2.76995">
        <ele>232.4</ele>
        <time>2020-07-02T14:44:27.000Z</time>
      </trkpt>
      <trkpt lat="48.38356" lon="-2.76998">
        <ele>232.7</ele>
        <time>2020-07-02T14:44:31.000Z</time>
      </trkpt>
      <trkpt lat="48.38346" lon="-2.77001">
        <ele>233</ele>
        <time>2020-07-02T14:44:35.000Z</time>
      </trkpt>
      <trkpt lat="48.38335" lon="-2.77004">
        <ele>233.2</ele>
        <time>2020-07-02T14:44:39.000Z</time>
      </trkpt>
      <trkpt lat="48.38324" lon="-2.77006">
        <ele>233.4</ele>
        <time>2020-07-02T14:44:43.000Z</time>
      </trkpt>
      <trkpt lat="48.38313" lon="-2.77009">
        <ele>233.5</ele>
        <time>2020-07-02T14:44:47.000Z</time>
      </trkpt>
      <trkpt lat="48.38302" lon="-2.77012">
        <ele>233.7</ele>
        <time>2020-07-02T14:44:51.000Z</time>
      </trkpt>
      <trkpt lat="48.38293" lon="-2.77015">
        <ele>233.8</ele>
        <time>2020-07-02T14:44:54.000Z</time>
      </trkpt>
      <trkpt lat="48.38281" lon="-2.77018">
        <ele>233.9</ele>
        <time>2020-07-02T14:44:58.000Z</time>
      </trkpt>
      <trkpt lat="48.38269" lon="-2.77022">
        <ele>233.7</ele>
        <time>2020-07-02T14:45:02.000Z</time>
      </trkpt>
      <trkpt lat="48.38258" lon="-2.77026">
        <ele>233.5</ele>
        <time>2020-07-02T14:45:05.000Z</time>
      </trkpt>
      <trkpt lat="48.38247" lon="-2.77028">
        <ele>233.3</ele>
        <time>2020-07-02T14:45:08.000Z</time>
      </trkpt>
      <trkpt lat="48.38235" lon="-2.77028">
        <ele>233.1</ele>
        <time>2020-07-02T14:45:11.000Z</time>
      </trkpt>
      <trkpt lat="48.38223" lon="-2.77021">
        <ele>232.7</ele>
        <time>2020-07-02T14:45:14.000Z</time>
      </trkpt>
      <trkpt lat="48.38214" lon="-2.77014">
        <ele>232.5</ele>
        <time>2020-07-02T14:45:16.000Z</time>
      </trkpt>
      <trkpt lat="48.38206" lon="-2.77006">
        <ele>232.2</ele>
        <time>2020-07-02T14:45:18.000Z</time>
      </trkpt>
      <trkpt lat="48.38198" lon="-2.76999">
        <ele>231.9</ele>
        <time>2020-07-02T14:45:20.000Z</time>
      </trkpt>
      <trkpt lat="48.38189" lon="-2.76991">
        <ele>231.5</ele>
        <time>2020-07-02T14:45:22.000Z</time>
      </trkpt>
      <trkpt lat="48.3818" lon="-2.76983">
        <ele>231</ele>
        <time>2020-07-02T14:45:24.000Z</time>
      </trkpt>
      <trkpt lat="48.3817" lon="-2.76975">
        <ele>230.6</ele>
        <time>2020-07-02T14:45:26.000Z</time>
      </trkpt>
      <trkpt lat="48.38161" lon="-2.76968">
        <ele>230.1</ele>
        <time>2020-07-02T14:45:28.000Z</time>
      </trkpt>
      <trkpt lat="48.38151" lon="-2.76959">
        <ele>229.7</ele>
        <time>2020-07-02T14:45:30.000Z</time>
      </trkpt>
      <trkpt lat="48.38142" lon="-2.76951">
        <ele>229.3</ele>
        <time>2020-07-02T14:45:32.000Z</time>
      </trkpt>
      <trkpt lat="48.38131" lon="-2.7694">
        <ele>228.8</ele>
        <time>2020-07-02T14:45:34.000Z</time>
      </trkpt>
      <trkpt lat="48.38121" lon="-2.76931">
        <ele>228.3</ele>
        <time>2020-07-02T14:45:36.000Z</time>
      </trkpt>
      <trkpt lat="48.38111" lon="-2.76922">
        <ele>227.9</ele>
        <time>2020-07-02T14:45:38.000Z</time>
      </trkpt>
      <trkpt lat="48.381" lon="-2.76911">
        <ele>227.5</ele>
        <time>2020-07-02T14:45:40.000Z</time>
      </trkpt>
      <trkpt lat="48.38089" lon="-2.769">
        <ele>227.1</ele>
        <time>2020-07-02T14:45:42.000Z</time>
      </trkpt>
      <trkpt lat="48.38077" lon="-2.7689">
        <ele>226.6</ele>
        <time>2020-07-02T14:45:44.000Z</time>
      </trkpt>
      <trkpt lat="48.38064" lon="-2.76879">
        <ele>226.1</ele>
        <time>2020-07-02T14:45:46.000Z</time>
      </trkpt>
      <trkpt lat="48.38052" lon="-2.76867">
        <ele>225.4</ele>
        <time>2020-07-02T14:45:48.000Z</time>
      </trkpt>
      <trkpt lat="48.38041" lon="-2.76856">
        <ele>224.8</ele>
        <time>2020-07-02T14:45:50.000Z</time>
      </trkpt>
      <trkpt lat="48.3803" lon="-2.76846">
        <ele>224.1</ele>
        <time>2020-07-02T14:45:52.000Z</time>
      </trkpt>
      <trkpt lat="48.38022" lon="-2.76841">
        <ele>223.4</ele>
        <time>2020-07-02T14:45:54.000Z</time>
      </trkpt>
      <trkpt lat="48.3801" lon="-2.76833">
        <ele>222.1</ele>
        <time>2020-07-02T14:45:57.000Z</time>
      </trkpt>
      <trkpt lat="48.38002" lon="-2.76825">
        <ele>221.3</ele>
        <time>2020-07-02T14:45:59.000Z</time>
      </trkpt>
      <trkpt lat="48.37994" lon="-2.76817">
        <ele>220.6</ele>
        <time>2020-07-02T14:46:01.000Z</time>
      </trkpt>
      <trkpt lat="48.37985" lon="-2.76809">
        <ele>220</ele>
        <time>2020-07-02T14:46:03.000Z</time>
      </trkpt>
      <trkpt lat="48.37977" lon="-2.768">
        <ele>219.4</ele>
        <time>2020-07-02T14:46:05.000Z</time>
      </trkpt>
      <trkpt lat="48.37969" lon="-2.76793">
        <ele>218.9</ele>
        <time>2020-07-02T14:46:07.000Z</time>
      </trkpt>
      <trkpt lat="48.37961" lon="-2.76785">
        <ele>218.4</ele>
        <time>2020-07-02T14:46:09.000Z</time>
      </trkpt>
      <trkpt lat="48.37949" lon="-2.76775">
        <ele>217.9</ele>
        <time>2020-07-02T14:46:12.000Z</time>
      </trkpt>
      <trkpt lat="48.37938" lon="-2.76765">
        <ele>217.4</ele>
        <time>2020-07-02T14:46:15.000Z</time>
      </trkpt>
      <trkpt lat="48.37927" lon="-2.76756">
        <ele>217.1</ele>
        <time>2020-07-02T14:46:18.000Z</time>
      </trkpt>
      <trkpt lat="48.37916" lon="-2.76747">
        <ele>216.9</ele>
        <time>2020-07-02T14:46:21.000Z</time>
      </trkpt>
      <trkpt lat="48.37904" lon="-2.76738">
        <ele>216.8</ele>
        <time>2020-07-02T14:46:24.000Z</time>
      </trkpt>
      <trkpt lat="48.37896" lon="-2.76733">
        <ele>216.7</ele>
        <time>2020-07-02T14:46:26.000Z</time>
      </trkpt>
      <trkpt lat="48.37886" lon="-2.76731">
        <ele>216.6</ele>
        <time>2020-07-02T14:46:28.000Z</time>
      </trkpt>
      <trkpt lat="48.37877" lon="-2.76728">
        <ele>216.4</ele>
        <time>2020-07-02T14:46:30.000Z</time>
      </trkpt>
      <trkpt lat="48.37867" lon="-2.76726">
        <ele>216.3</ele>
        <time>2020-07-02T14:46:32.000Z</time>
      </trkpt>
      <trkpt lat="48.37857" lon="-2.76722">
        <ele>216.1</ele>
        <time>2020-07-02T14:46:34.000Z</time>
      </trkpt>
      <trkpt lat="48.37848" lon="-2.76718">
        <ele>215.9</ele>
        <time>2020-07-02T14:46:36.000Z</time>
      </trkpt>
      <trkpt lat="48.37838" lon="-2.76711">
        <ele>215.7</ele>
        <time>2020-07-02T14:46:38.000Z</time>
      </trkpt>
      <trkpt lat="48.37829" lon="-2.76704">
        <ele>215.5</ele>
        <time>2020-07-02T14:46:40.000Z</time>
      </trkpt>
      <trkpt lat="48.3782" lon="-2.76697">
        <ele>215.3</ele>
        <time>2020-07-02T14:46:42.000Z</time>
      </trkpt>
      <trkpt lat="48.37811" lon="-2.7669">
        <ele>215.1</ele>
        <time>2020-07-02T14:46:44.000Z</time>
      </trkpt>
      <trkpt lat="48.37803" lon="-2.76682">
        <ele>214.9</ele>
        <time>2020-07-02T14:46:46.000Z</time>
      </trkpt>
      <trkpt lat="48.37792" lon="-2.7668">
        <ele>214.6</ele>
        <time>2020-07-02T14:46:49.000Z</time>
      </trkpt>
      <trkpt lat="48.37784" lon="-2.7669">
        <ele>214.3</ele>
        <time>2020-07-02T14:46:52.000Z</time>
      </trkpt>
      <trkpt lat="48.37777" lon="-2.76704">
        <ele>214.1</ele>
        <time>2020-07-02T14:46:55.000Z</time>
      </trkpt>
      <trkpt lat="48.37769" lon="-2.76717">
        <ele>214</ele>
        <time>2020-07-02T14:46:58.000Z</time>
      </trkpt>
      <trkpt lat="48.3776" lon="-2.7673">
        <ele>213.9</ele>
        <time>2020-07-02T14:47:01.000Z</time>
      </trkpt>
      <trkpt lat="48.37749" lon="-2.76743">
        <ele>213.9</ele>
        <time>2020-07-02T14:47:04.000Z</time>
      </trkpt>
      <trkpt lat="48.37741" lon="-2.76751">
        <ele>213.9</ele>
        <time>2020-07-02T14:47:06.000Z</time>
      </trkpt>
      <trkpt lat="48.37733" lon="-2.76758">
        <ele>213.9</ele>
        <time>2020-07-02T14:47:08.000Z</time>
      </trkpt>
      <trkpt lat="48.37724" lon="-2.76765">
        <ele>213.9</ele>
        <time>2020-07-02T14:47:10.000Z</time>
      </trkpt>
      <trkpt lat="48.37717" lon="-2.76775">
        <ele>213.9</ele>
        <time>2020-07-02T14:47:13.000Z</time>
      </trkpt>
      <trkpt lat="48.37719" lon="-2.76791">
        <ele>213.8</ele>
        <time>2020-07-02T14:47:17.000Z</time>
      </trkpt>
      <trkpt lat="48.37722" lon="-2.76806">
        <ele>213.7</ele>
        <time>2020-07-02T14:47:21.000Z</time>
      </trkpt>
      <trkpt lat="48.37724" lon="-2.7682">
        <ele>213.5</ele>
        <time>2020-07-02T14:47:24.000Z</time>
      </trkpt>
      <trkpt lat="48.37725" lon="-2.76837">
        <ele>213.4</ele>
        <time>2020-07-02T14:47:27.000Z</time>
      </trkpt>
      <trkpt lat="48.37725" lon="-2.76854">
        <ele>213.3</ele>
        <time>2020-07-02T14:47:30.000Z</time>
      </trkpt>
      <trkpt lat="48.37726" lon="-2.76872">
        <ele>213.1</ele>
        <time>2020-07-02T14:47:33.000Z</time>
      </trkpt>
      <trkpt lat="48.37736" lon="-2.76881">
        <ele>212.9</ele>
        <time>2020-07-02T14:47:36.000Z</time>
      </trkpt>
      <trkpt lat="48.37747" lon="-2.76884">
        <ele>212.8</ele>
        <time>2020-07-02T14:47:39.000Z</time>
      </trkpt>
      <trkpt lat="48.37759" lon="-2.76887">
        <ele>212.7</ele>
        <time>2020-07-02T14:47:42.000Z</time>
      </trkpt>
      <trkpt lat="48.3777" lon="-2.76895">
        <ele>212.5</ele>
        <time>2020-07-02T14:47:45.000Z</time>
      </trkpt>
      <trkpt lat="48.37772" lon="-2.76912">
        <ele>212.3</ele>
        <time>2020-07-02T14:47:48.000Z</time>
      </trkpt>
      <trkpt lat="48.37771" lon="-2.76928">
        <ele>212</ele>
        <time>2020-07-02T14:47:51.000Z</time>
      </trkpt>
      <trkpt lat="48.37769" lon="-2.76943">
        <ele>211.8</ele>
        <time>2020-07-02T14:47:54.000Z</time>
      </trkpt>
      <trkpt lat="48.3777" lon="-2.7696">
        <ele>211.5</ele>
        <time>2020-07-02T14:47:58.000Z</time>
      </trkpt>
      <trkpt lat="48.37769" lon="-2.76976">
        <ele>211.1</ele>
        <time>2020-07-02T14:48:02.000Z</time>
      </trkpt>
      <trkpt lat="48.37766" lon="-2.76992">
        <ele>210.8</ele>
        <time>2020-07-02T14:48:06.000Z</time>
      </trkpt>
      <trkpt lat="48.37763" lon="-2.77005">
        <ele>210.7</ele>
        <time>2020-07-02T14:48:09.000Z</time>
      </trkpt>
      <trkpt lat="48.37758" lon="-2.77019">
        <ele>210.3</ele>
        <time>2020-07-02T14:48:13.000Z</time>
      </trkpt>
      <trkpt lat="48.3775" lon="-2.77029">
        <ele>210.1</ele>
        <time>2020-07-02T14:48:17.000Z</time>
      </trkpt>
      <trkpt lat="48.37746" lon="-2.77044">
        <ele>209.9</ele>
        <time>2020-07-02T14:48:21.000Z</time>
      </trkpt>
      <trkpt lat="48.37744" lon="-2.77059">
        <ele>209.8</ele>
        <time>2020-07-02T14:48:24.000Z</time>
      </trkpt>
      <trkpt lat="48.37742" lon="-2.77073">
        <ele>209.7</ele>
        <time>2020-07-02T14:48:27.000Z</time>
      </trkpt>
      <trkpt lat="48.37739" lon="-2.77088">
        <ele>209.6</ele>
        <time>2020-07-02T14:48:31.000Z</time>
      </trkpt>
      <trkpt lat="48.37736" lon="-2.77102">
        <ele>209.4</ele>
        <time>2020-07-02T14:48:34.000Z</time>
      </trkpt>
      <trkpt lat="48.37732" lon="-2.77116">
        <ele>209.3</ele>
        <time>2020-07-02T14:48:38.000Z</time>
      </trkpt>
      <trkpt lat="48.37727" lon="-2.7713">
        <ele>209.2</ele>
        <time>2020-07-02T14:48:43.000Z</time>
      </trkpt>
      <trkpt lat="48.37721" lon="-2.77142">
        <ele>208.9</ele>
        <time>2020-07-02T14:48:47.000Z</time>
      </trkpt>
      <trkpt lat="48.37716" lon="-2.77155">
        <ele>208.6</ele>
        <time>2020-07-02T14:48:51.000Z</time>
      </trkpt>
      <trkpt lat="48.37708" lon="-2.77167">
        <ele>208.5</ele>
        <time>2020-07-02T14:48:55.000Z</time>
      </trkpt>
      <trkpt lat="48.37703" lon="-2.77179">
        <ele>208.4</ele>
        <time>2020-07-02T14:48:58.000Z</time>
      </trkpt>
      <trkpt lat="48.37698" lon="-2.77195">
        <ele>208.4</ele>
        <time>2020-07-02T14:49:02.000Z</time>
      </trkpt>
      <trkpt lat="48.37694" lon="-2.7721">
        <ele>208.3</ele>
        <time>2020-07-02T14:49:06.000Z</time>
      </trkpt>
      <trkpt lat="48.37689" lon="-2.77223">
        <ele>208.2</ele>
        <time>2020-07-02T14:49:10.000Z</time>
      </trkpt>
      <trkpt lat="48.37684" lon="-2.77238">
        <ele>208.2</ele>
        <time>2020-07-02T14:49:14.000Z</time>
      </trkpt>
      <trkpt lat="48.37679" lon="-2.77251">
        <ele>208.2</ele>
        <time>2020-07-02T14:49:17.000Z</time>
      </trkpt>
      <trkpt lat="48.37674" lon="-2.77266">
        <ele>208.1</ele>
        <time>2020-07-02T14:49:20.000Z</time>
      </trkpt>
      <trkpt lat="48.37669" lon="-2.77281">
        <ele>208.1</ele>
        <time>2020-07-02T14:49:23.000Z</time>
      </trkpt>
      <trkpt lat="48.37664" lon="-2.773">
        <ele>208.1</ele>
        <time>2020-07-02T14:49:26.000Z</time>
      </trkpt>
      <trkpt lat="48.37661" lon="-2.77318">
        <ele>208</ele>
        <time>2020-07-02T14:49:29.000Z</time>
      </trkpt>
      <trkpt lat="48.37658" lon="-2.77333">
        <ele>207.9</ele>
        <time>2020-07-02T14:49:32.000Z</time>
      </trkpt>
      <trkpt lat="48.37655" lon="-2.77348">
        <ele>207.8</ele>
        <time>2020-07-02T14:49:35.000Z</time>
      </trkpt>
      <trkpt lat="48.37655" lon="-2.77363">
        <ele>207.7</ele>
        <time>2020-07-02T14:49:38.000Z</time>
      </trkpt>
      <trkpt lat="48.37657" lon="-2.77378">
        <ele>207.7</ele>
        <time>2020-07-02T14:49:41.000Z</time>
      </trkpt>
      <trkpt lat="48.37662" lon="-2.77392">
        <ele>207.6</ele>
        <time>2020-07-02T14:49:44.000Z</time>
      </trkpt>
      <trkpt lat="48.37667" lon="-2.77405">
        <ele>207.6</ele>
        <time>2020-07-02T14:49:47.000Z</time>
      </trkpt>
      <trkpt lat="48.37673" lon="-2.77416">
        <ele>207.6</ele>
        <time>2020-07-02T14:49:50.000Z</time>
      </trkpt>
      <trkpt lat="48.37678" lon="-2.77429">
        <ele>207.7</ele>
        <time>2020-07-02T14:49:53.000Z</time>
      </trkpt>
      <trkpt lat="48.37684" lon="-2.77441">
        <ele>207.9</ele>
        <time>2020-07-02T14:49:56.000Z</time>
      </trkpt>
      <trkpt lat="48.37689" lon="-2.77452">
        <ele>208</ele>
        <time>2020-07-02T14:49:59.000Z</time>
      </trkpt>
      <trkpt lat="48.37695" lon="-2.77465">
        <ele>208.2</ele>
        <time>2020-07-02T14:50:02.000Z</time>
      </trkpt>
      <trkpt lat="48.377" lon="-2.77477">
        <ele>208.3</ele>
        <time>2020-07-02T14:50:05.000Z</time>
      </trkpt>
      <trkpt lat="48.37706" lon="-2.77489">
        <ele>208.5</ele>
        <time>2020-07-02T14:50:08.000Z</time>
      </trkpt>
      <trkpt lat="48.3771" lon="-2.77501">
        <ele>208.6</ele>
        <time>2020-07-02T14:50:11.000Z</time>
      </trkpt>
      <trkpt lat="48.37709" lon="-2.77518">
        <ele>208.8</ele>
        <time>2020-07-02T14:50:14.000Z</time>
      </trkpt>
      <trkpt lat="48.377" lon="-2.7753">
        <ele>209</ele>
        <time>2020-07-02T14:50:17.000Z</time>
      </trkpt>
      <trkpt lat="48.37692" lon="-2.77537">
        <ele>209.1</ele>
        <time>2020-07-02T14:50:20.000Z</time>
      </trkpt>
      <trkpt lat="48.37682" lon="-2.77543">
        <ele>209.3</ele>
        <time>2020-07-02T14:50:23.000Z</time>
      </trkpt>
      <trkpt lat="48.37673" lon="-2.77549">
        <ele>209.4</ele>
        <time>2020-07-02T14:50:26.000Z</time>
      </trkpt>
      <trkpt lat="48.37663" lon="-2.77555">
        <ele>209.4</ele>
        <time>2020-07-02T14:50:29.000Z</time>
      </trkpt>
      <trkpt lat="48.37653" lon="-2.77563">
        <ele>209.5</ele>
        <time>2020-07-02T14:50:32.000Z</time>
      </trkpt>
      <trkpt lat="48.37642" lon="-2.77571">
        <ele>209.5</ele>
        <time>2020-07-02T14:50:35.000Z</time>
      </trkpt>
      <trkpt lat="48.37631" lon="-2.77579">
        <ele>209.5</ele>
        <time>2020-07-02T14:50:38.000Z</time>
      </trkpt>
      <trkpt lat="48.3762" lon="-2.77587">
        <ele>209.5</ele>
        <time>2020-07-02T14:50:41.000Z</time>
      </trkpt>
      <trkpt lat="48.37609" lon="-2.77595">
        <ele>209.5</ele>
        <time>2020-07-02T14:50:44.000Z</time>
      </trkpt>
      <trkpt lat="48.37597" lon="-2.77603">
        <ele>209.5</ele>
        <time>2020-07-02T14:50:47.000Z</time>
      </trkpt>
      <trkpt lat="48.37587" lon="-2.77609">
        <ele>209.5</ele>
        <time>2020-07-02T14:50:50.000Z</time>
      </trkpt>
      <trkpt lat="48.37576" lon="-2.77615">
        <ele>209.3</ele>
        <time>2020-07-02T14:50:53.000Z</time>
      </trkpt>
      <trkpt lat="48.37564" lon="-2.77622">
        <ele>209.2</ele>
        <time>2020-07-02T14:50:56.000Z</time>
      </trkpt>
      <trkpt lat="48.37553" lon="-2.77629">
        <ele>209.2</ele>
        <time>2020-07-02T14:50:59.000Z</time>
      </trkpt>
      <trkpt lat="48.37544" lon="-2.77635">
        <ele>209.1</ele>
        <time>2020-07-02T14:51:01.000Z</time>
      </trkpt>
      <trkpt lat="48.37532" lon="-2.77644">
        <ele>209</ele>
        <time>2020-07-02T14:51:04.000Z</time>
      </trkpt>
      <trkpt lat="48.37522" lon="-2.77652">
        <ele>208.9</ele>
        <time>2020-07-02T14:51:07.000Z</time>
      </trkpt>
      <trkpt lat="48.37512" lon="-2.77659">
        <ele>208.8</ele>
        <time>2020-07-02T14:51:10.000Z</time>
      </trkpt>
      <trkpt lat="48.37504" lon="-2.77668">
        <ele>208.6</ele>
        <time>2020-07-02T14:51:14.000Z</time>
      </trkpt>
      <trkpt lat="48.37511" lon="-2.77679">
        <ele>208.4</ele>
        <time>2020-07-02T14:51:22.000Z</time>
      </trkpt>
      <trkpt lat="48.37521" lon="-2.77682">
        <ele>208.4</ele>
        <time>2020-07-02T14:51:28.000Z</time>
      </trkpt>
      <trkpt lat="48.37529" lon="-2.77689">
        <ele>208.4</ele>
        <time>2020-07-02T14:51:32.000Z</time>
      </trkpt>
      <trkpt lat="48.37535" lon="-2.77702">
        <ele>208.5</ele>
        <time>2020-07-02T14:51:37.000Z</time>
      </trkpt>
      <trkpt lat="48.37537" lon="-2.77716">
        <ele>208.7</ele>
        <time>2020-07-02T14:51:41.000Z</time>
      </trkpt>
      <trkpt lat="48.37539" lon="-2.77732">
        <ele>209</ele>
        <time>2020-07-02T14:51:46.000Z</time>
      </trkpt>
      <trkpt lat="48.37542" lon="-2.77747">
        <ele>209.3</ele>
        <time>2020-07-02T14:51:51.000Z</time>
      </trkpt>
      <trkpt lat="48.37546" lon="-2.7776">
        <ele>209.6</ele>
        <time>2020-07-02T14:51:55.000Z</time>
      </trkpt>
      <trkpt lat="48.37549" lon="-2.77774">
        <ele>209.9</ele>
        <time>2020-07-02T14:51:59.000Z</time>
      </trkpt>
      <trkpt lat="48.3755" lon="-2.77789">
        <ele>210.2</ele>
        <time>2020-07-02T14:52:04.000Z</time>
      </trkpt>
      <trkpt lat="48.37553" lon="-2.77803">
        <ele>210.5</ele>
        <time>2020-07-02T14:52:09.000Z</time>
      </trkpt>
      <trkpt lat="48.37554" lon="-2.7782">
        <ele>210.8</ele>
        <time>2020-07-02T14:52:14.000Z</time>
      </trkpt>
      <trkpt lat="48.37553" lon="-2.77834">
        <ele>211.1</ele>
        <time>2020-07-02T14:52:19.000Z</time>
      </trkpt>
      <trkpt lat="48.37554" lon="-2.77849">
        <ele>211.5</ele>
        <time>2020-07-02T14:52:25.000Z</time>
      </trkpt>
      <trkpt lat="48.37557" lon="-2.77864">
        <ele>211.7</ele>
        <time>2020-07-02T14:52:30.000Z</time>
      </trkpt>
      <trkpt lat="48.37558" lon="-2.77879">
        <ele>212.2</ele>
        <time>2020-07-02T14:52:35.000Z</time>
      </trkpt>
      <trkpt lat="48.37558" lon="-2.77894">
        <ele>212.5</ele>
        <time>2020-07-02T14:52:40.000Z</time>
      </trkpt>
      <trkpt lat="48.37558" lon="-2.7791">
        <ele>213</ele>
        <time>2020-07-02T14:52:46.000Z</time>
      </trkpt>
      <trkpt lat="48.37558" lon="-2.77925">
        <ele>213.6</ele>
        <time>2020-07-02T14:52:52.000Z</time>
      </trkpt>
      <trkpt lat="48.37557" lon="-2.7794">
        <ele>214.3</ele>
        <time>2020-07-02T14:52:58.000Z</time>
      </trkpt>
      <trkpt lat="48.37554" lon="-2.77955">
        <ele>215</ele>
        <time>2020-07-02T14:53:04.000Z</time>
      </trkpt>
      <trkpt lat="48.37553" lon="-2.77971">
        <ele>215.8</ele>
        <time>2020-07-02T14:53:10.000Z</time>
      </trkpt>
      <trkpt lat="48.37551" lon="-2.77984">
        <ele>216.5</ele>
        <time>2020-07-02T14:53:16.000Z</time>
      </trkpt>
      <trkpt lat="48.37548" lon="-2.77999">
        <ele>216.9</ele>
        <time>2020-07-02T14:53:21.000Z</time>
      </trkpt>
      <trkpt lat="48.37547" lon="-2.78013">
        <ele>217.4</ele>
        <time>2020-07-02T14:53:26.000Z</time>
      </trkpt>
      <trkpt lat="48.37544" lon="-2.78026">
        <ele>217.8</ele>
        <time>2020-07-02T14:53:31.000Z</time>
      </trkpt>
      <trkpt lat="48.37541" lon="-2.78041">
        <ele>218.6</ele>
        <time>2020-07-02T14:53:37.000Z</time>
      </trkpt>
      <trkpt lat="48.37536" lon="-2.78054">
        <ele>219.2</ele>
        <time>2020-07-02T14:53:43.000Z</time>
      </trkpt>
      <trkpt lat="48.37531" lon="-2.78066">
        <ele>219.8</ele>
        <time>2020-07-02T14:53:48.000Z</time>
      </trkpt>
      <trkpt lat="48.37527" lon="-2.78079">
        <ele>220.4</ele>
        <time>2020-07-02T14:53:54.000Z</time>
      </trkpt>
      <trkpt lat="48.37525" lon="-2.78093">
        <ele>221</ele>
        <time>2020-07-02T14:54:00.000Z</time>
      </trkpt>
      <trkpt lat="48.37522" lon="-2.78106">
        <ele>221.8</ele>
        <time>2020-07-02T14:54:06.000Z</time>
      </trkpt>
      <trkpt lat="48.37519" lon="-2.7812">
        <ele>222.5</ele>
        <time>2020-07-02T14:54:12.000Z</time>
      </trkpt>
      <trkpt lat="48.37516" lon="-2.78133">
        <ele>223.2</ele>
        <time>2020-07-02T14:54:18.000Z</time>
      </trkpt>
      <trkpt lat="48.37513" lon="-2.78148">
        <ele>223.7</ele>
        <time>2020-07-02T14:54:24.000Z</time>
      </trkpt>
      <trkpt lat="48.37509" lon="-2.78162">
        <ele>224.3</ele>
        <time>2020-07-02T14:54:29.000Z</time>
      </trkpt>
      <trkpt lat="48.37506" lon="-2.78177">
        <ele>224.7</ele>
        <time>2020-07-02T14:54:33.000Z</time>
      </trkpt>
      <trkpt lat="48.37502" lon="-2.78193">
        <ele>225.1</ele>
        <time>2020-07-02T14:54:37.000Z</time>
      </trkpt>
      <trkpt lat="48.37498" lon="-2.78207">
        <ele>225.7</ele>
        <time>2020-07-02T14:54:41.000Z</time>
      </trkpt>
      <trkpt lat="48.37495" lon="-2.78221">
        <ele>226.1</ele>
        <time>2020-07-02T14:54:45.000Z</time>
      </trkpt>
      <trkpt lat="48.37492" lon="-2.78236">
        <ele>226.6</ele>
        <time>2020-07-02T14:54:49.000Z</time>
      </trkpt>
      <trkpt lat="48.37489" lon="-2.78251">
        <ele>227</ele>
        <time>2020-07-02T14:54:53.000Z</time>
      </trkpt>
      <trkpt lat="48.37486" lon="-2.78267">
        <ele>227.5</ele>
        <time>2020-07-02T14:54:58.000Z</time>
      </trkpt>
      <trkpt lat="48.37484" lon="-2.78281">
        <ele>227.9</ele>
        <time>2020-07-02T14:55:03.000Z</time>
      </trkpt>
      <trkpt lat="48.37482" lon="-2.78296">
        <ele>228.2</ele>
        <time>2020-07-02T14:55:07.000Z</time>
      </trkpt>
      <trkpt lat="48.3748" lon="-2.7831">
        <ele>228.6</ele>
        <time>2020-07-02T14:55:11.000Z</time>
      </trkpt>
      <trkpt lat="48.37478" lon="-2.78319">
        <ele>229.3</ele>
        <time>2020-07-02T14:55:18.000Z</time>
      </trkpt>
      <trkpt lat="48.37476" lon="-2.78333">
        <ele>229.4</ele>
        <time>2020-07-02T14:55:35.000Z</time>
      </trkpt>
      <trkpt lat="48.37473" lon="-2.78347">
        <ele>230</ele>
        <time>2020-07-02T14:55:46.000Z</time>
      </trkpt>
      <trkpt lat="48.37467" lon="-2.78359">
        <ele>229.6</ele>
        <time>2020-07-02T14:55:53.000Z</time>
      </trkpt>
      <trkpt lat="48.37462" lon="-2.78371">
        <ele>229.3</ele>
        <time>2020-07-02T14:55:59.000Z</time>
      </trkpt>
      <trkpt lat="48.37461" lon="-2.78373">
        <ele>229.1</ele>
        <time>2020-07-02T14:56:05.000Z</time>
      </trkpt>
      <trkpt lat="48.37453" lon="-2.78381">
        <ele>228.9</ele>
        <time>2020-07-02T14:56:20.000Z</time>
      </trkpt>
      <trkpt lat="48.37448" lon="-2.78393">
        <ele>228.9</ele>
        <time>2020-07-02T14:56:23.000Z</time>
      </trkpt>
      <trkpt lat="48.37452" lon="-2.78405">
        <ele>228.9</ele>
        <time>2020-07-02T14:56:26.000Z</time>
      </trkpt>
      <trkpt lat="48.37457" lon="-2.78417">
        <ele>228.9</ele>
        <time>2020-07-02T14:56:29.000Z</time>
      </trkpt>
      <trkpt lat="48.37462" lon="-2.78432">
        <ele>229</ele>
        <time>2020-07-02T14:56:33.000Z</time>
      </trkpt>
      <trkpt lat="48.37466" lon="-2.78447">
        <ele>229.3</ele>
        <time>2020-07-02T14:56:37.000Z</time>
      </trkpt>
      <trkpt lat="48.37469" lon="-2.78463">
        <ele>229.8</ele>
        <time>2020-07-02T14:56:41.000Z</time>
      </trkpt>
      <trkpt lat="48.37473" lon="-2.7848">
        <ele>230.4</ele>
        <time>2020-07-02T14:56:45.000Z</time>
      </trkpt>
      <trkpt lat="48.37478" lon="-2.78495">
        <ele>231</ele>
        <time>2020-07-02T14:56:49.000Z</time>
      </trkpt>
      <trkpt lat="48.37483" lon="-2.78511">
        <ele>231.5</ele>
        <time>2020-07-02T14:56:53.000Z</time>
      </trkpt>
      <trkpt lat="48.3749" lon="-2.78524">
        <ele>232.1</ele>
        <time>2020-07-02T14:56:57.000Z</time>
      </trkpt>
      <trkpt lat="48.37494" lon="-2.78538">
        <ele>232.7</ele>
        <time>2020-07-02T14:57:01.000Z</time>
      </trkpt>
      <trkpt lat="48.37498" lon="-2.78554">
        <ele>233.1</ele>
        <time>2020-07-02T14:57:05.000Z</time>
      </trkpt>
      <trkpt lat="48.37503" lon="-2.78569">
        <ele>233.4</ele>
        <time>2020-07-02T14:57:09.000Z</time>
      </trkpt>
      <trkpt lat="48.37509" lon="-2.78584">
        <ele>233.6</ele>
        <time>2020-07-02T14:57:13.000Z</time>
      </trkpt>
      <trkpt lat="48.37516" lon="-2.78596">
        <ele>233.7</ele>
        <time>2020-07-02T14:57:16.000Z</time>
      </trkpt>
      <trkpt lat="48.37523" lon="-2.78605">
        <ele>233.8</ele>
        <time>2020-07-02T14:57:19.000Z</time>
      </trkpt>
      <trkpt lat="48.37531" lon="-2.78613">
        <ele>233.9</ele>
        <time>2020-07-02T14:57:22.000Z</time>
      </trkpt>
      <trkpt lat="48.3754" lon="-2.78623">
        <ele>234</ele>
        <time>2020-07-02T14:57:25.000Z</time>
      </trkpt>
      <trkpt lat="48.37549" lon="-2.78633">
        <ele>234.2</ele>
        <time>2020-07-02T14:57:28.000Z</time>
      </trkpt>
      <trkpt lat="48.37558" lon="-2.78648">
        <ele>234.3</ele>
        <time>2020-07-02T14:57:31.000Z</time>
      </trkpt>
      <trkpt lat="48.37564" lon="-2.78658">
        <ele>234.3</ele>
        <time>2020-07-02T14:57:33.000Z</time>
      </trkpt>
      <trkpt lat="48.37573" lon="-2.78674">
        <ele>234.5</ele>
        <time>2020-07-02T14:57:36.000Z</time>
      </trkpt>
      <trkpt lat="48.37581" lon="-2.7869">
        <ele>234.5</ele>
        <time>2020-07-02T14:57:39.000Z</time>
      </trkpt>
      <trkpt lat="48.3758" lon="-2.78709">
        <ele>234.2</ele>
        <time>2020-07-02T14:57:42.000Z</time>
      </trkpt>
      <trkpt lat="48.37577" lon="-2.78721">
        <ele>234</ele>
        <time>2020-07-02T14:57:44.000Z</time>
      </trkpt>
      <trkpt lat="48.37572" lon="-2.78734">
        <ele>233.9</ele>
        <time>2020-07-02T14:57:46.000Z</time>
      </trkpt>
      <trkpt lat="48.37568" lon="-2.78747">
        <ele>233.8</ele>
        <time>2020-07-02T14:57:48.000Z</time>
      </trkpt>
      <trkpt lat="48.37563" lon="-2.7876">
        <ele>233.6</ele>
        <time>2020-07-02T14:57:50.000Z</time>
      </trkpt>
      <trkpt lat="48.37558" lon="-2.78774">
        <ele>233.4</ele>
        <time>2020-07-02T14:57:52.000Z</time>
      </trkpt>
      <trkpt lat="48.37553" lon="-2.7879">
        <ele>233.2</ele>
        <time>2020-07-02T14:57:54.000Z</time>
      </trkpt>
      <trkpt lat="48.37548" lon="-2.78806">
        <ele>232.9</ele>
        <time>2020-07-02T14:57:56.000Z</time>
      </trkpt>
      <trkpt lat="48.37544" lon="-2.78822">
        <ele>232.5</ele>
        <time>2020-07-02T14:57:58.000Z</time>
      </trkpt>
      <trkpt lat="48.37539" lon="-2.78839">
        <ele>232</ele>
        <time>2020-07-02T14:58:00.000Z</time>
      </trkpt>
      <trkpt lat="48.37535" lon="-2.78855">
        <ele>231.6</ele>
        <time>2020-07-02T14:58:02.000Z</time>
      </trkpt>
      <trkpt lat="48.3753" lon="-2.78872">
        <ele>231.2</ele>
        <time>2020-07-02T14:58:04.000Z</time>
      </trkpt>
      <trkpt lat="48.37525" lon="-2.7889">
        <ele>230.8</ele>
        <time>2020-07-02T14:58:06.000Z</time>
      </trkpt>
      <trkpt lat="48.3752" lon="-2.78908">
        <ele>230.3</ele>
        <time>2020-07-02T14:58:08.000Z</time>
      </trkpt>
      <trkpt lat="48.37516" lon="-2.78926">
        <ele>229.9</ele>
        <time>2020-07-02T14:58:10.000Z</time>
      </trkpt>
      <trkpt lat="48.37511" lon="-2.78944">
        <ele>229.5</ele>
        <time>2020-07-02T14:58:12.000Z</time>
      </trkpt>
      <trkpt lat="48.37506" lon="-2.78962">
        <ele>229</ele>
        <time>2020-07-02T14:58:14.000Z</time>
      </trkpt>
      <trkpt lat="48.37501" lon="-2.7898">
        <ele>228.5</ele>
        <time>2020-07-02T14:58:16.000Z</time>
      </trkpt>
      <trkpt lat="48.37496" lon="-2.79">
        <ele>228</ele>
        <time>2020-07-02T14:58:18.000Z</time>
      </trkpt>
      <trkpt lat="48.37491" lon="-2.7902">
        <ele>227.5</ele>
        <time>2020-07-02T14:58:20.000Z</time>
      </trkpt>
      <trkpt lat="48.37485" lon="-2.79041">
        <ele>226.9</ele>
        <time>2020-07-02T14:58:22.000Z</time>
      </trkpt>
      <trkpt lat="48.3748" lon="-2.79061">
        <ele>226.2</ele>
        <time>2020-07-02T14:58:24.000Z</time>
      </trkpt>
      <trkpt lat="48.37472" lon="-2.79075">
        <ele>225.4</ele>
        <time>2020-07-02T14:58:26.000Z</time>
      </trkpt>
      <trkpt lat="48.37459" lon="-2.7908">
        <ele>224.6</ele>
        <time>2020-07-02T14:58:28.000Z</time>
      </trkpt>
      <trkpt lat="48.37446" lon="-2.7908">
        <ele>223.8</ele>
        <time>2020-07-02T14:58:30.000Z</time>
      </trkpt>
      <trkpt lat="48.37432" lon="-2.79081">
        <ele>223.1</ele>
        <time>2020-07-02T14:58:32.000Z</time>
      </trkpt>
      <trkpt lat="48.37419" lon="-2.7908">
        <ele>222.4</ele>
        <time>2020-07-02T14:58:34.000Z</time>
      </trkpt>
      <trkpt lat="48.37405" lon="-2.79082">
        <ele>221.7</ele>
        <time>2020-07-02T14:58:36.000Z</time>
      </trkpt>
      <trkpt lat="48.37391" lon="-2.79086">
        <ele>221.1</ele>
        <time>2020-07-02T14:58:38.000Z</time>
      </trkpt>
      <trkpt lat="48.37378" lon="-2.79093">
        <ele>220.5</ele>
        <time>2020-07-02T14:58:40.000Z</time>
      </trkpt>
      <trkpt lat="48.37366" lon="-2.79104">
        <ele>219.9</ele>
        <time>2020-07-02T14:58:42.000Z</time>
      </trkpt>
      <trkpt lat="48.37356" lon="-2.79119">
        <ele>219.3</ele>
        <time>2020-07-02T14:58:44.000Z</time>
      </trkpt>
      <trkpt lat="48.37349" lon="-2.79135">
        <ele>218.6</ele>
        <time>2020-07-02T14:58:46.000Z</time>
      </trkpt>
      <trkpt lat="48.37344" lon="-2.79148">
        <ele>218.1</ele>
        <time>2020-07-02T14:58:48.000Z</time>
      </trkpt>
      <trkpt lat="48.37337" lon="-2.7916">
        <ele>217.6</ele>
        <time>2020-07-02T14:58:50.000Z</time>
      </trkpt>
      <trkpt lat="48.37328" lon="-2.79171">
        <ele>217</ele>
        <time>2020-07-02T14:58:53.000Z</time>
      </trkpt>
      <trkpt lat="48.37319" lon="-2.79174">
        <ele>216.4</ele>
        <time>2020-07-02T14:58:57.000Z</time>
      </trkpt>
      <trkpt lat="48.3731" lon="-2.79183">
        <ele>216</ele>
        <time>2020-07-02T14:59:01.000Z</time>
      </trkpt>
      <trkpt lat="48.37304" lon="-2.79195">
        <ele>215.7</ele>
        <time>2020-07-02T14:59:06.000Z</time>
      </trkpt>
      <trkpt lat="48.37299" lon="-2.79208">
        <ele>215.5</ele>
        <time>2020-07-02T14:59:12.000Z</time>
      </trkpt>
      <trkpt lat="48.37295" lon="-2.79221">
        <ele>215.5</ele>
        <time>2020-07-02T14:59:18.000Z</time>
      </trkpt>
      <trkpt lat="48.3729" lon="-2.79235">
        <ele>215.6</ele>
        <time>2020-07-02T14:59:23.000Z</time>
      </trkpt>
      <trkpt lat="48.37284" lon="-2.79248">
        <ele>215.8</ele>
        <time>2020-07-02T14:59:28.000Z</time>
      </trkpt>
      <trkpt lat="48.37277" lon="-2.79259">
        <ele>216</ele>
        <time>2020-07-02T14:59:33.000Z</time>
      </trkpt>
      <trkpt lat="48.37269" lon="-2.79271">
        <ele>216.4</ele>
        <time>2020-07-02T14:59:43.000Z</time>
      </trkpt>
      <trkpt lat="48.37262" lon="-2.7928">
        <ele>216.6</ele>
        <time>2020-07-02T14:59:47.000Z</time>
      </trkpt>
      <trkpt lat="48.37255" lon="-2.79289">
        <ele>216.6</ele>
        <time>2020-07-02T14:59:51.000Z</time>
      </trkpt>
      <trkpt lat="48.37246" lon="-2.79297">
        <ele>216.5</ele>
        <time>2020-07-02T14:59:56.000Z</time>
      </trkpt>
      <trkpt lat="48.37239" lon="-2.79307">
        <ele>216.6</ele>
        <time>2020-07-02T15:00:00.000Z</time>
      </trkpt>
      <trkpt lat="48.37234" lon="-2.79318">
        <ele>216.6</ele>
        <time>2020-07-02T15:00:06.000Z</time>
      </trkpt>
      <trkpt lat="48.37228" lon="-2.79305">
        <ele>216.7</ele>
        <time>2020-07-02T15:00:15.000Z</time>
      </trkpt>
      <trkpt lat="48.37219" lon="-2.79296">
        <ele>216.5</ele>
        <time>2020-07-02T15:00:20.000Z</time>
      </trkpt>
      <trkpt lat="48.37209" lon="-2.79298">
        <ele>216.1</ele>
        <time>2020-07-02T15:00:25.000Z</time>
      </trkpt>
      <trkpt lat="48.372" lon="-2.79304">
        <ele>215.5</ele>
        <time>2020-07-02T15:00:30.000Z</time>
      </trkpt>
      <trkpt lat="48.37191" lon="-2.79309">
        <ele>215.2</ele>
        <time>2020-07-02T15:00:35.000Z</time>
      </trkpt>
      <trkpt lat="48.37183" lon="-2.79315">
        <ele>215.1</ele>
        <time>2020-07-02T15:00:40.000Z</time>
      </trkpt>
      <trkpt lat="48.37174" lon="-2.79319">
        <ele>214.9</ele>
        <time>2020-07-02T15:00:45.000Z</time>
      </trkpt>
      <trkpt lat="48.37165" lon="-2.79323">
        <ele>214.8</ele>
        <time>2020-07-02T15:00:50.000Z</time>
      </trkpt>
      <trkpt lat="48.37156" lon="-2.79329">
        <ele>214.6</ele>
        <time>2020-07-02T15:00:55.000Z</time>
      </trkpt>
      <trkpt lat="48.37146" lon="-2.79332">
        <ele>214.6</ele>
        <time>2020-07-02T15:01:01.000Z</time>
      </trkpt>
      <trkpt lat="48.37136" lon="-2.79335">
        <ele>214.6</ele>
        <time>2020-07-02T15:01:05.000Z</time>
      </trkpt>
      <trkpt lat="48.37125" lon="-2.79336">
        <ele>214.7</ele>
        <time>2020-07-02T15:01:10.000Z</time>
      </trkpt>
      <trkpt lat="48.37116" lon="-2.79339">
        <ele>214.8</ele>
        <time>2020-07-02T15:01:14.000Z</time>
      </trkpt>
      <trkpt lat="48.37105" lon="-2.79339">
        <ele>214.9</ele>
        <time>2020-07-02T15:01:18.000Z</time>
      </trkpt>
      <trkpt lat="48.37095" lon="-2.79338">
        <ele>214.9</ele>
        <time>2020-07-02T15:01:22.000Z</time>
      </trkpt>
      <trkpt lat="48.37086" lon="-2.79334">
        <ele>214.9</ele>
        <time>2020-07-02T15:01:25.000Z</time>
      </trkpt>
      <trkpt lat="48.37077" lon="-2.79329">
        <ele>214.9</ele>
        <time>2020-07-02T15:01:28.000Z</time>
      </trkpt>
      <trkpt lat="48.37065" lon="-2.79326">
        <ele>214.9</ele>
        <time>2020-07-02T15:01:32.000Z</time>
      </trkpt>
      <trkpt lat="48.37054" lon="-2.79324">
        <ele>214.9</ele>
        <time>2020-07-02T15:01:35.000Z</time>
      </trkpt>
      <trkpt lat="48.37043" lon="-2.79318">
        <ele>214.8</ele>
        <time>2020-07-02T15:01:39.000Z</time>
      </trkpt>
      <trkpt lat="48.37034" lon="-2.79311">
        <ele>214.7</ele>
        <time>2020-07-02T15:01:42.000Z</time>
      </trkpt>
      <trkpt lat="48.37023" lon="-2.79309">
        <ele>214.5</ele>
        <time>2020-07-02T15:01:46.000Z</time>
      </trkpt>
      <trkpt lat="48.37011" lon="-2.79309">
        <ele>214.3</ele>
        <time>2020-07-02T15:01:49.000Z</time>
      </trkpt>
      <trkpt lat="48.37001" lon="-2.79314">
        <ele>214.1</ele>
        <time>2020-07-02T15:01:52.000Z</time>
      </trkpt>
      <trkpt lat="48.36992" lon="-2.79321">
        <ele>214</ele>
        <time>2020-07-02T15:01:56.000Z</time>
      </trkpt>
      <trkpt lat="48.36983" lon="-2.79331">
        <ele>213.9</ele>
        <time>2020-07-02T15:02:01.000Z</time>
      </trkpt>
      <trkpt lat="48.36975" lon="-2.79342">
        <ele>214</ele>
        <time>2020-07-02T15:02:05.000Z</time>
      </trkpt>
      <trkpt lat="48.36967" lon="-2.79353">
        <ele>214</ele>
        <time>2020-07-02T15:02:09.000Z</time>
      </trkpt>
      <trkpt lat="48.3696" lon="-2.79362">
        <ele>214</ele>
        <time>2020-07-02T15:02:11.000Z</time>
      </trkpt>
      <trkpt lat="48.36954" lon="-2.79373">
        <ele>214.1</ele>
        <time>2020-07-02T15:02:15.000Z</time>
      </trkpt>
      <trkpt lat="48.36948" lon="-2.79384">
        <ele>214.2</ele>
        <time>2020-07-02T15:02:18.000Z</time>
      </trkpt>
      <trkpt lat="48.36942" lon="-2.79397">
        <ele>214.3</ele>
        <time>2020-07-02T15:02:22.000Z</time>
      </trkpt>
      <trkpt lat="48.36937" lon="-2.79409">
        <ele>214.4</ele>
        <time>2020-07-02T15:02:25.000Z</time>
      </trkpt>
      <trkpt lat="48.36932" lon="-2.79421">
        <ele>214.4</ele>
        <time>2020-07-02T15:02:28.000Z</time>
      </trkpt>
      <trkpt lat="48.36926" lon="-2.79433">
        <ele>214.4</ele>
        <time>2020-07-02T15:02:31.000Z</time>
      </trkpt>
      <trkpt lat="48.36922" lon="-2.79446">
        <ele>214.5</ele>
        <time>2020-07-02T15:02:34.000Z</time>
      </trkpt>
      <trkpt lat="48.36919" lon="-2.79461">
        <ele>214.5</ele>
        <time>2020-07-02T15:02:38.000Z</time>
      </trkpt>
      <trkpt lat="48.36916" lon="-2.79475">
        <ele>214.5</ele>
        <time>2020-07-02T15:02:42.000Z</time>
      </trkpt>
      <trkpt lat="48.36912" lon="-2.79488">
        <ele>214.4</ele>
        <time>2020-07-02T15:02:46.000Z</time>
      </trkpt>
      <trkpt lat="48.36907" lon="-2.79501">
        <ele>214.4</ele>
        <time>2020-07-02T15:02:49.000Z</time>
      </trkpt>
      <trkpt lat="48.36904" lon="-2.79514">
        <ele>214.3</ele>
        <time>2020-07-02T15:02:53.000Z</time>
      </trkpt>
      <trkpt lat="48.369" lon="-2.79528">
        <ele>214.3</ele>
        <time>2020-07-02T15:02:57.000Z</time>
      </trkpt>
      <trkpt lat="48.369" lon="-2.79545">
        <ele>214.3</ele>
        <time>2020-07-02T15:03:01.000Z</time>
      </trkpt>
      <trkpt lat="48.36903" lon="-2.7956">
        <ele>214.4</ele>
        <time>2020-07-02T15:03:05.000Z</time>
      </trkpt>
      <trkpt lat="48.36906" lon="-2.79576">
        <ele>214.8</ele>
        <time>2020-07-02T15:03:10.000Z</time>
      </trkpt>
      <trkpt lat="48.36902" lon="-2.7959">
        <ele>215.3</ele>
        <time>2020-07-02T15:03:15.000Z</time>
      </trkpt>
      <trkpt lat="48.36895" lon="-2.796">
        <ele>215.5</ele>
        <time>2020-07-02T15:03:18.000Z</time>
      </trkpt>
      <trkpt lat="48.36887" lon="-2.7961">
        <ele>215.7</ele>
        <time>2020-07-02T15:03:21.000Z</time>
      </trkpt>
      <trkpt lat="48.36878" lon="-2.79622">
        <ele>215.8</ele>
        <time>2020-07-02T15:03:24.000Z</time>
      </trkpt>
      <trkpt lat="48.36869" lon="-2.79632">
        <ele>216</ele>
        <time>2020-07-02T15:03:27.000Z</time>
      </trkpt>
      <trkpt lat="48.36861" lon="-2.79642">
        <ele>216.1</ele>
        <time>2020-07-02T15:03:30.000Z</time>
      </trkpt>
      <trkpt lat="48.36851" lon="-2.79652">
        <ele>216.1</ele>
        <time>2020-07-02T15:03:33.000Z</time>
      </trkpt>
      <trkpt lat="48.36842" lon="-2.79662">
        <ele>216.1</ele>
        <time>2020-07-02T15:03:36.000Z</time>
      </trkpt>
      <trkpt lat="48.36834" lon="-2.7967">
        <ele>216.2</ele>
        <time>2020-07-02T15:03:39.000Z</time>
      </trkpt>
      <trkpt lat="48.36826" lon="-2.79679">
        <ele>216.2</ele>
        <time>2020-07-02T15:03:42.000Z</time>
      </trkpt>
      <trkpt lat="48.36818" lon="-2.79688">
        <ele>216.1</ele>
        <time>2020-07-02T15:03:45.000Z</time>
      </trkpt>
      <trkpt lat="48.36811" lon="-2.79697">
        <ele>216</ele>
        <time>2020-07-02T15:03:48.000Z</time>
      </trkpt>
      <trkpt lat="48.36802" lon="-2.79707">
        <ele>216</ele>
        <time>2020-07-02T15:03:52.000Z</time>
      </trkpt>
      <trkpt lat="48.36794" lon="-2.79715">
        <ele>216</ele>
        <time>2020-07-02T15:03:55.000Z</time>
      </trkpt>
      <trkpt lat="48.36785" lon="-2.79725">
        <ele>216.2</ele>
        <time>2020-07-02T15:03:59.000Z</time>
      </trkpt>
      <trkpt lat="48.36776" lon="-2.79736">
        <ele>216.4</ele>
        <time>2020-07-02T15:04:03.000Z</time>
      </trkpt>
      <trkpt lat="48.36766" lon="-2.79744">
        <ele>216.6</ele>
        <time>2020-07-02T15:04:07.000Z</time>
      </trkpt>
      <trkpt lat="48.36757" lon="-2.79755">
        <ele>216.9</ele>
        <time>2020-07-02T15:04:11.000Z</time>
      </trkpt>
      <trkpt lat="48.36748" lon="-2.79763">
        <ele>217.2</ele>
        <time>2020-07-02T15:04:15.000Z</time>
      </trkpt>
      <trkpt lat="48.36739" lon="-2.79773">
        <ele>217.5</ele>
        <time>2020-07-02T15:04:19.000Z</time>
      </trkpt>
      <trkpt lat="48.36731" lon="-2.79782">
        <ele>217.9</ele>
        <time>2020-07-02T15:04:23.000Z</time>
      </trkpt>
      <trkpt lat="48.36722" lon="-2.79791">
        <ele>218.3</ele>
        <time>2020-07-02T15:04:27.000Z</time>
      </trkpt>
      <trkpt lat="48.36713" lon="-2.798">
        <ele>218.7</ele>
        <time>2020-07-02T15:04:31.000Z</time>
      </trkpt>
      <trkpt lat="48.36706" lon="-2.79811">
        <ele>219.1</ele>
        <time>2020-07-02T15:04:35.000Z</time>
      </trkpt>
      <trkpt lat="48.36699" lon="-2.79822">
        <ele>219.4</ele>
        <time>2020-07-02T15:04:39.000Z</time>
      </trkpt>
      <trkpt lat="48.36692" lon="-2.79836">
        <ele>219.8</ele>
        <time>2020-07-02T15:04:44.000Z</time>
      </trkpt>
      <trkpt lat="48.36691" lon="-2.79851">
        <ele>220.1</ele>
        <time>2020-07-02T15:04:48.000Z</time>
      </trkpt>
      <trkpt lat="48.36692" lon="-2.79864">
        <ele>220.5</ele>
        <time>2020-07-02T15:04:52.000Z</time>
      </trkpt>
      <trkpt lat="48.36697" lon="-2.79879">
        <ele>221.1</ele>
        <time>2020-07-02T15:04:57.000Z</time>
      </trkpt>
      <trkpt lat="48.367" lon="-2.79894">
        <ele>221.9</ele>
        <time>2020-07-02T15:05:02.000Z</time>
      </trkpt>
      <trkpt lat="48.36707" lon="-2.79905">
        <ele>222.4</ele>
        <time>2020-07-02T15:05:06.000Z</time>
      </trkpt>
      <trkpt lat="48.36714" lon="-2.79913">
        <ele>222.9</ele>
        <time>2020-07-02T15:05:10.000Z</time>
      </trkpt>
      <trkpt lat="48.36723" lon="-2.79921">
        <ele>223.6</ele>
        <time>2020-07-02T15:05:15.000Z</time>
      </trkpt>
      <trkpt lat="48.36726" lon="-2.79935">
        <ele>224.4</ele>
        <time>2020-07-02T15:05:20.000Z</time>
      </trkpt>
      <trkpt lat="48.36728" lon="-2.79949">
        <ele>225</ele>
        <time>2020-07-02T15:05:25.000Z</time>
      </trkpt>
      <trkpt lat="48.36724" lon="-2.79962">
        <ele>225.7</ele>
        <time>2020-07-02T15:05:30.000Z</time>
      </trkpt>
      <trkpt lat="48.36718" lon="-2.79975">
        <ele>226</ele>
        <time>2020-07-02T15:05:34.000Z</time>
      </trkpt>
      <trkpt lat="48.36715" lon="-2.7999">
        <ele>226.2</ele>
        <time>2020-07-02T15:05:38.000Z</time>
      </trkpt>
      <trkpt lat="48.36714" lon="-2.80005">
        <ele>226.6</ele>
        <time>2020-07-02T15:05:43.000Z</time>
      </trkpt>
      <trkpt lat="48.36711" lon="-2.80022">
        <ele>226.8</ele>
        <time>2020-07-02T15:05:47.000Z</time>
      </trkpt>
      <trkpt lat="48.36708" lon="-2.80035">
        <ele>227</ele>
        <time>2020-07-02T15:05:51.000Z</time>
      </trkpt>
      <trkpt lat="48.36705" lon="-2.80049">
        <ele>227.3</ele>
        <time>2020-07-02T15:05:55.000Z</time>
      </trkpt>
      <trkpt lat="48.367" lon="-2.80063">
        <ele>227.5</ele>
        <time>2020-07-02T15:05:59.000Z</time>
      </trkpt>
      <trkpt lat="48.36693" lon="-2.80077">
        <ele>227.7</ele>
        <time>2020-07-02T15:06:03.000Z</time>
      </trkpt>
      <trkpt lat="48.36689" lon="-2.80089">
        <ele>227.8</ele>
        <time>2020-07-02T15:06:06.000Z</time>
      </trkpt>
      <trkpt lat="48.36685" lon="-2.80102">
        <ele>227.9</ele>
        <time>2020-07-02T15:06:10.000Z</time>
      </trkpt>
      <trkpt lat="48.36683" lon="-2.80118">
        <ele>228</ele>
        <time>2020-07-02T15:06:15.000Z</time>
      </trkpt>
      <trkpt lat="48.36685" lon="-2.80133">
        <ele>228.1</ele>
        <time>2020-07-02T15:06:19.000Z</time>
      </trkpt>
      <trkpt lat="48.36689" lon="-2.8015">
        <ele>228.4</ele>
        <time>2020-07-02T15:06:23.000Z</time>
      </trkpt>
      <trkpt lat="48.36694" lon="-2.80163">
        <ele>228.9</ele>
        <time>2020-07-02T15:06:28.000Z</time>
      </trkpt>
      <trkpt lat="48.36697" lon="-2.80176">
        <ele>229.4</ele>
        <time>2020-07-02T15:06:32.000Z</time>
      </trkpt>
      <trkpt lat="48.367" lon="-2.80192">
        <ele>229.9</ele>
        <time>2020-07-02T15:06:37.000Z</time>
      </trkpt>
      <trkpt lat="48.36702" lon="-2.80205">
        <ele>230.4</ele>
        <time>2020-07-02T15:06:41.000Z</time>
      </trkpt>
      <trkpt lat="48.36704" lon="-2.80222">
        <ele>230.7</ele>
        <time>2020-07-02T15:06:45.000Z</time>
      </trkpt>
      <trkpt lat="48.36703" lon="-2.80238">
        <ele>231.2</ele>
        <time>2020-07-02T15:06:49.000Z</time>
      </trkpt>
      <trkpt lat="48.36702" lon="-2.80253">
        <ele>231.5</ele>
        <time>2020-07-02T15:06:53.000Z</time>
      </trkpt>
      <trkpt lat="48.36699" lon="-2.80267">
        <ele>231.8</ele>
        <time>2020-07-02T15:06:57.000Z</time>
      </trkpt>
      <trkpt lat="48.36691" lon="-2.80277">
        <ele>232.2</ele>
        <time>2020-07-02T15:07:02.000Z</time>
      </trkpt>
      <trkpt lat="48.36682" lon="-2.80284">
        <ele>232.3</ele>
        <time>2020-07-02T15:07:09.000Z</time>
      </trkpt>
      <trkpt lat="48.36673" lon="-2.80286">
        <ele>233.2</ele>
        <time>2020-07-02T15:07:13.000Z</time>
      </trkpt>
      <trkpt lat="48.36662" lon="-2.80288">
        <ele>233.3</ele>
        <time>2020-07-02T15:07:16.000Z</time>
      </trkpt>
      <trkpt lat="48.36652" lon="-2.80292">
        <ele>233.2</ele>
        <time>2020-07-02T15:07:19.000Z</time>
      </trkpt>
      <trkpt lat="48.36641" lon="-2.80294">
        <ele>233</ele>
        <time>2020-07-02T15:07:22.000Z</time>
      </trkpt>
      <trkpt lat="48.36631" lon="-2.80296">
        <ele>232.7</ele>
        <time>2020-07-02T15:07:25.000Z</time>
      </trkpt>
      <trkpt lat="48.36622" lon="-2.80298">
        <ele>232.3</ele>
        <time>2020-07-02T15:07:29.000Z</time>
      </trkpt>
      <trkpt lat="48.36612" lon="-2.80301">
        <ele>231.9</ele>
        <time>2020-07-02T15:07:33.000Z</time>
      </trkpt>
      <trkpt lat="48.36603" lon="-2.80304">
        <ele>231.8</ele>
        <time>2020-07-02T15:07:36.000Z</time>
      </trkpt>
      <trkpt lat="48.36592" lon="-2.80306">
        <ele>231.6</ele>
        <time>2020-07-02T15:07:40.000Z</time>
      </trkpt>
      <trkpt lat="48.36582" lon="-2.80305">
        <ele>231.4</ele>
        <time>2020-07-02T15:07:45.000Z</time>
      </trkpt>
      <trkpt lat="48.36572" lon="-2.80307">
        <ele>231.3</ele>
        <time>2020-07-02T15:07:49.000Z</time>
      </trkpt>
      <trkpt lat="48.36562" lon="-2.80316">
        <ele>231.2</ele>
        <time>2020-07-02T15:07:53.000Z</time>
      </trkpt>
      <trkpt lat="48.36556" lon="-2.80327">
        <ele>231.1</ele>
        <time>2020-07-02T15:07:56.000Z</time>
      </trkpt>
      <trkpt lat="48.36551" lon="-2.80342">
        <ele>231.1</ele>
        <time>2020-07-02T15:08:00.000Z</time>
      </trkpt>
      <trkpt lat="48.36546" lon="-2.80358">
        <ele>231.3</ele>
        <time>2020-07-02T15:08:04.000Z</time>
      </trkpt>
      <trkpt lat="48.36542" lon="-2.80372">
        <ele>231.6</ele>
        <time>2020-07-02T15:08:08.000Z</time>
      </trkpt>
      <trkpt lat="48.36536" lon="-2.80387">
        <ele>232</ele>
        <time>2020-07-02T15:08:12.000Z</time>
      </trkpt>
      <trkpt lat="48.36533" lon="-2.804">
        <ele>232.5</ele>
        <time>2020-07-02T15:08:16.000Z</time>
      </trkpt>
      <trkpt lat="48.3653" lon="-2.80413">
        <ele>233</ele>
        <time>2020-07-02T15:08:20.000Z</time>
      </trkpt>
      <trkpt lat="48.36524" lon="-2.80424">
        <ele>233.4</ele>
        <time>2020-07-02T15:08:23.000Z</time>
      </trkpt>
      <trkpt lat="48.36521" lon="-2.80437">
        <ele>233.9</ele>
        <time>2020-07-02T15:08:27.000Z</time>
      </trkpt>
      <trkpt lat="48.36512" lon="-2.80447">
        <ele>234.3</ele>
        <time>2020-07-02T15:08:32.000Z</time>
      </trkpt>
      <trkpt lat="48.36502" lon="-2.80447">
        <ele>234.6</ele>
        <time>2020-07-02T15:08:36.000Z</time>
      </trkpt>
      <trkpt lat="48.36492" lon="-2.80445">
        <ele>234.7</ele>
        <time>2020-07-02T15:08:40.000Z</time>
      </trkpt>
      <trkpt lat="48.36481" lon="-2.80442">
        <ele>234.7</ele>
        <time>2020-07-02T15:08:45.000Z</time>
      </trkpt>
      <trkpt lat="48.36471" lon="-2.80439">
        <ele>234.7</ele>
        <time>2020-07-02T15:08:49.000Z</time>
      </trkpt>
      <trkpt lat="48.36461" lon="-2.80436">
        <ele>234.6</ele>
        <time>2020-07-02T15:08:53.000Z</time>
      </trkpt>
      <trkpt lat="48.36452" lon="-2.80432">
        <ele>234.4</ele>
        <time>2020-07-02T15:08:57.000Z</time>
      </trkpt>
      <trkpt lat="48.36441" lon="-2.8043">
        <ele>234.3</ele>
        <time>2020-07-02T15:09:01.000Z</time>
      </trkpt>
      <trkpt lat="48.36431" lon="-2.80426">
        <ele>234.1</ele>
        <time>2020-07-02T15:09:05.000Z</time>
      </trkpt>
      <trkpt lat="48.36421" lon="-2.80423">
        <ele>233.9</ele>
        <time>2020-07-02T15:09:09.000Z</time>
      </trkpt>
      <trkpt lat="48.36411" lon="-2.80419">
        <ele>233.6</ele>
        <time>2020-07-02T15:09:13.000Z</time>
      </trkpt>
      <trkpt lat="48.36401" lon="-2.80415">
        <ele>233.3</ele>
        <time>2020-07-02T15:09:17.000Z</time>
      </trkpt>
      <trkpt lat="48.36391" lon="-2.80412">
        <ele>233</ele>
        <time>2020-07-02T15:09:22.000Z</time>
      </trkpt>
      <trkpt lat="48.36382" lon="-2.80408">
        <ele>232.8</ele>
        <time>2020-07-02T15:09:26.000Z</time>
      </trkpt>
      <trkpt lat="48.36372" lon="-2.80404">
        <ele>232.5</ele>
        <time>2020-07-02T15:09:30.000Z</time>
      </trkpt>
      <trkpt lat="48.36362" lon="-2.80402">
        <ele>232.2</ele>
        <time>2020-07-02T15:09:34.000Z</time>
      </trkpt>
      <trkpt lat="48.36352" lon="-2.80398">
        <ele>231.6</ele>
        <time>2020-07-02T15:09:38.000Z</time>
      </trkpt>
      <trkpt lat="48.36341" lon="-2.80395">
        <ele>230.9</ele>
        <time>2020-07-02T15:09:42.000Z</time>
      </trkpt>
      <trkpt lat="48.3633" lon="-2.80393">
        <ele>230.4</ele>
        <time>2020-07-02T15:09:46.000Z</time>
      </trkpt>
      <trkpt lat="48.36319" lon="-2.80389">
        <ele>229.8</ele>
        <time>2020-07-02T15:09:50.000Z</time>
      </trkpt>
      <trkpt lat="48.36309" lon="-2.80385">
        <ele>229.3</ele>
        <time>2020-07-02T15:09:54.000Z</time>
      </trkpt>
      <trkpt lat="48.36298" lon="-2.8038">
        <ele>228.7</ele>
        <time>2020-07-02T15:09:58.000Z</time>
      </trkpt>
      <trkpt lat="48.36288" lon="-2.80377">
        <ele>228.2</ele>
        <time>2020-07-02T15:10:02.000Z</time>
      </trkpt>
      <trkpt lat="48.36279" lon="-2.80374">
        <ele>227.7</ele>
        <time>2020-07-02T15:10:05.000Z</time>
      </trkpt>
      <trkpt lat="48.36267" lon="-2.8037">
        <ele>227.3</ele>
        <time>2020-07-02T15:10:09.000Z</time>
      </trkpt>
      <trkpt lat="48.36258" lon="-2.80366">
        <ele>227</ele>
        <time>2020-07-02T15:10:12.000Z</time>
      </trkpt>
      <trkpt lat="48.36248" lon="-2.8036">
        <ele>226.5</ele>
        <time>2020-07-02T15:10:16.000Z</time>
      </trkpt>
      <trkpt lat="48.36242" lon="-2.80346">
        <ele>225.9</ele>
        <time>2020-07-02T15:10:21.000Z</time>
      </trkpt>
      <trkpt lat="48.36237" lon="-2.80333">
        <ele>225.2</ele>
        <time>2020-07-02T15:10:25.000Z</time>
      </trkpt>
      <trkpt lat="48.36234" lon="-2.80319">
        <ele>224.6</ele>
        <time>2020-07-02T15:10:29.000Z</time>
      </trkpt>
      <trkpt lat="48.36232" lon="-2.80305">
        <ele>224</ele>
        <time>2020-07-02T15:10:33.000Z</time>
      </trkpt>
      <trkpt lat="48.36226" lon="-2.80294">
        <ele>223.4</ele>
        <time>2020-07-02T15:10:38.000Z</time>
      </trkpt>
      <trkpt lat="48.36217" lon="-2.80288">
        <ele>223.1</ele>
        <time>2020-07-02T15:10:41.000Z</time>
      </trkpt>
      <trkpt lat="48.36207" lon="-2.80284">
        <ele>222.8</ele>
        <time>2020-07-02T15:10:44.000Z</time>
      </trkpt>
      <trkpt lat="48.36196" lon="-2.80277">
        <ele>222.5</ele>
        <time>2020-07-02T15:10:47.000Z</time>
      </trkpt>
      <trkpt lat="48.36186" lon="-2.80271">
        <ele>222.1</ele>
        <time>2020-07-02T15:10:50.000Z</time>
      </trkpt>
      <trkpt lat="48.36173" lon="-2.80263">
        <ele>221.8</ele>
        <time>2020-07-02T15:10:53.000Z</time>
      </trkpt>
      <trkpt lat="48.36165" lon="-2.80258">
        <ele>221.5</ele>
        <time>2020-07-02T15:10:55.000Z</time>
      </trkpt>
      <trkpt lat="48.36153" lon="-2.80249">
        <ele>221</ele>
        <time>2020-07-02T15:10:58.000Z</time>
      </trkpt>
      <trkpt lat="48.36144" lon="-2.80242">
        <ele>220.7</ele>
        <time>2020-07-02T15:11:00.000Z</time>
      </trkpt>
      <trkpt lat="48.36136" lon="-2.80234">
        <ele>220.4</ele>
        <time>2020-07-02T15:11:02.000Z</time>
      </trkpt>
      <trkpt lat="48.36128" lon="-2.80227">
        <ele>220.1</ele>
        <time>2020-07-02T15:11:04.000Z</time>
      </trkpt>
      <trkpt lat="48.36117" lon="-2.80217">
        <ele>219.6</ele>
        <time>2020-07-02T15:11:07.000Z</time>
      </trkpt>
      <trkpt lat="48.36105" lon="-2.8021">
        <ele>219.1</ele>
        <time>2020-07-02T15:11:10.000Z</time>
      </trkpt>
      <trkpt lat="48.36091" lon="-2.80207">
        <ele>218.6</ele>
        <time>2020-07-02T15:11:13.000Z</time>
      </trkpt>
      <trkpt lat="48.36082" lon="-2.80205">
        <ele>218.4</ele>
        <time>2020-07-02T15:11:15.000Z</time>
      </trkpt>
      <trkpt lat="48.36073" lon="-2.80205">
        <ele>218.2</ele>
        <time>2020-07-02T15:11:17.000Z</time>
      </trkpt>
      <trkpt lat="48.36063" lon="-2.80203">
        <ele>217.9</ele>
        <time>2020-07-02T15:11:19.000Z</time>
      </trkpt>
      <trkpt lat="48.36052" lon="-2.802">
        <ele>217.6</ele>
        <time>2020-07-02T15:11:22.000Z</time>
      </trkpt>
      <trkpt lat="48.36042" lon="-2.80204">
        <ele>217.4</ele>
        <time>2020-07-02T15:11:25.000Z</time>
      </trkpt>
      <trkpt lat="48.36035" lon="-2.80212">
        <ele>217.2</ele>
        <time>2020-07-02T15:11:28.000Z</time>
      </trkpt>
      <trkpt lat="48.36026" lon="-2.80221">
        <ele>217</ele>
        <time>2020-07-02T15:11:32.000Z</time>
      </trkpt>
      <trkpt lat="48.36016" lon="-2.8023">
        <ele>217</ele>
        <time>2020-07-02T15:11:36.000Z</time>
      </trkpt>
      <trkpt lat="48.36006" lon="-2.80238">
        <ele>217.1</ele>
        <time>2020-07-02T15:11:40.000Z</time>
      </trkpt>
      <trkpt lat="48.35997" lon="-2.80247">
        <ele>217.2</ele>
        <time>2020-07-02T15:11:44.000Z</time>
      </trkpt>
      <trkpt lat="48.35987" lon="-2.80256">
        <ele>217.3</ele>
        <time>2020-07-02T15:11:48.000Z</time>
      </trkpt>
      <trkpt lat="48.35979" lon="-2.80267">
        <ele>217.3</ele>
        <time>2020-07-02T15:11:51.000Z</time>
      </trkpt>
      <trkpt lat="48.35972" lon="-2.80277">
        <ele>217.3</ele>
        <time>2020-07-02T15:11:54.000Z</time>
      </trkpt>
      <trkpt lat="48.35964" lon="-2.80288">
        <ele>217.3</ele>
        <time>2020-07-02T15:11:57.000Z</time>
      </trkpt>
      <trkpt lat="48.35957" lon="-2.80299">
        <ele>217.2</ele>
        <time>2020-07-02T15:12:00.000Z</time>
      </trkpt>
      <trkpt lat="48.35949" lon="-2.8031">
        <ele>217.1</ele>
        <time>2020-07-02T15:12:03.000Z</time>
      </trkpt>
      <trkpt lat="48.3594" lon="-2.8032">
        <ele>217</ele>
        <time>2020-07-02T15:12:06.000Z</time>
      </trkpt>
      <trkpt lat="48.3593" lon="-2.80327">
        <ele>216.8</ele>
        <time>2020-07-02T15:12:09.000Z</time>
      </trkpt>
      <trkpt lat="48.35917" lon="-2.80329">
        <ele>216.7</ele>
        <time>2020-07-02T15:12:12.000Z</time>
      </trkpt>
      <trkpt lat="48.35906" lon="-2.80336">
        <ele>216.5</ele>
        <time>2020-07-02T15:12:15.000Z</time>
      </trkpt>
      <trkpt lat="48.35896" lon="-2.8034">
        <ele>216.3</ele>
        <time>2020-07-02T15:12:19.000Z</time>
      </trkpt>
      <trkpt lat="48.35887" lon="-2.80346">
        <ele>216.2</ele>
        <time>2020-07-02T15:12:21.000Z</time>
      </trkpt>
      <trkpt lat="48.35877" lon="-2.80351">
        <ele>216.1</ele>
        <time>2020-07-02T15:12:23.000Z</time>
      </trkpt>
      <trkpt lat="48.35866" lon="-2.80352">
        <ele>216</ele>
        <time>2020-07-02T15:12:25.000Z</time>
      </trkpt>
      <trkpt lat="48.35856" lon="-2.80351">
        <ele>215.9</ele>
        <time>2020-07-02T15:12:27.000Z</time>
      </trkpt>
      <trkpt lat="48.35846" lon="-2.80351">
        <ele>215.6</ele>
        <time>2020-07-02T15:12:29.000Z</time>
      </trkpt>
      <trkpt lat="48.35838" lon="-2.80355">
        <ele>215.2</ele>
        <time>2020-07-02T15:12:32.000Z</time>
      </trkpt>
      <trkpt lat="48.35835" lon="-2.80372">
        <ele>214.7</ele>
        <time>2020-07-02T15:12:36.000Z</time>
      </trkpt>
      <trkpt lat="48.35836" lon="-2.80386">
        <ele>214.5</ele>
        <time>2020-07-02T15:12:39.000Z</time>
      </trkpt>
      <trkpt lat="48.35837" lon="-2.80402">
        <ele>214.4</ele>
        <time>2020-07-02T15:12:43.000Z</time>
      </trkpt>
      <trkpt lat="48.35838" lon="-2.80421">
        <ele>214.6</ele>
        <time>2020-07-02T15:12:47.000Z</time>
      </trkpt>
      <trkpt lat="48.35838" lon="-2.80438">
        <ele>214.9</ele>
        <time>2020-07-02T15:12:51.000Z</time>
      </trkpt>
      <trkpt lat="48.35839" lon="-2.80454">
        <ele>215.1</ele>
        <time>2020-07-02T15:12:54.000Z</time>
      </trkpt>
      <trkpt lat="48.35837" lon="-2.80469">
        <ele>215.4</ele>
        <time>2020-07-02T15:12:57.000Z</time>
      </trkpt>
      <trkpt lat="48.35837" lon="-2.80484">
        <ele>215.8</ele>
        <time>2020-07-02T15:13:00.000Z</time>
      </trkpt>
      <trkpt lat="48.35837" lon="-2.805">
        <ele>216.1</ele>
        <time>2020-07-02T15:13:03.000Z</time>
      </trkpt>
      <trkpt lat="48.35836" lon="-2.80518">
        <ele>216.3</ele>
        <time>2020-07-02T15:13:06.000Z</time>
      </trkpt>
      <trkpt lat="48.35835" lon="-2.80534">
        <ele>216.4</ele>
        <time>2020-07-02T15:13:09.000Z</time>
      </trkpt>
      <trkpt lat="48.35834" lon="-2.80551">
        <ele>216.6</ele>
        <time>2020-07-02T15:13:12.000Z</time>
      </trkpt>
      <trkpt lat="48.35835" lon="-2.80568">
        <ele>216.7</ele>
        <time>2020-07-02T15:13:15.000Z</time>
      </trkpt>
      <trkpt lat="48.35836" lon="-2.80587">
        <ele>216.7</ele>
        <time>2020-07-02T15:13:18.000Z</time>
      </trkpt>
      <trkpt lat="48.35838" lon="-2.80606">
        <ele>216.8</ele>
        <time>2020-07-02T15:13:21.000Z</time>
      </trkpt>
      <trkpt lat="48.35839" lon="-2.80624">
        <ele>216.6</ele>
        <time>2020-07-02T15:13:24.000Z</time>
      </trkpt>
      <trkpt lat="48.35841" lon="-2.80642">
        <ele>216.4</ele>
        <time>2020-07-02T15:13:27.000Z</time>
      </trkpt>
      <trkpt lat="48.35843" lon="-2.80661">
        <ele>216.2</ele>
        <time>2020-07-02T15:13:30.000Z</time>
      </trkpt>
      <trkpt lat="48.35845" lon="-2.8068">
        <ele>216</ele>
        <time>2020-07-02T15:13:33.000Z</time>
      </trkpt>
      <trkpt lat="48.35846" lon="-2.80693">
        <ele>216</ele>
        <time>2020-07-02T15:13:35.000Z</time>
      </trkpt>
      <trkpt lat="48.35847" lon="-2.80707">
        <ele>215.9</ele>
        <time>2020-07-02T15:13:37.000Z</time>
      </trkpt>
      <trkpt lat="48.35849" lon="-2.80727">
        <ele>215.8</ele>
        <time>2020-07-02T15:13:40.000Z</time>
      </trkpt>
      <trkpt lat="48.35852" lon="-2.8074">
        <ele>215.7</ele>
        <time>2020-07-02T15:13:42.000Z</time>
      </trkpt>
      <trkpt lat="48.35854" lon="-2.80754">
        <ele>215.6</ele>
        <time>2020-07-02T15:13:44.000Z</time>
      </trkpt>
      <trkpt lat="48.35856" lon="-2.80769">
        <ele>215.4</ele>
        <time>2020-07-02T15:13:46.000Z</time>
      </trkpt>
      <trkpt lat="48.35859" lon="-2.80788">
        <ele>215.2</ele>
        <time>2020-07-02T15:13:49.000Z</time>
      </trkpt>
      <trkpt lat="48.35862" lon="-2.80803">
        <ele>214.9</ele>
        <time>2020-07-02T15:13:51.000Z</time>
      </trkpt>
      <trkpt lat="48.35864" lon="-2.80817">
        <ele>214.8</ele>
        <time>2020-07-02T15:13:53.000Z</time>
      </trkpt>
      <trkpt lat="48.35867" lon="-2.80832">
        <ele>214.6</ele>
        <time>2020-07-02T15:13:55.000Z</time>
      </trkpt>
      <trkpt lat="48.3587" lon="-2.80846">
        <ele>214.4</ele>
        <time>2020-07-02T15:13:57.000Z</time>
      </trkpt>
      <trkpt lat="48.35875" lon="-2.80858">
        <ele>214.2</ele>
        <time>2020-07-02T15:13:59.000Z</time>
      </trkpt>
      <trkpt lat="48.3588" lon="-2.80869">
        <ele>214.1</ele>
        <time>2020-07-02T15:14:01.000Z</time>
      </trkpt>
      <trkpt lat="48.35887" lon="-2.80885">
        <ele>213.9</ele>
        <time>2020-07-02T15:14:04.000Z</time>
      </trkpt>
      <trkpt lat="48.35892" lon="-2.80897">
        <ele>213.9</ele>
        <time>2020-07-02T15:14:06.000Z</time>
      </trkpt>
      <trkpt lat="48.35899" lon="-2.80913">
        <ele>213.8</ele>
        <time>2020-07-02T15:14:09.000Z</time>
      </trkpt>
      <trkpt lat="48.35907" lon="-2.80927">
        <ele>213.8</ele>
        <time>2020-07-02T15:14:12.000Z</time>
      </trkpt>
      <trkpt lat="48.35914" lon="-2.8094">
        <ele>213.9</ele>
        <time>2020-07-02T15:14:15.000Z</time>
      </trkpt>
      <trkpt lat="48.35922" lon="-2.80951">
        <ele>214.1</ele>
        <time>2020-07-02T15:14:18.000Z</time>
      </trkpt>
      <trkpt lat="48.35929" lon="-2.80963">
        <ele>214.5</ele>
        <time>2020-07-02T15:14:21.000Z</time>
      </trkpt>
      <trkpt lat="48.35935" lon="-2.80975">
        <ele>214.8</ele>
        <time>2020-07-02T15:14:24.000Z</time>
      </trkpt>
      <trkpt lat="48.3594" lon="-2.80986">
        <ele>215.2</ele>
        <time>2020-07-02T15:14:27.000Z</time>
      </trkpt>
      <trkpt lat="48.35945" lon="-2.81">
        <ele>215.6</ele>
        <time>2020-07-02T15:14:30.000Z</time>
      </trkpt>
      <trkpt lat="48.35949" lon="-2.81016">
        <ele>216</ele>
        <time>2020-07-02T15:14:33.000Z</time>
      </trkpt>
      <trkpt lat="48.35952" lon="-2.81032">
        <ele>216.4</ele>
        <time>2020-07-02T15:14:36.000Z</time>
      </trkpt>
      <trkpt lat="48.35956" lon="-2.81047">
        <ele>216.7</ele>
        <time>2020-07-02T15:14:39.000Z</time>
      </trkpt>
      <trkpt lat="48.35959" lon="-2.81062">
        <ele>216.9</ele>
        <time>2020-07-02T15:14:42.000Z</time>
      </trkpt>
      <trkpt lat="48.35962" lon="-2.81077">
        <ele>217</ele>
        <time>2020-07-02T15:14:45.000Z</time>
      </trkpt>
      <trkpt lat="48.3596" lon="-2.81094">
        <ele>217</ele>
        <time>2020-07-02T15:14:48.000Z</time>
      </trkpt>
      <trkpt lat="48.35955" lon="-2.81107">
        <ele>217</ele>
        <time>2020-07-02T15:14:50.000Z</time>
      </trkpt>
      <trkpt lat="48.35948" lon="-2.8112">
        <ele>216.9</ele>
        <time>2020-07-02T15:14:52.000Z</time>
      </trkpt>
      <trkpt lat="48.35941" lon="-2.81132">
        <ele>216.7</ele>
        <time>2020-07-02T15:14:54.000Z</time>
      </trkpt>
      <trkpt lat="48.35934" lon="-2.81144">
        <ele>216.3</ele>
        <time>2020-07-02T15:14:56.000Z</time>
      </trkpt>
      <trkpt lat="48.35926" lon="-2.81157">
        <ele>215.9</ele>
        <time>2020-07-02T15:14:58.000Z</time>
      </trkpt>
      <trkpt lat="48.35918" lon="-2.8117">
        <ele>215.4</ele>
        <time>2020-07-02T15:15:00.000Z</time>
      </trkpt>
      <trkpt lat="48.3591" lon="-2.81183">
        <ele>214.6</ele>
        <time>2020-07-02T15:15:02.000Z</time>
      </trkpt>
      <trkpt lat="48.35901" lon="-2.81199">
        <ele>213.9</ele>
        <time>2020-07-02T15:15:04.000Z</time>
      </trkpt>
      <trkpt lat="48.3589" lon="-2.81215">
        <ele>213.1</ele>
        <time>2020-07-02T15:15:06.000Z</time>
      </trkpt>
      <trkpt lat="48.3588" lon="-2.81231">
        <ele>212.2</ele>
        <time>2020-07-02T15:15:08.000Z</time>
      </trkpt>
      <trkpt lat="48.35868" lon="-2.81246">
        <ele>211.5</ele>
        <time>2020-07-02T15:15:10.000Z</time>
      </trkpt>
      <trkpt lat="48.35854" lon="-2.81259">
        <ele>210.6</ele>
        <time>2020-07-02T15:15:12.000Z</time>
      </trkpt>
      <trkpt lat="48.3584" lon="-2.81269">
        <ele>209.8</ele>
        <time>2020-07-02T15:15:14.000Z</time>
      </trkpt>
      <trkpt lat="48.35826" lon="-2.81277">
        <ele>209</ele>
        <time>2020-07-02T15:15:16.000Z</time>
      </trkpt>
      <trkpt lat="48.35811" lon="-2.81283">
        <ele>208.2</ele>
        <time>2020-07-02T15:15:18.000Z</time>
      </trkpt>
      <trkpt lat="48.35796" lon="-2.81288">
        <ele>207.5</ele>
        <time>2020-07-02T15:15:20.000Z</time>
      </trkpt>
      <trkpt lat="48.35781" lon="-2.81293">
        <ele>206.9</ele>
        <time>2020-07-02T15:15:22.000Z</time>
      </trkpt>
      <trkpt lat="48.35765" lon="-2.81298">
        <ele>206.4</ele>
        <time>2020-07-02T15:15:24.000Z</time>
      </trkpt>
      <trkpt lat="48.35751" lon="-2.81302">
        <ele>205.7</ele>
        <time>2020-07-02T15:15:26.000Z</time>
      </trkpt>
      <trkpt lat="48.35737" lon="-2.81306">
        <ele>205.1</ele>
        <time>2020-07-02T15:15:28.000Z</time>
      </trkpt>
      <trkpt lat="48.35722" lon="-2.8131">
        <ele>204.4</ele>
        <time>2020-07-02T15:15:30.000Z</time>
      </trkpt>
      <trkpt lat="48.35707" lon="-2.81314">
        <ele>203.9</ele>
        <time>2020-07-02T15:15:32.000Z</time>
      </trkpt>
      <trkpt lat="48.35692" lon="-2.81319">
        <ele>203.4</ele>
        <time>2020-07-02T15:15:34.000Z</time>
      </trkpt>
      <trkpt lat="48.35677" lon="-2.81324">
        <ele>202.9</ele>
        <time>2020-07-02T15:15:36.000Z</time>
      </trkpt>
      <trkpt lat="48.35663" lon="-2.81329">
        <ele>202.4</ele>
        <time>2020-07-02T15:15:38.000Z</time>
      </trkpt>
      <trkpt lat="48.3565" lon="-2.81335">
        <ele>201.9</ele>
        <time>2020-07-02T15:15:40.000Z</time>
      </trkpt>
      <trkpt lat="48.35637" lon="-2.81342">
        <ele>201.5</ele>
        <time>2020-07-02T15:15:42.000Z</time>
      </trkpt>
      <trkpt lat="48.35624" lon="-2.81352">
        <ele>200.9</ele>
        <time>2020-07-02T15:15:44.000Z</time>
      </trkpt>
      <trkpt lat="48.35611" lon="-2.81362">
        <ele>200.5</ele>
        <time>2020-07-02T15:15:46.000Z</time>
      </trkpt>
      <trkpt lat="48.356" lon="-2.81371">
        <ele>200</ele>
        <time>2020-07-02T15:15:48.000Z</time>
      </trkpt>
      <trkpt lat="48.3559" lon="-2.81379">
        <ele>199.5</ele>
        <time>2020-07-02T15:15:50.000Z</time>
      </trkpt>
      <trkpt lat="48.35579" lon="-2.81388">
        <ele>199.1</ele>
        <time>2020-07-02T15:15:52.000Z</time>
      </trkpt>
      <trkpt lat="48.3557" lon="-2.81399">
        <ele>198.6</ele>
        <time>2020-07-02T15:15:54.000Z</time>
      </trkpt>
      <trkpt lat="48.35558" lon="-2.81417">
        <ele>198</ele>
        <time>2020-07-02T15:15:57.000Z</time>
      </trkpt>
      <trkpt lat="48.35549" lon="-2.8143">
        <ele>197.6</ele>
        <time>2020-07-02T15:15:59.000Z</time>
      </trkpt>
      <trkpt lat="48.35539" lon="-2.81441">
        <ele>197.2</ele>
        <time>2020-07-02T15:16:01.000Z</time>
      </trkpt>
      <trkpt lat="48.35527" lon="-2.81446">
        <ele>196.9</ele>
        <time>2020-07-02T15:16:03.000Z</time>
      </trkpt>
      <trkpt lat="48.35516" lon="-2.81451">
        <ele>196.4</ele>
        <time>2020-07-02T15:16:06.000Z</time>
      </trkpt>
      <trkpt lat="48.35507" lon="-2.81454">
        <ele>196</ele>
        <time>2020-07-02T15:16:09.000Z</time>
      </trkpt>
      <trkpt lat="48.35496" lon="-2.81451">
        <ele>195.4</ele>
        <time>2020-07-02T15:16:14.000Z</time>
      </trkpt>
      <trkpt lat="48.35486" lon="-2.81452">
        <ele>195</ele>
        <time>2020-07-02T15:16:18.000Z</time>
      </trkpt>
      <trkpt lat="48.35477" lon="-2.81452">
        <ele>194.8</ele>
        <time>2020-07-02T15:16:21.000Z</time>
      </trkpt>
      <trkpt lat="48.35465" lon="-2.8145">
        <ele>194.6</ele>
        <time>2020-07-02T15:16:24.000Z</time>
      </trkpt>
      <trkpt lat="48.35455" lon="-2.81449">
        <ele>194.4</ele>
        <time>2020-07-02T15:16:27.000Z</time>
      </trkpt>
      <trkpt lat="48.35445" lon="-2.81451">
        <ele>194.2</ele>
        <time>2020-07-02T15:16:30.000Z</time>
      </trkpt>
      <trkpt lat="48.35434" lon="-2.81452">
        <ele>193.9</ele>
        <time>2020-07-02T15:16:34.000Z</time>
      </trkpt>
      <trkpt lat="48.35424" lon="-2.81447">
        <ele>193.6</ele>
        <time>2020-07-02T15:16:38.000Z</time>
      </trkpt>
      <trkpt lat="48.35413" lon="-2.81443">
        <ele>193.4</ele>
        <time>2020-07-02T15:16:42.000Z</time>
      </trkpt>
      <trkpt lat="48.35405" lon="-2.81439">
        <ele>193</ele>
        <time>2020-07-02T15:16:46.000Z</time>
      </trkpt>
      <trkpt lat="48.35397" lon="-2.81431">
        <ele>192.5</ele>
        <time>2020-07-02T15:16:53.000Z</time>
      </trkpt>
      <trkpt lat="48.35387" lon="-2.81431">
        <ele>192.1</ele>
        <time>2020-07-02T15:17:01.000Z</time>
      </trkpt>
      <trkpt lat="48.35378" lon="-2.81427">
        <ele>191.9</ele>
        <time>2020-07-02T15:17:05.000Z</time>
      </trkpt>
      <trkpt lat="48.35371" lon="-2.81415">
        <ele>191.8</ele>
        <time>2020-07-02T15:17:10.000Z</time>
      </trkpt>
      <trkpt lat="48.35365" lon="-2.81404">
        <ele>191.6</ele>
        <time>2020-07-02T15:17:16.000Z</time>
      </trkpt>
      <trkpt lat="48.35358" lon="-2.81395">
        <ele>191.4</ele>
        <time>2020-07-02T15:17:23.000Z</time>
      </trkpt>
      <trkpt lat="48.35351" lon="-2.81385">
        <ele>191.2</ele>
        <time>2020-07-02T15:17:32.000Z</time>
      </trkpt>
      <trkpt lat="48.35348" lon="-2.81379">
        <ele>190.5</ele>
        <time>2020-07-02T15:17:41.000Z</time>
      </trkpt>
      <trkpt lat="48.35339" lon="-2.81376">
        <ele>190.6</ele>
        <time>2020-07-02T15:17:52.000Z</time>
      </trkpt>
      <trkpt lat="48.3533" lon="-2.81385">
        <ele>190.7</ele>
        <time>2020-07-02T15:17:58.000Z</time>
      </trkpt>
      <trkpt lat="48.35321" lon="-2.8139">
        <ele>190.6</ele>
        <time>2020-07-02T15:18:02.000Z</time>
      </trkpt>
      <trkpt lat="48.35312" lon="-2.81397">
        <ele>190.5</ele>
        <time>2020-07-02T15:18:06.000Z</time>
      </trkpt>
      <trkpt lat="48.35303" lon="-2.81402">
        <ele>190.6</ele>
        <time>2020-07-02T15:18:10.000Z</time>
      </trkpt>
      <trkpt lat="48.35293" lon="-2.814">
        <ele>190.6</ele>
        <time>2020-07-02T15:18:14.000Z</time>
      </trkpt>
      <trkpt lat="48.35284" lon="-2.81396">
        <ele>190.7</ele>
        <time>2020-07-02T15:18:18.000Z</time>
      </trkpt>
      <trkpt lat="48.35274" lon="-2.81393">
        <ele>190.7</ele>
        <time>2020-07-02T15:18:22.000Z</time>
      </trkpt>
      <trkpt lat="48.35265" lon="-2.81388">
        <ele>190.8</ele>
        <time>2020-07-02T15:18:26.000Z</time>
      </trkpt>
      <trkpt lat="48.35255" lon="-2.81384">
        <ele>191</ele>
        <time>2020-07-02T15:18:31.000Z</time>
      </trkpt>
      <trkpt lat="48.35246" lon="-2.8138">
        <ele>191.1</ele>
        <time>2020-07-02T15:18:36.000Z</time>
      </trkpt>
      <trkpt lat="48.35238" lon="-2.81372">
        <ele>191.2</ele>
        <time>2020-07-02T15:18:40.000Z</time>
      </trkpt>
      <trkpt lat="48.3523" lon="-2.81366">
        <ele>191.1</ele>
        <time>2020-07-02T15:18:43.000Z</time>
      </trkpt>
      <trkpt lat="48.35221" lon="-2.81358">
        <ele>191.1</ele>
        <time>2020-07-02T15:18:47.000Z</time>
      </trkpt>
      <trkpt lat="48.35213" lon="-2.81351">
        <ele>191.2</ele>
        <time>2020-07-02T15:18:51.000Z</time>
      </trkpt>
      <trkpt lat="48.35204" lon="-2.81342">
        <ele>191.4</ele>
        <time>2020-07-02T15:18:55.000Z</time>
      </trkpt>
      <trkpt lat="48.35196" lon="-2.81335">
        <ele>191.5</ele>
        <time>2020-07-02T15:18:58.000Z</time>
      </trkpt>
      <trkpt lat="48.35186" lon="-2.81327">
        <ele>191.8</ele>
        <time>2020-07-02T15:19:02.000Z</time>
      </trkpt>
      <trkpt lat="48.35176" lon="-2.81323">
        <ele>192</ele>
        <time>2020-07-02T15:19:06.000Z</time>
      </trkpt>
      <trkpt lat="48.35166" lon="-2.81318">
        <ele>192.1</ele>
        <time>2020-07-02T15:19:09.000Z</time>
      </trkpt>
      <trkpt lat="48.35157" lon="-2.81314">
        <ele>192.2</ele>
        <time>2020-07-02T15:19:12.000Z</time>
      </trkpt>
      <trkpt lat="48.35147" lon="-2.81313">
        <ele>192.2</ele>
        <time>2020-07-02T15:19:16.000Z</time>
      </trkpt>
      <trkpt lat="48.35136" lon="-2.81315">
        <ele>192.3</ele>
        <time>2020-07-02T15:19:21.000Z</time>
      </trkpt>
      <trkpt lat="48.35126" lon="-2.81324">
        <ele>192.4</ele>
        <time>2020-07-02T15:19:25.000Z</time>
      </trkpt>
      <trkpt lat="48.35123" lon="-2.8134">
        <ele>192.5</ele>
        <time>2020-07-02T15:19:31.000Z</time>
      </trkpt>
      <trkpt lat="48.3512" lon="-2.81353">
        <ele>192.6</ele>
        <time>2020-07-02T15:19:36.000Z</time>
      </trkpt>
      <trkpt lat="48.35119" lon="-2.81368">
        <ele>193</ele>
        <time>2020-07-02T15:19:42.000Z</time>
      </trkpt>
      <trkpt lat="48.35117" lon="-2.81382">
        <ele>193.2</ele>
        <time>2020-07-02T15:19:47.000Z</time>
      </trkpt>
      <trkpt lat="48.35115" lon="-2.81397">
        <ele>193.7</ele>
        <time>2020-07-02T15:19:53.000Z</time>
      </trkpt>
      <trkpt lat="48.35115" lon="-2.81412">
        <ele>194.2</ele>
        <time>2020-07-02T15:19:59.000Z</time>
      </trkpt>
      <trkpt lat="48.35112" lon="-2.81427">
        <ele>194.6</ele>
        <time>2020-07-02T15:20:04.000Z</time>
      </trkpt>
      <trkpt lat="48.35111" lon="-2.81443">
        <ele>195.3</ele>
        <time>2020-07-02T15:20:10.000Z</time>
      </trkpt>
      <trkpt lat="48.35111" lon="-2.81456">
        <ele>196.1</ele>
        <time>2020-07-02T15:20:16.000Z</time>
      </trkpt>
      <trkpt lat="48.3511" lon="-2.81472">
        <ele>196.6</ele>
        <time>2020-07-02T15:20:21.000Z</time>
      </trkpt>
      <trkpt lat="48.35108" lon="-2.81488">
        <ele>197.2</ele>
        <time>2020-07-02T15:20:26.000Z</time>
      </trkpt>
      <trkpt lat="48.35109" lon="-2.81505">
        <ele>197.6</ele>
        <time>2020-07-02T15:20:31.000Z</time>
      </trkpt>
      <trkpt lat="48.35108" lon="-2.81519">
        <ele>198</ele>
        <time>2020-07-02T15:20:35.000Z</time>
      </trkpt>
      <trkpt lat="48.35104" lon="-2.81533">
        <ele>198.4</ele>
        <time>2020-07-02T15:20:40.000Z</time>
      </trkpt>
      <trkpt lat="48.35105" lon="-2.81548">
        <ele>198.9</ele>
        <time>2020-07-02T15:20:45.000Z</time>
      </trkpt>
      <trkpt lat="48.35107" lon="-2.81562">
        <ele>199.3</ele>
        <time>2020-07-02T15:20:50.000Z</time>
      </trkpt>
      <trkpt lat="48.35106" lon="-2.81577">
        <ele>199.9</ele>
        <time>2020-07-02T15:20:55.000Z</time>
      </trkpt>
      <trkpt lat="48.35104" lon="-2.81592">
        <ele>200.2</ele>
        <time>2020-07-02T15:21:00.000Z</time>
      </trkpt>
      <trkpt lat="48.35105" lon="-2.81606">
        <ele>200.5</ele>
        <time>2020-07-02T15:21:04.000Z</time>
      </trkpt>
      <trkpt lat="48.35104" lon="-2.81619">
        <ele>200.7</ele>
        <time>2020-07-02T15:21:08.000Z</time>
      </trkpt>
      <trkpt lat="48.35102" lon="-2.81634">
        <ele>200.9</ele>
        <time>2020-07-02T15:21:13.000Z</time>
      </trkpt>
      <trkpt lat="48.35099" lon="-2.81649">
        <ele>201.1</ele>
        <time>2020-07-02T15:21:18.000Z</time>
      </trkpt>
      <trkpt lat="48.35096" lon="-2.81664">
        <ele>201.3</ele>
        <time>2020-07-02T15:21:23.000Z</time>
      </trkpt>
      <trkpt lat="48.35091" lon="-2.81677">
        <ele>201.5</ele>
        <time>2020-07-02T15:21:28.000Z</time>
      </trkpt>
      <trkpt lat="48.35083" lon="-2.81685">
        <ele>201.6</ele>
        <time>2020-07-02T15:21:32.000Z</time>
      </trkpt>
      <trkpt lat="48.35073" lon="-2.81688">
        <ele>201.6</ele>
        <time>2020-07-02T15:21:37.000Z</time>
      </trkpt>
      <trkpt lat="48.35063" lon="-2.81691">
        <ele>201.6</ele>
        <time>2020-07-02T15:21:41.000Z</time>
      </trkpt>
      <trkpt lat="48.35052" lon="-2.81696">
        <ele>201.6</ele>
        <time>2020-07-02T15:21:45.000Z</time>
      </trkpt>
      <trkpt lat="48.35042" lon="-2.81696">
        <ele>201.6</ele>
        <time>2020-07-02T15:21:49.000Z</time>
      </trkpt>
      <trkpt lat="48.35031" lon="-2.81695">
        <ele>201.7</ele>
        <time>2020-07-02T15:21:53.000Z</time>
      </trkpt>
      <trkpt lat="48.35021" lon="-2.81691">
        <ele>201.5</ele>
        <time>2020-07-02T15:21:57.000Z</time>
      </trkpt>
      <trkpt lat="48.35013" lon="-2.81683">
        <ele>201.4</ele>
        <time>2020-07-02T15:22:02.000Z</time>
      </trkpt>
      <trkpt lat="48.35014" lon="-2.81667">
        <ele>201.3</ele>
        <time>2020-07-02T15:22:08.000Z</time>
      </trkpt>
      <trkpt lat="48.35019" lon="-2.81653">
        <ele>201.3</ele>
        <time>2020-07-02T15:22:12.000Z</time>
      </trkpt>
      <trkpt lat="48.35024" lon="-2.81638">
        <ele>201.2</ele>
        <time>2020-07-02T15:22:17.000Z</time>
      </trkpt>
      <trkpt lat="48.35026" lon="-2.81621">
        <ele>201.1</ele>
        <time>2020-07-02T15:22:22.000Z</time>
      </trkpt>
      <trkpt lat="48.3503" lon="-2.81609">
        <ele>201</ele>
        <time>2020-07-02T15:22:26.000Z</time>
      </trkpt>
      <trkpt lat="48.35037" lon="-2.81597">
        <ele>200.8</ele>
        <time>2020-07-02T15:22:31.000Z</time>
      </trkpt>
      <trkpt lat="48.3504" lon="-2.81584">
        <ele>200.7</ele>
        <time>2020-07-02T15:22:35.000Z</time>
      </trkpt>
      <trkpt lat="48.35041" lon="-2.8157">
        <ele>200.6</ele>
        <time>2020-07-02T15:22:38.000Z</time>
      </trkpt>
      <trkpt lat="48.35043" lon="-2.81555">
        <ele>200.4</ele>
        <time>2020-07-02T15:22:42.000Z</time>
      </trkpt>
      <trkpt lat="48.35048" lon="-2.81541">
        <ele>200.2</ele>
        <time>2020-07-02T15:22:46.000Z</time>
      </trkpt>
      <trkpt lat="48.35051" lon="-2.81525">
        <ele>200</ele>
        <time>2020-07-02T15:22:49.000Z</time>
      </trkpt>
      <trkpt lat="48.35052" lon="-2.81511">
        <ele>199.5</ele>
        <time>2020-07-02T15:22:53.000Z</time>
      </trkpt>
      <trkpt lat="48.35055" lon="-2.81497">
        <ele>199</ele>
        <time>2020-07-02T15:22:58.000Z</time>
      </trkpt>
      <trkpt lat="48.35059" lon="-2.81483">
        <ele>198.7</ele>
        <time>2020-07-02T15:23:02.000Z</time>
      </trkpt>
      <trkpt lat="48.35057" lon="-2.81465">
        <ele>198.3</ele>
        <time>2020-07-02T15:23:07.000Z</time>
      </trkpt>
      <trkpt lat="48.35057" lon="-2.81451">
        <ele>197.9</ele>
        <time>2020-07-02T15:23:11.000Z</time>
      </trkpt>
      <trkpt lat="48.35058" lon="-2.81437">
        <ele>197.4</ele>
        <time>2020-07-02T15:23:15.000Z</time>
      </trkpt>
      <trkpt lat="48.35048" lon="-2.8144">
        <ele>197</ele>
        <time>2020-07-02T15:23:21.000Z</time>
      </trkpt>
      <trkpt lat="48.35041" lon="-2.81448">
        <ele>196.8</ele>
        <time>2020-07-02T15:23:26.000Z</time>
      </trkpt>
      <trkpt lat="48.35032" lon="-2.81459">
        <ele>196.7</ele>
        <time>2020-07-02T15:23:31.000Z</time>
      </trkpt>
      <trkpt lat="48.35024" lon="-2.81467">
        <ele>196.7</ele>
        <time>2020-07-02T15:23:35.000Z</time>
      </trkpt>
      <trkpt lat="48.35015" lon="-2.81477">
        <ele>196.9</ele>
        <time>2020-07-02T15:23:39.000Z</time>
      </trkpt>
      <trkpt lat="48.35006" lon="-2.81488">
        <ele>197.1</ele>
        <time>2020-07-02T15:23:43.000Z</time>
      </trkpt>
      <trkpt lat="48.34998" lon="-2.81494">
        <ele>197.4</ele>
        <time>2020-07-02T15:23:46.000Z</time>
      </trkpt>
      <trkpt lat="48.34989" lon="-2.81504">
        <ele>197.7</ele>
        <time>2020-07-02T15:23:50.000Z</time>
      </trkpt>
      <trkpt lat="48.34979" lon="-2.81512">
        <ele>198.1</ele>
        <time>2020-07-02T15:23:54.000Z</time>
      </trkpt>
      <trkpt lat="48.3497" lon="-2.81522">
        <ele>198.6</ele>
        <time>2020-07-02T15:23:58.000Z</time>
      </trkpt>
      <trkpt lat="48.34962" lon="-2.81533">
        <ele>199.1</ele>
        <time>2020-07-02T15:24:02.000Z</time>
      </trkpt>
      <trkpt lat="48.34953" lon="-2.81536">
        <ele>199.6</ele>
        <time>2020-07-02T15:24:06.000Z</time>
      </trkpt>
      <trkpt lat="48.34951" lon="-2.81522">
        <ele>200.2</ele>
        <time>2020-07-02T15:24:11.000Z</time>
      </trkpt>
      <trkpt lat="48.34948" lon="-2.81506">
        <ele>200.5</ele>
        <time>2020-07-02T15:24:15.000Z</time>
      </trkpt>
      <trkpt lat="48.34946" lon="-2.81492">
        <ele>200.8</ele>
        <time>2020-07-02T15:24:18.000Z</time>
      </trkpt>
      <trkpt lat="48.34943" lon="-2.81477">
        <ele>200.9</ele>
        <time>2020-07-02T15:24:21.000Z</time>
      </trkpt>
      <trkpt lat="48.34941" lon="-2.8146">
        <ele>201</ele>
        <time>2020-07-02T15:24:24.000Z</time>
      </trkpt>
      <trkpt lat="48.34931" lon="-2.81455">
        <ele>201</ele>
        <time>2020-07-02T15:24:28.000Z</time>
      </trkpt>
      <trkpt lat="48.34921" lon="-2.81454">
        <ele>201</ele>
        <time>2020-07-02T15:24:31.000Z</time>
      </trkpt>
      <trkpt lat="48.34911" lon="-2.81457">
        <ele>201</ele>
        <time>2020-07-02T15:24:35.000Z</time>
      </trkpt>
      <trkpt lat="48.34899" lon="-2.81457">
        <ele>201</ele>
        <time>2020-07-02T15:24:39.000Z</time>
      </trkpt>
      <trkpt lat="48.34889" lon="-2.81458">
        <ele>201</ele>
        <time>2020-07-02T15:24:42.000Z</time>
      </trkpt>
      <trkpt lat="48.34878" lon="-2.81461">
        <ele>201</ele>
        <time>2020-07-02T15:24:45.000Z</time>
      </trkpt>
      <trkpt lat="48.34866" lon="-2.81463">
        <ele>201</ele>
        <time>2020-07-02T15:24:48.000Z</time>
      </trkpt>
      <trkpt lat="48.34854" lon="-2.81467">
        <ele>201</ele>
        <time>2020-07-02T15:24:51.000Z</time>
      </trkpt>
      <trkpt lat="48.34841" lon="-2.81472">
        <ele>200.9</ele>
        <time>2020-07-02T15:24:55.000Z</time>
      </trkpt>
      <trkpt lat="48.34832" lon="-2.81476">
        <ele>200.9</ele>
        <time>2020-07-02T15:24:58.000Z</time>
      </trkpt>
      <trkpt lat="48.34821" lon="-2.81478">
        <ele>200.8</ele>
        <time>2020-07-02T15:25:01.000Z</time>
      </trkpt>
      <trkpt lat="48.34809" lon="-2.81481">
        <ele>200.6</ele>
        <time>2020-07-02T15:25:04.000Z</time>
      </trkpt>
      <trkpt lat="48.348" lon="-2.81483">
        <ele>200.5</ele>
        <time>2020-07-02T15:25:06.000Z</time>
      </trkpt>
      <trkpt lat="48.34791" lon="-2.81485">
        <ele>200.3</ele>
        <time>2020-07-02T15:25:08.000Z</time>
      </trkpt>
      <trkpt lat="48.34781" lon="-2.81486">
        <ele>200.1</ele>
        <time>2020-07-02T15:25:10.000Z</time>
      </trkpt>
      <trkpt lat="48.3477" lon="-2.81489">
        <ele>199.8</ele>
        <time>2020-07-02T15:25:13.000Z</time>
      </trkpt>
      <trkpt lat="48.34761" lon="-2.81491">
        <ele>199.5</ele>
        <time>2020-07-02T15:25:16.000Z</time>
      </trkpt>
      <trkpt lat="48.34749" lon="-2.81494">
        <ele>199.2</ele>
        <time>2020-07-02T15:25:19.000Z</time>
      </trkpt>
      <trkpt lat="48.34738" lon="-2.81495">
        <ele>198.8</ele>
        <time>2020-07-02T15:25:22.000Z</time>
      </trkpt>
      <trkpt lat="48.34726" lon="-2.815">
        <ele>198.3</ele>
        <time>2020-07-02T15:25:25.000Z</time>
      </trkpt>
      <trkpt lat="48.34714" lon="-2.81501">
        <ele>198</ele>
        <time>2020-07-02T15:25:28.000Z</time>
      </trkpt>
      <trkpt lat="48.34704" lon="-2.81505">
        <ele>197.6</ele>
        <time>2020-07-02T15:25:31.000Z</time>
      </trkpt>
      <trkpt lat="48.34693" lon="-2.81509">
        <ele>197.2</ele>
        <time>2020-07-02T15:25:34.000Z</time>
      </trkpt>
      <trkpt lat="48.34684" lon="-2.81512">
        <ele>197</ele>
        <time>2020-07-02T15:25:36.000Z</time>
      </trkpt>
      <trkpt lat="48.34675" lon="-2.81516">
        <ele>196.8</ele>
        <time>2020-07-02T15:25:38.000Z</time>
      </trkpt>
      <trkpt lat="48.34662" lon="-2.81522">
        <ele>196.4</ele>
        <time>2020-07-02T15:25:41.000Z</time>
      </trkpt>
      <trkpt lat="48.34649" lon="-2.81526">
        <ele>195.9</ele>
        <time>2020-07-02T15:25:44.000Z</time>
      </trkpt>
      <trkpt lat="48.3464" lon="-2.81527">
        <ele>195.4</ele>
        <time>2020-07-02T15:25:46.000Z</time>
      </trkpt>
      <trkpt lat="48.34631" lon="-2.81522">
        <ele>194.6</ele>
        <time>2020-07-02T15:25:49.000Z</time>
      </trkpt>
      <trkpt lat="48.34623" lon="-2.81512">
        <ele>193.9</ele>
        <time>2020-07-02T15:25:52.000Z</time>
      </trkpt>
      <trkpt lat="48.34616" lon="-2.81498">
        <ele>192.9</ele>
        <time>2020-07-02T15:25:56.000Z</time>
      </trkpt>
      <trkpt lat="48.3461" lon="-2.81484">
        <ele>192.4</ele>
        <time>2020-07-02T15:25:59.000Z</time>
      </trkpt>
      <trkpt lat="48.34604" lon="-2.81469">
        <ele>192.2</ele>
        <time>2020-07-02T15:26:02.000Z</time>
      </trkpt>
      <trkpt lat="48.346" lon="-2.81454">
        <ele>192</ele>
        <time>2020-07-02T15:26:05.000Z</time>
      </trkpt>
      <trkpt lat="48.34596" lon="-2.81441">
        <ele>191.8</ele>
        <time>2020-07-02T15:26:08.000Z</time>
      </trkpt>
      <trkpt lat="48.34593" lon="-2.81425">
        <ele>191.6</ele>
        <time>2020-07-02T15:26:12.000Z</time>
      </trkpt>
      <trkpt lat="48.34586" lon="-2.81436">
        <ele>191</ele>
        <time>2020-07-02T15:26:23.000Z</time>
      </trkpt>
      <trkpt lat="48.34578" lon="-2.81446">
        <ele>190.7</ele>
        <time>2020-07-02T15:26:27.000Z</time>
      </trkpt>
      <trkpt lat="48.34569" lon="-2.81452">
        <ele>190.3</ele>
        <time>2020-07-02T15:26:31.000Z</time>
      </trkpt>
      <trkpt lat="48.3456" lon="-2.81457">
        <ele>190</ele>
        <time>2020-07-02T15:26:35.000Z</time>
      </trkpt>
      <trkpt lat="48.3455" lon="-2.81464">
        <ele>189.6</ele>
        <time>2020-07-02T15:26:40.000Z</time>
      </trkpt>
      <trkpt lat="48.34541" lon="-2.8147">
        <ele>189.5</ele>
        <time>2020-07-02T15:26:44.000Z</time>
      </trkpt>
      <trkpt lat="48.34532" lon="-2.81475">
        <ele>189.5</ele>
        <time>2020-07-02T15:26:47.000Z</time>
      </trkpt>
      <trkpt lat="48.34522" lon="-2.8147">
        <ele>189.4</ele>
        <time>2020-07-02T15:26:51.000Z</time>
      </trkpt>
      <trkpt lat="48.34515" lon="-2.8146">
        <ele>189.5</ele>
        <time>2020-07-02T15:26:54.000Z</time>
      </trkpt>
      <trkpt lat="48.34507" lon="-2.81448">
        <ele>189.6</ele>
        <time>2020-07-02T15:26:58.000Z</time>
      </trkpt>
      <trkpt lat="48.34502" lon="-2.81436">
        <ele>189.7</ele>
        <time>2020-07-02T15:27:01.000Z</time>
      </trkpt>
      <trkpt lat="48.345" lon="-2.8142">
        <ele>189.7</ele>
        <time>2020-07-02T15:27:05.000Z</time>
      </trkpt>
      <trkpt lat="48.34505" lon="-2.81406">
        <ele>189.7</ele>
        <time>2020-07-02T15:27:09.000Z</time>
      </trkpt>
      <trkpt lat="48.34508" lon="-2.81392">
        <ele>189.6</ele>
        <time>2020-07-02T15:27:14.000Z</time>
      </trkpt>
      <trkpt lat="48.34504" lon="-2.81378">
        <ele>189.5</ele>
        <time>2020-07-02T15:27:18.000Z</time>
      </trkpt>
      <trkpt lat="48.34496" lon="-2.81365">
        <ele>189.3</ele>
        <time>2020-07-02T15:27:24.000Z</time>
      </trkpt>
      <trkpt lat="48.34497" lon="-2.81349">
        <ele>189.2</ele>
        <time>2020-07-02T15:27:29.000Z</time>
      </trkpt>
      <trkpt lat="48.34495" lon="-2.81335">
        <ele>189.1</ele>
        <time>2020-07-02T15:27:33.000Z</time>
      </trkpt>
      <trkpt lat="48.34486" lon="-2.81327">
        <ele>189.1</ele>
        <time>2020-07-02T15:27:38.000Z</time>
      </trkpt>
      <trkpt lat="48.34476" lon="-2.81329">
        <ele>189.5</ele>
        <time>2020-07-02T15:27:42.000Z</time>
      </trkpt>
      <trkpt lat="48.34468" lon="-2.81335">
        <ele>189.9</ele>
        <time>2020-07-02T15:27:45.000Z</time>
      </trkpt>
      <trkpt lat="48.34458" lon="-2.81338">
        <ele>190.5</ele>
        <time>2020-07-02T15:27:49.000Z</time>
      </trkpt>
      <trkpt lat="48.34448" lon="-2.81338">
        <ele>191</ele>
        <time>2020-07-02T15:27:53.000Z</time>
      </trkpt>
      <trkpt lat="48.34437" lon="-2.81339">
        <ele>191.7</ele>
        <time>2020-07-02T15:27:57.000Z</time>
      </trkpt>
      <trkpt lat="48.34427" lon="-2.81344">
        <ele>192.3</ele>
        <time>2020-07-02T15:28:01.000Z</time>
      </trkpt>
      <trkpt lat="48.34422" lon="-2.8136">
        <ele>192.8</ele>
        <time>2020-07-02T15:28:08.000Z</time>
      </trkpt>
      <trkpt lat="48.34414" lon="-2.81372">
        <ele>192.9</ele>
        <time>2020-07-02T15:28:12.000Z</time>
      </trkpt>
      <trkpt lat="48.34406" lon="-2.8138">
        <ele>193.2</ele>
        <time>2020-07-02T15:28:16.000Z</time>
      </trkpt>
      <trkpt lat="48.34398" lon="-2.81388">
        <ele>193.3</ele>
        <time>2020-07-02T15:28:20.000Z</time>
      </trkpt>
      <trkpt lat="48.34388" lon="-2.81396">
        <ele>193.6</ele>
        <time>2020-07-02T15:28:24.000Z</time>
      </trkpt>
      <trkpt lat="48.34379" lon="-2.81403">
        <ele>193.8</ele>
        <time>2020-07-02T15:28:27.000Z</time>
      </trkpt>
      <trkpt lat="48.3437" lon="-2.81409">
        <ele>194.1</ele>
        <time>2020-07-02T15:28:32.000Z</time>
      </trkpt>
      <trkpt lat="48.3436" lon="-2.81414">
        <ele>194.4</ele>
        <time>2020-07-02T15:28:38.000Z</time>
      </trkpt>
      <trkpt lat="48.3435" lon="-2.81418">
        <ele>194.7</ele>
        <time>2020-07-02T15:28:44.000Z</time>
      </trkpt>
      <trkpt lat="48.3434" lon="-2.81422">
        <ele>195.2</ele>
        <time>2020-07-02T15:28:50.000Z</time>
      </trkpt>
      <trkpt lat="48.34331" lon="-2.81426">
        <ele>195.6</ele>
        <time>2020-07-02T15:28:55.000Z</time>
      </trkpt>
      <trkpt lat="48.34321" lon="-2.81429">
        <ele>196.3</ele>
        <time>2020-07-02T15:29:01.000Z</time>
      </trkpt>
      <trkpt lat="48.34311" lon="-2.81432">
        <ele>197.1</ele>
        <time>2020-07-02T15:29:07.000Z</time>
      </trkpt>
      <trkpt lat="48.34301" lon="-2.81434">
        <ele>197.9</ele>
        <time>2020-07-02T15:29:12.000Z</time>
      </trkpt>
      <trkpt lat="48.34291" lon="-2.81435">
        <ele>198.7</ele>
        <time>2020-07-02T15:29:18.000Z</time>
      </trkpt>
      <trkpt lat="48.34281" lon="-2.81436">
        <ele>199.4</ele>
        <time>2020-07-02T15:29:23.000Z</time>
      </trkpt>
      <trkpt lat="48.34271" lon="-2.81437">
        <ele>199.9</ele>
        <time>2020-07-02T15:29:28.000Z</time>
      </trkpt>
      <trkpt lat="48.34261" lon="-2.81439">
        <ele>200.4</ele>
        <time>2020-07-02T15:29:33.000Z</time>
      </trkpt>
      <trkpt lat="48.34251" lon="-2.81441">
        <ele>200.9</ele>
        <time>2020-07-02T15:29:38.000Z</time>
      </trkpt>
      <trkpt lat="48.3424" lon="-2.81443">
        <ele>201.5</ele>
        <time>2020-07-02T15:29:43.000Z</time>
      </trkpt>
      <trkpt lat="48.34231" lon="-2.81444">
        <ele>202</ele>
        <time>2020-07-02T15:29:47.000Z</time>
      </trkpt>
      <trkpt lat="48.3422" lon="-2.81446">
        <ele>202.8</ele>
        <time>2020-07-02T15:29:52.000Z</time>
      </trkpt>
      <trkpt lat="48.34209" lon="-2.81448">
        <ele>203.4</ele>
        <time>2020-07-02T15:29:57.000Z</time>
      </trkpt>
      <trkpt lat="48.34199" lon="-2.81452">
        <ele>204</ele>
        <time>2020-07-02T15:30:02.000Z</time>
      </trkpt>
      <trkpt lat="48.34193" lon="-2.81453">
        <ele>204.7</ele>
        <time>2020-07-02T15:30:11.000Z</time>
      </trkpt>
      <trkpt lat="48.34192" lon="-2.8147">
        <ele>204.7</ele>
        <time>2020-07-02T15:32:01.000Z</time>
      </trkpt>
      <trkpt lat="48.34194" lon="-2.81483">
        <ele>204.9</ele>
        <time>2020-07-02T15:32:06.000Z</time>
      </trkpt>
      <trkpt lat="48.34194" lon="-2.81497">
        <ele>205</ele>
        <time>2020-07-02T15:32:10.000Z</time>
      </trkpt>
      <trkpt lat="48.34195" lon="-2.81512">
        <ele>205</ele>
        <time>2020-07-02T15:32:15.000Z</time>
      </trkpt>
      <trkpt lat="48.34196" lon="-2.81529">
        <ele>205.1</ele>
        <time>2020-07-02T15:32:20.000Z</time>
      </trkpt>
      <trkpt lat="48.34196" lon="-2.81543">
        <ele>205.3</ele>
        <time>2020-07-02T15:32:24.000Z</time>
      </trkpt>
      <trkpt lat="48.34196" lon="-2.81559">
        <ele>205.4</ele>
        <time>2020-07-02T15:32:28.000Z</time>
      </trkpt>
      <trkpt lat="48.34196" lon="-2.81576">
        <ele>205.5</ele>
        <time>2020-07-02T15:32:32.000Z</time>
      </trkpt>
      <trkpt lat="48.34195" lon="-2.81593">
        <ele>205.7</ele>
        <time>2020-07-02T15:32:36.000Z</time>
      </trkpt>
      <trkpt lat="48.34191" lon="-2.81607">
        <ele>205.7</ele>
        <time>2020-07-02T15:32:39.000Z</time>
      </trkpt>
      <trkpt lat="48.34184" lon="-2.81616">
        <ele>205.8</ele>
        <time>2020-07-02T15:32:42.000Z</time>
      </trkpt>
      <trkpt lat="48.34174" lon="-2.81619">
        <ele>205.8</ele>
        <time>2020-07-02T15:32:45.000Z</time>
      </trkpt>
      <trkpt lat="48.34165" lon="-2.81614">
        <ele>205.8</ele>
        <time>2020-07-02T15:32:48.000Z</time>
      </trkpt>
      <trkpt lat="48.34156" lon="-2.81621">
        <ele>205.8</ele>
        <time>2020-07-02T15:32:52.000Z</time>
      </trkpt>
      <trkpt lat="48.34154" lon="-2.81637">
        <ele>205.8</ele>
        <time>2020-07-02T15:32:55.000Z</time>
      </trkpt>
      <trkpt lat="48.3416" lon="-2.81655">
        <ele>205.7</ele>
        <time>2020-07-02T15:32:58.000Z</time>
      </trkpt>
      <trkpt lat="48.34171" lon="-2.81668">
        <ele>205.6</ele>
        <time>2020-07-02T15:33:01.000Z</time>
      </trkpt>
      <trkpt lat="48.34181" lon="-2.81679">
        <ele>205.4</ele>
        <time>2020-07-02T15:33:04.000Z</time>
      </trkpt>
      <trkpt lat="48.34188" lon="-2.81689">
        <ele>205.4</ele>
        <time>2020-07-02T15:33:06.000Z</time>
      </trkpt>
      <trkpt lat="48.34196" lon="-2.81698">
        <ele>205.4</ele>
        <time>2020-07-02T15:33:08.000Z</time>
      </trkpt>
      <trkpt lat="48.34202" lon="-2.81709">
        <ele>205.4</ele>
        <time>2020-07-02T15:33:10.000Z</time>
      </trkpt>
      <trkpt lat="48.34208" lon="-2.81722">
        <ele>205.3</ele>
        <time>2020-07-02T15:33:12.000Z</time>
      </trkpt>
      <trkpt lat="48.34213" lon="-2.81737">
        <ele>205.3</ele>
        <time>2020-07-02T15:33:14.000Z</time>
      </trkpt>
      <trkpt lat="48.34216" lon="-2.81756">
        <ele>205.1</ele>
        <time>2020-07-02T15:33:16.000Z</time>
      </trkpt>
      <trkpt lat="48.3422" lon="-2.81775">
        <ele>204.8</ele>
        <time>2020-07-02T15:33:18.000Z</time>
      </trkpt>
      <trkpt lat="48.34223" lon="-2.81797">
        <ele>204.5</ele>
        <time>2020-07-02T15:33:20.000Z</time>
      </trkpt>
      <trkpt lat="48.34228" lon="-2.81818">
        <ele>204</ele>
        <time>2020-07-02T15:33:22.000Z</time>
      </trkpt>
      <trkpt lat="48.34236" lon="-2.81837">
        <ele>203.5</ele>
        <time>2020-07-02T15:33:24.000Z</time>
      </trkpt>
      <trkpt lat="48.34244" lon="-2.81856">
        <ele>202.9</ele>
        <time>2020-07-02T15:33:26.000Z</time>
      </trkpt>
      <trkpt lat="48.34253" lon="-2.81874">
        <ele>202.3</ele>
        <time>2020-07-02T15:33:28.000Z</time>
      </trkpt>
      <trkpt lat="48.34262" lon="-2.81891">
        <ele>201.6</ele>
        <time>2020-07-02T15:33:30.000Z</time>
      </trkpt>
      <trkpt lat="48.3427" lon="-2.81905">
        <ele>201</ele>
        <time>2020-07-02T15:33:32.000Z</time>
      </trkpt>
      <trkpt lat="48.34274" lon="-2.8192">
        <ele>200.3</ele>
        <time>2020-07-02T15:33:34.000Z</time>
      </trkpt>
      <trkpt lat="48.34277" lon="-2.81936">
        <ele>199.8</ele>
        <time>2020-07-02T15:33:36.000Z</time>
      </trkpt>
      <trkpt lat="48.34277" lon="-2.8195">
        <ele>199.3</ele>
        <time>2020-07-02T15:33:38.000Z</time>
      </trkpt>
      <trkpt lat="48.34274" lon="-2.81969">
        <ele>198.6</ele>
        <time>2020-07-02T15:33:41.000Z</time>
      </trkpt>
      <trkpt lat="48.34266" lon="-2.81983">
        <ele>198.2</ele>
        <time>2020-07-02T15:33:44.000Z</time>
      </trkpt>
      <trkpt lat="48.34258" lon="-2.81995">
        <ele>198</ele>
        <time>2020-07-02T15:33:47.000Z</time>
      </trkpt>
      <trkpt lat="48.34251" lon="-2.82008">
        <ele>197.9</ele>
        <time>2020-07-02T15:33:50.000Z</time>
      </trkpt>
      <trkpt lat="48.34243" lon="-2.82021">
        <ele>197.8</ele>
        <time>2020-07-02T15:33:53.000Z</time>
      </trkpt>
      <trkpt lat="48.34238" lon="-2.82034">
        <ele>197.8</ele>
        <time>2020-07-02T15:33:56.000Z</time>
      </trkpt>
      <trkpt lat="48.34235" lon="-2.82048">
        <ele>197.9</ele>
        <time>2020-07-02T15:33:59.000Z</time>
      </trkpt>
      <trkpt lat="48.34235" lon="-2.82062">
        <ele>198.2</ele>
        <time>2020-07-02T15:34:03.000Z</time>
      </trkpt>
      <trkpt lat="48.34235" lon="-2.82079">
        <ele>198.6</ele>
        <time>2020-07-02T15:34:08.000Z</time>
      </trkpt>
      <trkpt lat="48.34234" lon="-2.82093">
        <ele>199</ele>
        <time>2020-07-02T15:34:11.000Z</time>
      </trkpt>
      <trkpt lat="48.34226" lon="-2.82106">
        <ele>199.6</ele>
        <time>2020-07-02T15:34:15.000Z</time>
      </trkpt>
      <trkpt lat="48.34219" lon="-2.82122">
        <ele>200.3</ele>
        <time>2020-07-02T15:34:19.000Z</time>
      </trkpt>
      <trkpt lat="48.34214" lon="-2.82134">
        <ele>200.8</ele>
        <time>2020-07-02T15:34:22.000Z</time>
      </trkpt>
      <trkpt lat="48.34215" lon="-2.82149">
        <ele>201.5</ele>
        <time>2020-07-02T15:34:26.000Z</time>
      </trkpt>
      <trkpt lat="48.34211" lon="-2.82163">
        <ele>202.2</ele>
        <time>2020-07-02T15:34:29.000Z</time>
      </trkpt>
      <trkpt lat="48.34206" lon="-2.82176">
        <ele>202.9</ele>
        <time>2020-07-02T15:34:32.000Z</time>
      </trkpt>
      <trkpt lat="48.34201" lon="-2.82187">
        <ele>203.6</ele>
        <time>2020-07-02T15:34:35.000Z</time>
      </trkpt>
      <trkpt lat="48.34193" lon="-2.822">
        <ele>204.1</ele>
        <time>2020-07-02T15:34:38.000Z</time>
      </trkpt>
      <trkpt lat="48.34187" lon="-2.82211">
        <ele>204.6</ele>
        <time>2020-07-02T15:34:41.000Z</time>
      </trkpt>
      <trkpt lat="48.3418" lon="-2.82226">
        <ele>205.1</ele>
        <time>2020-07-02T15:34:45.000Z</time>
      </trkpt>
      <trkpt lat="48.34173" lon="-2.82238">
        <ele>205.7</ele>
        <time>2020-07-02T15:34:49.000Z</time>
      </trkpt>
      <trkpt lat="48.34168" lon="-2.82251">
        <ele>206.3</ele>
        <time>2020-07-02T15:34:53.000Z</time>
      </trkpt>
      <trkpt lat="48.34162" lon="-2.82264">
        <ele>206.9</ele>
        <time>2020-07-02T15:34:57.000Z</time>
      </trkpt>
      <trkpt lat="48.34157" lon="-2.82275">
        <ele>207.3</ele>
        <time>2020-07-02T15:35:00.000Z</time>
      </trkpt>
      <trkpt lat="48.34149" lon="-2.82289">
        <ele>207.9</ele>
        <time>2020-07-02T15:35:04.000Z</time>
      </trkpt>
      <trkpt lat="48.34143" lon="-2.82301">
        <ele>208.4</ele>
        <time>2020-07-02T15:35:07.000Z</time>
      </trkpt>
      <trkpt lat="48.34139" lon="-2.82315">
        <ele>208.9</ele>
        <time>2020-07-02T15:35:11.000Z</time>
      </trkpt>
      <trkpt lat="48.34137" lon="-2.82328">
        <ele>209.3</ele>
        <time>2020-07-02T15:35:14.000Z</time>
      </trkpt>
      <trkpt lat="48.34133" lon="-2.82342">
        <ele>209.7</ele>
        <time>2020-07-02T15:35:17.000Z</time>
      </trkpt>
      <trkpt lat="48.34131" lon="-2.82359">
        <ele>210.2</ele>
        <time>2020-07-02T15:35:21.000Z</time>
      </trkpt>
      <trkpt lat="48.34127" lon="-2.82375">
        <ele>210.6</ele>
        <time>2020-07-02T15:35:24.000Z</time>
      </trkpt>
      <trkpt lat="48.34123" lon="-2.82391">
        <ele>211</ele>
        <time>2020-07-02T15:35:28.000Z</time>
      </trkpt>
      <trkpt lat="48.3412" lon="-2.82404">
        <ele>211.4</ele>
        <time>2020-07-02T15:35:32.000Z</time>
      </trkpt>
      <trkpt lat="48.34119" lon="-2.8242">
        <ele>211.5</ele>
        <time>2020-07-02T15:35:35.000Z</time>
      </trkpt>
      <trkpt lat="48.34121" lon="-2.82436">
        <ele>211.6</ele>
        <time>2020-07-02T15:35:38.000Z</time>
      </trkpt>
      <trkpt lat="48.34113" lon="-2.82447">
        <ele>211.4</ele>
        <time>2020-07-02T15:35:42.000Z</time>
      </trkpt>
      <trkpt lat="48.34102" lon="-2.82448">
        <ele>211.2</ele>
        <time>2020-07-02T15:35:45.000Z</time>
      </trkpt>
      <trkpt lat="48.3409" lon="-2.82446">
        <ele>210.8</ele>
        <time>2020-07-02T15:35:48.000Z</time>
      </trkpt>
      <trkpt lat="48.34077" lon="-2.82443">
        <ele>210.4</ele>
        <time>2020-07-02T15:35:51.000Z</time>
      </trkpt>
      <trkpt lat="48.34067" lon="-2.82439">
        <ele>210.2</ele>
        <time>2020-07-02T15:35:54.000Z</time>
      </trkpt>
      <trkpt lat="48.34057" lon="-2.82437">
        <ele>210</ele>
        <time>2020-07-02T15:35:57.000Z</time>
      </trkpt>
      <trkpt lat="48.34047" lon="-2.82434">
        <ele>209.8</ele>
        <time>2020-07-02T15:36:00.000Z</time>
      </trkpt>
      <trkpt lat="48.34038" lon="-2.8243">
        <ele>209.8</ele>
        <time>2020-07-02T15:36:03.000Z</time>
      </trkpt>
      <trkpt lat="48.34029" lon="-2.82426">
        <ele>209.9</ele>
        <time>2020-07-02T15:36:06.000Z</time>
      </trkpt>
      <trkpt lat="48.34021" lon="-2.82421">
        <ele>210</ele>
        <time>2020-07-02T15:36:09.000Z</time>
      </trkpt>
      <trkpt lat="48.34012" lon="-2.82412">
        <ele>210.2</ele>
        <time>2020-07-02T15:36:13.000Z</time>
      </trkpt>
      <trkpt lat="48.34003" lon="-2.824">
        <ele>210.3</ele>
        <time>2020-07-02T15:36:17.000Z</time>
      </trkpt>
      <trkpt lat="48.33994" lon="-2.82387">
        <ele>210.3</ele>
        <time>2020-07-02T15:36:20.000Z</time>
      </trkpt>
      <trkpt lat="48.33988" lon="-2.82376">
        <ele>210.1</ele>
        <time>2020-07-02T15:36:22.000Z</time>
      </trkpt>
      <trkpt lat="48.33982" lon="-2.82365">
        <ele>209.9</ele>
        <time>2020-07-02T15:36:24.000Z</time>
      </trkpt>
      <trkpt lat="48.33976" lon="-2.82353">
        <ele>209.6</ele>
        <time>2020-07-02T15:36:26.000Z</time>
      </trkpt>
      <trkpt lat="48.33969" lon="-2.82338">
        <ele>209.1</ele>
        <time>2020-07-02T15:36:28.000Z</time>
      </trkpt>
      <trkpt lat="48.33961" lon="-2.82323">
        <ele>208.6</ele>
        <time>2020-07-02T15:36:30.000Z</time>
      </trkpt>
      <trkpt lat="48.33952" lon="-2.82307">
        <ele>208.1</ele>
        <time>2020-07-02T15:36:32.000Z</time>
      </trkpt>
      <trkpt lat="48.3394" lon="-2.82292">
        <ele>207.6</ele>
        <time>2020-07-02T15:36:34.000Z</time>
      </trkpt>
      <trkpt lat="48.33928" lon="-2.8228">
        <ele>207.1</ele>
        <time>2020-07-02T15:36:36.000Z</time>
      </trkpt>
      <trkpt lat="48.33916" lon="-2.82273">
        <ele>206.6</ele>
        <time>2020-07-02T15:36:38.000Z</time>
      </trkpt>
      <trkpt lat="48.33906" lon="-2.82268">
        <ele>206.3</ele>
        <time>2020-07-02T15:36:40.000Z</time>
      </trkpt>
      <trkpt lat="48.33896" lon="-2.82264">
        <ele>206</ele>
        <time>2020-07-02T15:36:42.000Z</time>
      </trkpt>
      <trkpt lat="48.33887" lon="-2.82261">
        <ele>205.9</ele>
        <time>2020-07-02T15:36:44.000Z</time>
      </trkpt>
      <trkpt lat="48.33878" lon="-2.82257">
        <ele>205.9</ele>
        <time>2020-07-02T15:36:46.000Z</time>
      </trkpt>
      <trkpt lat="48.33869" lon="-2.82253">
        <ele>206.1</ele>
        <time>2020-07-02T15:36:48.000Z</time>
      </trkpt>
      <trkpt lat="48.33856" lon="-2.82248">
        <ele>206.4</ele>
        <time>2020-07-02T15:36:51.000Z</time>
      </trkpt>
      <trkpt lat="48.33847" lon="-2.82244">
        <ele>206.8</ele>
        <time>2020-07-02T15:36:53.000Z</time>
      </trkpt>
      <trkpt lat="48.33835" lon="-2.82238">
        <ele>207.2</ele>
        <time>2020-07-02T15:36:56.000Z</time>
      </trkpt>
      <trkpt lat="48.33823" lon="-2.82232">
        <ele>207.9</ele>
        <time>2020-07-02T15:36:59.000Z</time>
      </trkpt>
      <trkpt lat="48.33811" lon="-2.82226">
        <ele>208.5</ele>
        <time>2020-07-02T15:37:02.000Z</time>
      </trkpt>
      <trkpt lat="48.33799" lon="-2.82221">
        <ele>209</ele>
        <time>2020-07-02T15:37:05.000Z</time>
      </trkpt>
      <trkpt lat="48.33787" lon="-2.82217">
        <ele>209.5</ele>
        <time>2020-07-02T15:37:08.000Z</time>
      </trkpt>
      <trkpt lat="48.33775" lon="-2.82214">
        <ele>209.9</ele>
        <time>2020-07-02T15:37:11.000Z</time>
      </trkpt>
      <trkpt lat="48.33762" lon="-2.82215">
        <ele>210.2</ele>
        <time>2020-07-02T15:37:14.000Z</time>
      </trkpt>
      <trkpt lat="48.3375" lon="-2.82218">
        <ele>210.6</ele>
        <time>2020-07-02T15:37:17.000Z</time>
      </trkpt>
      <trkpt lat="48.33738" lon="-2.82225">
        <ele>210.9</ele>
        <time>2020-07-02T15:37:20.000Z</time>
      </trkpt>
      <trkpt lat="48.33726" lon="-2.82235">
        <ele>211.2</ele>
        <time>2020-07-02T15:37:23.000Z</time>
      </trkpt>
      <trkpt lat="48.33715" lon="-2.82245">
        <ele>211.5</ele>
        <time>2020-07-02T15:37:26.000Z</time>
      </trkpt>
      <trkpt lat="48.33704" lon="-2.82255">
        <ele>211.6</ele>
        <time>2020-07-02T15:37:29.000Z</time>
      </trkpt>
      <trkpt lat="48.33693" lon="-2.82266">
        <ele>211.9</ele>
        <time>2020-07-02T15:37:32.000Z</time>
      </trkpt>
      <trkpt lat="48.33685" lon="-2.82273">
        <ele>212</ele>
        <time>2020-07-02T15:37:34.000Z</time>
      </trkpt>
      <trkpt lat="48.33677" lon="-2.8228">
        <ele>212.1</ele>
        <time>2020-07-02T15:37:36.000Z</time>
      </trkpt>
      <trkpt lat="48.33669" lon="-2.82287">
        <ele>212.2</ele>
        <time>2020-07-02T15:37:38.000Z</time>
      </trkpt>
      <trkpt lat="48.33658" lon="-2.82296">
        <ele>212.4</ele>
        <time>2020-07-02T15:37:41.000Z</time>
      </trkpt>
      <trkpt lat="48.33646" lon="-2.82302">
        <ele>212.6</ele>
        <time>2020-07-02T15:37:44.000Z</time>
      </trkpt>
      <trkpt lat="48.33636" lon="-2.82303">
        <ele>212.7</ele>
        <time>2020-07-02T15:37:46.000Z</time>
      </trkpt>
      <trkpt lat="48.33624" lon="-2.82301">
        <ele>213.1</ele>
        <time>2020-07-02T15:37:49.000Z</time>
      </trkpt>
      <trkpt lat="48.33612" lon="-2.82297">
        <ele>213.4</ele>
        <time>2020-07-02T15:37:52.000Z</time>
      </trkpt>
      <trkpt lat="48.336" lon="-2.82291">
        <ele>213.6</ele>
        <time>2020-07-02T15:37:55.000Z</time>
      </trkpt>
      <trkpt lat="48.33589" lon="-2.82285">
        <ele>213.9</ele>
        <time>2020-07-02T15:37:58.000Z</time>
      </trkpt>
      <trkpt lat="48.33577" lon="-2.8228">
        <ele>214.1</ele>
        <time>2020-07-02T15:38:01.000Z</time>
      </trkpt>
      <trkpt lat="48.33566" lon="-2.82274">
        <ele>214.3</ele>
        <time>2020-07-02T15:38:04.000Z</time>
      </trkpt>
      <trkpt lat="48.33555" lon="-2.82268">
        <ele>214.7</ele>
        <time>2020-07-02T15:38:07.000Z</time>
      </trkpt>
      <trkpt lat="48.33544" lon="-2.82262">
        <ele>215.1</ele>
        <time>2020-07-02T15:38:10.000Z</time>
      </trkpt>
      <trkpt lat="48.33533" lon="-2.82257">
        <ele>215.6</ele>
        <time>2020-07-02T15:38:13.000Z</time>
      </trkpt>
      <trkpt lat="48.33522" lon="-2.82251">
        <ele>216</ele>
        <time>2020-07-02T15:38:16.000Z</time>
      </trkpt>
      <trkpt lat="48.33512" lon="-2.82246">
        <ele>216.4</ele>
        <time>2020-07-02T15:38:19.000Z</time>
      </trkpt>
      <trkpt lat="48.33502" lon="-2.8224">
        <ele>216.8</ele>
        <time>2020-07-02T15:38:22.000Z</time>
      </trkpt>
      <trkpt lat="48.33494" lon="-2.82235">
        <ele>217.3</ele>
        <time>2020-07-02T15:38:25.000Z</time>
      </trkpt>
      <trkpt lat="48.33484" lon="-2.82231">
        <ele>218</ele>
        <time>2020-07-02T15:38:29.000Z</time>
      </trkpt>
      <trkpt lat="48.33475" lon="-2.82234">
        <ele>219</ele>
        <time>2020-07-02T15:38:35.000Z</time>
      </trkpt>
      <trkpt lat="48.33472" lon="-2.82248">
        <ele>219.6</ele>
        <time>2020-07-02T15:38:40.000Z</time>
      </trkpt>
      <trkpt lat="48.33468" lon="-2.82263">
        <ele>220.3</ele>
        <time>2020-07-02T15:38:46.000Z</time>
      </trkpt>
      <trkpt lat="48.33467" lon="-2.82279">
        <ele>220.7</ele>
        <time>2020-07-02T15:38:51.000Z</time>
      </trkpt>
      <trkpt lat="48.33464" lon="-2.82294">
        <ele>221.3</ele>
        <time>2020-07-02T15:38:56.000Z</time>
      </trkpt>
      <trkpt lat="48.33463" lon="-2.82311">
        <ele>221.7</ele>
        <time>2020-07-02T15:39:00.000Z</time>
      </trkpt>
      <trkpt lat="48.33462" lon="-2.82326">
        <ele>222.1</ele>
        <time>2020-07-02T15:39:04.000Z</time>
      </trkpt>
      <trkpt lat="48.33459" lon="-2.82341">
        <ele>222.4</ele>
        <time>2020-07-02T15:39:08.000Z</time>
      </trkpt>
      <trkpt lat="48.33456" lon="-2.82355">
        <ele>222.7</ele>
        <time>2020-07-02T15:39:12.000Z</time>
      </trkpt>
      <trkpt lat="48.33453" lon="-2.8237">
        <ele>223.1</ele>
        <time>2020-07-02T15:39:16.000Z</time>
      </trkpt>
      <trkpt lat="48.3345" lon="-2.82387">
        <ele>223.4</ele>
        <time>2020-07-02T15:39:19.000Z</time>
      </trkpt>
      <trkpt lat="48.3345" lon="-2.82404">
        <ele>223.9</ele>
        <time>2020-07-02T15:39:24.000Z</time>
      </trkpt>
      <trkpt lat="48.3345" lon="-2.82418">
        <ele>224.3</ele>
        <time>2020-07-02T15:39:28.000Z</time>
      </trkpt>
      <trkpt lat="48.33449" lon="-2.82433">
        <ele>224.8</ele>
        <time>2020-07-02T15:39:32.000Z</time>
      </trkpt>
      <trkpt lat="48.33446" lon="-2.82446">
        <ele>225.3</ele>
        <time>2020-07-02T15:39:36.000Z</time>
      </trkpt>
      <trkpt lat="48.33444" lon="-2.82461">
        <ele>226.1</ele>
        <time>2020-07-02T15:39:42.000Z</time>
      </trkpt>
      <trkpt lat="48.33441" lon="-2.82477">
        <ele>227</ele>
        <time>2020-07-02T15:39:48.000Z</time>
      </trkpt>
      <trkpt lat="48.33438" lon="-2.82491">
        <ele>227.6</ele>
        <time>2020-07-02T15:39:52.000Z</time>
      </trkpt>
      <trkpt lat="48.33436" lon="-2.82507">
        <ele>228.5</ele>
        <time>2020-07-02T15:39:57.000Z</time>
      </trkpt>
      <trkpt lat="48.33433" lon="-2.82521">
        <ele>229.4</ele>
        <time>2020-07-02T15:40:02.000Z</time>
      </trkpt>
      <trkpt lat="48.33428" lon="-2.82536">
        <ele>230.5</ele>
        <time>2020-07-02T15:40:08.000Z</time>
      </trkpt>
      <trkpt lat="48.33427" lon="-2.82552">
        <ele>231.5</ele>
        <time>2020-07-02T15:40:14.000Z</time>
      </trkpt>
      <trkpt lat="48.33424" lon="-2.82565">
        <ele>232.1</ele>
        <time>2020-07-02T15:40:18.000Z</time>
      </trkpt>
      <trkpt lat="48.33416" lon="-2.82574">
        <ele>233.5</ele>
        <time>2020-07-02T15:40:25.000Z</time>
      </trkpt>
      <trkpt lat="48.33407" lon="-2.82575">
        <ele>234.9</ele>
        <time>2020-07-02T15:40:32.000Z</time>
      </trkpt>
      <trkpt lat="48.33396" lon="-2.82577">
        <ele>236</ele>
        <time>2020-07-02T15:40:39.000Z</time>
      </trkpt>
      <trkpt lat="48.33387" lon="-2.82573">
        <ele>236.8</ele>
        <time>2020-07-02T15:40:45.000Z</time>
      </trkpt>
      <trkpt lat="48.33377" lon="-2.82575">
        <ele>237.5</ele>
        <time>2020-07-02T15:40:50.000Z</time>
      </trkpt>
      <trkpt lat="48.33368" lon="-2.82577">
        <ele>238.3</ele>
        <time>2020-07-02T15:40:55.000Z</time>
      </trkpt>
      <trkpt lat="48.33365" lon="-2.82604">
        <ele>238.9</ele>
        <time>2020-07-02T15:41:39.668Z</time>
      </trkpt>
      <trkpt lat="48.33361" lon="-2.8262">
        <ele>240.5</ele>
        <time>2020-07-02T15:42:09.828Z</time>
      </trkpt>
      <trkpt lat="48.33358" lon="-2.82634">
        <ele>241.7</ele>
        <time>2020-07-02T15:42:33.736Z</time>
      </trkpt>
      <trkpt lat="48.3334" lon="-2.82649">
        <ele>243.7</ele>
        <time>2020-07-02T15:43:24.987Z</time>
      </trkpt>
      <trkpt lat="48.33306" lon="-2.82689">
        <ele>235.3</ele>
        <time>2020-07-02T15:45:12.087Z</time>
      </trkpt>
      <trkpt lat="48.3329" lon="-2.82763">
        <ele>240.3</ele>
        <time>2020-07-02T15:47:22.000Z</time>
      </trkpt>
      <trkpt lat="48.33238" lon="-2.82761">
        <ele>246.1</ele>
        <time>2020-07-02T15:47:27.777Z</time>
      </trkpt>
      <trkpt lat="48.33239" lon="-2.82837">
        <ele>248.5</ele>
        <time>2020-07-02T15:47:33.410Z</time>
      </trkpt>
      <trkpt lat="48.33222" lon="-2.82833">
        <ele>247.6</ele>
        <time>2020-07-02T15:47:35.300Z</time>
      </trkpt>
      <trkpt lat="48.33178" lon="-2.8275">
        <ele>244.3</ele>
        <time>2020-07-02T15:47:43.160Z</time>
      </trkpt>
      <trkpt lat="48.33171" lon="-2.82788">
        <ele>244.6</ele>
        <time>2020-07-02T15:47:46.069Z</time>
      </trkpt>
    </trkseg>
  </trk>
</gpx>